<?xml version="1.0" encoding="UTF-8" standalone="no" ?>
<gpx xmlns="http://www.topografix.com/GPX/1/1" xmlns:xsi="http://www.w3.org/2001/XMLSchema-instance" xsi:schemaLocation="http://www.topografix.com/GPX/1/1 http://www.topografix.com/GPX/1/1/gpx.xsd" version="1.1" creator="VisuGPX - https://www.visugpx.com">
  <metadata>
    <name>gendarmes 2014</name>
    <desc><![CDATA[gendarmes 2014]]></desc>
  </metadata>
  <trk>
    <name><![CDATA[gendarmes 2014_1]]></name>
    <trkseg>
      <trkpt lat="45.95018" lon="1.39074">
        <ele>387.12219238281</ele>
        <time>2014-06-08T06:28:58Z</time>
      </trkpt>
      <trkpt lat="45.95018" lon="1.39074">
        <ele>387.14324951172</ele>
        <time>2014-06-08T06:28:59Z</time>
      </trkpt>
      <trkpt lat="45.95025" lon="1.39074">
        <ele>387.35488891602</ele>
        <time>2014-06-08T06:29:04Z</time>
      </trkpt>
      <trkpt lat="45.95038" lon="1.39071">
        <ele>387.7109375</ele>
        <time>2014-06-08T06:29:09Z</time>
      </trkpt>
      <trkpt lat="45.95043" lon="1.3907">
        <ele>387.85214233398</ele>
        <time>2014-06-08T06:29:11Z</time>
      </trkpt>
      <trkpt lat="45.95046" lon="1.3907">
        <ele>387.92526245117</ele>
        <time>2014-06-08T06:29:12Z</time>
      </trkpt>
      <trkpt lat="45.95051" lon="1.39069">
        <ele>388.07653808594</ele>
        <time>2014-06-08T06:29:14Z</time>
      </trkpt>
      <trkpt lat="45.95054" lon="1.39068">
        <ele>388.14401245117</ele>
        <time>2014-06-08T06:29:15Z</time>
      </trkpt>
      <trkpt lat="45.95062" lon="1.39066">
        <ele>388.35556030273</ele>
        <time>2014-06-08T06:29:18Z</time>
      </trkpt>
      <trkpt lat="45.9508" lon="1.39061">
        <ele>388.82638549805</ele>
        <time>2014-06-08T06:29:25Z</time>
      </trkpt>
      <trkpt lat="45.95092" lon="1.39057">
        <ele>389.42221069336</ele>
        <time>2014-06-08T06:29:30Z</time>
      </trkpt>
      <trkpt lat="45.95108" lon="1.39049">
        <ele>390.28521728516</ele>
        <time>2014-06-08T06:29:37Z</time>
      </trkpt>
      <trkpt lat="45.95124" lon="1.39042">
        <ele>391.14828491211</ele>
        <time>2014-06-08T06:29:44Z</time>
      </trkpt>
      <trkpt lat="45.95137" lon="1.39035">
        <ele>391.94467163086</ele>
        <time>2014-06-08T06:29:50Z</time>
      </trkpt>
      <trkpt lat="45.9515" lon="1.39027">
        <ele>392.61810302734</ele>
        <time>2014-06-08T06:29:56Z</time>
      </trkpt>
      <trkpt lat="45.95162" lon="1.3902">
        <ele>393.34689331055</ele>
        <time>2014-06-08T06:30:02Z</time>
      </trkpt>
      <trkpt lat="45.95175" lon="1.39013">
        <ele>394.27865600586</ele>
        <time>2014-06-08T06:30:09Z</time>
      </trkpt>
      <trkpt lat="45.95188" lon="1.39016">
        <ele>395.69012451172</ele>
        <time>2014-06-08T06:30:16Z</time>
      </trkpt>
      <trkpt lat="45.952" lon="1.39024">
        <ele>397.15719604492</ele>
        <time>2014-06-08T06:30:22Z</time>
      </trkpt>
      <trkpt lat="45.95211" lon="1.39034">
        <ele>398.64422607422</ele>
        <time>2014-06-08T06:30:28Z</time>
      </trkpt>
      <trkpt lat="45.95219" lon="1.39044">
        <ele>399.94775390625</ele>
        <time>2014-06-08T06:30:34Z</time>
      </trkpt>
      <trkpt lat="45.95223" lon="1.39049">
        <ele>400.60775756836</ele>
        <time>2014-06-08T06:30:37Z</time>
      </trkpt>
      <trkpt lat="45.95227" lon="1.39066">
        <ele>401.72802734375</ele>
        <time>2014-06-08T06:30:45Z</time>
      </trkpt>
      <trkpt lat="45.95225" lon="1.39088">
        <ele>402.45446777344</ele>
        <time>2014-06-08T06:30:52Z</time>
      </trkpt>
      <trkpt lat="45.9522" lon="1.39114">
        <ele>402.96780395508</ele>
        <time>2014-06-08T06:31:00Z</time>
      </trkpt>
      <trkpt lat="45.95214" lon="1.39137">
        <ele>403.29083251953</ele>
        <time>2014-06-08T06:31:08Z</time>
      </trkpt>
      <trkpt lat="45.95206" lon="1.39157">
        <ele>403.32669067383</ele>
        <time>2014-06-08T06:31:15Z</time>
      </trkpt>
      <trkpt lat="45.95197" lon="1.39173">
        <ele>403.19705200195</ele>
        <time>2014-06-08T06:31:21Z</time>
      </trkpt>
      <trkpt lat="45.95187" lon="1.39191">
        <ele>403.07977294922</ele>
        <time>2014-06-08T06:31:28Z</time>
      </trkpt>
      <trkpt lat="45.95177" lon="1.39209">
        <ele>402.93524169922</ele>
        <time>2014-06-08T06:31:35Z</time>
      </trkpt>
      <trkpt lat="45.95166" lon="1.39227">
        <ele>402.82473754883</ele>
        <time>2014-06-08T06:31:42Z</time>
      </trkpt>
      <trkpt lat="45.95156" lon="1.39238">
        <ele>402.80337524414</ele>
        <time>2014-06-08T06:31:47Z</time>
      </trkpt>
      <trkpt lat="45.95144" lon="1.3925">
        <ele>402.64004516602</ele>
        <time>2014-06-08T06:31:53Z</time>
      </trkpt>
      <trkpt lat="45.95132" lon="1.3926">
        <ele>402.21597290039</ele>
        <time>2014-06-08T06:31:58Z</time>
      </trkpt>
      <trkpt lat="45.95118" lon="1.3927">
        <ele>401.70755004883</ele>
        <time>2014-06-08T06:32:04Z</time>
      </trkpt>
      <trkpt lat="45.95106" lon="1.39277">
        <ele>401.24176025391</ele>
        <time>2014-06-08T06:32:09Z</time>
      </trkpt>
      <trkpt lat="45.9509" lon="1.39278">
        <ele>400.39965820312</ele>
        <time>2014-06-08T06:32:15Z</time>
      </trkpt>
      <trkpt lat="45.95077" lon="1.39272">
        <ele>399.91732788086</ele>
        <time>2014-06-08T06:32:20Z</time>
      </trkpt>
      <trkpt lat="45.95061" lon="1.39258">
        <ele>399.61566162109</ele>
        <time>2014-06-08T06:32:27Z</time>
      </trkpt>
      <trkpt lat="45.95045" lon="1.39245">
        <ele>399.12399291992</ele>
        <time>2014-06-08T06:32:34Z</time>
      </trkpt>
      <trkpt lat="45.95029" lon="1.39231">
        <ele>398.24792480469</ele>
        <time>2014-06-08T06:32:41Z</time>
      </trkpt>
      <trkpt lat="45.95016" lon="1.39216">
        <ele>397.12774658203</ele>
        <time>2014-06-08T06:32:48Z</time>
      </trkpt>
      <trkpt lat="45.95007" lon="1.39204">
        <ele>396.1672668457</ele>
        <time>2014-06-08T06:32:53Z</time>
      </trkpt>
      <trkpt lat="45.94993" lon="1.39188">
        <ele>394.50909423828</ele>
        <time>2014-06-08T06:33:01Z</time>
      </trkpt>
      <trkpt lat="45.94985" lon="1.39179">
        <ele>393.51171875</ele>
        <time>2014-06-08T06:33:06Z</time>
      </trkpt>
      <trkpt lat="45.94977" lon="1.39164">
        <ele>392.00531005859</ele>
        <time>2014-06-08T06:33:11Z</time>
      </trkpt>
      <trkpt lat="45.94972" lon="1.39147">
        <ele>390.61752319336</ele>
        <time>2014-06-08T06:33:16Z</time>
      </trkpt>
      <trkpt lat="45.94963" lon="1.39122">
        <ele>388.70724487305</ele>
        <time>2014-06-08T06:33:23Z</time>
      </trkpt>
      <trkpt lat="45.94958" lon="1.39109">
        <ele>387.64617919922</ele>
        <time>2014-06-08T06:33:27Z</time>
      </trkpt>
      <trkpt lat="45.94946" lon="1.39082">
        <ele>385.61987304688</ele>
        <time>2014-06-08T06:33:35Z</time>
      </trkpt>
      <trkpt lat="45.94938" lon="1.3906">
        <ele>384.35025024414</ele>
        <time>2014-06-08T06:33:41Z</time>
      </trkpt>
      <trkpt lat="45.9493" lon="1.39035">
        <ele>382.88739013672</ele>
        <time>2014-06-08T06:33:48Z</time>
      </trkpt>
      <trkpt lat="45.94925" lon="1.39007">
        <ele>381.42834472656</ele>
        <time>2014-06-08T06:33:55Z</time>
      </trkpt>
      <trkpt lat="45.94919" lon="1.3898">
        <ele>381.49761962891</ele>
        <time>2014-06-08T06:34:02Z</time>
      </trkpt>
      <trkpt lat="45.94915" lon="1.38954">
        <ele>382.15814208984</ele>
        <time>2014-06-08T06:34:09Z</time>
      </trkpt>
      <trkpt lat="45.94912" lon="1.3894">
        <ele>382.6015625</ele>
        <time>2014-06-08T06:34:13Z</time>
      </trkpt>
      <trkpt lat="45.9491" lon="1.38922">
        <ele>383.19812011719</ele>
        <time>2014-06-08T06:34:18Z</time>
      </trkpt>
      <trkpt lat="45.94907" lon="1.38907">
        <ele>384.16830444336</ele>
        <time>2014-06-08T06:34:22Z</time>
      </trkpt>
      <trkpt lat="45.94905" lon="1.38891">
        <ele>385.36709594727</ele>
        <time>2014-06-08T06:34:27Z</time>
      </trkpt>
      <trkpt lat="45.94904" lon="1.3888">
        <ele>386.15942382812</ele>
        <time>2014-06-08T06:34:31Z</time>
      </trkpt>
      <trkpt lat="45.94904" lon="1.38871">
        <ele>386.82995605469</ele>
        <time>2014-06-08T06:34:35Z</time>
      </trkpt>
      <trkpt lat="45.94909" lon="1.38858">
        <ele>387.55657958984</ele>
        <time>2014-06-08T06:34:41Z</time>
      </trkpt>
      <trkpt lat="45.94913" lon="1.38851">
        <ele>387.89981079102</ele>
        <time>2014-06-08T06:34:44Z</time>
      </trkpt>
      <trkpt lat="45.94918" lon="1.38833">
        <ele>388.94299316406</ele>
        <time>2014-06-08T06:34:50Z</time>
      </trkpt>
      <trkpt lat="45.94927" lon="1.38808">
        <ele>389.50610351562</ele>
        <time>2014-06-08T06:34:58Z</time>
      </trkpt>
      <trkpt lat="45.94931" lon="1.38792">
        <ele>390.06649780273</ele>
        <time>2014-06-08T06:35:03Z</time>
      </trkpt>
      <trkpt lat="45.94938" lon="1.38773">
        <ele>390.71920776367</ele>
        <time>2014-06-08T06:35:09Z</time>
      </trkpt>
      <trkpt lat="45.94949" lon="1.38763">
        <ele>390.98654174805</ele>
        <time>2014-06-08T06:35:14Z</time>
      </trkpt>
      <trkpt lat="45.94966" lon="1.38761">
        <ele>390.79574584961</ele>
        <time>2014-06-08T06:35:20Z</time>
      </trkpt>
      <trkpt lat="45.94982" lon="1.38765">
        <ele>390.25366210938</ele>
        <time>2014-06-08T06:35:26Z</time>
      </trkpt>
      <trkpt lat="45.94994" lon="1.38772">
        <ele>389.55822753906</ele>
        <time>2014-06-08T06:35:31Z</time>
      </trkpt>
      <trkpt lat="45.95011" lon="1.38783">
        <ele>388.69653320312</ele>
        <time>2014-06-08T06:35:38Z</time>
      </trkpt>
      <trkpt lat="45.95025" lon="1.38794">
        <ele>388.13549804688</ele>
        <time>2014-06-08T06:35:44Z</time>
      </trkpt>
      <trkpt lat="45.95041" lon="1.38808">
        <ele>387.48770141602</ele>
        <time>2014-06-08T06:35:51Z</time>
      </trkpt>
      <trkpt lat="45.95055" lon="1.38823">
        <ele>386.88195800781</ele>
        <time>2014-06-08T06:35:58Z</time>
      </trkpt>
      <trkpt lat="45.95063" lon="1.38838">
        <ele>386.51864624023</ele>
        <time>2014-06-08T06:36:03Z</time>
      </trkpt>
      <trkpt lat="45.95065" lon="1.38849">
        <ele>386.61129760742</ele>
        <time>2014-06-08T06:36:08Z</time>
      </trkpt>
      <trkpt lat="45.95065" lon="1.38853">
        <ele>386.63592529297</ele>
        <time>2014-06-08T06:36:11Z</time>
      </trkpt>
      <trkpt lat="45.95066" lon="1.38859">
        <ele>386.68966674805</ele>
        <time>2014-06-08T06:36:14Z</time>
      </trkpt>
      <trkpt lat="45.9507" lon="1.38874">
        <ele>386.91403198242</ele>
        <time>2014-06-08T06:36:18Z</time>
      </trkpt>
      <trkpt lat="45.95072" lon="1.38885">
        <ele>387.10061645508</ele>
        <time>2014-06-08T06:36:21Z</time>
      </trkpt>
      <trkpt lat="45.95076" lon="1.38911">
        <ele>387.50592041016</ele>
        <time>2014-06-08T06:36:28Z</time>
      </trkpt>
      <trkpt lat="45.95081" lon="1.38926">
        <ele>387.61947631836</ele>
        <time>2014-06-08T06:36:33Z</time>
      </trkpt>
      <trkpt lat="45.95089" lon="1.38936">
        <ele>387.95596313477</ele>
        <time>2014-06-08T06:36:38Z</time>
      </trkpt>
      <trkpt lat="45.9509" lon="1.38938">
        <ele>388.01449584961</ele>
        <time>2014-06-08T06:36:39Z</time>
      </trkpt>
      <trkpt lat="45.95103" lon="1.38954">
        <ele>388.66577148438</ele>
        <time>2014-06-08T06:36:46Z</time>
      </trkpt>
      <trkpt lat="45.95116" lon="1.38967">
        <ele>389.41253662109</ele>
        <time>2014-06-08T06:36:53Z</time>
      </trkpt>
      <trkpt lat="45.95129" lon="1.38979">
        <ele>390.17593383789</ele>
        <time>2014-06-08T06:36:59Z</time>
      </trkpt>
      <trkpt lat="45.95141" lon="1.3899">
        <ele>391.01281738281</ele>
        <time>2014-06-08T06:37:06Z</time>
      </trkpt>
      <trkpt lat="45.95153" lon="1.39001">
        <ele>391.84457397461</ele>
        <time>2014-06-08T06:37:12Z</time>
      </trkpt>
      <trkpt lat="45.95162" lon="1.39008">
        <ele>392.90295410156</ele>
        <time>2014-06-08T06:37:17Z</time>
      </trkpt>
      <trkpt lat="45.95173" lon="1.39012">
        <ele>394.03601074219</ele>
        <time>2014-06-08T06:37:22Z</time>
      </trkpt>
      <trkpt lat="45.95186" lon="1.39007">
        <ele>395.15414428711</ele>
        <time>2014-06-08T06:37:28Z</time>
      </trkpt>
      <trkpt lat="45.95195" lon="1.38994">
        <ele>395.68359375</ele>
        <time>2014-06-08T06:37:33Z</time>
      </trkpt>
      <trkpt lat="45.952" lon="1.38974">
        <ele>396.134765625</ele>
        <time>2014-06-08T06:37:39Z</time>
      </trkpt>
      <trkpt lat="45.95199" lon="1.38957">
        <ele>396.03460693359</ele>
        <time>2014-06-08T06:37:44Z</time>
      </trkpt>
      <trkpt lat="45.95193" lon="1.38941">
        <ele>395.54483032227</ele>
        <time>2014-06-08T06:37:49Z</time>
      </trkpt>
      <trkpt lat="45.95181" lon="1.38923">
        <ele>394.81732177734</ele>
        <time>2014-06-08T06:37:56Z</time>
      </trkpt>
      <trkpt lat="45.9517" lon="1.38909">
        <ele>394.21270751953</ele>
        <time>2014-06-08T06:38:02Z</time>
      </trkpt>
      <trkpt lat="45.95158" lon="1.38892">
        <ele>393.34539794922</ele>
        <time>2014-06-08T06:38:09Z</time>
      </trkpt>
      <trkpt lat="45.95148" lon="1.38876">
        <ele>392.55337524414</ele>
        <time>2014-06-08T06:38:15Z</time>
      </trkpt>
      <trkpt lat="45.95138" lon="1.38858">
        <ele>391.70690917969</ele>
        <time>2014-06-08T06:38:21Z</time>
      </trkpt>
      <trkpt lat="45.95129" lon="1.38834">
        <ele>390.84317016602</ele>
        <time>2014-06-08T06:38:28Z</time>
      </trkpt>
      <trkpt lat="45.95122" lon="1.38813">
        <ele>390.79104614258</ele>
        <time>2014-06-08T06:38:34Z</time>
      </trkpt>
      <trkpt lat="45.95111" lon="1.3879">
        <ele>390.74850463867</ele>
        <time>2014-06-08T06:38:41Z</time>
      </trkpt>
      <trkpt lat="45.95098" lon="1.38772">
        <ele>390.67803955078</ele>
        <time>2014-06-08T06:38:48Z</time>
      </trkpt>
      <trkpt lat="45.95087" lon="1.38757">
        <ele>390.833984375</ele>
        <time>2014-06-08T06:38:54Z</time>
      </trkpt>
      <trkpt lat="45.95074" lon="1.38741">
        <ele>392.09265136719</ele>
        <time>2014-06-08T06:39:01Z</time>
      </trkpt>
      <trkpt lat="45.9506" lon="1.38725">
        <ele>393.94418334961</ele>
        <time>2014-06-08T06:39:08Z</time>
      </trkpt>
      <trkpt lat="45.95049" lon="1.38711">
        <ele>395.41073608398</ele>
        <time>2014-06-08T06:39:14Z</time>
      </trkpt>
      <trkpt lat="45.95035" lon="1.38692">
        <ele>397.02334594727</ele>
        <time>2014-06-08T06:39:22Z</time>
      </trkpt>
      <trkpt lat="45.95023" lon="1.38676">
        <ele>398.17053222656</ele>
        <time>2014-06-08T06:39:29Z</time>
      </trkpt>
      <trkpt lat="45.95012" lon="1.38663">
        <ele>398.80163574219</ele>
        <time>2014-06-08T06:39:35Z</time>
      </trkpt>
      <trkpt lat="45.95004" lon="1.38652">
        <ele>399.05786132812</ele>
        <time>2014-06-08T06:39:40Z</time>
      </trkpt>
      <trkpt lat="45.94991" lon="1.38636">
        <ele>399.48327636719</ele>
        <time>2014-06-08T06:39:47Z</time>
      </trkpt>
      <trkpt lat="45.94981" lon="1.38622">
        <ele>399.86260986328</ele>
        <time>2014-06-08T06:39:53Z</time>
      </trkpt>
      <trkpt lat="45.94968" lon="1.38606">
        <ele>400.20053100586</ele>
        <time>2014-06-08T06:40:00Z</time>
      </trkpt>
      <trkpt lat="45.94958" lon="1.38588">
        <ele>400.70291137695</ele>
        <time>2014-06-08T06:40:07Z</time>
      </trkpt>
      <trkpt lat="45.94952" lon="1.38568">
        <ele>400.20138549805</ele>
        <time>2014-06-08T06:40:13Z</time>
      </trkpt>
      <trkpt lat="45.94953" lon="1.3855">
        <ele>399.62582397461</ele>
        <time>2014-06-08T06:40:18Z</time>
      </trkpt>
      <trkpt lat="45.94956" lon="1.38523">
        <ele>398.99655151367</ele>
        <time>2014-06-08T06:40:25Z</time>
      </trkpt>
      <trkpt lat="45.94959" lon="1.38504">
        <ele>398.71044921875</ele>
        <time>2014-06-08T06:40:30Z</time>
      </trkpt>
      <trkpt lat="45.94962" lon="1.38485">
        <ele>398.52841186523</ele>
        <time>2014-06-08T06:40:35Z</time>
      </trkpt>
      <trkpt lat="45.94965" lon="1.38466">
        <ele>398.35620117188</ele>
        <time>2014-06-08T06:40:40Z</time>
      </trkpt>
      <trkpt lat="45.94967" lon="1.38443">
        <ele>398.10726928711</ele>
        <time>2014-06-08T06:40:46Z</time>
      </trkpt>
      <trkpt lat="45.9497" lon="1.38418">
        <ele>397.83776855469</ele>
        <time>2014-06-08T06:40:53Z</time>
      </trkpt>
      <trkpt lat="45.94973" lon="1.38398">
        <ele>398.14938354492</ele>
        <time>2014-06-08T06:40:59Z</time>
      </trkpt>
      <trkpt lat="45.94975" lon="1.38377">
        <ele>398.38696289062</ele>
        <time>2014-06-08T06:41:05Z</time>
      </trkpt>
      <trkpt lat="45.94978" lon="1.38357">
        <ele>398.68881225586</ele>
        <time>2014-06-08T06:41:11Z</time>
      </trkpt>
      <trkpt lat="45.94983" lon="1.38333">
        <ele>398.97409057617</ele>
        <time>2014-06-08T06:41:18Z</time>
      </trkpt>
      <trkpt lat="45.94986" lon="1.38312">
        <ele>399.07257080078</ele>
        <time>2014-06-08T06:41:24Z</time>
      </trkpt>
      <trkpt lat="45.94987" lon="1.3829">
        <ele>399.04144287109</ele>
        <time>2014-06-08T06:41:30Z</time>
      </trkpt>
      <trkpt lat="45.94981" lon="1.38274">
        <ele>398.78729248047</ele>
        <time>2014-06-08T06:41:35Z</time>
      </trkpt>
      <trkpt lat="45.9497" lon="1.38275">
        <ele>398.51806640625</ele>
        <time>2014-06-08T06:41:39Z</time>
      </trkpt>
      <trkpt lat="45.94956" lon="1.38286">
        <ele>397.98501586914</ele>
        <time>2014-06-08T06:41:45Z</time>
      </trkpt>
      <trkpt lat="45.94942" lon="1.38297">
        <ele>397.31692504883</ele>
        <time>2014-06-08T06:41:51Z</time>
      </trkpt>
      <trkpt lat="45.94929" lon="1.38308">
        <ele>396.44918823242</ele>
        <time>2014-06-08T06:41:57Z</time>
      </trkpt>
      <trkpt lat="45.94915" lon="1.38318">
        <ele>395.57315063477</ele>
        <time>2014-06-08T06:42:03Z</time>
      </trkpt>
      <trkpt lat="45.94902" lon="1.38324">
        <ele>395.72998046875</ele>
        <time>2014-06-08T06:42:09Z</time>
      </trkpt>
      <trkpt lat="45.94885" lon="1.38326">
        <ele>396.12594604492</ele>
        <time>2014-06-08T06:42:16Z</time>
      </trkpt>
      <trkpt lat="45.94874" lon="1.38322">
        <ele>396.66546630859</ele>
        <time>2014-06-08T06:42:21Z</time>
      </trkpt>
      <trkpt lat="45.94863" lon="1.38314">
        <ele>397.42929077148</ele>
        <time>2014-06-08T06:42:27Z</time>
      </trkpt>
      <trkpt lat="45.94856" lon="1.38299">
        <ele>398.61276245117</ele>
        <time>2014-06-08T06:42:32Z</time>
      </trkpt>
      <trkpt lat="45.94847" lon="1.38284">
        <ele>399.943359375</ele>
        <time>2014-06-08T06:42:38Z</time>
      </trkpt>
      <trkpt lat="45.94839" lon="1.38274">
        <ele>400.98342895508</ele>
        <time>2014-06-08T06:42:43Z</time>
      </trkpt>
      <trkpt lat="45.94837" lon="1.38269">
        <ele>401.40582275391</ele>
        <time>2014-06-08T06:42:45Z</time>
      </trkpt>
      <trkpt lat="45.94828" lon="1.3826">
        <ele>402.95928955078</ele>
        <time>2014-06-08T06:42:50Z</time>
      </trkpt>
      <trkpt lat="45.94821" lon="1.3825">
        <ele>404.60531616211</ele>
        <time>2014-06-08T06:42:55Z</time>
      </trkpt>
      <trkpt lat="45.94813" lon="1.38232">
        <ele>405.65661621094</ele>
        <time>2014-06-08T06:43:02Z</time>
      </trkpt>
      <trkpt lat="45.94807" lon="1.38206">
        <ele>406.60668945312</ele>
        <time>2014-06-08T06:43:08Z</time>
      </trkpt>
      <trkpt lat="45.94801" lon="1.38188">
        <ele>407.68997192383</ele>
        <time>2014-06-08T06:43:13Z</time>
      </trkpt>
      <trkpt lat="45.94799" lon="1.38171">
        <ele>408.14022827148</ele>
        <time>2014-06-08T06:43:18Z</time>
      </trkpt>
      <trkpt lat="45.94794" lon="1.38156">
        <ele>408.96365356445</ele>
        <time>2014-06-08T06:43:23Z</time>
      </trkpt>
      <trkpt lat="45.94789" lon="1.38137">
        <ele>409.42169189453</ele>
        <time>2014-06-08T06:43:30Z</time>
      </trkpt>
      <trkpt lat="45.94781" lon="1.38126">
        <ele>410.29315185547</ele>
        <time>2014-06-08T06:43:35Z</time>
      </trkpt>
      <trkpt lat="45.94775" lon="1.38115">
        <ele>410.99633789062</ele>
        <time>2014-06-08T06:43:41Z</time>
      </trkpt>
      <trkpt lat="45.94768" lon="1.38104">
        <ele>411.59545898438</ele>
        <time>2014-06-08T06:43:46Z</time>
      </trkpt>
      <trkpt lat="45.94759" lon="1.38095">
        <ele>412.36529541016</ele>
        <time>2014-06-08T06:43:51Z</time>
      </trkpt>
      <trkpt lat="45.94749" lon="1.38086">
        <ele>413.13009643555</ele>
        <time>2014-06-08T06:43:57Z</time>
      </trkpt>
      <trkpt lat="45.94739" lon="1.38078">
        <ele>413.21994018555</ele>
        <time>2014-06-08T06:44:03Z</time>
      </trkpt>
      <trkpt lat="45.94728" lon="1.38069">
        <ele>413.27401733398</ele>
        <time>2014-06-08T06:44:09Z</time>
      </trkpt>
      <trkpt lat="45.9472" lon="1.38062">
        <ele>413.30792236328</ele>
        <time>2014-06-08T06:44:15Z</time>
      </trkpt>
      <trkpt lat="45.94709" lon="1.38052">
        <ele>413.35726928711</ele>
        <time>2014-06-08T06:44:21Z</time>
      </trkpt>
      <trkpt lat="45.94703" lon="1.38045">
        <ele>413.33197021484</ele>
        <time>2014-06-08T06:44:25Z</time>
      </trkpt>
      <trkpt lat="45.94688" lon="1.38036">
        <ele>413.49633789062</ele>
        <time>2014-06-08T06:44:32Z</time>
      </trkpt>
      <trkpt lat="45.94674" lon="1.38028">
        <ele>413.74780273438</ele>
        <time>2014-06-08T06:44:38Z</time>
      </trkpt>
      <trkpt lat="45.94664" lon="1.38019">
        <ele>413.64840698242</ele>
        <time>2014-06-08T06:44:43Z</time>
      </trkpt>
      <trkpt lat="45.94658" lon="1.38005">
        <ele>413.150390625</ele>
        <time>2014-06-08T06:44:48Z</time>
      </trkpt>
      <trkpt lat="45.94652" lon="1.37991">
        <ele>412.65991210938</ele>
        <time>2014-06-08T06:44:53Z</time>
      </trkpt>
      <trkpt lat="45.94646" lon="1.37977">
        <ele>412.21490478516</ele>
        <time>2014-06-08T06:44:58Z</time>
      </trkpt>
      <trkpt lat="45.94637" lon="1.37958">
        <ele>411.86926269531</ele>
        <time>2014-06-08T06:45:04Z</time>
      </trkpt>
      <trkpt lat="45.94628" lon="1.37936">
        <ele>411.70791625977</ele>
        <time>2014-06-08T06:45:11Z</time>
      </trkpt>
      <trkpt lat="45.94622" lon="1.37919">
        <ele>411.73645019531</ele>
        <time>2014-06-08T06:45:16Z</time>
      </trkpt>
      <trkpt lat="45.94619" lon="1.379">
        <ele>411.94528198242</ele>
        <time>2014-06-08T06:45:22Z</time>
      </trkpt>
      <trkpt lat="45.94615" lon="1.37884">
        <ele>412.2614440918</ele>
        <time>2014-06-08T06:45:27Z</time>
      </trkpt>
      <trkpt lat="45.94612" lon="1.37868">
        <ele>412.49423217773</ele>
        <time>2014-06-08T06:45:32Z</time>
      </trkpt>
      <trkpt lat="45.94609" lon="1.37853">
        <ele>412.71282958984</ele>
        <time>2014-06-08T06:45:37Z</time>
      </trkpt>
      <trkpt lat="45.94604" lon="1.37836">
        <ele>413.01193237305</ele>
        <time>2014-06-08T06:45:42Z</time>
      </trkpt>
      <trkpt lat="45.94595" lon="1.37821">
        <ele>413.74957275391</ele>
        <time>2014-06-08T06:45:47Z</time>
      </trkpt>
      <trkpt lat="45.94584" lon="1.37805">
        <ele>414.64709472656</ele>
        <time>2014-06-08T06:45:53Z</time>
      </trkpt>
      <trkpt lat="45.94573" lon="1.37789">
        <ele>414.05615234375</ele>
        <time>2014-06-08T06:45:59Z</time>
      </trkpt>
      <trkpt lat="45.94562" lon="1.37772">
        <ele>413.32705688477</ele>
        <time>2014-06-08T06:46:05Z</time>
      </trkpt>
      <trkpt lat="45.9455" lon="1.37751">
        <ele>412.41445922852</ele>
        <time>2014-06-08T06:46:12Z</time>
      </trkpt>
      <trkpt lat="45.94542" lon="1.37737">
        <ele>411.56976318359</ele>
        <time>2014-06-08T06:46:17Z</time>
      </trkpt>
      <trkpt lat="45.94532" lon="1.37726">
        <ele>410.45739746094</ele>
        <time>2014-06-08T06:46:22Z</time>
      </trkpt>
      <trkpt lat="45.94523" lon="1.37711">
        <ele>409.50982666016</ele>
        <time>2014-06-08T06:46:27Z</time>
      </trkpt>
      <trkpt lat="45.9452" lon="1.37697">
        <ele>409.18023681641</ele>
        <time>2014-06-08T06:46:31Z</time>
      </trkpt>
      <trkpt lat="45.9452" lon="1.37693">
        <ele>409.18023681641</ele>
        <time>2014-06-08T06:46:32Z</time>
      </trkpt>
      <trkpt lat="45.94529" lon="1.37672">
        <ele>410.12780761719</ele>
        <time>2014-06-08T06:46:39Z</time>
      </trkpt>
      <trkpt lat="45.94534" lon="1.37656">
        <ele>410.28536987305</ele>
        <time>2014-06-08T06:46:44Z</time>
      </trkpt>
      <trkpt lat="45.94535" lon="1.37653">
        <ele>410.17303466797</ele>
        <time>2014-06-08T06:46:45Z</time>
      </trkpt>
      <trkpt lat="45.94542" lon="1.37639">
        <ele>410.31072998047</ele>
        <time>2014-06-08T06:46:50Z</time>
      </trkpt>
      <trkpt lat="45.94545" lon="1.37628">
        <ele>410.24847412109</ele>
        <time>2014-06-08T06:46:53Z</time>
      </trkpt>
      <trkpt lat="45.94556" lon="1.37609">
        <ele>410.47842407227</ele>
        <time>2014-06-08T06:46:59Z</time>
      </trkpt>
      <trkpt lat="45.94562" lon="1.37596">
        <ele>410.52062988281</ele>
        <time>2014-06-08T06:47:04Z</time>
      </trkpt>
      <trkpt lat="45.94563" lon="1.37592">
        <ele>410.4582824707</ele>
        <time>2014-06-08T06:47:05Z</time>
      </trkpt>
      <trkpt lat="45.94566" lon="1.37577">
        <ele>410.15798950195</ele>
        <time>2014-06-08T06:47:09Z</time>
      </trkpt>
      <trkpt lat="45.94571" lon="1.37558">
        <ele>410.20922851562</ele>
        <time>2014-06-08T06:47:15Z</time>
      </trkpt>
      <trkpt lat="45.94578" lon="1.37547">
        <ele>410.66864013672</ele>
        <time>2014-06-08T06:47:20Z</time>
      </trkpt>
      <trkpt lat="45.94591" lon="1.37536">
        <ele>411.09066772461</ele>
        <time>2014-06-08T06:47:27Z</time>
      </trkpt>
      <trkpt lat="45.946" lon="1.37526">
        <ele>411.15118408203</ele>
        <time>2014-06-08T06:47:33Z</time>
      </trkpt>
      <trkpt lat="45.94611" lon="1.37518">
        <ele>411.36389160156</ele>
        <time>2014-06-08T06:47:38Z</time>
      </trkpt>
      <trkpt lat="45.9462" lon="1.37509">
        <ele>411.49887084961</ele>
        <time>2014-06-08T06:47:43Z</time>
      </trkpt>
      <trkpt lat="45.94633" lon="1.37499">
        <ele>411.84576416016</ele>
        <time>2014-06-08T06:47:49Z</time>
      </trkpt>
      <trkpt lat="45.94644" lon="1.3749">
        <ele>412.5426940918</ele>
        <time>2014-06-08T06:47:55Z</time>
      </trkpt>
      <trkpt lat="45.94654" lon="1.37481">
        <ele>413.22506713867</ele>
        <time>2014-06-08T06:48:00Z</time>
      </trkpt>
      <trkpt lat="45.94668" lon="1.37472">
        <ele>413.95822143555</ele>
        <time>2014-06-08T06:48:06Z</time>
      </trkpt>
      <trkpt lat="45.94679" lon="1.37468">
        <ele>413.83389282227</ele>
        <time>2014-06-08T06:48:11Z</time>
      </trkpt>
      <trkpt lat="45.94688" lon="1.37469">
        <ele>413.52294921875</ele>
        <time>2014-06-08T06:48:14Z</time>
      </trkpt>
      <trkpt lat="45.94706" lon="1.37483">
        <ele>412.4111328125</ele>
        <time>2014-06-08T06:48:21Z</time>
      </trkpt>
      <trkpt lat="45.94717" lon="1.37486">
        <ele>411.90127563477</ele>
        <time>2014-06-08T06:48:27Z</time>
      </trkpt>
      <trkpt lat="45.9472" lon="1.37474">
        <ele>412.39657592773</ele>
        <time>2014-06-08T06:48:32Z</time>
      </trkpt>
      <trkpt lat="45.9472" lon="1.37468">
        <ele>412.71859741211</ele>
        <time>2014-06-08T06:48:34Z</time>
      </trkpt>
      <trkpt lat="45.94716" lon="1.37457">
        <ele>413.40481567383</ele>
        <time>2014-06-08T06:48:39Z</time>
      </trkpt>
      <trkpt lat="45.9472" lon="1.37439">
        <ele>414.23565673828</ele>
        <time>2014-06-08T06:48:45Z</time>
      </trkpt>
      <trkpt lat="45.94727" lon="1.37432">
        <ele>414.48300170898</ele>
        <time>2014-06-08T06:48:49Z</time>
      </trkpt>
      <trkpt lat="45.94734" lon="1.37409">
        <ele>415.76690673828</ele>
        <time>2014-06-08T06:48:57Z</time>
      </trkpt>
      <trkpt lat="45.94735" lon="1.37402">
        <ele>416.28332519531</ele>
        <time>2014-06-08T06:49:00Z</time>
      </trkpt>
      <trkpt lat="45.9474" lon="1.37395">
        <ele>416.8405456543</ele>
        <time>2014-06-08T06:49:05Z</time>
      </trkpt>
      <trkpt lat="45.94748" lon="1.37397">
        <ele>416.6875</ele>
        <time>2014-06-08T06:49:10Z</time>
      </trkpt>
      <trkpt lat="45.9475" lon="1.37397">
        <ele>416.66162109375</ele>
        <time>2014-06-08T06:49:11Z</time>
      </trkpt>
      <trkpt lat="45.94763" lon="1.37396">
        <ele>416.77813720703</ele>
        <time>2014-06-08T06:49:17Z</time>
      </trkpt>
      <trkpt lat="45.94775" lon="1.37402">
        <ele>416.47320556641</ele>
        <time>2014-06-08T06:49:23Z</time>
      </trkpt>
      <trkpt lat="45.94788" lon="1.37412">
        <ele>416.1194152832</ele>
        <time>2014-06-08T06:49:28Z</time>
      </trkpt>
      <trkpt lat="45.94794" lon="1.37419">
        <ele>415.92266845703</ele>
        <time>2014-06-08T06:49:31Z</time>
      </trkpt>
      <trkpt lat="45.9481" lon="1.37433">
        <ele>415.34301757812</ele>
        <time>2014-06-08T06:49:38Z</time>
      </trkpt>
      <trkpt lat="45.94823" lon="1.37447">
        <ele>414.64157104492</ele>
        <time>2014-06-08T06:49:44Z</time>
      </trkpt>
      <trkpt lat="45.94827" lon="1.37454">
        <ele>414.23403930664</ele>
        <time>2014-06-08T06:49:47Z</time>
      </trkpt>
      <trkpt lat="45.94838" lon="1.37468">
        <ele>413.36340332031</ele>
        <time>2014-06-08T06:49:54Z</time>
      </trkpt>
      <trkpt lat="45.94851" lon="1.37477">
        <ele>412.8630065918</ele>
        <time>2014-06-08T06:49:59Z</time>
      </trkpt>
      <trkpt lat="45.94862" lon="1.37486">
        <ele>412.34487915039</ele>
        <time>2014-06-08T06:50:05Z</time>
      </trkpt>
      <trkpt lat="45.94873" lon="1.37493">
        <ele>411.97323608398</ele>
        <time>2014-06-08T06:50:10Z</time>
      </trkpt>
      <trkpt lat="45.94884" lon="1.37498">
        <ele>411.71716308594</ele>
        <time>2014-06-08T06:50:16Z</time>
      </trkpt>
      <trkpt lat="45.94894" lon="1.375">
        <ele>411.72512817383</ele>
        <time>2014-06-08T06:50:21Z</time>
      </trkpt>
      <trkpt lat="45.94903" lon="1.375">
        <ele>411.81622314453</ele>
        <time>2014-06-08T06:50:25Z</time>
      </trkpt>
      <trkpt lat="45.94925" lon="1.37503">
        <ele>411.74774169922</ele>
        <time>2014-06-08T06:50:32Z</time>
      </trkpt>
      <trkpt lat="45.94937" lon="1.37503">
        <ele>411.57257080078</ele>
        <time>2014-06-08T06:50:38Z</time>
      </trkpt>
      <trkpt lat="45.94941" lon="1.37503">
        <ele>411.51617431641</ele>
        <time>2014-06-08T06:50:40Z</time>
      </trkpt>
      <trkpt lat="45.94957" lon="1.37504">
        <ele>411.31240844727</ele>
        <time>2014-06-08T06:50:46Z</time>
      </trkpt>
      <trkpt lat="45.94972" lon="1.37507">
        <ele>410.91967773438</ele>
        <time>2014-06-08T06:50:51Z</time>
      </trkpt>
      <trkpt lat="45.94986" lon="1.37509">
        <ele>410.54467773438</ele>
        <time>2014-06-08T06:50:56Z</time>
      </trkpt>
      <trkpt lat="45.95002" lon="1.37513">
        <ele>410.02935791016</ele>
        <time>2014-06-08T06:51:02Z</time>
      </trkpt>
      <trkpt lat="45.95018" lon="1.37515">
        <ele>409.37002563477</ele>
        <time>2014-06-08T06:51:08Z</time>
      </trkpt>
      <trkpt lat="45.9503" lon="1.37518">
        <ele>408.86343383789</ele>
        <time>2014-06-08T06:51:13Z</time>
      </trkpt>
      <trkpt lat="45.95047" lon="1.37519">
        <ele>408.31100463867</ele>
        <time>2014-06-08T06:51:19Z</time>
      </trkpt>
      <trkpt lat="45.95052" lon="1.3752">
        <ele>408.14007568359</ele>
        <time>2014-06-08T06:51:21Z</time>
      </trkpt>
      <trkpt lat="45.9506" lon="1.37523">
        <ele>407.7707824707</ele>
        <time>2014-06-08T06:51:26Z</time>
      </trkpt>
      <trkpt lat="45.95062" lon="1.37524">
        <ele>407.67907714844</ele>
        <time>2014-06-08T06:51:27Z</time>
      </trkpt>
      <trkpt lat="45.95076" lon="1.37526">
        <ele>407.24670410156</ele>
        <time>2014-06-08T06:51:32Z</time>
      </trkpt>
      <trkpt lat="45.95093" lon="1.37525">
        <ele>407.16748046875</ele>
        <time>2014-06-08T06:51:38Z</time>
      </trkpt>
      <trkpt lat="45.95108" lon="1.37519">
        <ele>407.35217285156</ele>
        <time>2014-06-08T06:51:44Z</time>
      </trkpt>
      <trkpt lat="45.95118" lon="1.3752">
        <ele>407.35934448242</ele>
        <time>2014-06-08T06:51:49Z</time>
      </trkpt>
      <trkpt lat="45.95132" lon="1.37531">
        <ele>407.38345336914</ele>
        <time>2014-06-08T06:51:56Z</time>
      </trkpt>
      <trkpt lat="45.95149" lon="1.37538">
        <ele>407.64038085938</ele>
        <time>2014-06-08T06:52:02Z</time>
      </trkpt>
      <trkpt lat="45.9516" lon="1.37546">
        <ele>407.95761108398</ele>
        <time>2014-06-08T06:52:07Z</time>
      </trkpt>
      <trkpt lat="45.95162" lon="1.37548">
        <ele>408.03884887695</ele>
        <time>2014-06-08T06:52:08Z</time>
      </trkpt>
      <trkpt lat="45.95167" lon="1.37552">
        <ele>408.24877929688</ele>
        <time>2014-06-08T06:52:11Z</time>
      </trkpt>
      <trkpt lat="45.95182" lon="1.37564">
        <ele>408.58404541016</ele>
        <time>2014-06-08T06:52:18Z</time>
      </trkpt>
      <trkpt lat="45.95195" lon="1.3757">
        <ele>408.73461914062</ele>
        <time>2014-06-08T06:52:23Z</time>
      </trkpt>
      <trkpt lat="45.95209" lon="1.37574">
        <ele>408.82922363281</ele>
        <time>2014-06-08T06:52:28Z</time>
      </trkpt>
      <trkpt lat="45.95221" lon="1.3758">
        <ele>408.95220947266</ele>
        <time>2014-06-08T06:52:33Z</time>
      </trkpt>
      <trkpt lat="45.95235" lon="1.37592">
        <ele>408.83529663086</ele>
        <time>2014-06-08T06:52:39Z</time>
      </trkpt>
      <trkpt lat="45.95247" lon="1.37608">
        <ele>408.66888427734</ele>
        <time>2014-06-08T06:52:45Z</time>
      </trkpt>
      <trkpt lat="45.95259" lon="1.37627">
        <ele>408.81549072266</ele>
        <time>2014-06-08T06:52:52Z</time>
      </trkpt>
      <trkpt lat="45.95267" lon="1.37642">
        <ele>408.92520141602</ele>
        <time>2014-06-08T06:52:57Z</time>
      </trkpt>
      <trkpt lat="45.95276" lon="1.37661">
        <ele>408.99688720703</ele>
        <time>2014-06-08T06:53:03Z</time>
      </trkpt>
      <trkpt lat="45.95285" lon="1.37684">
        <ele>408.90103149414</ele>
        <time>2014-06-08T06:53:10Z</time>
      </trkpt>
      <trkpt lat="45.95288" lon="1.37706">
        <ele>408.47940063477</ele>
        <time>2014-06-08T06:53:16Z</time>
      </trkpt>
      <trkpt lat="45.95287" lon="1.37733">
        <ele>407.83255004883</ele>
        <time>2014-06-08T06:53:23Z</time>
      </trkpt>
      <trkpt lat="45.95287" lon="1.37751">
        <ele>407.42684936523</ele>
        <time>2014-06-08T06:53:28Z</time>
      </trkpt>
      <trkpt lat="45.95287" lon="1.37774">
        <ele>407.06140136719</ele>
        <time>2014-06-08T06:53:34Z</time>
      </trkpt>
      <trkpt lat="45.95289" lon="1.37801">
        <ele>406.5989074707</ele>
        <time>2014-06-08T06:53:41Z</time>
      </trkpt>
      <trkpt lat="45.95291" lon="1.37824">
        <ele>406.17758178711</ele>
        <time>2014-06-08T06:53:47Z</time>
      </trkpt>
      <trkpt lat="45.95294" lon="1.37851">
        <ele>405.64050292969</ele>
        <time>2014-06-08T06:53:54Z</time>
      </trkpt>
      <trkpt lat="45.95298" lon="1.37872">
        <ele>405.25625610352</ele>
        <time>2014-06-08T06:54:00Z</time>
      </trkpt>
      <trkpt lat="45.953" lon="1.37888">
        <ele>405.01791381836</ele>
        <time>2014-06-08T06:54:05Z</time>
      </trkpt>
      <trkpt lat="45.95304" lon="1.37903">
        <ele>404.81799316406</ele>
        <time>2014-06-08T06:54:10Z</time>
      </trkpt>
      <trkpt lat="45.95305" lon="1.37906">
        <ele>404.79162597656</ele>
        <time>2014-06-08T06:54:11Z</time>
      </trkpt>
      <trkpt lat="45.95308" lon="1.37924">
        <ele>404.6184387207</ele>
        <time>2014-06-08T06:54:17Z</time>
      </trkpt>
      <trkpt lat="45.95312" lon="1.37939">
        <ele>404.53625488281</ele>
        <time>2014-06-08T06:54:22Z</time>
      </trkpt>
      <trkpt lat="45.95316" lon="1.37964">
        <ele>404.41937255859</ele>
        <time>2014-06-08T06:54:28Z</time>
      </trkpt>
      <trkpt lat="45.95316" lon="1.37981">
        <ele>404.30844116211</ele>
        <time>2014-06-08T06:54:32Z</time>
      </trkpt>
      <trkpt lat="45.95318" lon="1.38009">
        <ele>404.54376220703</ele>
        <time>2014-06-08T06:54:40Z</time>
      </trkpt>
      <trkpt lat="45.9532" lon="1.3803">
        <ele>405.28280639648</ele>
        <time>2014-06-08T06:54:46Z</time>
      </trkpt>
      <trkpt lat="45.95322" lon="1.38055">
        <ele>406.15423583984</ele>
        <time>2014-06-08T06:54:53Z</time>
      </trkpt>
      <trkpt lat="45.95324" lon="1.38078">
        <ele>407.04125976562</ele>
        <time>2014-06-08T06:55:00Z</time>
      </trkpt>
      <trkpt lat="45.95325" lon="1.38098">
        <ele>407.72058105469</ele>
        <time>2014-06-08T06:55:06Z</time>
      </trkpt>
      <trkpt lat="45.95327" lon="1.38119">
        <ele>408.39178466797</ele>
        <time>2014-06-08T06:55:12Z</time>
      </trkpt>
      <trkpt lat="45.95329" lon="1.3814">
        <ele>409.11041259766</ele>
        <time>2014-06-08T06:55:18Z</time>
      </trkpt>
      <trkpt lat="45.95324" lon="1.38155">
        <ele>409.19592285156</ele>
        <time>2014-06-08T06:55:23Z</time>
      </trkpt>
      <trkpt lat="45.95314" lon="1.38162">
        <ele>408.88906860352</ele>
        <time>2014-06-08T06:55:28Z</time>
      </trkpt>
      <trkpt lat="45.95302" lon="1.38168">
        <ele>408.51782226562</ele>
        <time>2014-06-08T06:55:33Z</time>
      </trkpt>
      <trkpt lat="45.9529" lon="1.38174">
        <ele>408.16586303711</ele>
        <time>2014-06-08T06:55:38Z</time>
      </trkpt>
      <trkpt lat="45.95288" lon="1.38176">
        <ele>408.14236450195</ele>
        <time>2014-06-08T06:55:39Z</time>
      </trkpt>
      <trkpt lat="45.95275" lon="1.38183">
        <ele>408.0439453125</ele>
        <time>2014-06-08T06:55:45Z</time>
      </trkpt>
      <trkpt lat="45.95264" lon="1.3819">
        <ele>408.24639892578</ele>
        <time>2014-06-08T06:55:51Z</time>
      </trkpt>
      <trkpt lat="45.95253" lon="1.38201">
        <ele>408.88385009766</ele>
        <time>2014-06-08T06:55:57Z</time>
      </trkpt>
      <trkpt lat="45.95242" lon="1.3821">
        <ele>409.49752807617</ele>
        <time>2014-06-08T06:56:03Z</time>
      </trkpt>
      <trkpt lat="45.9523" lon="1.38222">
        <ele>410.35205078125</ele>
        <time>2014-06-08T06:56:08Z</time>
      </trkpt>
      <trkpt lat="45.95216" lon="1.38235">
        <ele>411.26879882812</ele>
        <time>2014-06-08T06:56:15Z</time>
      </trkpt>
      <trkpt lat="45.95204" lon="1.38245">
        <ele>412.03244018555</ele>
        <time>2014-06-08T06:56:22Z</time>
      </trkpt>
      <trkpt lat="45.95194" lon="1.38256">
        <ele>412.44781494141</ele>
        <time>2014-06-08T06:56:28Z</time>
      </trkpt>
      <trkpt lat="45.95187" lon="1.38269">
        <ele>412.71197509766</ele>
        <time>2014-06-08T06:56:34Z</time>
      </trkpt>
      <trkpt lat="45.95178" lon="1.38287">
        <ele>413.23126220703</ele>
        <time>2014-06-08T06:56:40Z</time>
      </trkpt>
      <trkpt lat="45.95177" lon="1.3829">
        <ele>413.32577514648</ele>
        <time>2014-06-08T06:56:41Z</time>
      </trkpt>
      <trkpt lat="45.95178" lon="1.38304">
        <ele>413.71643066406</ele>
        <time>2014-06-08T06:56:47Z</time>
      </trkpt>
      <trkpt lat="45.95177" lon="1.38313">
        <ele>414.01602172852</ele>
        <time>2014-06-08T06:56:50Z</time>
      </trkpt>
      <trkpt lat="45.95173" lon="1.38336">
        <ele>414.72637939453</ele>
        <time>2014-06-08T06:56:57Z</time>
      </trkpt>
      <trkpt lat="45.95171" lon="1.38359">
        <ele>414.47137451172</ele>
        <time>2014-06-08T06:57:03Z</time>
      </trkpt>
      <trkpt lat="45.95171" lon="1.38378">
        <ele>414.16442871094</ele>
        <time>2014-06-08T06:57:08Z</time>
      </trkpt>
      <trkpt lat="45.95174" lon="1.38401">
        <ele>413.60296630859</ele>
        <time>2014-06-08T06:57:14Z</time>
      </trkpt>
      <trkpt lat="45.95174" lon="1.38428">
        <ele>412.44610595703</ele>
        <time>2014-06-08T06:57:21Z</time>
      </trkpt>
      <trkpt lat="45.95174" lon="1.38452">
        <ele>410.84829711914</ele>
        <time>2014-06-08T06:57:27Z</time>
      </trkpt>
      <trkpt lat="45.95179" lon="1.38477">
        <ele>408.64614868164</ele>
        <time>2014-06-08T06:57:34Z</time>
      </trkpt>
      <trkpt lat="45.95181" lon="1.38494">
        <ele>407.16213989258</ele>
        <time>2014-06-08T06:57:39Z</time>
      </trkpt>
      <trkpt lat="45.95185" lon="1.38522">
        <ele>405.1907043457</ele>
        <time>2014-06-08T06:57:47Z</time>
      </trkpt>
      <trkpt lat="45.95185" lon="1.38542">
        <ele>403.88137817383</ele>
        <time>2014-06-08T06:57:53Z</time>
      </trkpt>
      <trkpt lat="45.95189" lon="1.3856">
        <ele>402.51507568359</ele>
        <time>2014-06-08T06:57:58Z</time>
      </trkpt>
      <trkpt lat="45.95189" lon="1.38579">
        <ele>401.41073608398</ele>
        <time>2014-06-08T06:58:03Z</time>
      </trkpt>
      <trkpt lat="45.95188" lon="1.38594">
        <ele>400.37539672852</ele>
        <time>2014-06-08T06:58:08Z</time>
      </trkpt>
      <trkpt lat="45.95183" lon="1.38618">
        <ele>398.95596313477</ele>
        <time>2014-06-08T06:58:15Z</time>
      </trkpt>
      <trkpt lat="45.9518" lon="1.38641">
        <ele>397.40545654297</ele>
        <time>2014-06-08T06:58:22Z</time>
      </trkpt>
      <trkpt lat="45.95176" lon="1.38653">
        <ele>396.66104125977</ele>
        <time>2014-06-08T06:58:26Z</time>
      </trkpt>
      <trkpt lat="45.95164" lon="1.38669">
        <ele>396.12106323242</ele>
        <time>2014-06-08T06:58:32Z</time>
      </trkpt>
      <trkpt lat="45.95154" lon="1.38683">
        <ele>396.24813842773</ele>
        <time>2014-06-08T06:58:37Z</time>
      </trkpt>
      <trkpt lat="45.95142" lon="1.38698">
        <ele>396.03521728516</ele>
        <time>2014-06-08T06:58:43Z</time>
      </trkpt>
      <trkpt lat="45.95135" lon="1.38707">
        <ele>395.6780090332</ele>
        <time>2014-06-08T06:58:47Z</time>
      </trkpt>
      <trkpt lat="45.95127" lon="1.38712">
        <ele>395.4225769043</ele>
        <time>2014-06-08T06:58:51Z</time>
      </trkpt>
      <trkpt lat="45.95116" lon="1.38722">
        <ele>394.70004272461</ele>
        <time>2014-06-08T06:58:56Z</time>
      </trkpt>
      <trkpt lat="45.95104" lon="1.38732">
        <ele>393.61901855469</ele>
        <time>2014-06-08T06:59:01Z</time>
      </trkpt>
      <trkpt lat="45.95091" lon="1.38742">
        <ele>392.30749511719</ele>
        <time>2014-06-08T06:59:06Z</time>
      </trkpt>
      <trkpt lat="45.95092" lon="1.38758">
        <ele>390.99899291992</ele>
        <time>2014-06-08T06:59:11Z</time>
      </trkpt>
      <trkpt lat="45.951" lon="1.38774">
        <ele>390.71752929688</ele>
        <time>2014-06-08T06:59:16Z</time>
      </trkpt>
      <trkpt lat="45.95108" lon="1.38786">
        <ele>390.68716430664</ele>
        <time>2014-06-08T06:59:20Z</time>
      </trkpt>
      <trkpt lat="45.95118" lon="1.38801">
        <ele>390.83834838867</ele>
        <time>2014-06-08T06:59:25Z</time>
      </trkpt>
      <trkpt lat="45.95126" lon="1.38817">
        <ele>390.93099975586</ele>
        <time>2014-06-08T06:59:30Z</time>
      </trkpt>
      <trkpt lat="45.95131" lon="1.38835">
        <ele>390.9719543457</ele>
        <time>2014-06-08T06:59:36Z</time>
      </trkpt>
      <trkpt lat="45.95134" lon="1.38852">
        <ele>391.31256103516</ele>
        <time>2014-06-08T06:59:42Z</time>
      </trkpt>
      <trkpt lat="45.95134" lon="1.38855">
        <ele>391.3229675293</ele>
        <time>2014-06-08T06:59:43Z</time>
      </trkpt>
      <trkpt lat="45.95135" lon="1.38856">
        <ele>391.4541015625</ele>
        <time>2014-06-08T06:59:45Z</time>
      </trkpt>
      <trkpt lat="45.95138" lon="1.38862">
        <ele>391.69183349609</ele>
        <time>2014-06-08T06:59:52Z</time>
      </trkpt>
      <trkpt lat="45.95143" lon="1.38868">
        <ele>392.10858154297</ele>
        <time>2014-06-08T06:59:58Z</time>
      </trkpt>
      <trkpt lat="45.9515" lon="1.38881">
        <ele>392.68344116211</ele>
        <time>2014-06-08T07:00:03Z</time>
      </trkpt>
      <trkpt lat="45.95157" lon="1.38894">
        <ele>393.26260375977</ele>
        <time>2014-06-08T07:00:08Z</time>
      </trkpt>
      <trkpt lat="45.95165" lon="1.38904">
        <ele>393.89566040039</ele>
        <time>2014-06-08T07:00:12Z</time>
      </trkpt>
      <trkpt lat="45.9518" lon="1.38915">
        <ele>394.78491210938</ele>
        <time>2014-06-08T07:00:18Z</time>
      </trkpt>
      <trkpt lat="45.95197" lon="1.38922">
        <ele>395.79635620117</ele>
        <time>2014-06-08T07:00:24Z</time>
      </trkpt>
      <trkpt lat="45.95209" lon="1.3893">
        <ele>396.63403320312</ele>
        <time>2014-06-08T07:00:29Z</time>
      </trkpt>
      <trkpt lat="45.95222" lon="1.38943">
        <ele>397.6181640625</ele>
        <time>2014-06-08T07:00:35Z</time>
      </trkpt>
      <trkpt lat="45.95231" lon="1.38956">
        <ele>398.50164794922</ele>
        <time>2014-06-08T07:00:40Z</time>
      </trkpt>
      <trkpt lat="45.9524" lon="1.38969">
        <ele>399.4342956543</ele>
        <time>2014-06-08T07:00:45Z</time>
      </trkpt>
      <trkpt lat="45.95243" lon="1.38986">
        <ele>400.07147216797</ele>
        <time>2014-06-08T07:00:50Z</time>
      </trkpt>
      <trkpt lat="45.95245" lon="1.39003">
        <ele>400.64199829102</ele>
        <time>2014-06-08T07:00:55Z</time>
      </trkpt>
      <trkpt lat="45.95244" lon="1.39031">
        <ele>401.9049987793</ele>
        <time>2014-06-08T07:01:03Z</time>
      </trkpt>
      <trkpt lat="45.95244" lon="1.39054">
        <ele>403.0143737793</ele>
        <time>2014-06-08T07:01:10Z</time>
      </trkpt>
      <trkpt lat="45.95243" lon="1.3907">
        <ele>403.6474609375</ele>
        <time>2014-06-08T07:01:15Z</time>
      </trkpt>
      <trkpt lat="45.95244" lon="1.39084">
        <ele>404.34362792969</ele>
        <time>2014-06-08T07:01:19Z</time>
      </trkpt>
      <trkpt lat="45.9525" lon="1.39084">
        <ele>405.0237121582</ele>
        <time>2014-06-08T07:01:23Z</time>
      </trkpt>
      <trkpt lat="45.95262" lon="1.39071">
        <ele>404.96170043945</ele>
        <time>2014-06-08T07:01:29Z</time>
      </trkpt>
      <trkpt lat="45.95278" lon="1.39073">
        <ele>405.77294921875</ele>
        <time>2014-06-08T07:01:35Z</time>
      </trkpt>
      <trkpt lat="45.9529" lon="1.39069">
        <ele>406.14169311523</ele>
        <time>2014-06-08T07:01:40Z</time>
      </trkpt>
      <trkpt lat="45.95304" lon="1.39061">
        <ele>406.32775878906</ele>
        <time>2014-06-08T07:01:46Z</time>
      </trkpt>
      <trkpt lat="45.95315" lon="1.3906">
        <ele>406.76232910156</ele>
        <time>2014-06-08T07:01:51Z</time>
      </trkpt>
      <trkpt lat="45.95322" lon="1.39068">
        <ele>407.5617980957</ele>
        <time>2014-06-08T07:01:55Z</time>
      </trkpt>
      <trkpt lat="45.95331" lon="1.39078">
        <ele>408.55285644531</ele>
        <time>2014-06-08T07:02:00Z</time>
      </trkpt>
      <trkpt lat="45.95338" lon="1.39089">
        <ele>409.79278564453</ele>
        <time>2014-06-08T07:02:05Z</time>
      </trkpt>
      <trkpt lat="45.95345" lon="1.39098">
        <ele>411.0299987793</ele>
        <time>2014-06-08T07:02:09Z</time>
      </trkpt>
      <trkpt lat="45.95351" lon="1.39103">
        <ele>411.86517333984</ele>
        <time>2014-06-08T07:02:13Z</time>
      </trkpt>
      <trkpt lat="45.95357" lon="1.39108">
        <ele>412.59762573242</ele>
        <time>2014-06-08T07:02:17Z</time>
      </trkpt>
      <trkpt lat="45.9536" lon="1.39112">
        <ele>413.04708862305</ele>
        <time>2014-06-08T07:02:20Z</time>
      </trkpt>
      <trkpt lat="45.95366" lon="1.39118">
        <ele>413.85720825195</ele>
        <time>2014-06-08T07:02:25Z</time>
      </trkpt>
      <trkpt lat="45.95373" lon="1.39129">
        <ele>415.06304931641</ele>
        <time>2014-06-08T07:02:32Z</time>
      </trkpt>
      <trkpt lat="45.9538" lon="1.39138">
        <ele>416.115234375</ele>
        <time>2014-06-08T07:02:38Z</time>
      </trkpt>
      <trkpt lat="45.95384" lon="1.39146">
        <ele>416.81768798828</ele>
        <time>2014-06-08T07:02:43Z</time>
      </trkpt>
      <trkpt lat="45.9539" lon="1.3915">
        <ele>417.45455932617</ele>
        <time>2014-06-08T07:02:48Z</time>
      </trkpt>
      <trkpt lat="45.95394" lon="1.39157">
        <ele>418.08160400391</ele>
        <time>2014-06-08T07:02:52Z</time>
      </trkpt>
      <trkpt lat="45.95396" lon="1.39164">
        <ele>418.61068725586</ele>
        <time>2014-06-08T07:02:55Z</time>
      </trkpt>
      <trkpt lat="45.95398" lon="1.39168">
        <ele>418.92742919922</ele>
        <time>2014-06-08T07:02:57Z</time>
      </trkpt>
      <trkpt lat="45.95409" lon="1.39173">
        <ele>419.64993286133</ele>
        <time>2014-06-08T07:03:02Z</time>
      </trkpt>
      <trkpt lat="45.95427" lon="1.39162">
        <ele>419.79187011719</ele>
        <time>2014-06-08T07:03:09Z</time>
      </trkpt>
      <trkpt lat="45.95435" lon="1.39153">
        <ele>419.50357055664</ele>
        <time>2014-06-08T07:03:14Z</time>
      </trkpt>
      <trkpt lat="45.95443" lon="1.39144">
        <ele>419.32629394531</ele>
        <time>2014-06-08T07:03:19Z</time>
      </trkpt>
      <trkpt lat="45.9545" lon="1.39133">
        <ele>419.20364379883</ele>
        <time>2014-06-08T07:03:24Z</time>
      </trkpt>
      <trkpt lat="45.95457" lon="1.39124">
        <ele>419.19778442383</ele>
        <time>2014-06-08T07:03:28Z</time>
      </trkpt>
      <trkpt lat="45.95466" lon="1.39112">
        <ele>419.32202148438</ele>
        <time>2014-06-08T07:03:33Z</time>
      </trkpt>
      <trkpt lat="45.95477" lon="1.39098">
        <ele>419.70156860352</ele>
        <time>2014-06-08T07:03:39Z</time>
      </trkpt>
      <trkpt lat="45.95488" lon="1.39088">
        <ele>420.24172973633</ele>
        <time>2014-06-08T07:03:44Z</time>
      </trkpt>
      <trkpt lat="45.95498" lon="1.39076">
        <ele>420.53125</ele>
        <time>2014-06-08T07:03:50Z</time>
      </trkpt>
      <trkpt lat="45.95501" lon="1.39072">
        <ele>420.51577758789</ele>
        <time>2014-06-08T07:03:52Z</time>
      </trkpt>
      <trkpt lat="45.95514" lon="1.39061">
        <ele>420.91171264648</ele>
        <time>2014-06-08T07:03:59Z</time>
      </trkpt>
      <trkpt lat="45.95525" lon="1.39052">
        <ele>421.41366577148</ele>
        <time>2014-06-08T07:04:04Z</time>
      </trkpt>
      <trkpt lat="45.95538" lon="1.39041">
        <ele>422.14074707031</ele>
        <time>2014-06-08T07:04:10Z</time>
      </trkpt>
      <trkpt lat="45.9555" lon="1.3903">
        <ele>422.94659423828</ele>
        <time>2014-06-08T07:04:16Z</time>
      </trkpt>
      <trkpt lat="45.95558" lon="1.39024">
        <ele>423.63293457031</ele>
        <time>2014-06-08T07:04:20Z</time>
      </trkpt>
      <trkpt lat="45.9557" lon="1.39015">
        <ele>424.71264648438</ele>
        <time>2014-06-08T07:04:26Z</time>
      </trkpt>
      <trkpt lat="45.95584" lon="1.39004">
        <ele>426.00915527344</ele>
        <time>2014-06-08T07:04:33Z</time>
      </trkpt>
      <trkpt lat="45.95596" lon="1.38994">
        <ele>426.03143310547</ele>
        <time>2014-06-08T07:04:39Z</time>
      </trkpt>
      <trkpt lat="45.95608" lon="1.38983">
        <ele>425.83737182617</ele>
        <time>2014-06-08T07:04:45Z</time>
      </trkpt>
      <trkpt lat="45.9562" lon="1.38975">
        <ele>425.79693603516</ele>
        <time>2014-06-08T07:04:50Z</time>
      </trkpt>
      <trkpt lat="45.95625" lon="1.38972">
        <ele>425.79446411133</ele>
        <time>2014-06-08T07:04:52Z</time>
      </trkpt>
      <trkpt lat="45.95637" lon="1.38964">
        <ele>425.85485839844</ele>
        <time>2014-06-08T07:04:57Z</time>
      </trkpt>
      <trkpt lat="45.95655" lon="1.38955">
        <ele>426.03201293945</ele>
        <time>2014-06-08T07:05:04Z</time>
      </trkpt>
      <trkpt lat="45.95667" lon="1.38949">
        <ele>426.13265991211</ele>
        <time>2014-06-08T07:05:09Z</time>
      </trkpt>
      <trkpt lat="45.9568" lon="1.38941">
        <ele>425.25015258789</ele>
        <time>2014-06-08T07:05:14Z</time>
      </trkpt>
      <trkpt lat="45.95694" lon="1.38931">
        <ele>424.62493896484</ele>
        <time>2014-06-08T07:05:20Z</time>
      </trkpt>
      <trkpt lat="45.95697" lon="1.3893">
        <ele>424.53265380859</ele>
        <time>2014-06-08T07:05:21Z</time>
      </trkpt>
      <trkpt lat="45.95712" lon="1.38923">
        <ele>424.28656005859</ele>
        <time>2014-06-08T07:05:27Z</time>
      </trkpt>
      <trkpt lat="45.95723" lon="1.38914">
        <ele>424.29699707031</ele>
        <time>2014-06-08T07:05:32Z</time>
      </trkpt>
      <trkpt lat="45.95734" lon="1.38905">
        <ele>424.2314453125</ele>
        <time>2014-06-08T07:05:38Z</time>
      </trkpt>
      <trkpt lat="45.95741" lon="1.38899">
        <ele>424.31661987305</ele>
        <time>2014-06-08T07:05:41Z</time>
      </trkpt>
      <trkpt lat="45.95752" lon="1.38888">
        <ele>424.62100219727</ele>
        <time>2014-06-08T07:05:47Z</time>
      </trkpt>
      <trkpt lat="45.95764" lon="1.38879">
        <ele>424.61022949219</ele>
        <time>2014-06-08T07:05:53Z</time>
      </trkpt>
      <trkpt lat="45.95773" lon="1.38869">
        <ele>424.86874389648</ele>
        <time>2014-06-08T07:05:58Z</time>
      </trkpt>
      <trkpt lat="45.95783" lon="1.38854">
        <ele>425.62762451172</ele>
        <time>2014-06-08T07:06:04Z</time>
      </trkpt>
      <trkpt lat="45.95792" lon="1.3884">
        <ele>426.59661865234</ele>
        <time>2014-06-08T07:06:10Z</time>
      </trkpt>
      <trkpt lat="45.95801" lon="1.38825">
        <ele>427.1955871582</ele>
        <time>2014-06-08T07:06:16Z</time>
      </trkpt>
      <trkpt lat="45.9581" lon="1.38812">
        <ele>427.52069091797</ele>
        <time>2014-06-08T07:06:21Z</time>
      </trkpt>
      <trkpt lat="45.95822" lon="1.38795">
        <ele>428.26196289062</ele>
        <time>2014-06-08T07:06:28Z</time>
      </trkpt>
      <trkpt lat="45.95831" lon="1.38783">
        <ele>429.0446472168</ele>
        <time>2014-06-08T07:06:33Z</time>
      </trkpt>
      <trkpt lat="45.95834" lon="1.38778">
        <ele>429.35656738281</ele>
        <time>2014-06-08T07:06:35Z</time>
      </trkpt>
      <trkpt lat="45.95848" lon="1.38763">
        <ele>430.38409423828</ele>
        <time>2014-06-08T07:06:42Z</time>
      </trkpt>
      <trkpt lat="45.95858" lon="1.38753">
        <ele>431.32723999023</ele>
        <time>2014-06-08T07:06:47Z</time>
      </trkpt>
      <trkpt lat="45.95869" lon="1.38742">
        <ele>431.79751586914</ele>
        <time>2014-06-08T07:06:53Z</time>
      </trkpt>
      <trkpt lat="45.95881" lon="1.3873">
        <ele>432.04193115234</ele>
        <time>2014-06-08T07:06:59Z</time>
      </trkpt>
      <trkpt lat="45.9589" lon="1.3872">
        <ele>432.33685302734</ele>
        <time>2014-06-08T07:07:04Z</time>
      </trkpt>
      <trkpt lat="45.95897" lon="1.3871">
        <ele>432.53695678711</ele>
        <time>2014-06-08T07:07:09Z</time>
      </trkpt>
      <trkpt lat="45.95909" lon="1.38698">
        <ele>433.09072875977</ele>
        <time>2014-06-08T07:07:15Z</time>
      </trkpt>
      <trkpt lat="45.95921" lon="1.38684">
        <ele>433.20141601562</ele>
        <time>2014-06-08T07:07:21Z</time>
      </trkpt>
      <trkpt lat="45.95932" lon="1.3867">
        <ele>432.46472167969</ele>
        <time>2014-06-08T07:07:27Z</time>
      </trkpt>
      <trkpt lat="45.95943" lon="1.38659">
        <ele>431.55862426758</ele>
        <time>2014-06-08T07:07:32Z</time>
      </trkpt>
      <trkpt lat="45.95956" lon="1.38646">
        <ele>430.64038085938</ele>
        <time>2014-06-08T07:07:38Z</time>
      </trkpt>
      <trkpt lat="45.9597" lon="1.3863">
        <ele>430.0849609375</ele>
        <time>2014-06-08T07:07:45Z</time>
      </trkpt>
      <trkpt lat="45.9598" lon="1.3862">
        <ele>430.08160400391</ele>
        <time>2014-06-08T07:07:50Z</time>
      </trkpt>
      <trkpt lat="45.95996" lon="1.38612">
        <ele>430.50799560547</ele>
        <time>2014-06-08T07:07:56Z</time>
      </trkpt>
      <trkpt lat="45.96014" lon="1.38603">
        <ele>430.59985351562</ele>
        <time>2014-06-08T07:08:03Z</time>
      </trkpt>
      <trkpt lat="45.96028" lon="1.38595">
        <ele>430.66427612305</ele>
        <time>2014-06-08T07:08:09Z</time>
      </trkpt>
      <trkpt lat="45.96043" lon="1.38589">
        <ele>430.80313110352</ele>
        <time>2014-06-08T07:08:15Z</time>
      </trkpt>
      <trkpt lat="45.96062" lon="1.38584">
        <ele>430.96142578125</ele>
        <time>2014-06-08T07:08:22Z</time>
      </trkpt>
      <trkpt lat="45.96077" lon="1.38576">
        <ele>430.6643371582</ele>
        <time>2014-06-08T07:08:28Z</time>
      </trkpt>
      <trkpt lat="45.9609" lon="1.38568">
        <ele>430.63125610352</ele>
        <time>2014-06-08T07:08:33Z</time>
      </trkpt>
      <trkpt lat="45.9611" lon="1.3856">
        <ele>431.23788452148</ele>
        <time>2014-06-08T07:08:41Z</time>
      </trkpt>
      <trkpt lat="45.96119" lon="1.38555">
        <ele>431.49331665039</ele>
        <time>2014-06-08T07:08:46Z</time>
      </trkpt>
      <trkpt lat="45.9612" lon="1.38554">
        <ele>431.54684448242</ele>
        <time>2014-06-08T07:08:47Z</time>
      </trkpt>
      <trkpt lat="45.96127" lon="1.38549">
        <ele>431.64215087891</ele>
        <time>2014-06-08T07:08:53Z</time>
      </trkpt>
      <trkpt lat="45.96131" lon="1.38546">
        <ele>431.75482177734</ele>
        <time>2014-06-08T07:08:56Z</time>
      </trkpt>
      <trkpt lat="45.96141" lon="1.38542">
        <ele>432.11169433594</ele>
        <time>2014-06-08T07:09:02Z</time>
      </trkpt>
      <trkpt lat="45.96152" lon="1.38536">
        <ele>432.52105712891</ele>
        <time>2014-06-08T07:09:08Z</time>
      </trkpt>
      <trkpt lat="45.96166" lon="1.38528">
        <ele>432.97210693359</ele>
        <time>2014-06-08T07:09:14Z</time>
      </trkpt>
      <trkpt lat="45.96171" lon="1.38526">
        <ele>433.02505493164</ele>
        <time>2014-06-08T07:09:17Z</time>
      </trkpt>
      <trkpt lat="45.9618" lon="1.38522">
        <ele>433.11254882812</ele>
        <time>2014-06-08T07:09:23Z</time>
      </trkpt>
      <trkpt lat="45.96193" lon="1.38515">
        <ele>433.25555419922</ele>
        <time>2014-06-08T07:09:29Z</time>
      </trkpt>
      <trkpt lat="45.96207" lon="1.38506">
        <ele>433.51501464844</ele>
        <time>2014-06-08T07:09:34Z</time>
      </trkpt>
      <trkpt lat="45.96213" lon="1.38502">
        <ele>433.69427490234</ele>
        <time>2014-06-08T07:09:39Z</time>
      </trkpt>
      <trkpt lat="45.96215" lon="1.38503">
        <ele>433.77615356445</ele>
        <time>2014-06-08T07:09:42Z</time>
      </trkpt>
      <trkpt lat="45.96222" lon="1.38499">
        <ele>433.97470092773</ele>
        <time>2014-06-08T07:09:47Z</time>
      </trkpt>
      <trkpt lat="45.9623" lon="1.38479">
        <ele>434.43984985352</ele>
        <time>2014-06-08T07:09:53Z</time>
      </trkpt>
      <trkpt lat="45.96236" lon="1.3846">
        <ele>434.9792175293</ele>
        <time>2014-06-08T07:09:59Z</time>
      </trkpt>
      <trkpt lat="45.96242" lon="1.38445">
        <ele>435.63510131836</ele>
        <time>2014-06-08T07:10:04Z</time>
      </trkpt>
      <trkpt lat="45.96248" lon="1.38425">
        <ele>436.59512329102</ele>
        <time>2014-06-08T07:10:10Z</time>
      </trkpt>
      <trkpt lat="45.96252" lon="1.38409">
        <ele>437.71368408203</ele>
        <time>2014-06-08T07:10:15Z</time>
      </trkpt>
      <trkpt lat="45.96254" lon="1.38394">
        <ele>438.95736694336</ele>
        <time>2014-06-08T07:10:20Z</time>
      </trkpt>
      <trkpt lat="45.96254" lon="1.38388">
        <ele>439.23919677734</ele>
        <time>2014-06-08T07:10:22Z</time>
      </trkpt>
      <trkpt lat="45.96252" lon="1.38377">
        <ele>439.62200927734</ele>
        <time>2014-06-08T07:10:26Z</time>
      </trkpt>
      <trkpt lat="45.96252" lon="1.38367">
        <ele>440.23760986328</ele>
        <time>2014-06-08T07:10:30Z</time>
      </trkpt>
      <trkpt lat="45.96252" lon="1.38354">
        <ele>441.02398681641</ele>
        <time>2014-06-08T07:10:35Z</time>
      </trkpt>
      <trkpt lat="45.96247" lon="1.38342">
        <ele>441.20742797852</ele>
        <time>2014-06-08T07:10:40Z</time>
      </trkpt>
      <trkpt lat="45.96248" lon="1.38337">
        <ele>441.57836914062</ele>
        <time>2014-06-08T07:10:43Z</time>
      </trkpt>
      <trkpt lat="45.96248" lon="1.38324">
        <ele>443.14938354492</ele>
        <time>2014-06-08T07:10:49Z</time>
      </trkpt>
      <trkpt lat="45.96248" lon="1.38308">
        <ele>445.35302734375</ele>
        <time>2014-06-08T07:10:56Z</time>
      </trkpt>
      <trkpt lat="45.96248" lon="1.38303">
        <ele>446.06896972656</ele>
        <time>2014-06-08T07:10:59Z</time>
      </trkpt>
      <trkpt lat="45.96249" lon="1.38291">
        <ele>447.87051391602</ele>
        <time>2014-06-08T07:11:06Z</time>
      </trkpt>
      <trkpt lat="45.96251" lon="1.38285">
        <ele>449.04211425781</ele>
        <time>2014-06-08T07:11:10Z</time>
      </trkpt>
      <trkpt lat="45.96251" lon="1.38279">
        <ele>450.01602172852</ele>
        <time>2014-06-08T07:11:14Z</time>
      </trkpt>
      <trkpt lat="45.96252" lon="1.38272">
        <ele>451.09005737305</ele>
        <time>2014-06-08T07:11:18Z</time>
      </trkpt>
      <trkpt lat="45.96251" lon="1.38266">
        <ele>451.97525024414</ele>
        <time>2014-06-08T07:11:22Z</time>
      </trkpt>
      <trkpt lat="45.96252" lon="1.38258">
        <ele>453.19403076172</ele>
        <time>2014-06-08T07:11:28Z</time>
      </trkpt>
      <trkpt lat="45.96254" lon="1.38249">
        <ele>454.70227050781</ele>
        <time>2014-06-08T07:11:33Z</time>
      </trkpt>
      <trkpt lat="45.96254" lon="1.38247">
        <ele>454.77600097656</ele>
        <time>2014-06-08T07:11:34Z</time>
      </trkpt>
      <trkpt lat="45.96253" lon="1.38235">
        <ele>455.10635375977</ele>
        <time>2014-06-08T07:11:40Z</time>
      </trkpt>
      <trkpt lat="45.96253" lon="1.38226">
        <ele>455.43923950195</ele>
        <time>2014-06-08T07:11:45Z</time>
      </trkpt>
      <trkpt lat="45.96253" lon="1.38217">
        <ele>455.78018188477</ele>
        <time>2014-06-08T07:11:51Z</time>
      </trkpt>
      <trkpt lat="45.96253" lon="1.38215">
        <ele>455.84881591797</ele>
        <time>2014-06-08T07:11:52Z</time>
      </trkpt>
      <trkpt lat="45.96253" lon="1.38209">
        <ele>456.06494140625</ele>
        <time>2014-06-08T07:11:55Z</time>
      </trkpt>
      <trkpt lat="45.96256" lon="1.38194">
        <ele>457.14273071289</ele>
        <time>2014-06-08T07:12:02Z</time>
      </trkpt>
      <trkpt lat="45.96257" lon="1.38186">
        <ele>457.75881958008</ele>
        <time>2014-06-08T07:12:07Z</time>
      </trkpt>
      <trkpt lat="45.96264" lon="1.3818">
        <ele>459.26843261719</ele>
        <time>2014-06-08T07:12:13Z</time>
      </trkpt>
      <trkpt lat="45.96273" lon="1.38183">
        <ele>460.93231201172</ele>
        <time>2014-06-08T07:12:19Z</time>
      </trkpt>
      <trkpt lat="45.96275" lon="1.38186">
        <ele>461.27862548828</ele>
        <time>2014-06-08T07:12:21Z</time>
      </trkpt>
      <trkpt lat="45.96281" lon="1.38191">
        <ele>462.15643310547</ele>
        <time>2014-06-08T07:12:26Z</time>
      </trkpt>
      <trkpt lat="45.96288" lon="1.38196">
        <ele>463.11380004883</ele>
        <time>2014-06-08T07:12:31Z</time>
      </trkpt>
      <trkpt lat="45.96297" lon="1.38206">
        <ele>464.47564697266</ele>
        <time>2014-06-08T07:12:39Z</time>
      </trkpt>
      <trkpt lat="45.96305" lon="1.38213">
        <ele>465.38632202148</ele>
        <time>2014-06-08T07:12:46Z</time>
      </trkpt>
      <trkpt lat="45.9631" lon="1.38221">
        <ele>465.82189941406</ele>
        <time>2014-06-08T07:12:51Z</time>
      </trkpt>
      <trkpt lat="45.96311" lon="1.38224">
        <ele>465.81033325195</ele>
        <time>2014-06-08T07:12:53Z</time>
      </trkpt>
      <trkpt lat="45.96316" lon="1.3823">
        <ele>466.40713500977</ele>
        <time>2014-06-08T07:12:58Z</time>
      </trkpt>
      <trkpt lat="45.96323" lon="1.38232">
        <ele>467.57534790039</ele>
        <time>2014-06-08T07:13:04Z</time>
      </trkpt>
      <trkpt lat="45.96327" lon="1.38231">
        <ele>468.28207397461</ele>
        <time>2014-06-08T07:13:09Z</time>
      </trkpt>
      <trkpt lat="45.9633" lon="1.38229">
        <ele>468.99829101562</ele>
        <time>2014-06-08T07:13:12Z</time>
      </trkpt>
      <trkpt lat="45.96334" lon="1.38225">
        <ele>469.91296386719</ele>
        <time>2014-06-08T07:13:16Z</time>
      </trkpt>
      <trkpt lat="45.96338" lon="1.38226">
        <ele>470.12936401367</ele>
        <time>2014-06-08T07:13:19Z</time>
      </trkpt>
      <trkpt lat="45.96342" lon="1.38227">
        <ele>470.42547607422</ele>
        <time>2014-06-08T07:13:22Z</time>
      </trkpt>
      <trkpt lat="45.96347" lon="1.38229">
        <ele>470.73229980469</ele>
        <time>2014-06-08T07:13:26Z</time>
      </trkpt>
      <trkpt lat="45.96353" lon="1.38232">
        <ele>471.11233520508</ele>
        <time>2014-06-08T07:13:32Z</time>
      </trkpt>
      <trkpt lat="45.96362" lon="1.38235">
        <ele>471.61349487305</ele>
        <time>2014-06-08T07:13:38Z</time>
      </trkpt>
      <trkpt lat="45.96364" lon="1.38236">
        <ele>471.76937866211</ele>
        <time>2014-06-08T07:13:40Z</time>
      </trkpt>
      <trkpt lat="45.96374" lon="1.38237">
        <ele>472.57070922852</ele>
        <time>2014-06-08T07:13:47Z</time>
      </trkpt>
      <trkpt lat="45.9638" lon="1.38238">
        <ele>472.99728393555</ele>
        <time>2014-06-08T07:13:51Z</time>
      </trkpt>
      <trkpt lat="45.96387" lon="1.38233">
        <ele>474.09725952148</ele>
        <time>2014-06-08T07:13:58Z</time>
      </trkpt>
      <trkpt lat="45.96389" lon="1.38233">
        <ele>474.30477905273</ele>
        <time>2014-06-08T07:14:00Z</time>
      </trkpt>
      <trkpt lat="45.96397" lon="1.38229">
        <ele>475.39416503906</ele>
        <time>2014-06-08T07:14:06Z</time>
      </trkpt>
      <trkpt lat="45.96404" lon="1.38221">
        <ele>476.94830322266</ele>
        <time>2014-06-08T07:14:14Z</time>
      </trkpt>
      <trkpt lat="45.96408" lon="1.38211">
        <ele>478.3076171875</ele>
        <time>2014-06-08T07:14:21Z</time>
      </trkpt>
      <trkpt lat="45.96409" lon="1.38206">
        <ele>478.98434448242</ele>
        <time>2014-06-08T07:14:25Z</time>
      </trkpt>
      <trkpt lat="45.96412" lon="1.38199">
        <ele>479.96090698242</ele>
        <time>2014-06-08T07:14:29Z</time>
      </trkpt>
      <trkpt lat="45.96414" lon="1.38194">
        <ele>480.72967529297</ele>
        <time>2014-06-08T07:14:32Z</time>
      </trkpt>
      <trkpt lat="45.96416" lon="1.38188">
        <ele>481.72427368164</ele>
        <time>2014-06-08T07:14:36Z</time>
      </trkpt>
      <trkpt lat="45.96423" lon="1.38178">
        <ele>483.04733276367</ele>
        <time>2014-06-08T07:14:43Z</time>
      </trkpt>
      <trkpt lat="45.96425" lon="1.38173">
        <ele>483.70492553711</ele>
        <time>2014-06-08T07:14:46Z</time>
      </trkpt>
      <trkpt lat="45.96431" lon="1.38163">
        <ele>484.74685668945</ele>
        <time>2014-06-08T07:14:53Z</time>
      </trkpt>
      <trkpt lat="45.96433" lon="1.38159">
        <ele>484.96563720703</ele>
        <time>2014-06-08T07:14:56Z</time>
      </trkpt>
      <trkpt lat="45.96439" lon="1.38151">
        <ele>485.53240966797</ele>
        <time>2014-06-08T07:15:02Z</time>
      </trkpt>
      <trkpt lat="45.96442" lon="1.38147">
        <ele>485.95053100586</ele>
        <time>2014-06-08T07:15:06Z</time>
      </trkpt>
      <trkpt lat="45.96446" lon="1.38143">
        <ele>486.42474365234</ele>
        <time>2014-06-08T07:15:11Z</time>
      </trkpt>
      <trkpt lat="45.96449" lon="1.38138">
        <ele>486.89172363281</ele>
        <time>2014-06-08T07:15:15Z</time>
      </trkpt>
      <trkpt lat="45.96458" lon="1.38132">
        <ele>488.11218261719</ele>
        <time>2014-06-08T07:15:22Z</time>
      </trkpt>
      <trkpt lat="45.96464" lon="1.38129">
        <ele>488.82073974609</ele>
        <time>2014-06-08T07:15:28Z</time>
      </trkpt>
      <trkpt lat="45.96467" lon="1.38127">
        <ele>489.24411010742</ele>
        <time>2014-06-08T07:15:31Z</time>
      </trkpt>
      <trkpt lat="45.96472" lon="1.38125">
        <ele>489.93762207031</ele>
        <time>2014-06-08T07:15:36Z</time>
      </trkpt>
      <trkpt lat="45.96483" lon="1.38118">
        <ele>491.84341430664</ele>
        <time>2014-06-08T07:15:44Z</time>
      </trkpt>
      <trkpt lat="45.96484" lon="1.38117">
        <ele>492.08401489258</ele>
        <time>2014-06-08T07:15:45Z</time>
      </trkpt>
      <trkpt lat="45.96494" lon="1.38109">
        <ele>494.16677856445</ele>
        <time>2014-06-08T07:15:52Z</time>
      </trkpt>
      <trkpt lat="45.96507" lon="1.38098">
        <ele>496.84313964844</ele>
        <time>2014-06-08T07:15:59Z</time>
      </trkpt>
      <trkpt lat="45.96512" lon="1.38091">
        <ele>498.1926574707</ele>
        <time>2014-06-08T07:16:04Z</time>
      </trkpt>
      <trkpt lat="45.96517" lon="1.3808">
        <ele>499.94412231445</ele>
        <time>2014-06-08T07:16:10Z</time>
      </trkpt>
      <trkpt lat="45.96525" lon="1.3807">
        <ele>501.79644775391</ele>
        <time>2014-06-08T07:16:17Z</time>
      </trkpt>
      <trkpt lat="45.96526" lon="1.38069">
        <ele>502.08572387695</ele>
        <time>2014-06-08T07:16:18Z</time>
      </trkpt>
      <trkpt lat="45.96528" lon="1.38066">
        <ele>502.63421630859</ele>
        <time>2014-06-08T07:16:20Z</time>
      </trkpt>
      <trkpt lat="45.96532" lon="1.3806">
        <ele>503.78155517578</ele>
        <time>2014-06-08T07:16:25Z</time>
      </trkpt>
      <trkpt lat="45.96537" lon="1.38052">
        <ele>505.47241210938</ele>
        <time>2014-06-08T07:16:33Z</time>
      </trkpt>
      <trkpt lat="45.96537" lon="1.38047">
        <ele>506.13858032227</ele>
        <time>2014-06-08T07:16:36Z</time>
      </trkpt>
      <trkpt lat="45.9654" lon="1.38038">
        <ele>507.66906738281</ele>
        <time>2014-06-08T07:16:43Z</time>
      </trkpt>
      <trkpt lat="45.96541" lon="1.38032">
        <ele>508.63018798828</ele>
        <time>2014-06-08T07:16:49Z</time>
      </trkpt>
      <trkpt lat="45.96542" lon="1.38025">
        <ele>509.68118286133</ele>
        <time>2014-06-08T07:16:55Z</time>
      </trkpt>
      <trkpt lat="45.96543" lon="1.38017">
        <ele>510.98040771484</ele>
        <time>2014-06-08T07:17:01Z</time>
      </trkpt>
      <trkpt lat="45.96543" lon="1.3801">
        <ele>511.95986938477</ele>
        <time>2014-06-08T07:17:08Z</time>
      </trkpt>
      <trkpt lat="45.96544" lon="1.37998">
        <ele>513.85668945312</ele>
        <time>2014-06-08T07:17:16Z</time>
      </trkpt>
      <trkpt lat="45.96546" lon="1.3799">
        <ele>515.55609130859</ele>
        <time>2014-06-08T07:17:23Z</time>
      </trkpt>
      <trkpt lat="45.96547" lon="1.37979">
        <ele>517.46954345703</ele>
        <time>2014-06-08T07:17:31Z</time>
      </trkpt>
      <trkpt lat="45.96548" lon="1.37972">
        <ele>518.72381591797</ele>
        <time>2014-06-08T07:17:38Z</time>
      </trkpt>
      <trkpt lat="45.96548" lon="1.37964">
        <ele>519.95544433594</ele>
        <time>2014-06-08T07:17:45Z</time>
      </trkpt>
      <trkpt lat="45.96545" lon="1.3796">
        <ele>520.10406494141</ele>
        <time>2014-06-08T07:17:48Z</time>
      </trkpt>
      <trkpt lat="45.96542" lon="1.37948">
        <ele>521.29034423828</ele>
        <time>2014-06-08T07:17:54Z</time>
      </trkpt>
      <trkpt lat="45.96546" lon="1.3794">
        <ele>523.34265136719</ele>
        <time>2014-06-08T07:18:00Z</time>
      </trkpt>
      <trkpt lat="45.96554" lon="1.37935">
        <ele>525.96276855469</ele>
        <time>2014-06-08T07:18:09Z</time>
      </trkpt>
      <trkpt lat="45.9656" lon="1.37931">
        <ele>528.02557373047</ele>
        <time>2014-06-08T07:18:15Z</time>
      </trkpt>
      <trkpt lat="45.96568" lon="1.37929">
        <ele>530.15582275391</ele>
        <time>2014-06-08T07:18:22Z</time>
      </trkpt>
      <trkpt lat="45.96572" lon="1.37925">
        <ele>532.04943847656</ele>
        <time>2014-06-08T07:18:28Z</time>
      </trkpt>
      <trkpt lat="45.96574" lon="1.37922">
        <ele>532.81408691406</ele>
        <time>2014-06-08T07:18:30Z</time>
      </trkpt>
      <trkpt lat="45.96578" lon="1.37919">
        <ele>534.34027099609</ele>
        <time>2014-06-08T07:18:34Z</time>
      </trkpt>
      <trkpt lat="45.96587" lon="1.37915">
        <ele>536.39196777344</ele>
        <time>2014-06-08T07:18:42Z</time>
      </trkpt>
      <trkpt lat="45.96595" lon="1.37908">
        <ele>537.76031494141</ele>
        <time>2014-06-08T07:18:50Z</time>
      </trkpt>
      <trkpt lat="45.96601" lon="1.37901">
        <ele>539.08990478516</ele>
        <time>2014-06-08T07:18:57Z</time>
      </trkpt>
      <trkpt lat="45.96603" lon="1.37896">
        <ele>539.90496826172</ele>
        <time>2014-06-08T07:19:00Z</time>
      </trkpt>
      <trkpt lat="45.96611" lon="1.37885">
        <ele>541.94976806641</ele>
        <time>2014-06-08T07:19:08Z</time>
      </trkpt>
      <trkpt lat="45.96612" lon="1.37883">
        <ele>542.32977294922</ele>
        <time>2014-06-08T07:19:10Z</time>
      </trkpt>
      <trkpt lat="45.9662" lon="1.37874">
        <ele>544.21301269531</ele>
        <time>2014-06-08T07:19:17Z</time>
      </trkpt>
      <trkpt lat="45.96621" lon="1.37873">
        <ele>544.40270996094</ele>
        <time>2014-06-08T07:19:18Z</time>
      </trkpt>
      <trkpt lat="45.96625" lon="1.37867">
        <ele>545.59637451172</ele>
        <time>2014-06-08T07:19:23Z</time>
      </trkpt>
      <trkpt lat="45.96628" lon="1.37862">
        <ele>546.69116210938</ele>
        <time>2014-06-08T07:19:29Z</time>
      </trkpt>
      <trkpt lat="45.96634" lon="1.37855">
        <ele>548.25433349609</ele>
        <time>2014-06-08T07:19:34Z</time>
      </trkpt>
      <trkpt lat="45.96638" lon="1.3785">
        <ele>549.39678955078</ele>
        <time>2014-06-08T07:19:38Z</time>
      </trkpt>
      <trkpt lat="45.96644" lon="1.37842">
        <ele>551.21984863281</ele>
        <time>2014-06-08T07:19:44Z</time>
      </trkpt>
      <trkpt lat="45.96649" lon="1.37836">
        <ele>552.59167480469</ele>
        <time>2014-06-08T07:19:49Z</time>
      </trkpt>
      <trkpt lat="45.96656" lon="1.3783">
        <ele>554.05010986328</ele>
        <time>2014-06-08T07:19:55Z</time>
      </trkpt>
      <trkpt lat="45.96659" lon="1.37829">
        <ele>554.36596679688</ele>
        <time>2014-06-08T07:19:57Z</time>
      </trkpt>
      <trkpt lat="45.96661" lon="1.37826">
        <ele>554.71429443359</ele>
        <time>2014-06-08T07:19:59Z</time>
      </trkpt>
      <trkpt lat="45.96667" lon="1.3782">
        <ele>555.62872314453</ele>
        <time>2014-06-08T07:20:04Z</time>
      </trkpt>
      <trkpt lat="45.96678" lon="1.37814">
        <ele>556.19866943359</ele>
        <time>2014-06-08T07:20:13Z</time>
      </trkpt>
      <trkpt lat="45.96684" lon="1.37812">
        <ele>556.474609375</ele>
        <time>2014-06-08T07:20:17Z</time>
      </trkpt>
      <trkpt lat="45.9669" lon="1.3781">
        <ele>556.73229980469</ele>
        <time>2014-06-08T07:20:22Z</time>
      </trkpt>
      <trkpt lat="45.96692" lon="1.37809">
        <ele>556.78601074219</ele>
        <time>2014-06-08T07:20:23Z</time>
      </trkpt>
      <trkpt lat="45.96701" lon="1.37806">
        <ele>557.24908447266</ele>
        <time>2014-06-08T07:20:29Z</time>
      </trkpt>
      <trkpt lat="45.9671" lon="1.37805">
        <ele>557.58502197266</ele>
        <time>2014-06-08T07:20:35Z</time>
      </trkpt>
      <trkpt lat="45.96711" lon="1.37805">
        <ele>557.625</ele>
        <time>2014-06-08T07:20:36Z</time>
      </trkpt>
      <trkpt lat="45.96724" lon="1.378">
        <ele>558.37316894531</ele>
        <time>2014-06-08T07:20:43Z</time>
      </trkpt>
      <trkpt lat="45.96726" lon="1.37799">
        <ele>558.52252197266</ele>
        <time>2014-06-08T07:20:44Z</time>
      </trkpt>
      <trkpt lat="45.9673" lon="1.37798">
        <ele>558.76171875</ele>
        <time>2014-06-08T07:20:49Z</time>
      </trkpt>
      <trkpt lat="45.96741" lon="1.37792">
        <ele>559.67041015625</ele>
        <time>2014-06-08T07:20:56Z</time>
      </trkpt>
      <trkpt lat="45.96754" lon="1.37787">
        <ele>560.5537109375</ele>
        <time>2014-06-08T07:21:02Z</time>
      </trkpt>
      <trkpt lat="45.96764" lon="1.37785">
        <ele>561.15582275391</ele>
        <time>2014-06-08T07:21:07Z</time>
      </trkpt>
      <trkpt lat="45.96778" lon="1.37786">
        <ele>561.53137207031</ele>
        <time>2014-06-08T07:21:14Z</time>
      </trkpt>
      <trkpt lat="45.9679" lon="1.37785">
        <ele>562.00646972656</ele>
        <time>2014-06-08T07:21:19Z</time>
      </trkpt>
      <trkpt lat="45.96799" lon="1.37788">
        <ele>562.10266113281</ele>
        <time>2014-06-08T07:21:24Z</time>
      </trkpt>
      <trkpt lat="45.96808" lon="1.37792">
        <ele>562.03607177734</ele>
        <time>2014-06-08T07:21:29Z</time>
      </trkpt>
      <trkpt lat="45.9682" lon="1.37797">
        <ele>562.12530517578</ele>
        <time>2014-06-08T07:21:36Z</time>
      </trkpt>
      <trkpt lat="45.96831" lon="1.37799">
        <ele>562.39495849609</ele>
        <time>2014-06-08T07:21:41Z</time>
      </trkpt>
      <trkpt lat="45.96849" lon="1.37803">
        <ele>563.15032958984</ele>
        <time>2014-06-08T07:21:47Z</time>
      </trkpt>
      <trkpt lat="45.96858" lon="1.37803">
        <ele>563.62182617188</ele>
        <time>2014-06-08T07:21:50Z</time>
      </trkpt>
      <trkpt lat="45.96877" lon="1.378">
        <ele>565.01202392578</ele>
        <time>2014-06-08T07:21:57Z</time>
      </trkpt>
      <trkpt lat="45.96887" lon="1.37796">
        <ele>565.91979980469</ele>
        <time>2014-06-08T07:22:03Z</time>
      </trkpt>
      <trkpt lat="45.96897" lon="1.3779">
        <ele>566.90228271484</ele>
        <time>2014-06-08T07:22:09Z</time>
      </trkpt>
      <trkpt lat="45.96905" lon="1.37784">
        <ele>567.82153320312</ele>
        <time>2014-06-08T07:22:14Z</time>
      </trkpt>
      <trkpt lat="45.96906" lon="1.37782">
        <ele>568.04095458984</ele>
        <time>2014-06-08T07:22:15Z</time>
      </trkpt>
      <trkpt lat="45.96909" lon="1.37781">
        <ele>568.33508300781</ele>
        <time>2014-06-08T07:22:17Z</time>
      </trkpt>
      <trkpt lat="45.9692" lon="1.37768">
        <ele>569.27294921875</ele>
        <time>2014-06-08T07:22:24Z</time>
      </trkpt>
      <trkpt lat="45.96922" lon="1.37766">
        <ele>569.17504882812</ele>
        <time>2014-06-08T07:22:25Z</time>
      </trkpt>
      <trkpt lat="45.9693" lon="1.37751">
        <ele>569.14532470703</ele>
        <time>2014-06-08T07:22:32Z</time>
      </trkpt>
      <trkpt lat="45.96932" lon="1.37745">
        <ele>569.24670410156</ele>
        <time>2014-06-08T07:22:34Z</time>
      </trkpt>
      <trkpt lat="45.96935" lon="1.37735">
        <ele>569.68634033203</ele>
        <time>2014-06-08T07:22:39Z</time>
      </trkpt>
      <trkpt lat="45.9694" lon="1.37714">
        <ele>570.59350585938</ele>
        <time>2014-06-08T07:22:47Z</time>
      </trkpt>
      <trkpt lat="45.96942" lon="1.37709">
        <ele>570.85046386719</ele>
        <time>2014-06-08T07:22:49Z</time>
      </trkpt>
      <trkpt lat="45.96942" lon="1.37705">
        <ele>571.13256835938</ele>
        <time>2014-06-08T07:22:51Z</time>
      </trkpt>
      <trkpt lat="45.96944" lon="1.37696">
        <ele>571.69989013672</ele>
        <time>2014-06-08T07:22:55Z</time>
      </trkpt>
      <trkpt lat="45.96945" lon="1.37687">
        <ele>572.32067871094</ele>
        <time>2014-06-08T07:22:58Z</time>
      </trkpt>
      <trkpt lat="45.96944" lon="1.37682">
        <ele>572.77923583984</ele>
        <time>2014-06-08T07:23:00Z</time>
      </trkpt>
      <trkpt lat="45.96946" lon="1.37677">
        <ele>573.06970214844</ele>
        <time>2014-06-08T07:23:02Z</time>
      </trkpt>
      <trkpt lat="45.96947" lon="1.37666">
        <ele>573.90020751953</ele>
        <time>2014-06-08T07:23:07Z</time>
      </trkpt>
      <trkpt lat="45.96949" lon="1.37652">
        <ele>574.16436767578</ele>
        <time>2014-06-08T07:23:12Z</time>
      </trkpt>
      <trkpt lat="45.9695" lon="1.37639">
        <ele>574.41241455078</ele>
        <time>2014-06-08T07:23:17Z</time>
      </trkpt>
      <trkpt lat="45.9695" lon="1.37626">
        <ele>574.68737792969</ele>
        <time>2014-06-08T07:23:22Z</time>
      </trkpt>
      <trkpt lat="45.96949" lon="1.37611">
        <ele>575.06042480469</ele>
        <time>2014-06-08T07:23:27Z</time>
      </trkpt>
      <trkpt lat="45.96949" lon="1.37595">
        <ele>575.43701171875</ele>
        <time>2014-06-08T07:23:33Z</time>
      </trkpt>
      <trkpt lat="45.96946" lon="1.37578">
        <ele>575.90698242188</ele>
        <time>2014-06-08T07:23:39Z</time>
      </trkpt>
      <trkpt lat="45.96946" lon="1.37566">
        <ele>576.05511474609</ele>
        <time>2014-06-08T07:23:43Z</time>
      </trkpt>
      <trkpt lat="45.96943" lon="1.37545">
        <ele>576.42980957031</ele>
        <time>2014-06-08T07:23:49Z</time>
      </trkpt>
      <trkpt lat="45.96943" lon="1.37541">
        <ele>576.45849609375</ele>
        <time>2014-06-08T07:23:50Z</time>
      </trkpt>
      <trkpt lat="45.96941" lon="1.3752">
        <ele>576.81390380859</ele>
        <time>2014-06-08T07:23:56Z</time>
      </trkpt>
      <trkpt lat="45.96939" lon="1.37505">
        <ele>577.1064453125</ele>
        <time>2014-06-08T07:24:01Z</time>
      </trkpt>
      <trkpt lat="45.96938" lon="1.37492">
        <ele>577.39611816406</ele>
        <time>2014-06-08T07:24:05Z</time>
      </trkpt>
      <trkpt lat="45.96938" lon="1.37474">
        <ele>577.85272216797</ele>
        <time>2014-06-08T07:24:10Z</time>
      </trkpt>
      <trkpt lat="45.96936" lon="1.37454">
        <ele>578.41107177734</ele>
        <time>2014-06-08T07:24:16Z</time>
      </trkpt>
      <trkpt lat="45.96934" lon="1.37439">
        <ele>578.87322998047</ele>
        <time>2014-06-08T07:24:21Z</time>
      </trkpt>
      <trkpt lat="45.96935" lon="1.37436">
        <ele>578.89965820312</ele>
        <time>2014-06-08T07:24:22Z</time>
      </trkpt>
      <trkpt lat="45.96941" lon="1.37423">
        <ele>578.96124267578</ele>
        <time>2014-06-08T07:24:27Z</time>
      </trkpt>
      <trkpt lat="45.96955" lon="1.37412">
        <ele>578.74560546875</ele>
        <time>2014-06-08T07:24:33Z</time>
      </trkpt>
      <trkpt lat="45.96959" lon="1.3741">
        <ele>578.68713378906</ele>
        <time>2014-06-08T07:24:35Z</time>
      </trkpt>
      <trkpt lat="45.96975" lon="1.37402">
        <ele>578.52947998047</ele>
        <time>2014-06-08T07:24:42Z</time>
      </trkpt>
      <trkpt lat="45.9698" lon="1.374">
        <ele>578.48156738281</ele>
        <time>2014-06-08T07:24:45Z</time>
      </trkpt>
      <trkpt lat="45.96991" lon="1.37396">
        <ele>578.42541503906</ele>
        <time>2014-06-08T07:24:50Z</time>
      </trkpt>
      <trkpt lat="45.97002" lon="1.37392">
        <ele>578.23742675781</ele>
        <time>2014-06-08T07:24:55Z</time>
      </trkpt>
      <trkpt lat="45.97007" lon="1.37391">
        <ele>577.72930908203</ele>
        <time>2014-06-08T07:24:57Z</time>
      </trkpt>
      <trkpt lat="45.9702" lon="1.37391">
        <ele>576.44885253906</ele>
        <time>2014-06-08T07:25:01Z</time>
      </trkpt>
      <trkpt lat="45.97028" lon="1.37389">
        <ele>575.63763427734</ele>
        <time>2014-06-08T07:25:04Z</time>
      </trkpt>
      <trkpt lat="45.9704" lon="1.37387">
        <ele>574.46160888672</ele>
        <time>2014-06-08T07:25:10Z</time>
      </trkpt>
      <trkpt lat="45.9705" lon="1.3738">
        <ele>573.77410888672</ele>
        <time>2014-06-08T07:25:15Z</time>
      </trkpt>
      <trkpt lat="45.97066" lon="1.37364">
        <ele>573.07385253906</ele>
        <time>2014-06-08T07:25:22Z</time>
      </trkpt>
      <trkpt lat="45.97077" lon="1.37352">
        <ele>572.58361816406</ele>
        <time>2014-06-08T07:25:27Z</time>
      </trkpt>
      <trkpt lat="45.9708" lon="1.37347">
        <ele>572.53399658203</ele>
        <time>2014-06-08T07:25:29Z</time>
      </trkpt>
      <trkpt lat="45.97094" lon="1.37333">
        <ele>571.40490722656</ele>
        <time>2014-06-08T07:25:36Z</time>
      </trkpt>
      <trkpt lat="45.97105" lon="1.37323">
        <ele>569.51702880859</ele>
        <time>2014-06-08T07:25:41Z</time>
      </trkpt>
      <trkpt lat="45.97116" lon="1.37315">
        <ele>567.86016845703</ele>
        <time>2014-06-08T07:25:46Z</time>
      </trkpt>
      <trkpt lat="45.97116" lon="1.37314">
        <ele>567.72967529297</ele>
        <time>2014-06-08T07:25:47Z</time>
      </trkpt>
      <trkpt lat="45.97129" lon="1.37307">
        <ele>565.80480957031</ele>
        <time>2014-06-08T07:25:52Z</time>
      </trkpt>
      <trkpt lat="45.97137" lon="1.37293">
        <ele>564.49188232422</ele>
        <time>2014-06-08T07:25:56Z</time>
      </trkpt>
      <trkpt lat="45.9715" lon="1.37268">
        <ele>562.24224853516</ele>
        <time>2014-06-08T07:26:03Z</time>
      </trkpt>
      <trkpt lat="45.97163" lon="1.37249">
        <ele>560.34991455078</ele>
        <time>2014-06-08T07:26:09Z</time>
      </trkpt>
      <trkpt lat="45.97174" lon="1.37234">
        <ele>558.79718017578</ele>
        <time>2014-06-08T07:26:14Z</time>
      </trkpt>
      <trkpt lat="45.97186" lon="1.37216">
        <ele>557.33422851562</ele>
        <time>2014-06-08T07:26:20Z</time>
      </trkpt>
      <trkpt lat="45.97197" lon="1.372">
        <ele>556.12066650391</ele>
        <time>2014-06-08T07:26:25Z</time>
      </trkpt>
      <trkpt lat="45.97211" lon="1.37178">
        <ele>554.60998535156</ele>
        <time>2014-06-08T07:26:32Z</time>
      </trkpt>
      <trkpt lat="45.97227" lon="1.37157">
        <ele>553.43933105469</ele>
        <time>2014-06-08T07:26:40Z</time>
      </trkpt>
      <trkpt lat="45.97238" lon="1.37145">
        <ele>552.95843505859</ele>
        <time>2014-06-08T07:26:45Z</time>
      </trkpt>
      <trkpt lat="45.9725" lon="1.37129">
        <ele>552.47155761719</ele>
        <time>2014-06-08T07:26:51Z</time>
      </trkpt>
      <trkpt lat="45.97263" lon="1.37114">
        <ele>553.09423828125</ele>
        <time>2014-06-08T07:26:57Z</time>
      </trkpt>
      <trkpt lat="45.97271" lon="1.37107">
        <ele>553.64434814453</ele>
        <time>2014-06-08T07:27:01Z</time>
      </trkpt>
      <trkpt lat="45.97277" lon="1.371">
        <ele>554.23980712891</ele>
        <time>2014-06-08T07:27:04Z</time>
      </trkpt>
      <trkpt lat="45.9729" lon="1.3709">
        <ele>555.5322265625</ele>
        <time>2014-06-08T07:27:10Z</time>
      </trkpt>
      <trkpt lat="45.97298" lon="1.37083">
        <ele>556.43389892578</ele>
        <time>2014-06-08T07:27:14Z</time>
      </trkpt>
      <trkpt lat="45.97311" lon="1.37076">
        <ele>557.51348876953</ele>
        <time>2014-06-08T07:27:20Z</time>
      </trkpt>
      <trkpt lat="45.97319" lon="1.37077">
        <ele>558.14410400391</ele>
        <time>2014-06-08T07:27:24Z</time>
      </trkpt>
      <trkpt lat="45.97334" lon="1.37073">
        <ele>559.35681152344</ele>
        <time>2014-06-08T07:27:31Z</time>
      </trkpt>
      <trkpt lat="45.97346" lon="1.37069">
        <ele>559.07330322266</ele>
        <time>2014-06-08T07:27:36Z</time>
      </trkpt>
      <trkpt lat="45.97356" lon="1.37066">
        <ele>558.857421875</ele>
        <time>2014-06-08T07:27:41Z</time>
      </trkpt>
      <trkpt lat="45.97367" lon="1.37061">
        <ele>558.81237792969</ele>
        <time>2014-06-08T07:27:46Z</time>
      </trkpt>
      <trkpt lat="45.97374" lon="1.37057">
        <ele>558.90905761719</ele>
        <time>2014-06-08T07:27:49Z</time>
      </trkpt>
      <trkpt lat="45.97385" lon="1.37052">
        <ele>559.03314208984</ele>
        <time>2014-06-08T07:27:54Z</time>
      </trkpt>
      <trkpt lat="45.97389" lon="1.37051">
        <ele>559.03546142578</ele>
        <time>2014-06-08T07:27:56Z</time>
      </trkpt>
      <trkpt lat="45.97401" lon="1.37044">
        <ele>559.48376464844</ele>
        <time>2014-06-08T07:28:02Z</time>
      </trkpt>
      <trkpt lat="45.97409" lon="1.37034">
        <ele>560.35662841797</ele>
        <time>2014-06-08T07:28:06Z</time>
      </trkpt>
      <trkpt lat="45.97412" lon="1.37032">
        <ele>560.59320068359</ele>
        <time>2014-06-08T07:28:08Z</time>
      </trkpt>
      <trkpt lat="45.97424" lon="1.37023">
        <ele>561.27117919922</ele>
        <time>2014-06-08T07:28:14Z</time>
      </trkpt>
      <trkpt lat="45.97432" lon="1.37015">
        <ele>561.93951416016</ele>
        <time>2014-06-08T07:28:19Z</time>
      </trkpt>
      <trkpt lat="45.97447" lon="1.37003">
        <ele>562.58636474609</ele>
        <time>2014-06-08T07:28:25Z</time>
      </trkpt>
      <trkpt lat="45.97456" lon="1.36998">
        <ele>562.54095458984</ele>
        <time>2014-06-08T07:28:29Z</time>
      </trkpt>
      <trkpt lat="45.97469" lon="1.36987">
        <ele>562.04974365234</ele>
        <time>2014-06-08T07:28:35Z</time>
      </trkpt>
      <trkpt lat="45.97482" lon="1.36981">
        <ele>561.67218017578</ele>
        <time>2014-06-08T07:28:40Z</time>
      </trkpt>
      <trkpt lat="45.97492" lon="1.36978">
        <ele>561.45727539062</ele>
        <time>2014-06-08T07:28:44Z</time>
      </trkpt>
      <trkpt lat="45.97506" lon="1.36973">
        <ele>560.87072753906</ele>
        <time>2014-06-08T07:28:49Z</time>
      </trkpt>
      <trkpt lat="45.97521" lon="1.36973">
        <ele>559.62237548828</ele>
        <time>2014-06-08T07:28:55Z</time>
      </trkpt>
      <trkpt lat="45.97536" lon="1.3697">
        <ele>558.54241943359</ele>
        <time>2014-06-08T07:29:01Z</time>
      </trkpt>
      <trkpt lat="45.97551" lon="1.36964">
        <ele>557.61596679688</ele>
        <time>2014-06-08T07:29:07Z</time>
      </trkpt>
      <trkpt lat="45.97554" lon="1.36962">
        <ele>557.48217773438</ele>
        <time>2014-06-08T07:29:08Z</time>
      </trkpt>
      <trkpt lat="45.97569" lon="1.36941">
        <ele>557.47613525391</ele>
        <time>2014-06-08T07:29:15Z</time>
      </trkpt>
      <trkpt lat="45.97578" lon="1.36919">
        <ele>558.10461425781</ele>
        <time>2014-06-08T07:29:21Z</time>
      </trkpt>
      <trkpt lat="45.97585" lon="1.36902">
        <ele>558.79840087891</ele>
        <time>2014-06-08T07:29:26Z</time>
      </trkpt>
      <trkpt lat="45.97593" lon="1.36887">
        <ele>558.78076171875</ele>
        <time>2014-06-08T07:29:31Z</time>
      </trkpt>
      <trkpt lat="45.97602" lon="1.36875">
        <ele>558.02429199219</ele>
        <time>2014-06-08T07:29:36Z</time>
      </trkpt>
      <trkpt lat="45.9761" lon="1.36862">
        <ele>557.30084228516</ele>
        <time>2014-06-08T07:29:41Z</time>
      </trkpt>
      <trkpt lat="45.97621" lon="1.36845">
        <ele>556.02703857422</ele>
        <time>2014-06-08T07:29:47Z</time>
      </trkpt>
      <trkpt lat="45.9763" lon="1.3683">
        <ele>554.64190673828</ele>
        <time>2014-06-08T07:29:52Z</time>
      </trkpt>
      <trkpt lat="45.97638" lon="1.36817">
        <ele>553.70721435547</ele>
        <time>2014-06-08T07:29:56Z</time>
      </trkpt>
      <trkpt lat="45.97647" lon="1.36801">
        <ele>552.75</ele>
        <time>2014-06-08T07:30:01Z</time>
      </trkpt>
      <trkpt lat="45.97666" lon="1.36781">
        <ele>550.87182617188</ele>
        <time>2014-06-08T07:30:09Z</time>
      </trkpt>
      <trkpt lat="45.9768" lon="1.36769">
        <ele>550.16528320312</ele>
        <time>2014-06-08T07:30:15Z</time>
      </trkpt>
      <trkpt lat="45.97694" lon="1.36762">
        <ele>549.12921142578</ele>
        <time>2014-06-08T07:30:20Z</time>
      </trkpt>
      <trkpt lat="45.97701" lon="1.36759">
        <ele>548.4208984375</ele>
        <time>2014-06-08T07:30:23Z</time>
      </trkpt>
      <trkpt lat="45.97715" lon="1.36771">
        <ele>546.42364501953</ele>
        <time>2014-06-08T07:30:29Z</time>
      </trkpt>
      <trkpt lat="45.97728" lon="1.3679">
        <ele>544.54071044922</ele>
        <time>2014-06-08T07:30:35Z</time>
      </trkpt>
      <trkpt lat="45.97736" lon="1.36802">
        <ele>543.52856445312</ele>
        <time>2014-06-08T07:30:39Z</time>
      </trkpt>
      <trkpt lat="45.97745" lon="1.3682">
        <ele>542.49737548828</ele>
        <time>2014-06-08T07:30:45Z</time>
      </trkpt>
      <trkpt lat="45.97751" lon="1.36836">
        <ele>542.18090820312</ele>
        <time>2014-06-08T07:30:50Z</time>
      </trkpt>
      <trkpt lat="45.97758" lon="1.36852">
        <ele>543.48449707031</ele>
        <time>2014-06-08T07:30:55Z</time>
      </trkpt>
      <trkpt lat="45.97766" lon="1.36871">
        <ele>544.7197265625</ele>
        <time>2014-06-08T07:31:01Z</time>
      </trkpt>
      <trkpt lat="45.97771" lon="1.36883">
        <ele>545.34332275391</ele>
        <time>2014-06-08T07:31:05Z</time>
      </trkpt>
      <trkpt lat="45.97778" lon="1.36894">
        <ele>545.630859375</ele>
        <time>2014-06-08T07:31:09Z</time>
      </trkpt>
      <trkpt lat="45.97791" lon="1.36909">
        <ele>545.58563232422</ele>
        <time>2014-06-08T07:31:16Z</time>
      </trkpt>
      <trkpt lat="45.97802" lon="1.3692">
        <ele>545.11944580078</ele>
        <time>2014-06-08T07:31:22Z</time>
      </trkpt>
      <trkpt lat="45.97812" lon="1.3693">
        <ele>544.55242919922</ele>
        <time>2014-06-08T07:31:27Z</time>
      </trkpt>
      <trkpt lat="45.97817" lon="1.36942">
        <ele>544.54718017578</ele>
        <time>2014-06-08T07:31:31Z</time>
      </trkpt>
      <trkpt lat="45.97814" lon="1.3696">
        <ele>545.46411132812</ele>
        <time>2014-06-08T07:31:36Z</time>
      </trkpt>
      <trkpt lat="45.97816" lon="1.36977">
        <ele>545.95074462891</ele>
        <time>2014-06-08T07:31:41Z</time>
      </trkpt>
      <trkpt lat="45.97827" lon="1.36999">
        <ele>546.24548339844</ele>
        <time>2014-06-08T07:31:48Z</time>
      </trkpt>
      <trkpt lat="45.97839" lon="1.37024">
        <ele>546.24584960938</ele>
        <time>2014-06-08T07:31:56Z</time>
      </trkpt>
      <trkpt lat="45.97839" lon="1.37027">
        <ele>546.30279541016</ele>
        <time>2014-06-08T07:31:57Z</time>
      </trkpt>
      <trkpt lat="45.97832" lon="1.37043">
        <ele>546.54718017578</ele>
        <time>2014-06-08T07:32:03Z</time>
      </trkpt>
      <trkpt lat="45.97824" lon="1.37058">
        <ele>546.83880615234</ele>
        <time>2014-06-08T07:32:09Z</time>
      </trkpt>
      <trkpt lat="45.97815" lon="1.37075">
        <ele>546.98773193359</ele>
        <time>2014-06-08T07:32:16Z</time>
      </trkpt>
      <trkpt lat="45.97817" lon="1.37088">
        <ele>547.07012939453</ele>
        <time>2014-06-08T07:32:22Z</time>
      </trkpt>
      <trkpt lat="45.97818" lon="1.3709">
        <ele>547.10223388672</ele>
        <time>2014-06-08T07:32:23Z</time>
      </trkpt>
      <trkpt lat="45.97825" lon="1.37099">
        <ele>547.30578613281</ele>
        <time>2014-06-08T07:32:29Z</time>
      </trkpt>
      <trkpt lat="45.97829" lon="1.37104">
        <ele>547.44830322266</ele>
        <time>2014-06-08T07:32:33Z</time>
      </trkpt>
      <trkpt lat="45.97834" lon="1.37106">
        <ele>547.56048583984</ele>
        <time>2014-06-08T07:32:36Z</time>
      </trkpt>
      <trkpt lat="45.9784" lon="1.3711">
        <ele>547.97399902344</ele>
        <time>2014-06-08T07:32:41Z</time>
      </trkpt>
      <trkpt lat="45.97847" lon="1.37115">
        <ele>548.4892578125</ele>
        <time>2014-06-08T07:32:48Z</time>
      </trkpt>
      <trkpt lat="45.97851" lon="1.37121">
        <ele>548.92016601562</ele>
        <time>2014-06-08T07:32:53Z</time>
      </trkpt>
      <trkpt lat="45.97857" lon="1.37123">
        <ele>549.34887695312</ele>
        <time>2014-06-08T07:32:58Z</time>
      </trkpt>
      <trkpt lat="45.97865" lon="1.37124">
        <ele>549.83459472656</ele>
        <time>2014-06-08T07:33:04Z</time>
      </trkpt>
      <trkpt lat="45.97866" lon="1.37124">
        <ele>549.92175292969</ele>
        <time>2014-06-08T07:33:05Z</time>
      </trkpt>
      <trkpt lat="45.97871" lon="1.37128">
        <ele>550.36846923828</ele>
        <time>2014-06-08T07:33:09Z</time>
      </trkpt>
      <trkpt lat="45.97876" lon="1.37138">
        <ele>551.20910644531</ele>
        <time>2014-06-08T07:33:16Z</time>
      </trkpt>
      <trkpt lat="45.97884" lon="1.37159">
        <ele>552.8974609375</ele>
        <time>2014-06-08T07:33:24Z</time>
      </trkpt>
      <trkpt lat="45.97884" lon="1.37177">
        <ele>553.89318847656</ele>
        <time>2014-06-08T07:33:30Z</time>
      </trkpt>
      <trkpt lat="45.9788" lon="1.37194">
        <ele>554.43115234375</ele>
        <time>2014-06-08T07:33:36Z</time>
      </trkpt>
      <trkpt lat="45.97877" lon="1.37209">
        <ele>554.97668457031</ele>
        <time>2014-06-08T07:33:41Z</time>
      </trkpt>
      <trkpt lat="45.97874" lon="1.37222">
        <ele>555.41290283203</ele>
        <time>2014-06-08T07:33:46Z</time>
      </trkpt>
      <trkpt lat="45.97872" lon="1.37235">
        <ele>555.82879638672</ele>
        <time>2014-06-08T07:33:51Z</time>
      </trkpt>
      <trkpt lat="45.97867" lon="1.37252">
        <ele>556.08862304688</ele>
        <time>2014-06-08T07:33:57Z</time>
      </trkpt>
      <trkpt lat="45.97863" lon="1.37263">
        <ele>555.71221923828</ele>
        <time>2014-06-08T07:34:01Z</time>
      </trkpt>
      <trkpt lat="45.9786" lon="1.37286">
        <ele>555.79486083984</ele>
        <time>2014-06-08T07:34:08Z</time>
      </trkpt>
      <trkpt lat="45.9786" lon="1.37303">
        <ele>556.09466552734</ele>
        <time>2014-06-08T07:34:14Z</time>
      </trkpt>
      <trkpt lat="45.97859" lon="1.37326">
        <ele>556.39685058594</ele>
        <time>2014-06-08T07:34:21Z</time>
      </trkpt>
      <trkpt lat="45.97859" lon="1.37346">
        <ele>556.49578857422</ele>
        <time>2014-06-08T07:34:27Z</time>
      </trkpt>
      <trkpt lat="45.9786" lon="1.37361">
        <ele>556.52056884766</ele>
        <time>2014-06-08T07:34:32Z</time>
      </trkpt>
      <trkpt lat="45.97862" lon="1.37381">
        <ele>556.49975585938</ele>
        <time>2014-06-08T07:34:38Z</time>
      </trkpt>
      <trkpt lat="45.97867" lon="1.37405">
        <ele>556.49536132812</ele>
        <time>2014-06-08T07:34:45Z</time>
      </trkpt>
      <trkpt lat="45.97874" lon="1.37419">
        <ele>556.41485595703</ele>
        <time>2014-06-08T07:34:50Z</time>
      </trkpt>
      <trkpt lat="45.97882" lon="1.37428">
        <ele>556.17846679688</ele>
        <time>2014-06-08T07:34:54Z</time>
      </trkpt>
      <trkpt lat="45.97892" lon="1.37426">
        <ele>556.2958984375</ele>
        <time>2014-06-08T07:34:58Z</time>
      </trkpt>
      <trkpt lat="45.97908" lon="1.37424">
        <ele>556.52355957031</ele>
        <time>2014-06-08T07:35:04Z</time>
      </trkpt>
      <trkpt lat="45.97923" lon="1.37426">
        <ele>556.32373046875</ele>
        <time>2014-06-08T07:35:10Z</time>
      </trkpt>
      <trkpt lat="45.97935" lon="1.37431">
        <ele>555.81219482422</ele>
        <time>2014-06-08T07:35:15Z</time>
      </trkpt>
      <trkpt lat="45.97949" lon="1.37445">
        <ele>554.63983154297</ele>
        <time>2014-06-08T07:35:21Z</time>
      </trkpt>
      <trkpt lat="45.97958" lon="1.37455">
        <ele>553.70739746094</ele>
        <time>2014-06-08T07:35:25Z</time>
      </trkpt>
      <trkpt lat="45.97968" lon="1.37461">
        <ele>553.05065917969</ele>
        <time>2014-06-08T07:35:29Z</time>
      </trkpt>
      <trkpt lat="45.97979" lon="1.37462">
        <ele>552.68664550781</ele>
        <time>2014-06-08T07:35:34Z</time>
      </trkpt>
      <trkpt lat="45.97997" lon="1.3746">
        <ele>552.45465087891</ele>
        <time>2014-06-08T07:35:40Z</time>
      </trkpt>
      <trkpt lat="45.9801" lon="1.37459">
        <ele>551.22955322266</ele>
        <time>2014-06-08T07:35:45Z</time>
      </trkpt>
      <trkpt lat="45.9802" lon="1.37458">
        <ele>549.98571777344</ele>
        <time>2014-06-08T07:35:49Z</time>
      </trkpt>
      <trkpt lat="45.98037" lon="1.37458">
        <ele>547.89617919922</ele>
        <time>2014-06-08T07:35:55Z</time>
      </trkpt>
      <trkpt lat="45.98056" lon="1.37458">
        <ele>545.39300537109</ele>
        <time>2014-06-08T07:36:02Z</time>
      </trkpt>
      <trkpt lat="45.98072" lon="1.37461">
        <ele>543.40191650391</ele>
        <time>2014-06-08T07:36:08Z</time>
      </trkpt>
      <trkpt lat="45.98087" lon="1.37469">
        <ele>542.43957519531</ele>
        <time>2014-06-08T07:36:14Z</time>
      </trkpt>
      <trkpt lat="45.98096" lon="1.37475">
        <ele>543.12438964844</ele>
        <time>2014-06-08T07:36:19Z</time>
      </trkpt>
      <trkpt lat="45.98106" lon="1.37476">
        <ele>543.69512939453</ele>
        <time>2014-06-08T07:36:25Z</time>
      </trkpt>
      <trkpt lat="45.98114" lon="1.37476">
        <ele>544.12438964844</ele>
        <time>2014-06-08T07:36:29Z</time>
      </trkpt>
      <trkpt lat="45.98126" lon="1.37479">
        <ele>544.89593505859</ele>
        <time>2014-06-08T07:36:34Z</time>
      </trkpt>
      <trkpt lat="45.98137" lon="1.3748">
        <ele>545.63781738281</ele>
        <time>2014-06-08T07:36:39Z</time>
      </trkpt>
      <trkpt lat="45.98151" lon="1.37478">
        <ele>546.21838378906</ele>
        <time>2014-06-08T07:36:45Z</time>
      </trkpt>
      <trkpt lat="45.98164" lon="1.37477">
        <ele>546.91143798828</ele>
        <time>2014-06-08T07:36:52Z</time>
      </trkpt>
      <trkpt lat="45.98175" lon="1.37477">
        <ele>547.19665527344</ele>
        <time>2014-06-08T07:36:58Z</time>
      </trkpt>
      <trkpt lat="45.9819" lon="1.37477">
        <ele>547.42352294922</ele>
        <time>2014-06-08T07:37:06Z</time>
      </trkpt>
      <trkpt lat="45.98199" lon="1.37476">
        <ele>547.47106933594</ele>
        <time>2014-06-08T07:37:12Z</time>
      </trkpt>
      <trkpt lat="45.98201" lon="1.37476">
        <ele>547.50622558594</ele>
        <time>2014-06-08T07:37:13Z</time>
      </trkpt>
      <trkpt lat="45.98217" lon="1.37479">
        <ele>548.00964355469</ele>
        <time>2014-06-08T07:37:22Z</time>
      </trkpt>
      <trkpt lat="45.98223" lon="1.3748">
        <ele>548.18591308594</ele>
        <time>2014-06-08T07:37:25Z</time>
      </trkpt>
      <trkpt lat="45.98235" lon="1.3748">
        <ele>548.32366943359</ele>
        <time>2014-06-08T07:37:32Z</time>
      </trkpt>
      <trkpt lat="45.98248" lon="1.37481">
        <ele>548.62042236328</ele>
        <time>2014-06-08T07:37:37Z</time>
      </trkpt>
      <trkpt lat="45.98251" lon="1.37481">
        <ele>548.42462158203</ele>
        <time>2014-06-08T07:37:38Z</time>
      </trkpt>
      <trkpt lat="45.98264" lon="1.37486">
        <ele>545.83624267578</ele>
        <time>2014-06-08T07:37:44Z</time>
      </trkpt>
      <trkpt lat="45.98272" lon="1.37479">
        <ele>543.74639892578</ele>
        <time>2014-06-08T07:37:48Z</time>
      </trkpt>
      <trkpt lat="45.98274" lon="1.37462">
        <ele>542.95495605469</ele>
        <time>2014-06-08T07:37:54Z</time>
      </trkpt>
      <trkpt lat="45.98273" lon="1.37459">
        <ele>542.9970703125</ele>
        <time>2014-06-08T07:37:55Z</time>
      </trkpt>
      <trkpt lat="45.98269" lon="1.37438">
        <ele>543.01904296875</ele>
        <time>2014-06-08T07:38:01Z</time>
      </trkpt>
      <trkpt lat="45.9827" lon="1.37414">
        <ele>542.01635742188</ele>
        <time>2014-06-08T07:38:07Z</time>
      </trkpt>
      <trkpt lat="45.98277" lon="1.37392">
        <ele>541.07141113281</ele>
        <time>2014-06-08T07:38:13Z</time>
      </trkpt>
      <trkpt lat="45.98285" lon="1.37371">
        <ele>540.52203369141</ele>
        <time>2014-06-08T07:38:19Z</time>
      </trkpt>
      <trkpt lat="45.98286" lon="1.37359">
        <ele>540.46569824219</ele>
        <time>2014-06-08T07:38:23Z</time>
      </trkpt>
      <trkpt lat="45.98286" lon="1.37357">
        <ele>540.47039794922</ele>
        <time>2014-06-08T07:38:24Z</time>
      </trkpt>
      <trkpt lat="45.98289" lon="1.37344">
        <ele>540.44049072266</ele>
        <time>2014-06-08T07:38:32Z</time>
      </trkpt>
      <trkpt lat="45.98289" lon="1.37343">
        <ele>540.44421386719</ele>
        <time>2014-06-08T07:38:33Z</time>
      </trkpt>
      <trkpt lat="45.98291" lon="1.37337">
        <ele>540.47113037109</ele>
        <time>2014-06-08T07:38:41Z</time>
      </trkpt>
      <trkpt lat="45.98292" lon="1.37335">
        <ele>540.49267578125</ele>
        <time>2014-06-08T07:38:47Z</time>
      </trkpt>
      <trkpt lat="45.98294" lon="1.37331">
        <ele>540.51031494141</ele>
        <time>2014-06-08T07:38:52Z</time>
      </trkpt>
      <trkpt lat="45.98296" lon="1.37327">
        <ele>540.49395751953</ele>
        <time>2014-06-08T07:38:59Z</time>
      </trkpt>
      <trkpt lat="45.98298" lon="1.37324">
        <ele>540.46875</ele>
        <time>2014-06-08T07:39:04Z</time>
      </trkpt>
      <trkpt lat="45.98296" lon="1.37326">
        <ele>540.47564697266</ele>
        <time>2014-06-08T07:39:09Z</time>
      </trkpt>
      <trkpt lat="45.98297" lon="1.37324">
        <ele>540.46844482422</ele>
        <time>2014-06-08T07:39:16Z</time>
      </trkpt>
      <trkpt lat="45.98299" lon="1.37322">
        <ele>540.46655273438</ele>
        <time>2014-06-08T07:39:22Z</time>
      </trkpt>
      <trkpt lat="45.98299" lon="1.37323">
        <ele>540.47845458984</ele>
        <time>2014-06-08T07:39:26Z</time>
      </trkpt>
      <trkpt lat="45.98298" lon="1.37323">
        <ele>540.47009277344</ele>
        <time>2014-06-08T07:39:33Z</time>
      </trkpt>
      <trkpt lat="45.98298" lon="1.37321">
        <ele>540.45910644531</ele>
        <time>2014-06-08T07:39:44Z</time>
      </trkpt>
      <trkpt lat="45.98298" lon="1.37325">
        <ele>540.47894287109</ele>
        <time>2014-06-08T07:39:50Z</time>
      </trkpt>
      <trkpt lat="45.98297" lon="1.3733">
        <ele>540.52740478516</ele>
        <time>2014-06-08T07:39:57Z</time>
      </trkpt>
      <trkpt lat="45.98296" lon="1.37329">
        <ele>540.50604248047</ele>
        <time>2014-06-08T07:40:05Z</time>
      </trkpt>
      <trkpt lat="45.98296" lon="1.37324">
        <ele>540.455078125</ele>
        <time>2014-06-08T07:40:12Z</time>
      </trkpt>
      <trkpt lat="45.98295" lon="1.37317">
        <ele>540.36059570312</ele>
        <time>2014-06-08T07:40:18Z</time>
      </trkpt>
      <trkpt lat="45.98296" lon="1.37316">
        <ele>540.36108398438</ele>
        <time>2014-06-08T07:40:31Z</time>
      </trkpt>
      <trkpt lat="45.98297" lon="1.37316">
        <ele>540.38775634766</ele>
        <time>2014-06-08T07:40:35Z</time>
      </trkpt>
      <trkpt lat="45.98297" lon="1.37312">
        <ele>540.34649658203</ele>
        <time>2014-06-08T07:40:38Z</time>
      </trkpt>
      <trkpt lat="45.98297" lon="1.37303">
        <ele>540.23834228516</ele>
        <time>2014-06-08T07:40:44Z</time>
      </trkpt>
      <trkpt lat="45.98297" lon="1.37301">
        <ele>540.23236083984</ele>
        <time>2014-06-08T07:40:45Z</time>
      </trkpt>
      <trkpt lat="45.98311" lon="1.37297">
        <ele>540.49340820312</ele>
        <time>2014-06-08T07:40:56Z</time>
      </trkpt>
      <trkpt lat="45.98312" lon="1.37296">
        <ele>540.51708984375</ele>
        <time>2014-06-08T07:40:57Z</time>
      </trkpt>
      <trkpt lat="45.9832" lon="1.37286">
        <ele>540.65002441406</ele>
        <time>2014-06-08T07:41:06Z</time>
      </trkpt>
      <trkpt lat="45.98326" lon="1.37275">
        <ele>540.80200195312</ele>
        <time>2014-06-08T07:41:11Z</time>
      </trkpt>
      <trkpt lat="45.98333" lon="1.37256">
        <ele>540.98785400391</ele>
        <time>2014-06-08T07:41:16Z</time>
      </trkpt>
      <trkpt lat="45.98343" lon="1.37248">
        <ele>541.04614257812</ele>
        <time>2014-06-08T07:41:21Z</time>
      </trkpt>
      <trkpt lat="45.98354" lon="1.37245">
        <ele>541.06646728516</ele>
        <time>2014-06-08T07:41:26Z</time>
      </trkpt>
      <trkpt lat="45.98364" lon="1.37241">
        <ele>541.04815673828</ele>
        <time>2014-06-08T07:41:31Z</time>
      </trkpt>
      <trkpt lat="45.98378" lon="1.37231">
        <ele>540.84832763672</ele>
        <time>2014-06-08T07:41:36Z</time>
      </trkpt>
      <trkpt lat="45.9838" lon="1.37229">
        <ele>540.79083251953</ele>
        <time>2014-06-08T07:41:37Z</time>
      </trkpt>
      <trkpt lat="45.98391" lon="1.37217">
        <ele>540.49072265625</ele>
        <time>2014-06-08T07:41:42Z</time>
      </trkpt>
      <trkpt lat="45.98399" lon="1.37202">
        <ele>540.05279541016</ele>
        <time>2014-06-08T07:41:47Z</time>
      </trkpt>
      <trkpt lat="45.98409" lon="1.37184">
        <ele>539.51434326172</ele>
        <time>2014-06-08T07:41:53Z</time>
      </trkpt>
      <trkpt lat="45.98419" lon="1.37175">
        <ele>539.00805664062</ele>
        <time>2014-06-08T07:41:58Z</time>
      </trkpt>
      <trkpt lat="45.98429" lon="1.37168">
        <ele>537.37225341797</ele>
        <time>2014-06-08T07:42:03Z</time>
      </trkpt>
      <trkpt lat="45.98446" lon="1.3716">
        <ele>534.47247314453</ele>
        <time>2014-06-08T07:42:09Z</time>
      </trkpt>
      <trkpt lat="45.98457" lon="1.37159">
        <ele>532.9619140625</ele>
        <time>2014-06-08T07:42:14Z</time>
      </trkpt>
      <trkpt lat="45.98466" lon="1.3716">
        <ele>531.93328857422</ele>
        <time>2014-06-08T07:42:18Z</time>
      </trkpt>
      <trkpt lat="45.98476" lon="1.37165">
        <ele>530.98431396484</ele>
        <time>2014-06-08T07:42:23Z</time>
      </trkpt>
      <trkpt lat="45.98479" lon="1.37166">
        <ele>530.78881835938</ele>
        <time>2014-06-08T07:42:24Z</time>
      </trkpt>
      <trkpt lat="45.98487" lon="1.37174">
        <ele>530.08117675781</ele>
        <time>2014-06-08T07:42:28Z</time>
      </trkpt>
      <trkpt lat="45.98497" lon="1.37191">
        <ele>529.77612304688</ele>
        <time>2014-06-08T07:42:34Z</time>
      </trkpt>
      <trkpt lat="45.98503" lon="1.37203">
        <ele>529.56707763672</ele>
        <time>2014-06-08T07:42:38Z</time>
      </trkpt>
      <trkpt lat="45.98505" lon="1.37212">
        <ele>529.61169433594</ele>
        <time>2014-06-08T07:42:41Z</time>
      </trkpt>
      <trkpt lat="45.98508" lon="1.37226">
        <ele>529.40600585938</ele>
        <time>2014-06-08T07:42:46Z</time>
      </trkpt>
      <trkpt lat="45.98513" lon="1.37245">
        <ele>528.66876220703</ele>
        <time>2014-06-08T07:42:52Z</time>
      </trkpt>
      <trkpt lat="45.98517" lon="1.37265">
        <ele>525.51629638672</ele>
        <time>2014-06-08T07:42:58Z</time>
      </trkpt>
      <trkpt lat="45.98517" lon="1.37285">
        <ele>522.50329589844</ele>
        <time>2014-06-08T07:43:03Z</time>
      </trkpt>
      <trkpt lat="45.98518" lon="1.37289">
        <ele>521.68530273438</ele>
        <time>2014-06-08T07:43:04Z</time>
      </trkpt>
      <trkpt lat="45.98514" lon="1.37303">
        <ele>520.90570068359</ele>
        <time>2014-06-08T07:43:08Z</time>
      </trkpt>
      <trkpt lat="45.98507" lon="1.37321">
        <ele>520.41473388672</ele>
        <time>2014-06-08T07:43:14Z</time>
      </trkpt>
      <trkpt lat="45.98497" lon="1.37338">
        <ele>520.46295166016</ele>
        <time>2014-06-08T07:43:20Z</time>
      </trkpt>
      <trkpt lat="45.98487" lon="1.3735">
        <ele>519.55975341797</ele>
        <time>2014-06-08T07:43:25Z</time>
      </trkpt>
      <trkpt lat="45.98475" lon="1.37363">
        <ele>518.76605224609</ele>
        <time>2014-06-08T07:43:31Z</time>
      </trkpt>
      <trkpt lat="45.98472" lon="1.37369">
        <ele>518.12805175781</ele>
        <time>2014-06-08T07:43:33Z</time>
      </trkpt>
      <trkpt lat="45.98478" lon="1.37376">
        <ele>515.25750732422</ele>
        <time>2014-06-08T07:43:38Z</time>
      </trkpt>
      <trkpt lat="45.98481" lon="1.37376">
        <ele>514.96026611328</ele>
        <time>2014-06-08T07:43:39Z</time>
      </trkpt>
      <trkpt lat="45.98495" lon="1.37374">
        <ele>512.63116455078</ele>
        <time>2014-06-08T07:43:44Z</time>
      </trkpt>
      <trkpt lat="45.98508" lon="1.3737">
        <ele>510.29415893555</ele>
        <time>2014-06-08T07:43:49Z</time>
      </trkpt>
      <trkpt lat="45.9852" lon="1.37366">
        <ele>507.47521972656</ele>
        <time>2014-06-08T07:43:54Z</time>
      </trkpt>
      <trkpt lat="45.9853" lon="1.37363">
        <ele>505.17614746094</ele>
        <time>2014-06-08T07:43:59Z</time>
      </trkpt>
      <trkpt lat="45.9854" lon="1.3736">
        <ele>502.7204284668</ele>
        <time>2014-06-08T07:44:04Z</time>
      </trkpt>
      <trkpt lat="45.98546" lon="1.37355">
        <ele>501.72891235352</ele>
        <time>2014-06-08T07:44:08Z</time>
      </trkpt>
      <trkpt lat="45.98555" lon="1.37345">
        <ele>500.54244995117</ele>
        <time>2014-06-08T07:44:12Z</time>
      </trkpt>
      <trkpt lat="45.98562" lon="1.37337">
        <ele>499.60430908203</ele>
        <time>2014-06-08T07:44:15Z</time>
      </trkpt>
      <trkpt lat="45.9857" lon="1.37325">
        <ele>498.83056640625</ele>
        <time>2014-06-08T07:44:20Z</time>
      </trkpt>
      <trkpt lat="45.9858" lon="1.37309">
        <ele>498.23791503906</ele>
        <time>2014-06-08T07:44:26Z</time>
      </trkpt>
      <trkpt lat="45.98584" lon="1.37304">
        <ele>497.82763671875</ele>
        <time>2014-06-08T07:44:28Z</time>
      </trkpt>
      <trkpt lat="45.98596" lon="1.3729">
        <ele>498.34658813477</ele>
        <time>2014-06-08T07:44:35Z</time>
      </trkpt>
      <trkpt lat="45.98608" lon="1.37282">
        <ele>498.0270690918</ele>
        <time>2014-06-08T07:44:40Z</time>
      </trkpt>
      <trkpt lat="45.98616" lon="1.37275">
        <ele>497.94882202148</ele>
        <time>2014-06-08T07:44:43Z</time>
      </trkpt>
      <trkpt lat="45.98635" lon="1.37269">
        <ele>496.22079467773</ele>
        <time>2014-06-08T07:44:50Z</time>
      </trkpt>
      <trkpt lat="45.98644" lon="1.37267">
        <ele>495.27471923828</ele>
        <time>2014-06-08T07:44:54Z</time>
      </trkpt>
      <trkpt lat="45.98654" lon="1.37256">
        <ele>495.86727905273</ele>
        <time>2014-06-08T07:45:01Z</time>
      </trkpt>
      <trkpt lat="45.98663" lon="1.3724">
        <ele>497.66738891602</ele>
        <time>2014-06-08T07:45:08Z</time>
      </trkpt>
      <trkpt lat="45.98666" lon="1.37234">
        <ele>498.55120849609</ele>
        <time>2014-06-08T07:45:11Z</time>
      </trkpt>
      <trkpt lat="45.98668" lon="1.37225">
        <ele>500.0185546875</ele>
        <time>2014-06-08T07:45:16Z</time>
      </trkpt>
      <trkpt lat="45.98669" lon="1.37223">
        <ele>500.44927978516</ele>
        <time>2014-06-08T07:45:18Z</time>
      </trkpt>
      <trkpt lat="45.98671" lon="1.37212">
        <ele>502.47775268555</ele>
        <time>2014-06-08T07:45:25Z</time>
      </trkpt>
      <trkpt lat="45.98671" lon="1.37205">
        <ele>503.86865234375</ele>
        <time>2014-06-08T07:45:29Z</time>
      </trkpt>
      <trkpt lat="45.98672" lon="1.37191">
        <ele>506.56677246094</ele>
        <time>2014-06-08T07:45:34Z</time>
      </trkpt>
      <trkpt lat="45.98673" lon="1.37188">
        <ele>507.04116821289</ele>
        <time>2014-06-08T07:45:35Z</time>
      </trkpt>
      <trkpt lat="45.98673" lon="1.37183">
        <ele>508.25158691406</ele>
        <time>2014-06-08T07:45:37Z</time>
      </trkpt>
      <trkpt lat="45.98678" lon="1.37163">
        <ele>511.55368041992</ele>
        <time>2014-06-08T07:45:44Z</time>
      </trkpt>
      <trkpt lat="45.98685" lon="1.37149">
        <ele>513.32122802734</ele>
        <time>2014-06-08T07:45:49Z</time>
      </trkpt>
      <trkpt lat="45.98697" lon="1.37143">
        <ele>512.15734863281</ele>
        <time>2014-06-08T07:45:54Z</time>
      </trkpt>
      <trkpt lat="45.98713" lon="1.37146">
        <ele>508.01232910156</ele>
        <time>2014-06-08T07:46:00Z</time>
      </trkpt>
      <trkpt lat="45.98727" lon="1.37154">
        <ele>503.02096557617</ele>
        <time>2014-06-08T07:46:06Z</time>
      </trkpt>
      <trkpt lat="45.98741" lon="1.37162">
        <ele>498.10745239258</ele>
        <time>2014-06-08T07:46:12Z</time>
      </trkpt>
      <trkpt lat="45.98748" lon="1.3717">
        <ele>494.70529174805</ele>
        <time>2014-06-08T07:46:16Z</time>
      </trkpt>
      <trkpt lat="45.98758" lon="1.37181">
        <ele>491.45123291016</ele>
        <time>2014-06-08T07:46:20Z</time>
      </trkpt>
      <trkpt lat="45.98767" lon="1.37198">
        <ele>487.48007202148</ele>
        <time>2014-06-08T07:46:26Z</time>
      </trkpt>
      <trkpt lat="45.98779" lon="1.3722">
        <ele>483.21408081055</ele>
        <time>2014-06-08T07:46:33Z</time>
      </trkpt>
      <trkpt lat="45.98787" lon="1.37233">
        <ele>480.89874267578</ele>
        <time>2014-06-08T07:46:38Z</time>
      </trkpt>
      <trkpt lat="45.98795" lon="1.37253">
        <ele>478.63159179688</ele>
        <time>2014-06-08T07:46:44Z</time>
      </trkpt>
      <trkpt lat="45.988" lon="1.37269">
        <ele>479.62329101562</ele>
        <time>2014-06-08T07:46:50Z</time>
      </trkpt>
      <trkpt lat="45.98808" lon="1.37283">
        <ele>480.82699584961</ele>
        <time>2014-06-08T07:46:57Z</time>
      </trkpt>
      <trkpt lat="45.98812" lon="1.37287">
        <ele>481.23785400391</ele>
        <time>2014-06-08T07:46:59Z</time>
      </trkpt>
      <trkpt lat="45.98815" lon="1.37294">
        <ele>481.89987182617</ele>
        <time>2014-06-08T07:47:03Z</time>
      </trkpt>
      <trkpt lat="45.98819" lon="1.37307">
        <ele>483.2619934082</ele>
        <time>2014-06-08T07:47:10Z</time>
      </trkpt>
      <trkpt lat="45.9882" lon="1.37309">
        <ele>483.50384521484</ele>
        <time>2014-06-08T07:47:11Z</time>
      </trkpt>
      <trkpt lat="45.98829" lon="1.37321">
        <ele>485.29476928711</ele>
        <time>2014-06-08T07:47:17Z</time>
      </trkpt>
      <trkpt lat="45.98831" lon="1.37323">
        <ele>485.62670898438</ele>
        <time>2014-06-08T07:47:18Z</time>
      </trkpt>
      <trkpt lat="45.9884" lon="1.37333">
        <ele>488.02743530273</ele>
        <time>2014-06-08T07:47:25Z</time>
      </trkpt>
      <trkpt lat="45.98846" lon="1.37341">
        <ele>489.12435913086</ele>
        <time>2014-06-08T07:47:31Z</time>
      </trkpt>
      <trkpt lat="45.98848" lon="1.37344">
        <ele>489.43508911133</ele>
        <time>2014-06-08T07:47:33Z</time>
      </trkpt>
      <trkpt lat="45.98853" lon="1.3735">
        <ele>490.12826538086</ele>
        <time>2014-06-08T07:47:37Z</time>
      </trkpt>
      <trkpt lat="45.98856" lon="1.37354">
        <ele>490.60784912109</ele>
        <time>2014-06-08T07:47:40Z</time>
      </trkpt>
      <trkpt lat="45.98862" lon="1.37358">
        <ele>491.35998535156</ele>
        <time>2014-06-08T07:47:45Z</time>
      </trkpt>
      <trkpt lat="45.98871" lon="1.37365">
        <ele>492.41442871094</ele>
        <time>2014-06-08T07:47:53Z</time>
      </trkpt>
      <trkpt lat="45.98878" lon="1.37371">
        <ele>493.13534545898</ele>
        <time>2014-06-08T07:47:59Z</time>
      </trkpt>
      <trkpt lat="45.98883" lon="1.37375">
        <ele>493.66137695312</ele>
        <time>2014-06-08T07:48:04Z</time>
      </trkpt>
      <trkpt lat="45.98888" lon="1.37375">
        <ele>494.18014526367</ele>
        <time>2014-06-08T07:48:08Z</time>
      </trkpt>
      <trkpt lat="45.98894" lon="1.3737">
        <ele>495.11410522461</ele>
        <time>2014-06-08T07:48:16Z</time>
      </trkpt>
      <trkpt lat="45.98901" lon="1.37367">
        <ele>496.01525878906</ele>
        <time>2014-06-08T07:48:21Z</time>
      </trkpt>
      <trkpt lat="45.98904" lon="1.37364">
        <ele>496.60549926758</ele>
        <time>2014-06-08T07:48:25Z</time>
      </trkpt>
      <trkpt lat="45.98913" lon="1.3736">
        <ele>497.87606811523</ele>
        <time>2014-06-08T07:48:32Z</time>
      </trkpt>
      <trkpt lat="45.98917" lon="1.37359">
        <ele>498.49835205078</ele>
        <time>2014-06-08T07:48:35Z</time>
      </trkpt>
      <trkpt lat="45.9892" lon="1.37354">
        <ele>498.96939086914</ele>
        <time>2014-06-08T07:48:39Z</time>
      </trkpt>
      <trkpt lat="45.98925" lon="1.37348">
        <ele>499.69369506836</ele>
        <time>2014-06-08T07:48:45Z</time>
      </trkpt>
      <trkpt lat="45.98932" lon="1.37335">
        <ele>500.98077392578</ele>
        <time>2014-06-08T07:48:51Z</time>
      </trkpt>
      <trkpt lat="45.98941" lon="1.37322">
        <ele>500.66537475586</ele>
        <time>2014-06-08T07:48:57Z</time>
      </trkpt>
      <trkpt lat="45.98949" lon="1.37311">
        <ele>500.47750854492</ele>
        <time>2014-06-08T07:49:03Z</time>
      </trkpt>
      <trkpt lat="45.98957" lon="1.37307">
        <ele>500.8444519043</ele>
        <time>2014-06-08T07:49:10Z</time>
      </trkpt>
      <trkpt lat="45.98964" lon="1.37308">
        <ele>501.47863769531</ele>
        <time>2014-06-08T07:49:16Z</time>
      </trkpt>
      <trkpt lat="45.98971" lon="1.37311">
        <ele>502.34939575195</ele>
        <time>2014-06-08T07:49:22Z</time>
      </trkpt>
      <trkpt lat="45.9898" lon="1.37315">
        <ele>503.34854125977</ele>
        <time>2014-06-08T07:49:26Z</time>
      </trkpt>
      <trkpt lat="45.98991" lon="1.37314">
        <ele>504.31048583984</ele>
        <time>2014-06-08T07:49:32Z</time>
      </trkpt>
      <trkpt lat="45.99002" lon="1.37313">
        <ele>505.09375</ele>
        <time>2014-06-08T07:49:37Z</time>
      </trkpt>
      <trkpt lat="45.99014" lon="1.37312">
        <ele>505.5260925293</ele>
        <time>2014-06-08T07:49:43Z</time>
      </trkpt>
      <trkpt lat="45.99015" lon="1.37311">
        <ele>505.58801269531</ele>
        <time>2014-06-08T07:49:44Z</time>
      </trkpt>
      <trkpt lat="45.99026" lon="1.37311">
        <ele>506.05029296875</ele>
        <time>2014-06-08T07:49:50Z</time>
      </trkpt>
      <trkpt lat="45.99041" lon="1.37318">
        <ele>506.93597412109</ele>
        <time>2014-06-08T07:49:57Z</time>
      </trkpt>
      <trkpt lat="45.99053" lon="1.37327">
        <ele>507.69793701172</ele>
        <time>2014-06-08T07:50:03Z</time>
      </trkpt>
      <trkpt lat="45.99063" lon="1.37338">
        <ele>508.11126708984</ele>
        <time>2014-06-08T07:50:08Z</time>
      </trkpt>
      <trkpt lat="45.99075" lon="1.37355">
        <ele>508.05899047852</ele>
        <time>2014-06-08T07:50:15Z</time>
      </trkpt>
      <trkpt lat="45.99084" lon="1.37364">
        <ele>508.21978759766</ele>
        <time>2014-06-08T07:50:19Z</time>
      </trkpt>
      <trkpt lat="45.99099" lon="1.37368">
        <ele>507.56689453125</ele>
        <time>2014-06-08T07:50:25Z</time>
      </trkpt>
      <trkpt lat="45.9911" lon="1.37367">
        <ele>507.17367553711</ele>
        <time>2014-06-08T07:50:29Z</time>
      </trkpt>
      <trkpt lat="45.99123" lon="1.37364">
        <ele>506.7001953125</ele>
        <time>2014-06-08T07:50:35Z</time>
      </trkpt>
      <trkpt lat="45.99137" lon="1.37364">
        <ele>506.17080688477</ele>
        <time>2014-06-08T07:50:41Z</time>
      </trkpt>
      <trkpt lat="45.99149" lon="1.3737">
        <ele>505.64797973633</ele>
        <time>2014-06-08T07:50:46Z</time>
      </trkpt>
      <trkpt lat="45.99159" lon="1.3738">
        <ele>505.27084350586</ele>
        <time>2014-06-08T07:50:51Z</time>
      </trkpt>
      <trkpt lat="45.9917" lon="1.37391">
        <ele>505.30065917969</ele>
        <time>2014-06-08T07:50:58Z</time>
      </trkpt>
      <trkpt lat="45.99184" lon="1.37399">
        <ele>506.66018676758</ele>
        <time>2014-06-08T07:51:05Z</time>
      </trkpt>
      <trkpt lat="45.99194" lon="1.37404">
        <ele>507.5686340332</ele>
        <time>2014-06-08T07:51:10Z</time>
      </trkpt>
      <trkpt lat="45.99205" lon="1.37408">
        <ele>508.59970092773</ele>
        <time>2014-06-08T07:51:16Z</time>
      </trkpt>
      <trkpt lat="45.99208" lon="1.3741">
        <ele>508.96960449219</ele>
        <time>2014-06-08T07:51:18Z</time>
      </trkpt>
      <trkpt lat="45.9922" lon="1.37414">
        <ele>510.08706665039</ele>
        <time>2014-06-08T07:51:24Z</time>
      </trkpt>
      <trkpt lat="45.99223" lon="1.37415">
        <ele>510.35446166992</ele>
        <time>2014-06-08T07:51:26Z</time>
      </trkpt>
      <trkpt lat="45.99233" lon="1.37421">
        <ele>511.52249145508</ele>
        <time>2014-06-08T07:51:34Z</time>
      </trkpt>
      <trkpt lat="45.99234" lon="1.37421">
        <ele>511.6477355957</ele>
        <time>2014-06-08T07:51:35Z</time>
      </trkpt>
      <trkpt lat="45.99245" lon="1.3742">
        <ele>512.63848876953</ele>
        <time>2014-06-08T07:51:41Z</time>
      </trkpt>
      <trkpt lat="45.99259" lon="1.37417">
        <ele>514.07525634766</ele>
        <time>2014-06-08T07:51:48Z</time>
      </trkpt>
      <trkpt lat="45.99271" lon="1.37413">
        <ele>515.46429443359</ele>
        <time>2014-06-08T07:51:55Z</time>
      </trkpt>
      <trkpt lat="45.99282" lon="1.37413">
        <ele>516.80993652344</ele>
        <time>2014-06-08T07:52:02Z</time>
      </trkpt>
      <trkpt lat="45.99293" lon="1.37414">
        <ele>518.19439697266</ele>
        <time>2014-06-08T07:52:10Z</time>
      </trkpt>
      <trkpt lat="45.99303" lon="1.37417">
        <ele>519.36322021484</ele>
        <time>2014-06-08T07:52:17Z</time>
      </trkpt>
      <trkpt lat="45.99312" lon="1.3742">
        <ele>520.34008789062</ele>
        <time>2014-06-08T07:52:23Z</time>
      </trkpt>
      <trkpt lat="45.99316" lon="1.37422">
        <ele>520.73413085938</ele>
        <time>2014-06-08T07:52:26Z</time>
      </trkpt>
      <trkpt lat="45.99325" lon="1.37424">
        <ele>521.69122314453</ele>
        <time>2014-06-08T07:52:32Z</time>
      </trkpt>
      <trkpt lat="45.99326" lon="1.37424">
        <ele>521.8154296875</ele>
        <time>2014-06-08T07:52:33Z</time>
      </trkpt>
      <trkpt lat="45.99339" lon="1.3742">
        <ele>523.41632080078</ele>
        <time>2014-06-08T07:52:39Z</time>
      </trkpt>
      <trkpt lat="45.99346" lon="1.37418">
        <ele>524.40673828125</ele>
        <time>2014-06-08T07:52:42Z</time>
      </trkpt>
      <trkpt lat="45.9936" lon="1.37413">
        <ele>526.32757568359</ele>
        <time>2014-06-08T07:52:48Z</time>
      </trkpt>
      <trkpt lat="45.99363" lon="1.3741">
        <ele>526.95538330078</ele>
        <time>2014-06-08T07:52:51Z</time>
      </trkpt>
      <trkpt lat="45.99361" lon="1.37403">
        <ele>527.16632080078</ele>
        <time>2014-06-08T07:52:55Z</time>
      </trkpt>
      <trkpt lat="45.99351" lon="1.3738">
        <ele>526.87573242188</ele>
        <time>2014-06-08T07:53:03Z</time>
      </trkpt>
      <trkpt lat="45.99344" lon="1.37362">
        <ele>526.33441162109</ele>
        <time>2014-06-08T07:53:09Z</time>
      </trkpt>
      <trkpt lat="45.99338" lon="1.37347">
        <ele>525.69372558594</ele>
        <time>2014-06-08T07:53:14Z</time>
      </trkpt>
      <trkpt lat="45.99334" lon="1.37334">
        <ele>525.02984619141</ele>
        <time>2014-06-08T07:53:19Z</time>
      </trkpt>
      <trkpt lat="45.99326" lon="1.37319">
        <ele>524.91522216797</ele>
        <time>2014-06-08T07:53:24Z</time>
      </trkpt>
      <trkpt lat="45.9932" lon="1.37309">
        <ele>524.57818603516</ele>
        <time>2014-06-08T07:53:28Z</time>
      </trkpt>
      <trkpt lat="45.99308" lon="1.37292">
        <ele>523.68206787109</ele>
        <time>2014-06-08T07:53:34Z</time>
      </trkpt>
      <trkpt lat="45.99297" lon="1.37277">
        <ele>522.85906982422</ele>
        <time>2014-06-08T07:53:39Z</time>
      </trkpt>
      <trkpt lat="45.99288" lon="1.37262">
        <ele>522.09814453125</ele>
        <time>2014-06-08T07:53:44Z</time>
      </trkpt>
      <trkpt lat="45.99279" lon="1.37242">
        <ele>521.615234375</ele>
        <time>2014-06-08T07:53:50Z</time>
      </trkpt>
      <trkpt lat="45.9927" lon="1.37222">
        <ele>520.72448730469</ele>
        <time>2014-06-08T07:53:56Z</time>
      </trkpt>
      <trkpt lat="45.99266" lon="1.372">
        <ele>520.86639404297</ele>
        <time>2014-06-08T07:54:02Z</time>
      </trkpt>
      <trkpt lat="45.99267" lon="1.37186">
        <ele>521.55963134766</ele>
        <time>2014-06-08T07:54:06Z</time>
      </trkpt>
      <trkpt lat="45.99265" lon="1.37172">
        <ele>521.64172363281</ele>
        <time>2014-06-08T07:54:10Z</time>
      </trkpt>
      <trkpt lat="45.99257" lon="1.37156">
        <ele>520.86901855469</ele>
        <time>2014-06-08T07:54:16Z</time>
      </trkpt>
      <trkpt lat="45.99251" lon="1.37141">
        <ele>520.42718505859</ele>
        <time>2014-06-08T07:54:21Z</time>
      </trkpt>
      <trkpt lat="45.99245" lon="1.37129">
        <ele>520.47210693359</ele>
        <time>2014-06-08T07:54:26Z</time>
      </trkpt>
      <trkpt lat="45.9924" lon="1.37112">
        <ele>520.97833251953</ele>
        <time>2014-06-08T07:54:31Z</time>
      </trkpt>
      <trkpt lat="45.99232" lon="1.37092">
        <ele>521.60662841797</ele>
        <time>2014-06-08T07:54:36Z</time>
      </trkpt>
      <trkpt lat="45.99224" lon="1.37072">
        <ele>522.84350585938</ele>
        <time>2014-06-08T07:54:42Z</time>
      </trkpt>
      <trkpt lat="45.99211" lon="1.37047">
        <ele>524.59442138672</ele>
        <time>2014-06-08T07:54:50Z</time>
      </trkpt>
      <trkpt lat="45.992" lon="1.3704">
        <ele>524.87707519531</ele>
        <time>2014-06-08T07:54:55Z</time>
      </trkpt>
      <trkpt lat="45.99191" lon="1.37034">
        <ele>525.11456298828</ele>
        <time>2014-06-08T07:55:00Z</time>
      </trkpt>
      <trkpt lat="45.99185" lon="1.37029">
        <ele>525.47747802734</ele>
        <time>2014-06-08T07:55:05Z</time>
      </trkpt>
      <trkpt lat="45.99181" lon="1.37025">
        <ele>525.71215820312</ele>
        <time>2014-06-08T07:55:08Z</time>
      </trkpt>
      <trkpt lat="45.99173" lon="1.37022">
        <ele>525.83380126953</ele>
        <time>2014-06-08T07:55:14Z</time>
      </trkpt>
      <trkpt lat="45.99172" lon="1.37021">
        <ele>525.91961669922</ele>
        <time>2014-06-08T07:55:15Z</time>
      </trkpt>
      <trkpt lat="45.99174" lon="1.37011">
        <ele>527.0390625</ele>
        <time>2014-06-08T07:55:21Z</time>
      </trkpt>
      <trkpt lat="45.99175" lon="1.37">
        <ele>528.18988037109</ele>
        <time>2014-06-08T07:55:28Z</time>
      </trkpt>
      <trkpt lat="45.99175" lon="1.36997">
        <ele>528.45825195312</ele>
        <time>2014-06-08T07:55:30Z</time>
      </trkpt>
      <trkpt lat="45.99176" lon="1.36989">
        <ele>529.15551757812</ele>
        <time>2014-06-08T07:55:36Z</time>
      </trkpt>
      <trkpt lat="45.9918" lon="1.36979">
        <ele>530.15319824219</ele>
        <time>2014-06-08T07:55:43Z</time>
      </trkpt>
      <trkpt lat="45.99181" lon="1.36977">
        <ele>530.32879638672</ele>
        <time>2014-06-08T07:55:44Z</time>
      </trkpt>
      <trkpt lat="45.99184" lon="1.36964">
        <ele>531.50518798828</ele>
        <time>2014-06-08T07:55:49Z</time>
      </trkpt>
      <trkpt lat="45.99193" lon="1.36946">
        <ele>533.39300537109</ele>
        <time>2014-06-08T07:55:56Z</time>
      </trkpt>
      <trkpt lat="45.99198" lon="1.36932">
        <ele>534.79351806641</ele>
        <time>2014-06-08T07:56:01Z</time>
      </trkpt>
      <trkpt lat="45.99203" lon="1.36916">
        <ele>536.37292480469</ele>
        <time>2014-06-08T07:56:07Z</time>
      </trkpt>
      <trkpt lat="45.99211" lon="1.36895">
        <ele>538.26409912109</ele>
        <time>2014-06-08T07:56:15Z</time>
      </trkpt>
      <trkpt lat="45.99215" lon="1.36881">
        <ele>539.41394042969</ele>
        <time>2014-06-08T07:56:21Z</time>
      </trkpt>
      <trkpt lat="45.99217" lon="1.36873">
        <ele>540.04241943359</ele>
        <time>2014-06-08T07:56:25Z</time>
      </trkpt>
      <trkpt lat="45.99218" lon="1.36868">
        <ele>540.4462890625</ele>
        <time>2014-06-08T07:56:28Z</time>
      </trkpt>
      <trkpt lat="45.99221" lon="1.36863">
        <ele>540.85107421875</ele>
        <time>2014-06-08T07:56:33Z</time>
      </trkpt>
      <trkpt lat="45.99227" lon="1.36853">
        <ele>541.64886474609</ele>
        <time>2014-06-08T07:56:41Z</time>
      </trkpt>
      <trkpt lat="45.99228" lon="1.36851">
        <ele>541.80316162109</ele>
        <time>2014-06-08T07:56:43Z</time>
      </trkpt>
      <trkpt lat="45.99235" lon="1.36848">
        <ele>542.01110839844</ele>
        <time>2014-06-08T07:56:52Z</time>
      </trkpt>
      <trkpt lat="45.99237" lon="1.36851">
        <ele>541.8623046875</ele>
        <time>2014-06-08T07:56:54Z</time>
      </trkpt>
      <trkpt lat="45.9924" lon="1.36855">
        <ele>541.58465576172</ele>
        <time>2014-06-08T07:56:58Z</time>
      </trkpt>
      <trkpt lat="45.99248" lon="1.36867">
        <ele>540.98248291016</ele>
        <time>2014-06-08T07:57:04Z</time>
      </trkpt>
      <trkpt lat="45.99256" lon="1.36877">
        <ele>540.38977050781</ele>
        <time>2014-06-08T07:57:09Z</time>
      </trkpt>
      <trkpt lat="45.99258" lon="1.36881">
        <ele>540.16223144531</ele>
        <time>2014-06-08T07:57:11Z</time>
      </trkpt>
      <trkpt lat="45.99269" lon="1.36893">
        <ele>539.62329101562</ele>
        <time>2014-06-08T07:57:18Z</time>
      </trkpt>
      <trkpt lat="45.99273" lon="1.36896">
        <ele>539.52117919922</ele>
        <time>2014-06-08T07:57:20Z</time>
      </trkpt>
      <trkpt lat="45.99289" lon="1.36911">
        <ele>539.16137695312</ele>
        <time>2014-06-08T07:57:27Z</time>
      </trkpt>
      <trkpt lat="45.993" lon="1.36926">
        <ele>538.62219238281</ele>
        <time>2014-06-08T07:57:32Z</time>
      </trkpt>
      <trkpt lat="45.99305" lon="1.36933">
        <ele>538.42889404297</ele>
        <time>2014-06-08T07:57:34Z</time>
      </trkpt>
      <trkpt lat="45.99316" lon="1.36951">
        <ele>537.93145751953</ele>
        <time>2014-06-08T07:57:40Z</time>
      </trkpt>
      <trkpt lat="45.99326" lon="1.3696">
        <ele>538.03381347656</ele>
        <time>2014-06-08T07:57:45Z</time>
      </trkpt>
      <trkpt lat="45.9933" lon="1.36963">
        <ele>538.11315917969</ele>
        <time>2014-06-08T07:57:47Z</time>
      </trkpt>
      <trkpt lat="45.99345" lon="1.36978">
        <ele>537.51733398438</ele>
        <time>2014-06-08T07:57:55Z</time>
      </trkpt>
      <trkpt lat="45.99356" lon="1.36992">
        <ele>536.93756103516</ele>
        <time>2014-06-08T07:58:01Z</time>
      </trkpt>
      <trkpt lat="45.99366" lon="1.37006">
        <ele>536.78149414062</ele>
        <time>2014-06-08T07:58:07Z</time>
      </trkpt>
      <trkpt lat="45.99377" lon="1.37021">
        <ele>537.43493652344</ele>
        <time>2014-06-08T07:58:14Z</time>
      </trkpt>
      <trkpt lat="45.99387" lon="1.37037">
        <ele>538.60601806641</ele>
        <time>2014-06-08T07:58:21Z</time>
      </trkpt>
      <trkpt lat="45.9939" lon="1.37039">
        <ele>538.92449951172</ele>
        <time>2014-06-08T07:58:23Z</time>
      </trkpt>
      <trkpt lat="45.99404" lon="1.37038">
        <ele>539.52825927734</ele>
        <time>2014-06-08T07:58:29Z</time>
      </trkpt>
      <trkpt lat="45.99409" lon="1.37039">
        <ele>539.80798339844</ele>
        <time>2014-06-08T07:58:31Z</time>
      </trkpt>
      <trkpt lat="45.99421" lon="1.37041">
        <ele>540.32202148438</ele>
        <time>2014-06-08T07:58:37Z</time>
      </trkpt>
      <trkpt lat="45.99431" lon="1.37043">
        <ele>540.32141113281</ele>
        <time>2014-06-08T07:58:43Z</time>
      </trkpt>
      <trkpt lat="45.9944" lon="1.37045">
        <ele>540.30133056641</ele>
        <time>2014-06-08T07:58:48Z</time>
      </trkpt>
      <trkpt lat="45.99449" lon="1.37048">
        <ele>540.48522949219</ele>
        <time>2014-06-08T07:58:53Z</time>
      </trkpt>
      <trkpt lat="45.9945" lon="1.37049">
        <ele>540.53845214844</ele>
        <time>2014-06-08T07:58:54Z</time>
      </trkpt>
      <trkpt lat="45.99463" lon="1.37053">
        <ele>540.76629638672</ele>
        <time>2014-06-08T07:59:00Z</time>
      </trkpt>
      <trkpt lat="45.9947" lon="1.37058">
        <ele>541.22729492188</ele>
        <time>2014-06-08T07:59:05Z</time>
      </trkpt>
      <trkpt lat="45.99481" lon="1.37066">
        <ele>542.03833007812</ele>
        <time>2014-06-08T07:59:11Z</time>
      </trkpt>
      <trkpt lat="45.99493" lon="1.37078">
        <ele>543.3701171875</ele>
        <time>2014-06-08T07:59:17Z</time>
      </trkpt>
      <trkpt lat="45.99502" lon="1.37093">
        <ele>545.06121826172</ele>
        <time>2014-06-08T07:59:24Z</time>
      </trkpt>
      <trkpt lat="45.99508" lon="1.37104">
        <ele>546.02734375</ele>
        <time>2014-06-08T07:59:28Z</time>
      </trkpt>
      <trkpt lat="45.99515" lon="1.37116">
        <ele>546.98773193359</ele>
        <time>2014-06-08T07:59:33Z</time>
      </trkpt>
      <trkpt lat="45.9952" lon="1.37127">
        <ele>547.95642089844</ele>
        <time>2014-06-08T07:59:37Z</time>
      </trkpt>
      <trkpt lat="45.99523" lon="1.37132">
        <ele>548.30889892578</ele>
        <time>2014-06-08T07:59:39Z</time>
      </trkpt>
      <trkpt lat="45.9953" lon="1.37143">
        <ele>549.14202880859</ele>
        <time>2014-06-08T07:59:45Z</time>
      </trkpt>
      <trkpt lat="45.99537" lon="1.37152">
        <ele>549.66668701172</ele>
        <time>2014-06-08T07:59:50Z</time>
      </trkpt>
      <trkpt lat="45.99539" lon="1.37154">
        <ele>549.68054199219</ele>
        <time>2014-06-08T07:59:51Z</time>
      </trkpt>
      <trkpt lat="45.99548" lon="1.37159">
        <ele>549.69219970703</ele>
        <time>2014-06-08T07:59:56Z</time>
      </trkpt>
      <trkpt lat="45.99558" lon="1.37166">
        <ele>549.78552246094</ele>
        <time>2014-06-08T08:00:02Z</time>
      </trkpt>
      <trkpt lat="45.99564" lon="1.37172">
        <ele>549.94390869141</ele>
        <time>2014-06-08T08:00:05Z</time>
      </trkpt>
      <trkpt lat="45.99575" lon="1.37186">
        <ele>550.51910400391</ele>
        <time>2014-06-08T08:00:12Z</time>
      </trkpt>
      <trkpt lat="45.99587" lon="1.37196">
        <ele>550.80078125</ele>
        <time>2014-06-08T08:00:18Z</time>
      </trkpt>
      <trkpt lat="45.99598" lon="1.37206">
        <ele>550.91607666016</ele>
        <time>2014-06-08T08:00:25Z</time>
      </trkpt>
      <trkpt lat="45.996" lon="1.37208">
        <ele>550.92169189453</ele>
        <time>2014-06-08T08:00:27Z</time>
      </trkpt>
      <trkpt lat="45.99609" lon="1.37221">
        <ele>551.42736816406</ele>
        <time>2014-06-08T08:00:33Z</time>
      </trkpt>
      <trkpt lat="45.9961" lon="1.37222">
        <ele>551.46685791016</ele>
        <time>2014-06-08T08:00:34Z</time>
      </trkpt>
      <trkpt lat="45.99622" lon="1.37232">
        <ele>551.33337402344</ele>
        <time>2014-06-08T08:00:38Z</time>
      </trkpt>
      <trkpt lat="45.99632" lon="1.37239">
        <ele>551.22821044922</ele>
        <time>2014-06-08T08:00:41Z</time>
      </trkpt>
      <trkpt lat="45.99646" lon="1.37251">
        <ele>551.06140136719</ele>
        <time>2014-06-08T08:00:47Z</time>
      </trkpt>
      <trkpt lat="45.99658" lon="1.37256">
        <ele>550.34283447266</ele>
        <time>2014-06-08T08:00:52Z</time>
      </trkpt>
      <trkpt lat="45.99667" lon="1.37264">
        <ele>550.10925292969</ele>
        <time>2014-06-08T08:00:57Z</time>
      </trkpt>
      <trkpt lat="45.99678" lon="1.37274">
        <ele>549.98229980469</ele>
        <time>2014-06-08T08:01:02Z</time>
      </trkpt>
      <trkpt lat="45.9968" lon="1.37276">
        <ele>549.90307617188</ele>
        <time>2014-06-08T08:01:03Z</time>
      </trkpt>
      <trkpt lat="45.99692" lon="1.37288">
        <ele>549.80126953125</ele>
        <time>2014-06-08T08:01:09Z</time>
      </trkpt>
      <trkpt lat="45.99698" lon="1.37296">
        <ele>549.84661865234</ele>
        <time>2014-06-08T08:01:13Z</time>
      </trkpt>
      <trkpt lat="45.99702" lon="1.37301">
        <ele>549.78680419922</ele>
        <time>2014-06-08T08:01:15Z</time>
      </trkpt>
      <trkpt lat="45.99715" lon="1.3731">
        <ele>549.18450927734</ele>
        <time>2014-06-08T08:01:20Z</time>
      </trkpt>
      <trkpt lat="45.99723" lon="1.37318">
        <ele>548.91668701172</ele>
        <time>2014-06-08T08:01:26Z</time>
      </trkpt>
      <trkpt lat="45.99734" lon="1.3733">
        <ele>548.43304443359</ele>
        <time>2014-06-08T08:01:32Z</time>
      </trkpt>
      <trkpt lat="45.99736" lon="1.37332">
        <ele>548.41107177734</ele>
        <time>2014-06-08T08:01:33Z</time>
      </trkpt>
      <trkpt lat="45.99745" lon="1.37346">
        <ele>548.11120605469</ele>
        <time>2014-06-08T08:01:39Z</time>
      </trkpt>
      <trkpt lat="45.99751" lon="1.37354">
        <ele>547.92810058594</ele>
        <time>2014-06-08T08:01:43Z</time>
      </trkpt>
      <trkpt lat="45.99764" lon="1.37373">
        <ele>547.982421875</ele>
        <time>2014-06-08T08:01:51Z</time>
      </trkpt>
      <trkpt lat="45.99765" lon="1.37375">
        <ele>547.97827148438</ele>
        <time>2014-06-08T08:01:52Z</time>
      </trkpt>
      <trkpt lat="45.99777" lon="1.37391">
        <ele>547.89532470703</ele>
        <time>2014-06-08T08:01:59Z</time>
      </trkpt>
      <trkpt lat="45.9978" lon="1.37395">
        <ele>547.85607910156</ele>
        <time>2014-06-08T08:02:01Z</time>
      </trkpt>
      <trkpt lat="45.99789" lon="1.37406">
        <ele>547.73419189453</ele>
        <time>2014-06-08T08:02:07Z</time>
      </trkpt>
      <trkpt lat="45.99796" lon="1.37416">
        <ele>547.68658447266</ele>
        <time>2014-06-08T08:02:12Z</time>
      </trkpt>
      <trkpt lat="45.9981" lon="1.37429">
        <ele>546.95959472656</ele>
        <time>2014-06-08T08:02:18Z</time>
      </trkpt>
      <trkpt lat="45.99821" lon="1.3744">
        <ele>546.58685302734</ele>
        <time>2014-06-08T08:02:24Z</time>
      </trkpt>
      <trkpt lat="45.99831" lon="1.37448">
        <ele>546.25885009766</ele>
        <time>2014-06-08T08:02:30Z</time>
      </trkpt>
      <trkpt lat="45.99841" lon="1.37459">
        <ele>546.48065185547</ele>
        <time>2014-06-08T08:02:36Z</time>
      </trkpt>
      <trkpt lat="45.99849" lon="1.37472">
        <ele>546.78912353516</ele>
        <time>2014-06-08T08:02:42Z</time>
      </trkpt>
      <trkpt lat="45.99859" lon="1.37486">
        <ele>547.04272460938</ele>
        <time>2014-06-08T08:02:47Z</time>
      </trkpt>
      <trkpt lat="45.9987" lon="1.37502">
        <ele>546.9697265625</ele>
        <time>2014-06-08T08:02:53Z</time>
      </trkpt>
      <trkpt lat="45.99876" lon="1.37509">
        <ele>546.45202636719</ele>
        <time>2014-06-08T08:02:56Z</time>
      </trkpt>
      <trkpt lat="45.99892" lon="1.37503">
        <ele>546.40771484375</ele>
        <time>2014-06-08T08:03:03Z</time>
      </trkpt>
      <trkpt lat="45.99897" lon="1.37505">
        <ele>546.1923828125</ele>
        <time>2014-06-08T08:03:07Z</time>
      </trkpt>
      <trkpt lat="45.99899" lon="1.37514">
        <ele>545.58227539062</ele>
        <time>2014-06-08T08:03:10Z</time>
      </trkpt>
      <trkpt lat="45.99897" lon="1.37533">
        <ele>544.50152587891</ele>
        <time>2014-06-08T08:03:16Z</time>
      </trkpt>
      <trkpt lat="45.99891" lon="1.37549">
        <ele>543.65881347656</ele>
        <time>2014-06-08T08:03:21Z</time>
      </trkpt>
      <trkpt lat="45.99887" lon="1.37562">
        <ele>542.95428466797</ele>
        <time>2014-06-08T08:03:25Z</time>
      </trkpt>
      <trkpt lat="45.99884" lon="1.37579">
        <ele>542.02301025391</ele>
        <time>2014-06-08T08:03:30Z</time>
      </trkpt>
      <trkpt lat="45.99879" lon="1.376">
        <ele>539.75830078125</ele>
        <time>2014-06-08T08:03:36Z</time>
      </trkpt>
      <trkpt lat="45.99877" lon="1.37619">
        <ele>537.44927978516</ele>
        <time>2014-06-08T08:03:41Z</time>
      </trkpt>
      <trkpt lat="45.99878" lon="1.37637">
        <ele>535.14318847656</ele>
        <time>2014-06-08T08:03:46Z</time>
      </trkpt>
      <trkpt lat="45.99883" lon="1.37655">
        <ele>532.80975341797</ele>
        <time>2014-06-08T08:03:52Z</time>
      </trkpt>
      <trkpt lat="45.99885" lon="1.37672">
        <ele>530.59240722656</ele>
        <time>2014-06-08T08:03:57Z</time>
      </trkpt>
      <trkpt lat="45.99888" lon="1.37689">
        <ele>528.25512695312</ele>
        <time>2014-06-08T08:04:02Z</time>
      </trkpt>
      <trkpt lat="45.99893" lon="1.37706">
        <ele>525.98608398438</ele>
        <time>2014-06-08T08:04:07Z</time>
      </trkpt>
      <trkpt lat="45.99905" lon="1.37719">
        <ele>524.47601318359</ele>
        <time>2014-06-08T08:04:12Z</time>
      </trkpt>
      <trkpt lat="45.99911" lon="1.37734">
        <ele>522.74395751953</ele>
        <time>2014-06-08T08:04:17Z</time>
      </trkpt>
      <trkpt lat="45.99918" lon="1.37752">
        <ele>520.90222167969</ele>
        <time>2014-06-08T08:04:23Z</time>
      </trkpt>
      <trkpt lat="45.99924" lon="1.37768">
        <ele>520.6865234375</ele>
        <time>2014-06-08T08:04:28Z</time>
      </trkpt>
      <trkpt lat="45.99929" lon="1.37786">
        <ele>520.70037841797</ele>
        <time>2014-06-08T08:04:34Z</time>
      </trkpt>
      <trkpt lat="45.99934" lon="1.37804">
        <ele>520.89678955078</ele>
        <time>2014-06-08T08:04:40Z</time>
      </trkpt>
      <trkpt lat="45.9994" lon="1.37821">
        <ele>521.28173828125</ele>
        <time>2014-06-08T08:04:46Z</time>
      </trkpt>
      <trkpt lat="45.99944" lon="1.3783">
        <ele>521.5439453125</ele>
        <time>2014-06-08T08:04:49Z</time>
      </trkpt>
      <trkpt lat="45.99948" lon="1.37843">
        <ele>522.70776367188</ele>
        <time>2014-06-08T08:04:54Z</time>
      </trkpt>
      <trkpt lat="45.99955" lon="1.37856">
        <ele>524.23999023438</ele>
        <time>2014-06-08T08:05:00Z</time>
      </trkpt>
      <trkpt lat="45.99958" lon="1.37862">
        <ele>525.07092285156</ele>
        <time>2014-06-08T08:05:04Z</time>
      </trkpt>
      <trkpt lat="45.99961" lon="1.37869">
        <ele>526.00689697266</ele>
        <time>2014-06-08T08:05:09Z</time>
      </trkpt>
      <trkpt lat="45.99965" lon="1.37876">
        <ele>526.99963378906</ele>
        <time>2014-06-08T08:05:14Z</time>
      </trkpt>
      <trkpt lat="45.99968" lon="1.3788">
        <ele>527.64868164062</ele>
        <time>2014-06-08T08:05:17Z</time>
      </trkpt>
      <trkpt lat="45.99969" lon="1.37885">
        <ele>528.33288574219</ele>
        <time>2014-06-08T08:05:20Z</time>
      </trkpt>
      <trkpt lat="45.99974" lon="1.37884">
        <ele>528.54595947266</ele>
        <time>2014-06-08T08:05:25Z</time>
      </trkpt>
      <trkpt lat="45.9998" lon="1.3788">
        <ele>528.37780761719</ele>
        <time>2014-06-08T08:05:30Z</time>
      </trkpt>
      <trkpt lat="45.99981" lon="1.37878">
        <ele>528.21942138672</ele>
        <time>2014-06-08T08:05:32Z</time>
      </trkpt>
      <trkpt lat="45.9999" lon="1.37873">
        <ele>528.08038330078</ele>
        <time>2014-06-08T08:05:39Z</time>
      </trkpt>
      <trkpt lat="45.99998" lon="1.37867">
        <ele>527.76171875</ele>
        <time>2014-06-08T08:05:46Z</time>
      </trkpt>
      <trkpt lat="46.00008" lon="1.37864">
        <ele>527.27844238281</ele>
        <time>2014-06-08T08:05:51Z</time>
      </trkpt>
      <trkpt lat="46.00021" lon="1.37865">
        <ele>527.30694580078</ele>
        <time>2014-06-08T08:05:56Z</time>
      </trkpt>
      <trkpt lat="46.00033" lon="1.37872">
        <ele>528.21667480469</ele>
        <time>2014-06-08T08:06:01Z</time>
      </trkpt>
      <trkpt lat="46.00042" lon="1.37881">
        <ele>529.33520507812</ele>
        <time>2014-06-08T08:06:06Z</time>
      </trkpt>
      <trkpt lat="46.00045" lon="1.37886">
        <ele>529.89697265625</ele>
        <time>2014-06-08T08:06:08Z</time>
      </trkpt>
      <trkpt lat="46.0005" lon="1.37896">
        <ele>531.11370849609</ele>
        <time>2014-06-08T08:06:12Z</time>
      </trkpt>
      <trkpt lat="46.00062" lon="1.37911">
        <ele>532.74578857422</ele>
        <time>2014-06-08T08:06:18Z</time>
      </trkpt>
      <trkpt lat="46.00071" lon="1.37923">
        <ele>534.46118164062</ele>
        <time>2014-06-08T08:06:23Z</time>
      </trkpt>
      <trkpt lat="46.00084" lon="1.37938">
        <ele>537.47888183594</ele>
        <time>2014-06-08T08:06:30Z</time>
      </trkpt>
      <trkpt lat="46.00098" lon="1.37946">
        <ele>540.32629394531</ele>
        <time>2014-06-08T08:06:36Z</time>
      </trkpt>
      <trkpt lat="46.00112" lon="1.37953">
        <ele>542.77795410156</ele>
        <time>2014-06-08T08:06:43Z</time>
      </trkpt>
      <trkpt lat="46.00126" lon="1.37956">
        <ele>544.47747802734</ele>
        <time>2014-06-08T08:06:50Z</time>
      </trkpt>
      <trkpt lat="46.00135" lon="1.37955">
        <ele>545.05194091797</ele>
        <time>2014-06-08T08:06:54Z</time>
      </trkpt>
      <trkpt lat="46.00144" lon="1.37952">
        <ele>545.3701171875</ele>
        <time>2014-06-08T08:06:59Z</time>
      </trkpt>
      <trkpt lat="46.00154" lon="1.37948">
        <ele>545.63122558594</ele>
        <time>2014-06-08T08:07:04Z</time>
      </trkpt>
      <trkpt lat="46.0016" lon="1.37945">
        <ele>545.72198486328</ele>
        <time>2014-06-08T08:07:07Z</time>
      </trkpt>
      <trkpt lat="46.00166" lon="1.37942">
        <ele>546.03082275391</ele>
        <time>2014-06-08T08:07:10Z</time>
      </trkpt>
      <trkpt lat="46.00177" lon="1.37937">
        <ele>546.48040771484</ele>
        <time>2014-06-08T08:07:16Z</time>
      </trkpt>
      <trkpt lat="46.00187" lon="1.37934">
        <ele>547.02532958984</ele>
        <time>2014-06-08T08:07:20Z</time>
      </trkpt>
      <trkpt lat="46.00195" lon="1.37922">
        <ele>546.63922119141</ele>
        <time>2014-06-08T08:07:25Z</time>
      </trkpt>
      <trkpt lat="46.00206" lon="1.37911">
        <ele>547.02758789062</ele>
        <time>2014-06-08T08:07:31Z</time>
      </trkpt>
      <trkpt lat="46.00216" lon="1.37899">
        <ele>547.76196289062</ele>
        <time>2014-06-08T08:07:37Z</time>
      </trkpt>
      <trkpt lat="46.00222" lon="1.37888">
        <ele>548.11218261719</ele>
        <time>2014-06-08T08:07:42Z</time>
      </trkpt>
      <trkpt lat="46.00226" lon="1.37881">
        <ele>548.298828125</ele>
        <time>2014-06-08T08:07:46Z</time>
      </trkpt>
      <trkpt lat="46.0023" lon="1.37876">
        <ele>548.63885498047</ele>
        <time>2014-06-08T08:07:51Z</time>
      </trkpt>
      <trkpt lat="46.00231" lon="1.37874">
        <ele>548.67346191406</ele>
        <time>2014-06-08T08:07:53Z</time>
      </trkpt>
      <trkpt lat="46.00234" lon="1.3787">
        <ele>548.95922851562</ele>
        <time>2014-06-08T08:07:57Z</time>
      </trkpt>
      <trkpt lat="46.00237" lon="1.37869">
        <ele>549.20074462891</ele>
        <time>2014-06-08T08:07:59Z</time>
      </trkpt>
      <trkpt lat="46.00245" lon="1.37868">
        <ele>550.19982910156</ele>
        <time>2014-06-08T08:08:05Z</time>
      </trkpt>
      <trkpt lat="46.00248" lon="1.37868">
        <ele>550.62933349609</ele>
        <time>2014-06-08T08:08:07Z</time>
      </trkpt>
      <trkpt lat="46.00256" lon="1.37871">
        <ele>551.73089599609</ele>
        <time>2014-06-08T08:08:12Z</time>
      </trkpt>
      <trkpt lat="46.00266" lon="1.37881">
        <ele>553.52001953125</ele>
        <time>2014-06-08T08:08:19Z</time>
      </trkpt>
      <trkpt lat="46.00268" lon="1.37886">
        <ele>554.03204345703</ele>
        <time>2014-06-08T08:08:21Z</time>
      </trkpt>
      <trkpt lat="46.00271" lon="1.37891">
        <ele>554.65124511719</ele>
        <time>2014-06-08T08:08:23Z</time>
      </trkpt>
      <trkpt lat="46.00276" lon="1.379">
        <ele>555.80096435547</ele>
        <time>2014-06-08T08:08:27Z</time>
      </trkpt>
      <trkpt lat="46.00288" lon="1.37916">
        <ele>558.27807617188</ele>
        <time>2014-06-08T08:08:35Z</time>
      </trkpt>
      <trkpt lat="46.00293" lon="1.3792">
        <ele>559.30969238281</ele>
        <time>2014-06-08T08:08:38Z</time>
      </trkpt>
      <trkpt lat="46.003" lon="1.37924">
        <ele>560.54956054688</ele>
        <time>2014-06-08T08:08:43Z</time>
      </trkpt>
      <trkpt lat="46.00304" lon="1.37925">
        <ele>561.19903564453</ele>
        <time>2014-06-08T08:08:45Z</time>
      </trkpt>
      <trkpt lat="46.00309" lon="1.37931">
        <ele>562.22119140625</ele>
        <time>2014-06-08T08:08:51Z</time>
      </trkpt>
      <trkpt lat="46.00313" lon="1.37933">
        <ele>562.85565185547</ele>
        <time>2014-06-08T08:08:54Z</time>
      </trkpt>
      <trkpt lat="46.00322" lon="1.37939">
        <ele>564.27142333984</ele>
        <time>2014-06-08T08:09:00Z</time>
      </trkpt>
      <trkpt lat="46.00323" lon="1.37939">
        <ele>564.50579833984</ele>
        <time>2014-06-08T08:09:01Z</time>
      </trkpt>
      <trkpt lat="46.00332" lon="1.37945">
        <ele>565.78570556641</ele>
        <time>2014-06-08T08:09:07Z</time>
      </trkpt>
      <trkpt lat="46.00339" lon="1.3795">
        <ele>566.92199707031</ele>
        <time>2014-06-08T08:09:13Z</time>
      </trkpt>
      <trkpt lat="46.00343" lon="1.37954">
        <ele>567.71875</ele>
        <time>2014-06-08T08:09:16Z</time>
      </trkpt>
      <trkpt lat="46.00346" lon="1.37955">
        <ele>568.11950683594</ele>
        <time>2014-06-08T08:09:18Z</time>
      </trkpt>
      <trkpt lat="46.0035" lon="1.37961">
        <ele>568.95098876953</ele>
        <time>2014-06-08T08:09:23Z</time>
      </trkpt>
      <trkpt lat="46.00356" lon="1.37971">
        <ele>569.98620605469</ele>
        <time>2014-06-08T08:09:30Z</time>
      </trkpt>
      <trkpt lat="46.00359" lon="1.37981">
        <ele>570.63751220703</ele>
        <time>2014-06-08T08:09:35Z</time>
      </trkpt>
      <trkpt lat="46.0036" lon="1.37984">
        <ele>571.02117919922</ele>
        <time>2014-06-08T08:09:37Z</time>
      </trkpt>
      <trkpt lat="46.00367" lon="1.37988">
        <ele>572.36138916016</ele>
        <time>2014-06-08T08:09:44Z</time>
      </trkpt>
      <trkpt lat="46.00375" lon="1.37999">
        <ele>573.97821044922</ele>
        <time>2014-06-08T08:09:52Z</time>
      </trkpt>
      <trkpt lat="46.0038" lon="1.38006">
        <ele>575.00091552734</ele>
        <time>2014-06-08T08:09:57Z</time>
      </trkpt>
      <trkpt lat="46.00386" lon="1.38013">
        <ele>576.12292480469</ele>
        <time>2014-06-08T08:10:03Z</time>
      </trkpt>
      <trkpt lat="46.00391" lon="1.38016">
        <ele>577.11810302734</ele>
        <time>2014-06-08T08:10:08Z</time>
      </trkpt>
      <trkpt lat="46.00396" lon="1.38027">
        <ele>578.09063720703</ele>
        <time>2014-06-08T08:10:16Z</time>
      </trkpt>
      <trkpt lat="46.004" lon="1.38033">
        <ele>578.68188476562</ele>
        <time>2014-06-08T08:10:21Z</time>
      </trkpt>
      <trkpt lat="46.00402" lon="1.38039">
        <ele>579.05889892578</ele>
        <time>2014-06-08T08:10:25Z</time>
      </trkpt>
      <trkpt lat="46.00405" lon="1.38042">
        <ele>579.55584716797</ele>
        <time>2014-06-08T08:10:29Z</time>
      </trkpt>
      <trkpt lat="46.00408" lon="1.38045">
        <ele>579.98449707031</ele>
        <time>2014-06-08T08:10:32Z</time>
      </trkpt>
      <trkpt lat="46.00411" lon="1.38045">
        <ele>580.49462890625</ele>
        <time>2014-06-08T08:10:35Z</time>
      </trkpt>
      <trkpt lat="46.0042" lon="1.38038">
        <ele>582.08813476562</ele>
        <time>2014-06-08T08:10:43Z</time>
      </trkpt>
      <trkpt lat="46.00425" lon="1.38034">
        <ele>583.03302001953</ele>
        <time>2014-06-08T08:10:47Z</time>
      </trkpt>
      <trkpt lat="46.00428" lon="1.38031">
        <ele>583.75152587891</ele>
        <time>2014-06-08T08:10:50Z</time>
      </trkpt>
      <trkpt lat="46.00431" lon="1.38031">
        <ele>584.17010498047</ele>
        <time>2014-06-08T08:10:52Z</time>
      </trkpt>
      <trkpt lat="46.00438" lon="1.38028">
        <ele>585.42291259766</ele>
        <time>2014-06-08T08:10:58Z</time>
      </trkpt>
      <trkpt lat="46.00444" lon="1.38026">
        <ele>586.52416992188</ele>
        <time>2014-06-08T08:11:03Z</time>
      </trkpt>
      <trkpt lat="46.00446" lon="1.38025">
        <ele>586.86572265625</ele>
        <time>2014-06-08T08:11:05Z</time>
      </trkpt>
      <trkpt lat="46.00455" lon="1.38022">
        <ele>588.55480957031</ele>
        <time>2014-06-08T08:11:14Z</time>
      </trkpt>
      <trkpt lat="46.00461" lon="1.38018">
        <ele>589.61456298828</ele>
        <time>2014-06-08T08:11:19Z</time>
      </trkpt>
      <trkpt lat="46.00465" lon="1.3801">
        <ele>590.27600097656</ele>
        <time>2014-06-08T08:11:26Z</time>
      </trkpt>
      <trkpt lat="46.00464" lon="1.38002">
        <ele>590.01123046875</ele>
        <time>2014-06-08T08:11:33Z</time>
      </trkpt>
      <trkpt lat="46.00461" lon="1.37997">
        <ele>589.35211181641</ele>
        <time>2014-06-08T08:11:37Z</time>
      </trkpt>
      <trkpt lat="46.00456" lon="1.37986">
        <ele>587.98516845703</ele>
        <time>2014-06-08T08:11:44Z</time>
      </trkpt>
      <trkpt lat="46.00453" lon="1.37972">
        <ele>586.90356445312</ele>
        <time>2014-06-08T08:11:51Z</time>
      </trkpt>
      <trkpt lat="46.00453" lon="1.37966">
        <ele>586.73345947266</ele>
        <time>2014-06-08T08:11:54Z</time>
      </trkpt>
      <trkpt lat="46.00459" lon="1.37955">
        <ele>587.20526123047</ele>
        <time>2014-06-08T08:12:02Z</time>
      </trkpt>
      <trkpt lat="46.00459" lon="1.37954">
        <ele>587.21466064453</ele>
        <time>2014-06-08T08:12:03Z</time>
      </trkpt>
      <trkpt lat="46.00464" lon="1.37947">
        <ele>587.66906738281</ele>
        <time>2014-06-08T08:12:08Z</time>
      </trkpt>
      <trkpt lat="46.00466" lon="1.37942">
        <ele>587.79302978516</ele>
        <time>2014-06-08T08:12:12Z</time>
      </trkpt>
      <trkpt lat="46.00473" lon="1.37935">
        <ele>588.52062988281</ele>
        <time>2014-06-08T08:12:19Z</time>
      </trkpt>
      <trkpt lat="46.00483" lon="1.37923">
        <ele>589.609375</ele>
        <time>2014-06-08T08:12:28Z</time>
      </trkpt>
      <trkpt lat="46.00488" lon="1.37916">
        <ele>590.09973144531</ele>
        <time>2014-06-08T08:12:34Z</time>
      </trkpt>
      <trkpt lat="46.0049" lon="1.37915">
        <ele>590.23364257812</ele>
        <time>2014-06-08T08:12:35Z</time>
      </trkpt>
      <trkpt lat="46.00491" lon="1.37913">
        <ele>590.22894287109</ele>
        <time>2014-06-08T08:12:37Z</time>
      </trkpt>
      <trkpt lat="46.005" lon="1.37904">
        <ele>590.58251953125</ele>
        <time>2014-06-08T08:12:45Z</time>
      </trkpt>
      <trkpt lat="46.00505" lon="1.37898">
        <ele>590.50531005859</ele>
        <time>2014-06-08T08:12:50Z</time>
      </trkpt>
      <trkpt lat="46.0051" lon="1.37893">
        <ele>590.49871826172</ele>
        <time>2014-06-08T08:12:55Z</time>
      </trkpt>
      <trkpt lat="46.00512" lon="1.37891">
        <ele>590.51629638672</ele>
        <time>2014-06-08T08:12:57Z</time>
      </trkpt>
      <trkpt lat="46.0052" lon="1.37881">
        <ele>590.28863525391</ele>
        <time>2014-06-08T08:13:05Z</time>
      </trkpt>
      <trkpt lat="46.0052" lon="1.37879">
        <ele>590.13201904297</ele>
        <time>2014-06-08T08:13:06Z</time>
      </trkpt>
      <trkpt lat="46.00524" lon="1.37871">
        <ele>589.81768798828</ele>
        <time>2014-06-08T08:13:13Z</time>
      </trkpt>
      <trkpt lat="46.0053" lon="1.37861">
        <ele>589.65155029297</ele>
        <time>2014-06-08T08:13:19Z</time>
      </trkpt>
      <trkpt lat="46.00535" lon="1.37852">
        <ele>589.35345458984</ele>
        <time>2014-06-08T08:13:23Z</time>
      </trkpt>
      <trkpt lat="46.00543" lon="1.37839">
        <ele>589.21948242188</ele>
        <time>2014-06-08T08:13:28Z</time>
      </trkpt>
      <trkpt lat="46.00551" lon="1.37824">
        <ele>588.64056396484</ele>
        <time>2014-06-08T08:13:34Z</time>
      </trkpt>
      <trkpt lat="46.00559" lon="1.37811">
        <ele>588.22308349609</ele>
        <time>2014-06-08T08:13:39Z</time>
      </trkpt>
      <trkpt lat="46.00568" lon="1.37797">
        <ele>587.9482421875</ele>
        <time>2014-06-08T08:13:45Z</time>
      </trkpt>
      <trkpt lat="46.00578" lon="1.37793">
        <ele>588.84448242188</ele>
        <time>2014-06-08T08:13:50Z</time>
      </trkpt>
      <trkpt lat="46.00582" lon="1.37799">
        <ele>590.16424560547</ele>
        <time>2014-06-08T08:13:54Z</time>
      </trkpt>
      <trkpt lat="46.00587" lon="1.37811">
        <ele>591.43762207031</ele>
        <time>2014-06-08T08:14:01Z</time>
      </trkpt>
      <trkpt lat="46.00591" lon="1.37813">
        <ele>591.53912353516</ele>
        <time>2014-06-08T08:14:03Z</time>
      </trkpt>
      <trkpt lat="46.006" lon="1.37822">
        <ele>592.30487060547</ele>
        <time>2014-06-08T08:14:10Z</time>
      </trkpt>
      <trkpt lat="46.006" lon="1.37827">
        <ele>592.81304931641</ele>
        <time>2014-06-08T08:14:12Z</time>
      </trkpt>
      <trkpt lat="46.00609" lon="1.37837">
        <ele>593.74572753906</ele>
        <time>2014-06-08T08:14:19Z</time>
      </trkpt>
      <trkpt lat="46.0061" lon="1.37843">
        <ele>594.30871582031</ele>
        <time>2014-06-08T08:14:23Z</time>
      </trkpt>
      <trkpt lat="46.0061" lon="1.37844">
        <ele>594.39263916016</ele>
        <time>2014-06-08T08:14:24Z</time>
      </trkpt>
      <trkpt lat="46.00615" lon="1.37852">
        <ele>595.11492919922</ele>
        <time>2014-06-08T08:14:30Z</time>
      </trkpt>
      <trkpt lat="46.00618" lon="1.37857">
        <ele>595.5732421875</ele>
        <time>2014-06-08T08:14:34Z</time>
      </trkpt>
      <trkpt lat="46.00622" lon="1.37863">
        <ele>596.16839599609</ele>
        <time>2014-06-08T08:14:41Z</time>
      </trkpt>
      <trkpt lat="46.00628" lon="1.37867">
        <ele>596.65777587891</ele>
        <time>2014-06-08T08:14:46Z</time>
      </trkpt>
      <trkpt lat="46.00632" lon="1.37868">
        <ele>596.74475097656</ele>
        <time>2014-06-08T08:14:49Z</time>
      </trkpt>
      <trkpt lat="46.00643" lon="1.37875">
        <ele>597.72760009766</ele>
        <time>2014-06-08T08:14:54Z</time>
      </trkpt>
      <trkpt lat="46.00647" lon="1.3788">
        <ele>598.41394042969</ele>
        <time>2014-06-08T08:14:56Z</time>
      </trkpt>
      <trkpt lat="46.00649" lon="1.37897">
        <ele>600.59838867188</ele>
        <time>2014-06-08T08:15:02Z</time>
      </trkpt>
      <trkpt lat="46.00648" lon="1.37902">
        <ele>601.18658447266</ele>
        <time>2014-06-08T08:15:04Z</time>
      </trkpt>
      <trkpt lat="46.00648" lon="1.37912">
        <ele>602.48931884766</ele>
        <time>2014-06-08T08:15:08Z</time>
      </trkpt>
      <trkpt lat="46.00648" lon="1.37917">
        <ele>603.17578125</ele>
        <time>2014-06-08T08:15:10Z</time>
      </trkpt>
      <trkpt lat="46.0065" lon="1.37926">
        <ele>604.08013916016</ele>
        <time>2014-06-08T08:15:14Z</time>
      </trkpt>
      <trkpt lat="46.00653" lon="1.37932">
        <ele>604.85986328125</ele>
        <time>2014-06-08T08:15:17Z</time>
      </trkpt>
      <trkpt lat="46.00658" lon="1.3794">
        <ele>605.89111328125</ele>
        <time>2014-06-08T08:15:21Z</time>
      </trkpt>
      <trkpt lat="46.00663" lon="1.37947">
        <ele>607.01287841797</ele>
        <time>2014-06-08T08:15:25Z</time>
      </trkpt>
      <trkpt lat="46.00668" lon="1.37958">
        <ele>608.46771240234</ele>
        <time>2014-06-08T08:15:31Z</time>
      </trkpt>
      <trkpt lat="46.00668" lon="1.37961">
        <ele>608.76104736328</ele>
        <time>2014-06-08T08:15:32Z</time>
      </trkpt>
      <trkpt lat="46.00665" lon="1.37981">
        <ele>610.76617431641</ele>
        <time>2014-06-08T08:15:39Z</time>
      </trkpt>
      <trkpt lat="46.00659" lon="1.38001">
        <ele>612.18292236328</ele>
        <time>2014-06-08T08:15:46Z</time>
      </trkpt>
      <trkpt lat="46.00652" lon="1.38023">
        <ele>612.49017333984</ele>
        <time>2014-06-08T08:15:53Z</time>
      </trkpt>
      <trkpt lat="46.00643" lon="1.38046">
        <ele>612.63525390625</ele>
        <time>2014-06-08T08:16:00Z</time>
      </trkpt>
      <trkpt lat="46.00636" lon="1.38063">
        <ele>612.55255126953</ele>
        <time>2014-06-08T08:16:06Z</time>
      </trkpt>
      <trkpt lat="46.00629" lon="1.38081">
        <ele>612.53936767578</ele>
        <time>2014-06-08T08:16:12Z</time>
      </trkpt>
      <trkpt lat="46.00623" lon="1.381">
        <ele>612.73425292969</ele>
        <time>2014-06-08T08:16:18Z</time>
      </trkpt>
      <trkpt lat="46.0062" lon="1.38118">
        <ele>613.29925537109</ele>
        <time>2014-06-08T08:16:24Z</time>
      </trkpt>
      <trkpt lat="46.00613" lon="1.38141">
        <ele>613.75732421875</ele>
        <time>2014-06-08T08:16:31Z</time>
      </trkpt>
      <trkpt lat="46.00603" lon="1.38164">
        <ele>613.68811035156</ele>
        <time>2014-06-08T08:16:38Z</time>
      </trkpt>
      <trkpt lat="46.00593" lon="1.38178">
        <ele>613.03967285156</ele>
        <time>2014-06-08T08:16:43Z</time>
      </trkpt>
      <trkpt lat="46.00576" lon="1.38195">
        <ele>611.39190673828</ele>
        <time>2014-06-08T08:16:50Z</time>
      </trkpt>
      <trkpt lat="46.00563" lon="1.38217">
        <ele>610.41809082031</ele>
        <time>2014-06-08T08:16:57Z</time>
      </trkpt>
      <trkpt lat="46.00552" lon="1.38236">
        <ele>609.23736572266</ele>
        <time>2014-06-08T08:17:03Z</time>
      </trkpt>
      <trkpt lat="46.00543" lon="1.3826">
        <ele>608.65374755859</ele>
        <time>2014-06-08T08:17:09Z</time>
      </trkpt>
      <trkpt lat="46.00534" lon="1.38278">
        <ele>607.4794921875</ele>
        <time>2014-06-08T08:17:14Z</time>
      </trkpt>
      <trkpt lat="46.00521" lon="1.38288">
        <ele>605.20477294922</ele>
        <time>2014-06-08T08:17:19Z</time>
      </trkpt>
      <trkpt lat="46.00505" lon="1.38291">
        <ele>601.9296875</ele>
        <time>2014-06-08T08:17:24Z</time>
      </trkpt>
      <trkpt lat="46.00496" lon="1.38296">
        <ele>600.70928955078</ele>
        <time>2014-06-08T08:17:27Z</time>
      </trkpt>
      <trkpt lat="46.0049" lon="1.38304">
        <ele>600.25390625</ele>
        <time>2014-06-08T08:17:30Z</time>
      </trkpt>
      <trkpt lat="46.00484" lon="1.38323">
        <ele>600.2705078125</ele>
        <time>2014-06-08T08:17:36Z</time>
      </trkpt>
      <trkpt lat="46.00482" lon="1.38325">
        <ele>600.19256591797</ele>
        <time>2014-06-08T08:17:37Z</time>
      </trkpt>
      <trkpt lat="46.0047" lon="1.38341">
        <ele>599.35638427734</ele>
        <time>2014-06-08T08:17:43Z</time>
      </trkpt>
      <trkpt lat="46.00459" lon="1.38352">
        <ele>598.31854248047</ele>
        <time>2014-06-08T08:17:48Z</time>
      </trkpt>
      <trkpt lat="46.00449" lon="1.38368">
        <ele>597.33447265625</ele>
        <time>2014-06-08T08:17:53Z</time>
      </trkpt>
      <trkpt lat="46.0044" lon="1.38387">
        <ele>596.30139160156</ele>
        <time>2014-06-08T08:17:59Z</time>
      </trkpt>
      <trkpt lat="46.00431" lon="1.38407">
        <ele>595.353515625</ele>
        <time>2014-06-08T08:18:05Z</time>
      </trkpt>
      <trkpt lat="46.00426" lon="1.38429">
        <ele>594.80883789062</ele>
        <time>2014-06-08T08:18:11Z</time>
      </trkpt>
      <trkpt lat="46.00422" lon="1.38447">
        <ele>594.46331787109</ele>
        <time>2014-06-08T08:18:16Z</time>
      </trkpt>
      <trkpt lat="46.00416" lon="1.38473">
        <ele>593.94604492188</ele>
        <time>2014-06-08T08:18:23Z</time>
      </trkpt>
      <trkpt lat="46.00408" lon="1.38488">
        <ele>593.12707519531</ele>
        <time>2014-06-08T08:18:28Z</time>
      </trkpt>
      <trkpt lat="46.004" lon="1.38501">
        <ele>592.37878417969</ele>
        <time>2014-06-08T08:18:33Z</time>
      </trkpt>
      <trkpt lat="46.00388" lon="1.38519">
        <ele>591.03594970703</ele>
        <time>2014-06-08T08:18:40Z</time>
      </trkpt>
      <trkpt lat="46.00377" lon="1.38534">
        <ele>589.66760253906</ele>
        <time>2014-06-08T08:18:46Z</time>
      </trkpt>
      <trkpt lat="46.00373" lon="1.38547">
        <ele>588.89807128906</ele>
        <time>2014-06-08T08:18:51Z</time>
      </trkpt>
      <trkpt lat="46.00363" lon="1.38569">
        <ele>587.02490234375</ele>
        <time>2014-06-08T08:18:57Z</time>
      </trkpt>
      <trkpt lat="46.00356" lon="1.3858">
        <ele>585.57586669922</ele>
        <time>2014-06-08T08:19:01Z</time>
      </trkpt>
      <trkpt lat="46.00346" lon="1.38598">
        <ele>582.84216308594</ele>
        <time>2014-06-08T08:19:07Z</time>
      </trkpt>
      <trkpt lat="46.00337" lon="1.38618">
        <ele>580.12536621094</ele>
        <time>2014-06-08T08:19:13Z</time>
      </trkpt>
      <trkpt lat="46.00329" lon="1.38635">
        <ele>577.41149902344</ele>
        <time>2014-06-08T08:19:18Z</time>
      </trkpt>
      <trkpt lat="46.00312" lon="1.38657">
        <ele>572.552734375</ele>
        <time>2014-06-08T08:19:25Z</time>
      </trkpt>
      <trkpt lat="46.00301" lon="1.38662">
        <ele>569.87261962891</ele>
        <time>2014-06-08T08:19:29Z</time>
      </trkpt>
      <trkpt lat="46.00283" lon="1.38667">
        <ele>565.74206542969</ele>
        <time>2014-06-08T08:19:35Z</time>
      </trkpt>
      <trkpt lat="46.00266" lon="1.38673">
        <ele>562.30889892578</ele>
        <time>2014-06-08T08:19:41Z</time>
      </trkpt>
      <trkpt lat="46.00261" lon="1.38687">
        <ele>561.59448242188</ele>
        <time>2014-06-08T08:19:45Z</time>
      </trkpt>
      <trkpt lat="46.00256" lon="1.38699">
        <ele>560.90014648438</ele>
        <time>2014-06-08T08:19:49Z</time>
      </trkpt>
      <trkpt lat="46.0025" lon="1.38719">
        <ele>560.30267333984</ele>
        <time>2014-06-08T08:19:55Z</time>
      </trkpt>
      <trkpt lat="46.00244" lon="1.38736">
        <ele>560.58666992188</ele>
        <time>2014-06-08T08:20:00Z</time>
      </trkpt>
      <trkpt lat="46.00241" lon="1.38753">
        <ele>561.08068847656</ele>
        <time>2014-06-08T08:20:05Z</time>
      </trkpt>
      <trkpt lat="46.00238" lon="1.38767">
        <ele>561.56524658203</ele>
        <time>2014-06-08T08:20:09Z</time>
      </trkpt>
      <trkpt lat="46.00238" lon="1.3877">
        <ele>561.67956542969</ele>
        <time>2014-06-08T08:20:10Z</time>
      </trkpt>
      <trkpt lat="46.00223" lon="1.38776">
        <ele>562.22094726562</ele>
        <time>2014-06-08T08:20:16Z</time>
      </trkpt>
      <trkpt lat="46.00208" lon="1.38773">
        <ele>562.38024902344</ele>
        <time>2014-06-08T08:20:23Z</time>
      </trkpt>
      <trkpt lat="46.00204" lon="1.38774">
        <ele>562.49761962891</ele>
        <time>2014-06-08T08:20:25Z</time>
      </trkpt>
      <trkpt lat="46.00196" lon="1.38775">
        <ele>562.74920654297</ele>
        <time>2014-06-08T08:20:31Z</time>
      </trkpt>
      <trkpt lat="46.00189" lon="1.38781">
        <ele>563.41168212891</ele>
        <time>2014-06-08T08:20:38Z</time>
      </trkpt>
      <trkpt lat="46.00186" lon="1.38785">
        <ele>563.77111816406</ele>
        <time>2014-06-08T08:20:41Z</time>
      </trkpt>
      <trkpt lat="46.00176" lon="1.38794">
        <ele>564.84771728516</ele>
        <time>2014-06-08T08:20:49Z</time>
      </trkpt>
      <trkpt lat="46.00174" lon="1.38799">
        <ele>565.40856933594</ele>
        <time>2014-06-08T08:20:53Z</time>
      </trkpt>
      <trkpt lat="46.00174" lon="1.38805">
        <ele>565.97204589844</ele>
        <time>2014-06-08T08:20:57Z</time>
      </trkpt>
      <trkpt lat="46.00173" lon="1.38808">
        <ele>566.26037597656</ele>
        <time>2014-06-08T08:20:59Z</time>
      </trkpt>
      <trkpt lat="46.00171" lon="1.38809">
        <ele>566.44653320312</ele>
        <time>2014-06-08T08:21:04Z</time>
      </trkpt>
      <trkpt lat="46.00171" lon="1.38819">
        <ele>567.3525390625</ele>
        <time>2014-06-08T08:21:11Z</time>
      </trkpt>
      <trkpt lat="46.00169" lon="1.38822">
        <ele>567.8154296875</ele>
        <time>2014-06-08T08:21:21Z</time>
      </trkpt>
      <trkpt lat="46.00168" lon="1.38821">
        <ele>567.74304199219</ele>
        <time>2014-06-08T08:21:28Z</time>
      </trkpt>
      <trkpt lat="46.00169" lon="1.38819">
        <ele>567.49383544922</ele>
        <time>2014-06-08T08:21:36Z</time>
      </trkpt>
      <trkpt lat="46.00171" lon="1.38816">
        <ele>567.16162109375</ele>
        <time>2014-06-08T08:21:43Z</time>
      </trkpt>
      <trkpt lat="46.0017" lon="1.38812">
        <ele>566.72015380859</ele>
        <time>2014-06-08T08:21:47Z</time>
      </trkpt>
      <trkpt lat="46.00169" lon="1.38809">
        <ele>566.55462646484</ele>
        <time>2014-06-08T08:21:52Z</time>
      </trkpt>
      <trkpt lat="46.0017" lon="1.38815">
        <ele>567.07379150391</ele>
        <time>2014-06-08T08:21:58Z</time>
      </trkpt>
      <trkpt lat="46.00167" lon="1.38822">
        <ele>567.8798828125</ele>
        <time>2014-06-08T08:22:06Z</time>
      </trkpt>
      <trkpt lat="46.00165" lon="1.38825">
        <ele>568.29260253906</ele>
        <time>2014-06-08T08:22:14Z</time>
      </trkpt>
      <trkpt lat="46.00162" lon="1.38826">
        <ele>568.71154785156</ele>
        <time>2014-06-08T08:22:23Z</time>
      </trkpt>
      <trkpt lat="46.00159" lon="1.38823">
        <ele>568.74688720703</ele>
        <time>2014-06-08T08:22:32Z</time>
      </trkpt>
      <trkpt lat="46.00157" lon="1.38823">
        <ele>568.88482666016</ele>
        <time>2014-06-08T08:22:37Z</time>
      </trkpt>
      <trkpt lat="46.00158" lon="1.38822">
        <ele>568.71875</ele>
        <time>2014-06-08T08:22:48Z</time>
      </trkpt>
      <trkpt lat="46.00158" lon="1.38822">
        <ele>568.69958496094</ele>
        <time>2014-06-08T08:22:58Z</time>
      </trkpt>
      <trkpt lat="46.00157" lon="1.38824">
        <ele>568.97131347656</ele>
        <time>2014-06-08T08:23:06Z</time>
      </trkpt>
      <trkpt lat="46.00153" lon="1.38824">
        <ele>569.38623046875</ele>
        <time>2014-06-08T08:23:10Z</time>
      </trkpt>
      <trkpt lat="46.0015" lon="1.38824">
        <ele>569.60382080078</ele>
        <time>2014-06-08T08:23:12Z</time>
      </trkpt>
      <trkpt lat="46.00146" lon="1.38826">
        <ele>570.13690185547</ele>
        <time>2014-06-08T08:23:16Z</time>
      </trkpt>
      <trkpt lat="46.00142" lon="1.38833">
        <ele>571.07482910156</ele>
        <time>2014-06-08T08:23:22Z</time>
      </trkpt>
      <trkpt lat="46.00142" lon="1.38837">
        <ele>571.60791015625</ele>
        <time>2014-06-08T08:23:28Z</time>
      </trkpt>
      <trkpt lat="46.00145" lon="1.3884">
        <ele>571.78369140625</ele>
        <time>2014-06-08T08:23:32Z</time>
      </trkpt>
      <trkpt lat="46.00148" lon="1.38843">
        <ele>571.87927246094</ele>
        <time>2014-06-08T08:23:37Z</time>
      </trkpt>
      <trkpt lat="46.00151" lon="1.38843">
        <ele>571.75799560547</ele>
        <time>2014-06-08T08:23:39Z</time>
      </trkpt>
      <trkpt lat="46.00166" lon="1.3885">
        <ele>571.65948486328</ele>
        <time>2014-06-08T08:23:45Z</time>
      </trkpt>
      <trkpt lat="46.00173" lon="1.38852">
        <ele>571.36700439453</ele>
        <time>2014-06-08T08:23:48Z</time>
      </trkpt>
      <trkpt lat="46.00182" lon="1.38856">
        <ele>571.29650878906</ele>
        <time>2014-06-08T08:23:52Z</time>
      </trkpt>
      <trkpt lat="46.00184" lon="1.3886">
        <ele>571.55773925781</ele>
        <time>2014-06-08T08:23:54Z</time>
      </trkpt>
      <trkpt lat="46.00195" lon="1.3887">
        <ele>572.02819824219</ele>
        <time>2014-06-08T08:23:59Z</time>
      </trkpt>
      <trkpt lat="46.00208" lon="1.38878">
        <ele>571.98022460938</ele>
        <time>2014-06-08T08:24:03Z</time>
      </trkpt>
      <trkpt lat="46.00214" lon="1.38886">
        <ele>572.47045898438</ele>
        <time>2014-06-08T08:24:08Z</time>
      </trkpt>
      <trkpt lat="46.00214" lon="1.38888">
        <ele>572.53314208984</ele>
        <time>2014-06-08T08:24:09Z</time>
      </trkpt>
      <trkpt lat="46.00212" lon="1.38897">
        <ele>574.01531982422</ele>
        <time>2014-06-08T08:24:15Z</time>
      </trkpt>
      <trkpt lat="46.00214" lon="1.38904">
        <ele>574.70251464844</ele>
        <time>2014-06-08T08:24:20Z</time>
      </trkpt>
      <trkpt lat="46.00214" lon="1.38906">
        <ele>574.88519287109</ele>
        <time>2014-06-08T08:24:21Z</time>
      </trkpt>
      <trkpt lat="46.0022" lon="1.38919">
        <ele>575.85626220703</ele>
        <time>2014-06-08T08:24:27Z</time>
      </trkpt>
      <trkpt lat="46.00219" lon="1.38928">
        <ele>576.552734375</ele>
        <time>2014-06-08T08:24:32Z</time>
      </trkpt>
      <trkpt lat="46.00218" lon="1.38932">
        <ele>577.07073974609</ele>
        <time>2014-06-08T08:24:34Z</time>
      </trkpt>
      <trkpt lat="46.00215" lon="1.38944">
        <ele>578.39508056641</ele>
        <time>2014-06-08T08:24:39Z</time>
      </trkpt>
      <trkpt lat="46.00212" lon="1.38952">
        <ele>579.24346923828</ele>
        <time>2014-06-08T08:24:45Z</time>
      </trkpt>
      <trkpt lat="46.00211" lon="1.38957">
        <ele>579.82666015625</ele>
        <time>2014-06-08T08:24:49Z</time>
      </trkpt>
      <trkpt lat="46.00209" lon="1.38965">
        <ele>580.69812011719</ele>
        <time>2014-06-08T08:24:53Z</time>
      </trkpt>
      <trkpt lat="46.00207" lon="1.3897">
        <ele>581.33935546875</ele>
        <time>2014-06-08T08:24:56Z</time>
      </trkpt>
      <trkpt lat="46.00206" lon="1.38974">
        <ele>581.80834960938</ele>
        <time>2014-06-08T08:24:59Z</time>
      </trkpt>
      <trkpt lat="46.00206" lon="1.38978">
        <ele>582.0859375</ele>
        <time>2014-06-08T08:25:01Z</time>
      </trkpt>
      <trkpt lat="46.00204" lon="1.38986">
        <ele>582.84875488281</ele>
        <time>2014-06-08T08:25:05Z</time>
      </trkpt>
      <trkpt lat="46.00201" lon="1.38996">
        <ele>583.97259521484</ele>
        <time>2014-06-08T08:25:11Z</time>
      </trkpt>
      <trkpt lat="46.00198" lon="1.39008">
        <ele>584.77777099609</ele>
        <time>2014-06-08T08:25:16Z</time>
      </trkpt>
      <trkpt lat="46.00195" lon="1.39025">
        <ele>585.36749267578</ele>
        <time>2014-06-08T08:25:22Z</time>
      </trkpt>
      <trkpt lat="46.00195" lon="1.39028">
        <ele>585.40710449219</ele>
        <time>2014-06-08T08:25:23Z</time>
      </trkpt>
      <trkpt lat="46.0019" lon="1.39044">
        <ele>585.88189697266</ele>
        <time>2014-06-08T08:25:28Z</time>
      </trkpt>
      <trkpt lat="46.00188" lon="1.39052">
        <ele>586.04223632812</ele>
        <time>2014-06-08T08:25:31Z</time>
      </trkpt>
      <trkpt lat="46.00187" lon="1.39056">
        <ele>586.09417724609</ele>
        <time>2014-06-08T08:25:33Z</time>
      </trkpt>
      <trkpt lat="46.00185" lon="1.39074">
        <ele>586.19818115234</ele>
        <time>2014-06-08T08:25:39Z</time>
      </trkpt>
      <trkpt lat="46.00187" lon="1.39086">
        <ele>586.29754638672</ele>
        <time>2014-06-08T08:25:43Z</time>
      </trkpt>
      <trkpt lat="46.00188" lon="1.39092">
        <ele>586.43145751953</ele>
        <time>2014-06-08T08:25:45Z</time>
      </trkpt>
      <trkpt lat="46.00196" lon="1.39112">
        <ele>587.07476806641</ele>
        <time>2014-06-08T08:25:52Z</time>
      </trkpt>
      <trkpt lat="46.00196" lon="1.39126">
        <ele>587.40155029297</ele>
        <time>2014-06-08T08:25:57Z</time>
      </trkpt>
      <trkpt lat="46.00197" lon="1.39142">
        <ele>587.83386230469</ele>
        <time>2014-06-08T08:26:02Z</time>
      </trkpt>
      <trkpt lat="46.002" lon="1.39161">
        <ele>588.45611572266</ele>
        <time>2014-06-08T08:26:08Z</time>
      </trkpt>
      <trkpt lat="46.00205" lon="1.3918">
        <ele>589.30456542969</ele>
        <time>2014-06-08T08:26:14Z</time>
      </trkpt>
      <trkpt lat="46.00207" lon="1.39196">
        <ele>589.98901367188</ele>
        <time>2014-06-08T08:26:20Z</time>
      </trkpt>
      <trkpt lat="46.00212" lon="1.39208">
        <ele>590.69915771484</ele>
        <time>2014-06-08T08:26:25Z</time>
      </trkpt>
      <trkpt lat="46.00221" lon="1.39219">
        <ele>591.68548583984</ele>
        <time>2014-06-08T08:26:31Z</time>
      </trkpt>
      <trkpt lat="46.00223" lon="1.3922">
        <ele>591.8583984375</ele>
        <time>2014-06-08T08:26:32Z</time>
      </trkpt>
      <trkpt lat="46.00232" lon="1.39227">
        <ele>592.73516845703</ele>
        <time>2014-06-08T08:26:38Z</time>
      </trkpt>
      <trkpt lat="46.00238" lon="1.39233">
        <ele>593.40057373047</ele>
        <time>2014-06-08T08:26:42Z</time>
      </trkpt>
      <trkpt lat="46.00249" lon="1.39243">
        <ele>594.64056396484</ele>
        <time>2014-06-08T08:26:48Z</time>
      </trkpt>
      <trkpt lat="46.00259" lon="1.3925">
        <ele>595.11334228516</ele>
        <time>2014-06-08T08:26:53Z</time>
      </trkpt>
      <trkpt lat="46.00269" lon="1.39255">
        <ele>595.23687744141</ele>
        <time>2014-06-08T08:26:58Z</time>
      </trkpt>
      <trkpt lat="46.00269" lon="1.39256">
        <ele>595.24377441406</ele>
        <time>2014-06-08T08:26:59Z</time>
      </trkpt>
      <trkpt lat="46.00278" lon="1.3926">
        <ele>595.38360595703</ele>
        <time>2014-06-08T08:27:04Z</time>
      </trkpt>
      <trkpt lat="46.00284" lon="1.39264">
        <ele>595.47760009766</ele>
        <time>2014-06-08T08:27:07Z</time>
      </trkpt>
      <trkpt lat="46.00293" lon="1.39268">
        <ele>595.61981201172</ele>
        <time>2014-06-08T08:27:11Z</time>
      </trkpt>
      <trkpt lat="46.00308" lon="1.39272">
        <ele>595.88006591797</ele>
        <time>2014-06-08T08:27:18Z</time>
      </trkpt>
      <trkpt lat="46.00321" lon="1.39272">
        <ele>596.06976318359</ele>
        <time>2014-06-08T08:27:24Z</time>
      </trkpt>
      <trkpt lat="46.00323" lon="1.39271">
        <ele>596.09271240234</ele>
        <time>2014-06-08T08:27:25Z</time>
      </trkpt>
      <trkpt lat="46.00336" lon="1.39271">
        <ele>596.38732910156</ele>
        <time>2014-06-08T08:27:31Z</time>
      </trkpt>
      <trkpt lat="46.00352" lon="1.39272">
        <ele>597.13342285156</ele>
        <time>2014-06-08T08:27:37Z</time>
      </trkpt>
      <trkpt lat="46.00364" lon="1.39274">
        <ele>597.71197509766</ele>
        <time>2014-06-08T08:27:42Z</time>
      </trkpt>
      <trkpt lat="46.0038" lon="1.39278">
        <ele>598.58978271484</ele>
        <time>2014-06-08T08:27:48Z</time>
      </trkpt>
      <trkpt lat="46.00393" lon="1.39285">
        <ele>599.47717285156</ele>
        <time>2014-06-08T08:27:54Z</time>
      </trkpt>
      <trkpt lat="46.00399" lon="1.39291">
        <ele>600.05407714844</ele>
        <time>2014-06-08T08:27:58Z</time>
      </trkpt>
      <trkpt lat="46.00409" lon="1.39299">
        <ele>600.86645507812</ele>
        <time>2014-06-08T08:28:04Z</time>
      </trkpt>
      <trkpt lat="46.0041" lon="1.393">
        <ele>600.99652099609</ele>
        <time>2014-06-08T08:28:05Z</time>
      </trkpt>
      <trkpt lat="46.00426" lon="1.39306">
        <ele>601.91552734375</ele>
        <time>2014-06-08T08:28:13Z</time>
      </trkpt>
      <trkpt lat="46.00437" lon="1.39307">
        <ele>602.25823974609</ele>
        <time>2014-06-08T08:28:19Z</time>
      </trkpt>
      <trkpt lat="46.00439" lon="1.39308">
        <ele>602.32543945312</ele>
        <time>2014-06-08T08:28:20Z</time>
      </trkpt>
      <trkpt lat="46.00449" lon="1.39309">
        <ele>602.64263916016</ele>
        <time>2014-06-08T08:28:25Z</time>
      </trkpt>
      <trkpt lat="46.00454" lon="1.39309">
        <ele>602.79467773438</ele>
        <time>2014-06-08T08:28:27Z</time>
      </trkpt>
      <trkpt lat="46.00465" lon="1.39311">
        <ele>603.22113037109</ele>
        <time>2014-06-08T08:28:32Z</time>
      </trkpt>
      <trkpt lat="46.00476" lon="1.39314">
        <ele>603.74847412109</ele>
        <time>2014-06-08T08:28:37Z</time>
      </trkpt>
      <trkpt lat="46.00485" lon="1.39317">
        <ele>604.20788574219</ele>
        <time>2014-06-08T08:28:42Z</time>
      </trkpt>
      <trkpt lat="46.00492" lon="1.39322">
        <ele>604.82440185547</ele>
        <time>2014-06-08T08:28:47Z</time>
      </trkpt>
      <trkpt lat="46.00499" lon="1.39326">
        <ele>605.34753417969</ele>
        <time>2014-06-08T08:28:51Z</time>
      </trkpt>
      <trkpt lat="46.00506" lon="1.39328">
        <ele>605.63677978516</ele>
        <time>2014-06-08T08:28:55Z</time>
      </trkpt>
      <trkpt lat="46.00509" lon="1.39328">
        <ele>605.69488525391</ele>
        <time>2014-06-08T08:28:57Z</time>
      </trkpt>
      <trkpt lat="46.0052" lon="1.39334">
        <ele>606.26745605469</ele>
        <time>2014-06-08T08:29:03Z</time>
      </trkpt>
      <trkpt lat="46.00523" lon="1.39336">
        <ele>606.33264160156</ele>
        <time>2014-06-08T08:29:05Z</time>
      </trkpt>
      <trkpt lat="46.00533" lon="1.39344">
        <ele>606.60638427734</ele>
        <time>2014-06-08T08:29:12Z</time>
      </trkpt>
      <trkpt lat="46.00551" lon="1.39352">
        <ele>606.91802978516</ele>
        <time>2014-06-08T08:29:17Z</time>
      </trkpt>
      <trkpt lat="46.00571" lon="1.39362">
        <ele>607.23931884766</ele>
        <time>2014-06-08T08:29:22Z</time>
      </trkpt>
      <trkpt lat="46.00579" lon="1.39369">
        <ele>607.40570068359</ele>
        <time>2014-06-08T08:29:26Z</time>
      </trkpt>
      <trkpt lat="46.00583" lon="1.39371">
        <ele>607.45227050781</ele>
        <time>2014-06-08T08:29:27Z</time>
      </trkpt>
      <trkpt lat="46.00587" lon="1.3938">
        <ele>607.77777099609</ele>
        <time>2014-06-08T08:29:32Z</time>
      </trkpt>
      <trkpt lat="46.00592" lon="1.39389">
        <ele>608.22955322266</ele>
        <time>2014-06-08T08:29:37Z</time>
      </trkpt>
      <trkpt lat="46.00605" lon="1.39403">
        <ele>609.20324707031</ele>
        <time>2014-06-08T08:29:43Z</time>
      </trkpt>
      <trkpt lat="46.00611" lon="1.39412">
        <ele>609.60272216797</ele>
        <time>2014-06-08T08:29:47Z</time>
      </trkpt>
      <trkpt lat="46.00618" lon="1.3942">
        <ele>610.04791259766</ele>
        <time>2014-06-08T08:29:52Z</time>
      </trkpt>
      <trkpt lat="46.00625" lon="1.39432">
        <ele>610.49017333984</ele>
        <time>2014-06-08T08:29:57Z</time>
      </trkpt>
      <trkpt lat="46.00628" lon="1.39436">
        <ele>610.66522216797</ele>
        <time>2014-06-08T08:29:59Z</time>
      </trkpt>
      <trkpt lat="46.00631" lon="1.39444">
        <ele>610.93029785156</ele>
        <time>2014-06-08T08:30:02Z</time>
      </trkpt>
      <trkpt lat="46.00632" lon="1.39463">
        <ele>611.04895019531</ele>
        <time>2014-06-08T08:30:08Z</time>
      </trkpt>
      <trkpt lat="46.00628" lon="1.39482">
        <ele>610.69818115234</ele>
        <time>2014-06-08T08:30:14Z</time>
      </trkpt>
      <trkpt lat="46.00626" lon="1.39492">
        <ele>610.58117675781</ele>
        <time>2014-06-08T08:30:20Z</time>
      </trkpt>
      <trkpt lat="46.00625" lon="1.39502">
        <ele>610.57446289062</ele>
        <time>2014-06-08T08:30:25Z</time>
      </trkpt>
      <trkpt lat="46.00623" lon="1.39515">
        <ele>611.08264160156</ele>
        <time>2014-06-08T08:30:31Z</time>
      </trkpt>
      <trkpt lat="46.00619" lon="1.39525">
        <ele>611.2470703125</ele>
        <time>2014-06-08T08:30:36Z</time>
      </trkpt>
      <trkpt lat="46.00619" lon="1.39543">
        <ele>612.17138671875</ele>
        <time>2014-06-08T08:30:46Z</time>
      </trkpt>
      <trkpt lat="46.00621" lon="1.3955">
        <ele>612.74981689453</ele>
        <time>2014-06-08T08:30:50Z</time>
      </trkpt>
      <trkpt lat="46.00629" lon="1.39559">
        <ele>614.1455078125</ele>
        <time>2014-06-08T08:30:58Z</time>
      </trkpt>
      <trkpt lat="46.00633" lon="1.39566">
        <ele>615.12225341797</ele>
        <time>2014-06-08T08:31:03Z</time>
      </trkpt>
      <trkpt lat="46.00637" lon="1.39574">
        <ele>616.08825683594</ele>
        <time>2014-06-08T08:31:08Z</time>
      </trkpt>
      <trkpt lat="46.00639" lon="1.39578">
        <ele>616.64031982422</ele>
        <time>2014-06-08T08:31:11Z</time>
      </trkpt>
      <trkpt lat="46.00644" lon="1.39585">
        <ele>617.85687255859</ele>
        <time>2014-06-08T08:31:16Z</time>
      </trkpt>
      <trkpt lat="46.00645" lon="1.39587">
        <ele>618.07342529297</ele>
        <time>2014-06-08T08:31:17Z</time>
      </trkpt>
      <trkpt lat="46.00649" lon="1.39599">
        <ele>619.39208984375</ele>
        <time>2014-06-08T08:31:23Z</time>
      </trkpt>
      <trkpt lat="46.00654" lon="1.3961">
        <ele>620.85363769531</ele>
        <time>2014-06-08T08:31:29Z</time>
      </trkpt>
      <trkpt lat="46.00654" lon="1.39615">
        <ele>621.16741943359</ele>
        <time>2014-06-08T08:31:32Z</time>
      </trkpt>
      <trkpt lat="46.00655" lon="1.39629">
        <ele>622.09124755859</ele>
        <time>2014-06-08T08:31:40Z</time>
      </trkpt>
      <trkpt lat="46.00653" lon="1.39642">
        <ele>622.65490722656</ele>
        <time>2014-06-08T08:31:47Z</time>
      </trkpt>
      <trkpt lat="46.00653" lon="1.39649">
        <ele>623.10394287109</ele>
        <time>2014-06-08T08:31:51Z</time>
      </trkpt>
      <trkpt lat="46.00653" lon="1.39659">
        <ele>623.77960205078</ele>
        <time>2014-06-08T08:31:56Z</time>
      </trkpt>
      <trkpt lat="46.0065" lon="1.39678">
        <ele>624.47125244141</ele>
        <time>2014-06-08T08:32:05Z</time>
      </trkpt>
      <trkpt lat="46.00645" lon="1.39687">
        <ele>624.57830810547</ele>
        <time>2014-06-08T08:32:09Z</time>
      </trkpt>
      <trkpt lat="46.00642" lon="1.39702">
        <ele>625.28814697266</ele>
        <time>2014-06-08T08:32:14Z</time>
      </trkpt>
      <trkpt lat="46.00639" lon="1.39724">
        <ele>626.70489501953</ele>
        <time>2014-06-08T08:32:21Z</time>
      </trkpt>
      <trkpt lat="46.00636" lon="1.39742">
        <ele>627.89935302734</ele>
        <time>2014-06-08T08:32:27Z</time>
      </trkpt>
      <trkpt lat="46.00633" lon="1.39762">
        <ele>629.19854736328</ele>
        <time>2014-06-08T08:32:34Z</time>
      </trkpt>
      <trkpt lat="46.00631" lon="1.39783">
        <ele>630.40185546875</ele>
        <time>2014-06-08T08:32:41Z</time>
      </trkpt>
      <trkpt lat="46.00627" lon="1.39803">
        <ele>631.56182861328</ele>
        <time>2014-06-08T08:32:48Z</time>
      </trkpt>
      <trkpt lat="46.00624" lon="1.3982">
        <ele>632.61810302734</ele>
        <time>2014-06-08T08:32:54Z</time>
      </trkpt>
      <trkpt lat="46.00622" lon="1.39839">
        <ele>633.34002685547</ele>
        <time>2014-06-08T08:33:00Z</time>
      </trkpt>
      <trkpt lat="46.00618" lon="1.39848">
        <ele>633.07019042969</ele>
        <time>2014-06-08T08:33:04Z</time>
      </trkpt>
      <trkpt lat="46.0061" lon="1.3985">
        <ele>632.70501708984</ele>
        <time>2014-06-08T08:33:08Z</time>
      </trkpt>
      <trkpt lat="46.00606" lon="1.3985">
        <ele>632.49438476562</ele>
        <time>2014-06-08T08:33:10Z</time>
      </trkpt>
      <trkpt lat="46.00595" lon="1.39845">
        <ele>632.09124755859</ele>
        <time>2014-06-08T08:33:15Z</time>
      </trkpt>
      <trkpt lat="46.00581" lon="1.3984">
        <ele>631.53350830078</ele>
        <time>2014-06-08T08:33:21Z</time>
      </trkpt>
      <trkpt lat="46.0057" lon="1.39837">
        <ele>630.58831787109</ele>
        <time>2014-06-08T08:33:26Z</time>
      </trkpt>
      <trkpt lat="46.00566" lon="1.39832">
        <ele>630.29888916016</ele>
        <time>2014-06-08T08:33:30Z</time>
      </trkpt>
      <trkpt lat="46.00558" lon="1.39828">
        <ele>629.21746826172</ele>
        <time>2014-06-08T08:33:33Z</time>
      </trkpt>
      <trkpt lat="46.00537" lon="1.3982">
        <ele>626.58557128906</ele>
        <time>2014-06-08T08:33:41Z</time>
      </trkpt>
      <trkpt lat="46.00524" lon="1.39815">
        <ele>624.96997070312</ele>
        <time>2014-06-08T08:33:46Z</time>
      </trkpt>
      <trkpt lat="46.00509" lon="1.39812">
        <ele>623.31170654297</ele>
        <time>2014-06-08T08:33:52Z</time>
      </trkpt>
      <trkpt lat="46.00496" lon="1.3981">
        <ele>621.91845703125</ele>
        <time>2014-06-08T08:33:57Z</time>
      </trkpt>
      <trkpt lat="46.00483" lon="1.39806">
        <ele>620.48358154297</ele>
        <time>2014-06-08T08:34:02Z</time>
      </trkpt>
      <trkpt lat="46.00472" lon="1.39805">
        <ele>619.49780273438</ele>
        <time>2014-06-08T08:34:06Z</time>
      </trkpt>
      <trkpt lat="46.00469" lon="1.39805">
        <ele>619.23229980469</ele>
        <time>2014-06-08T08:34:07Z</time>
      </trkpt>
      <trkpt lat="46.0046" lon="1.39803">
        <ele>618.32360839844</ele>
        <time>2014-06-08T08:34:11Z</time>
      </trkpt>
      <trkpt lat="46.00447" lon="1.39807">
        <ele>617.43170166016</ele>
        <time>2014-06-08T08:34:16Z</time>
      </trkpt>
      <trkpt lat="46.00445" lon="1.39806">
        <ele>617.18597412109</ele>
        <time>2014-06-08T08:34:17Z</time>
      </trkpt>
      <trkpt lat="46.00431" lon="1.39811">
        <ele>616.20123291016</ele>
        <time>2014-06-08T08:34:22Z</time>
      </trkpt>
      <trkpt lat="46.0042" lon="1.39808">
        <ele>615.10278320312</ele>
        <time>2014-06-08T08:34:27Z</time>
      </trkpt>
      <trkpt lat="46.00409" lon="1.39804">
        <ele>613.46630859375</ele>
        <time>2014-06-08T08:34:32Z</time>
      </trkpt>
      <trkpt lat="46.00398" lon="1.39803">
        <ele>611.93670654297</ele>
        <time>2014-06-08T08:34:37Z</time>
      </trkpt>
      <trkpt lat="46.00391" lon="1.39803">
        <ele>610.98193359375</ele>
        <time>2014-06-08T08:34:40Z</time>
      </trkpt>
      <trkpt lat="46.00377" lon="1.398">
        <ele>608.89685058594</ele>
        <time>2014-06-08T08:34:46Z</time>
      </trkpt>
      <trkpt lat="46.00374" lon="1.398">
        <ele>608.59216308594</ele>
        <time>2014-06-08T08:34:47Z</time>
      </trkpt>
      <trkpt lat="46.00362" lon="1.39803">
        <ele>606.92700195312</ele>
        <time>2014-06-08T08:34:53Z</time>
      </trkpt>
      <trkpt lat="46.00349" lon="1.39806">
        <ele>605.20391845703</ele>
        <time>2014-06-08T08:34:58Z</time>
      </trkpt>
      <trkpt lat="46.00333" lon="1.39811">
        <ele>603.01019287109</ele>
        <time>2014-06-08T08:35:03Z</time>
      </trkpt>
      <trkpt lat="46.00323" lon="1.39818">
        <ele>602.4970703125</ele>
        <time>2014-06-08T08:35:07Z</time>
      </trkpt>
      <trkpt lat="46.00312" lon="1.39818">
        <ele>602.01141357422</ele>
        <time>2014-06-08T08:35:12Z</time>
      </trkpt>
      <trkpt lat="46.00308" lon="1.39816">
        <ele>601.77526855469</ele>
        <time>2014-06-08T08:35:15Z</time>
      </trkpt>
      <trkpt lat="46.00305" lon="1.39816">
        <ele>601.60729980469</ele>
        <time>2014-06-08T08:35:20Z</time>
      </trkpt>
      <trkpt lat="46.00303" lon="1.39817">
        <ele>601.54766845703</ele>
        <time>2014-06-08T08:35:22Z</time>
      </trkpt>
      <trkpt lat="46.00304" lon="1.39821">
        <ele>601.66839599609</ele>
        <time>2014-06-08T08:35:25Z</time>
      </trkpt>
      <trkpt lat="46.00298" lon="1.39831">
        <ele>601.64312744141</ele>
        <time>2014-06-08T08:35:30Z</time>
      </trkpt>
      <trkpt lat="46.00288" lon="1.39835">
        <ele>601.28753662109</ele>
        <time>2014-06-08T08:35:34Z</time>
      </trkpt>
      <trkpt lat="46.00273" lon="1.39844">
        <ele>600.416015625</ele>
        <time>2014-06-08T08:35:40Z</time>
      </trkpt>
      <trkpt lat="46.00261" lon="1.39854">
        <ele>599.62707519531</ele>
        <time>2014-06-08T08:35:45Z</time>
      </trkpt>
      <trkpt lat="46.00245" lon="1.39869">
        <ele>598.46453857422</ele>
        <time>2014-06-08T08:35:52Z</time>
      </trkpt>
      <trkpt lat="46.00239" lon="1.39879">
        <ele>597.76049804688</ele>
        <time>2014-06-08T08:35:57Z</time>
      </trkpt>
      <trkpt lat="46.00229" lon="1.39889">
        <ele>596.8837890625</ele>
        <time>2014-06-08T08:36:01Z</time>
      </trkpt>
      <trkpt lat="46.00221" lon="1.39899">
        <ele>596.15338134766</ele>
        <time>2014-06-08T08:36:06Z</time>
      </trkpt>
      <trkpt lat="46.00209" lon="1.39912">
        <ele>595.15008544922</ele>
        <time>2014-06-08T08:36:11Z</time>
      </trkpt>
      <trkpt lat="46.00197" lon="1.39928">
        <ele>594.06201171875</ele>
        <time>2014-06-08T08:36:15Z</time>
      </trkpt>
      <trkpt lat="46.0019" lon="1.39938">
        <ele>593.39050292969</ele>
        <time>2014-06-08T08:36:19Z</time>
      </trkpt>
      <trkpt lat="46.00176" lon="1.39952">
        <ele>592.4541015625</ele>
        <time>2014-06-08T08:36:25Z</time>
      </trkpt>
      <trkpt lat="46.00164" lon="1.39964">
        <ele>591.63385009766</ele>
        <time>2014-06-08T08:36:30Z</time>
      </trkpt>
      <trkpt lat="46.00154" lon="1.39975">
        <ele>590.81298828125</ele>
        <time>2014-06-08T08:36:36Z</time>
      </trkpt>
      <trkpt lat="46.00142" lon="1.39981">
        <ele>590.04516601562</ele>
        <time>2014-06-08T08:36:41Z</time>
      </trkpt>
      <trkpt lat="46.00131" lon="1.39981">
        <ele>589.40972900391</ele>
        <time>2014-06-08T08:36:45Z</time>
      </trkpt>
      <trkpt lat="46.00114" lon="1.39982">
        <ele>588.45373535156</ele>
        <time>2014-06-08T08:36:51Z</time>
      </trkpt>
      <trkpt lat="46.00097" lon="1.39984">
        <ele>587.60626220703</ele>
        <time>2014-06-08T08:36:57Z</time>
      </trkpt>
      <trkpt lat="46.00085" lon="1.39979">
        <ele>586.62445068359</ele>
        <time>2014-06-08T08:37:02Z</time>
      </trkpt>
      <trkpt lat="46.00071" lon="1.39975">
        <ele>586.40899658203</ele>
        <time>2014-06-08T08:37:07Z</time>
      </trkpt>
      <trkpt lat="46.00058" lon="1.39969">
        <ele>586.2021484375</ele>
        <time>2014-06-08T08:37:12Z</time>
      </trkpt>
      <trkpt lat="46.00046" lon="1.3996">
        <ele>585.79632568359</ele>
        <time>2014-06-08T08:37:18Z</time>
      </trkpt>
      <trkpt lat="46.00035" lon="1.39953">
        <ele>585.51239013672</ele>
        <time>2014-06-08T08:37:23Z</time>
      </trkpt>
      <trkpt lat="46.0002" lon="1.39942">
        <ele>585.14715576172</ele>
        <time>2014-06-08T08:37:29Z</time>
      </trkpt>
      <trkpt lat="46.0001" lon="1.39934">
        <ele>584.82562255859</ele>
        <time>2014-06-08T08:37:34Z</time>
      </trkpt>
      <trkpt lat="45.99997" lon="1.39925">
        <ele>584.84661865234</ele>
        <time>2014-06-08T08:37:39Z</time>
      </trkpt>
      <trkpt lat="45.99987" lon="1.39917">
        <ele>585.75079345703</ele>
        <time>2014-06-08T08:37:44Z</time>
      </trkpt>
      <trkpt lat="45.99977" lon="1.39902">
        <ele>586.28900146484</ele>
        <time>2014-06-08T08:37:50Z</time>
      </trkpt>
      <trkpt lat="45.99973" lon="1.39885">
        <ele>586.08154296875</ele>
        <time>2014-06-08T08:37:56Z</time>
      </trkpt>
      <trkpt lat="45.99962" lon="1.39871">
        <ele>587.04125976562</ele>
        <time>2014-06-08T08:38:02Z</time>
      </trkpt>
      <trkpt lat="45.99958" lon="1.39853">
        <ele>586.86657714844</ele>
        <time>2014-06-08T08:38:07Z</time>
      </trkpt>
      <trkpt lat="45.99952" lon="1.39836">
        <ele>587.18475341797</ele>
        <time>2014-06-08T08:38:12Z</time>
      </trkpt>
      <trkpt lat="45.99949" lon="1.39845">
        <ele>588.09356689453</ele>
        <time>2014-06-08T08:38:18Z</time>
      </trkpt>
      <trkpt lat="45.99949" lon="1.39851">
        <ele>588.23889160156</ele>
        <time>2014-06-08T08:38:20Z</time>
      </trkpt>
      <trkpt lat="45.99954" lon="1.39859">
        <ele>587.74194335938</ele>
        <time>2014-06-08T08:38:25Z</time>
      </trkpt>
      <trkpt lat="45.99956" lon="1.39862">
        <ele>587.54870605469</ele>
        <time>2014-06-08T08:38:28Z</time>
      </trkpt>
      <trkpt lat="45.99955" lon="1.39866">
        <ele>587.94409179688</ele>
        <time>2014-06-08T08:38:32Z</time>
      </trkpt>
      <trkpt lat="45.9995" lon="1.39877">
        <ele>589.02630615234</ele>
        <time>2014-06-08T08:38:39Z</time>
      </trkpt>
      <trkpt lat="45.99947" lon="1.39885">
        <ele>589.83459472656</ele>
        <time>2014-06-08T08:38:43Z</time>
      </trkpt>
      <trkpt lat="45.99947" lon="1.39894">
        <ele>590.20971679688</ele>
        <time>2014-06-08T08:38:48Z</time>
      </trkpt>
      <trkpt lat="45.99946" lon="1.399">
        <ele>590.55047607422</ele>
        <time>2014-06-08T08:38:52Z</time>
      </trkpt>
      <trkpt lat="45.99943" lon="1.39904">
        <ele>591.05499267578</ele>
        <time>2014-06-08T08:38:54Z</time>
      </trkpt>
      <trkpt lat="45.99938" lon="1.39913">
        <ele>592.04907226562</ele>
        <time>2014-06-08T08:39:00Z</time>
      </trkpt>
      <trkpt lat="45.99936" lon="1.39915">
        <ele>592.4697265625</ele>
        <time>2014-06-08T08:39:02Z</time>
      </trkpt>
      <trkpt lat="45.99928" lon="1.3993">
        <ele>593.34991455078</ele>
        <time>2014-06-08T08:39:08Z</time>
      </trkpt>
      <trkpt lat="45.99926" lon="1.39931">
        <ele>593.5537109375</ele>
        <time>2014-06-08T08:39:10Z</time>
      </trkpt>
      <trkpt lat="45.9992" lon="1.39936">
        <ele>594.12066650391</ele>
        <time>2014-06-08T08:39:16Z</time>
      </trkpt>
      <trkpt lat="45.99915" lon="1.39942">
        <ele>594.39990234375</ele>
        <time>2014-06-08T08:39:22Z</time>
      </trkpt>
      <trkpt lat="45.9991" lon="1.39947">
        <ele>594.3515625</ele>
        <time>2014-06-08T08:39:28Z</time>
      </trkpt>
      <trkpt lat="45.99906" lon="1.39951">
        <ele>594.30834960938</ele>
        <time>2014-06-08T08:39:32Z</time>
      </trkpt>
      <trkpt lat="45.99905" lon="1.39951">
        <ele>594.30718994141</ele>
        <time>2014-06-08T08:39:33Z</time>
      </trkpt>
      <trkpt lat="45.99895" lon="1.39956">
        <ele>594.31207275391</ele>
        <time>2014-06-08T08:39:39Z</time>
      </trkpt>
      <trkpt lat="45.99886" lon="1.39965">
        <ele>594.21221923828</ele>
        <time>2014-06-08T08:39:43Z</time>
      </trkpt>
      <trkpt lat="45.99878" lon="1.39976">
        <ele>594.02996826172</ele>
        <time>2014-06-08T08:39:48Z</time>
      </trkpt>
      <trkpt lat="45.9987" lon="1.39993">
        <ele>593.72125244141</ele>
        <time>2014-06-08T08:39:54Z</time>
      </trkpt>
      <trkpt lat="45.9986" lon="1.4001">
        <ele>593.51666259766</ele>
        <time>2014-06-08T08:39:59Z</time>
      </trkpt>
      <trkpt lat="45.9985" lon="1.40025">
        <ele>593.42834472656</ele>
        <time>2014-06-08T08:40:05Z</time>
      </trkpt>
      <trkpt lat="45.99841" lon="1.40034">
        <ele>593.45434570312</ele>
        <time>2014-06-08T08:40:09Z</time>
      </trkpt>
      <trkpt lat="45.99827" lon="1.40035">
        <ele>593.79577636719</ele>
        <time>2014-06-08T08:40:13Z</time>
      </trkpt>
      <trkpt lat="45.99815" lon="1.40031">
        <ele>594.30517578125</ele>
        <time>2014-06-08T08:40:18Z</time>
      </trkpt>
      <trkpt lat="45.99804" lon="1.40033">
        <ele>594.64660644531</ele>
        <time>2014-06-08T08:40:22Z</time>
      </trkpt>
      <trkpt lat="45.99795" lon="1.40042">
        <ele>594.86517333984</ele>
        <time>2014-06-08T08:40:27Z</time>
      </trkpt>
      <trkpt lat="45.99794" lon="1.40044">
        <ele>594.88793945312</ele>
        <time>2014-06-08T08:40:28Z</time>
      </trkpt>
      <trkpt lat="45.99789" lon="1.40051">
        <ele>594.99822998047</ele>
        <time>2014-06-08T08:40:35Z</time>
      </trkpt>
      <trkpt lat="45.99783" lon="1.40056">
        <ele>595.13671875</ele>
        <time>2014-06-08T08:40:42Z</time>
      </trkpt>
      <trkpt lat="45.99774" lon="1.40064">
        <ele>595.35913085938</ele>
        <time>2014-06-08T08:40:48Z</time>
      </trkpt>
      <trkpt lat="45.99773" lon="1.40066">
        <ele>595.39361572266</ele>
        <time>2014-06-08T08:40:49Z</time>
      </trkpt>
      <trkpt lat="45.99768" lon="1.40068">
        <ele>595.51623535156</ele>
        <time>2014-06-08T08:40:52Z</time>
      </trkpt>
      <trkpt lat="45.99763" lon="1.40071">
        <ele>595.69262695312</ele>
        <time>2014-06-08T08:40:56Z</time>
      </trkpt>
      <trkpt lat="45.99754" lon="1.40075">
        <ele>595.96984863281</ele>
        <time>2014-06-08T08:41:03Z</time>
      </trkpt>
      <trkpt lat="45.99749" lon="1.40077">
        <ele>596.11883544922</ele>
        <time>2014-06-08T08:41:06Z</time>
      </trkpt>
      <trkpt lat="45.99737" lon="1.40079">
        <ele>596.5947265625</ele>
        <time>2014-06-08T08:41:15Z</time>
      </trkpt>
      <trkpt lat="45.99731" lon="1.40081">
        <ele>596.76477050781</ele>
        <time>2014-06-08T08:41:20Z</time>
      </trkpt>
      <trkpt lat="45.99721" lon="1.40086">
        <ele>597.01495361328</ele>
        <time>2014-06-08T08:41:27Z</time>
      </trkpt>
      <trkpt lat="45.99709" lon="1.40092">
        <ele>597.29486083984</ele>
        <time>2014-06-08T08:41:34Z</time>
      </trkpt>
      <trkpt lat="45.99705" lon="1.40093">
        <ele>597.34912109375</ele>
        <time>2014-06-08T08:41:36Z</time>
      </trkpt>
      <trkpt lat="45.99702" lon="1.40106">
        <ele>597.01153564453</ele>
        <time>2014-06-08T08:41:40Z</time>
      </trkpt>
      <trkpt lat="45.99702" lon="1.40123">
        <ele>596.47955322266</ele>
        <time>2014-06-08T08:41:45Z</time>
      </trkpt>
      <trkpt lat="45.99702" lon="1.40129">
        <ele>596.28668212891</ele>
        <time>2014-06-08T08:41:47Z</time>
      </trkpt>
      <trkpt lat="45.99706" lon="1.40145">
        <ele>595.93383789062</ele>
        <time>2014-06-08T08:41:53Z</time>
      </trkpt>
      <trkpt lat="45.99705" lon="1.40161">
        <ele>595.44830322266</ele>
        <time>2014-06-08T08:41:58Z</time>
      </trkpt>
      <trkpt lat="45.99705" lon="1.40166">
        <ele>595.29370117188</ele>
        <time>2014-06-08T08:42:00Z</time>
      </trkpt>
      <trkpt lat="45.99717" lon="1.40187">
        <ele>597.07849121094</ele>
        <time>2014-06-08T08:42:07Z</time>
      </trkpt>
      <trkpt lat="45.99721" lon="1.40202">
        <ele>598.10955810547</ele>
        <time>2014-06-08T08:42:13Z</time>
      </trkpt>
      <trkpt lat="45.99728" lon="1.40218">
        <ele>599.30700683594</ele>
        <time>2014-06-08T08:42:19Z</time>
      </trkpt>
      <trkpt lat="45.9973" lon="1.4023">
        <ele>600.02313232422</ele>
        <time>2014-06-08T08:42:24Z</time>
      </trkpt>
      <trkpt lat="45.9973" lon="1.40238">
        <ele>600.45343017578</ele>
        <time>2014-06-08T08:42:27Z</time>
      </trkpt>
      <trkpt lat="45.99731" lon="1.40245">
        <ele>600.83984375</ele>
        <time>2014-06-08T08:42:30Z</time>
      </trkpt>
      <trkpt lat="45.99734" lon="1.4026">
        <ele>602.31066894531</ele>
        <time>2014-06-08T08:42:37Z</time>
      </trkpt>
      <trkpt lat="45.99738" lon="1.40268">
        <ele>603.41558837891</ele>
        <time>2014-06-08T08:42:42Z</time>
      </trkpt>
      <trkpt lat="45.99739" lon="1.40273">
        <ele>603.97747802734</ele>
        <time>2014-06-08T08:42:44Z</time>
      </trkpt>
      <trkpt lat="45.99739" lon="1.40282">
        <ele>604.90161132812</ele>
        <time>2014-06-08T08:42:49Z</time>
      </trkpt>
      <trkpt lat="45.9974" lon="1.40288">
        <ele>605.65979003906</ele>
        <time>2014-06-08T08:42:53Z</time>
      </trkpt>
      <trkpt lat="45.99743" lon="1.40294">
        <ele>606.41876220703</ele>
        <time>2014-06-08T08:42:57Z</time>
      </trkpt>
      <trkpt lat="45.99744" lon="1.40296">
        <ele>606.70959472656</ele>
        <time>2014-06-08T08:42:59Z</time>
      </trkpt>
      <trkpt lat="45.99747" lon="1.40303">
        <ele>607.65563964844</ele>
        <time>2014-06-08T08:43:03Z</time>
      </trkpt>
      <trkpt lat="45.99755" lon="1.40315">
        <ele>609.06799316406</ele>
        <time>2014-06-08T08:43:10Z</time>
      </trkpt>
      <trkpt lat="45.99761" lon="1.40321">
        <ele>609.89630126953</ele>
        <time>2014-06-08T08:43:15Z</time>
      </trkpt>
      <trkpt lat="45.99772" lon="1.4033">
        <ele>611.09893798828</ele>
        <time>2014-06-08T08:43:20Z</time>
      </trkpt>
      <trkpt lat="45.99776" lon="1.40334">
        <ele>611.65539550781</ele>
        <time>2014-06-08T08:43:24Z</time>
      </trkpt>
      <trkpt lat="45.99779" lon="1.40344">
        <ele>612.89605712891</ele>
        <time>2014-06-08T08:43:30Z</time>
      </trkpt>
      <trkpt lat="45.9978" lon="1.40351">
        <ele>613.56439208984</ele>
        <time>2014-06-08T08:43:34Z</time>
      </trkpt>
      <trkpt lat="45.99784" lon="1.40358">
        <ele>614.404296875</ele>
        <time>2014-06-08T08:43:41Z</time>
      </trkpt>
      <trkpt lat="45.99791" lon="1.40364">
        <ele>615.11334228516</ele>
        <time>2014-06-08T08:43:48Z</time>
      </trkpt>
      <trkpt lat="45.99794" lon="1.40368">
        <ele>615.52911376953</ele>
        <time>2014-06-08T08:43:52Z</time>
      </trkpt>
      <trkpt lat="45.99795" lon="1.40373">
        <ele>616.05804443359</ele>
        <time>2014-06-08T08:43:56Z</time>
      </trkpt>
      <trkpt lat="45.99801" lon="1.40378">
        <ele>616.62890625</ele>
        <time>2014-06-08T08:44:03Z</time>
      </trkpt>
      <trkpt lat="45.99807" lon="1.40388">
        <ele>617.54913330078</ele>
        <time>2014-06-08T08:44:09Z</time>
      </trkpt>
      <trkpt lat="45.99815" lon="1.40395">
        <ele>618.22814941406</ele>
        <time>2014-06-08T08:44:16Z</time>
      </trkpt>
      <trkpt lat="45.99822" lon="1.40402">
        <ele>618.87713623047</ele>
        <time>2014-06-08T08:44:20Z</time>
      </trkpt>
      <trkpt lat="45.99823" lon="1.40409">
        <ele>619.39971923828</ele>
        <time>2014-06-08T08:44:24Z</time>
      </trkpt>
      <trkpt lat="45.99827" lon="1.40423">
        <ele>620.08447265625</ele>
        <time>2014-06-08T08:44:32Z</time>
      </trkpt>
      <trkpt lat="45.99834" lon="1.40435">
        <ele>619.98358154297</ele>
        <time>2014-06-08T08:44:37Z</time>
      </trkpt>
      <trkpt lat="45.99839" lon="1.40449">
        <ele>619.92700195312</ele>
        <time>2014-06-08T08:44:43Z</time>
      </trkpt>
      <trkpt lat="45.99847" lon="1.40464">
        <ele>619.97705078125</ele>
        <time>2014-06-08T08:44:49Z</time>
      </trkpt>
      <trkpt lat="45.9986" lon="1.40478">
        <ele>620.22015380859</ele>
        <time>2014-06-08T08:44:54Z</time>
      </trkpt>
      <trkpt lat="45.99872" lon="1.40488">
        <ele>620.59454345703</ele>
        <time>2014-06-08T08:44:58Z</time>
      </trkpt>
      <trkpt lat="45.99877" lon="1.40495">
        <ele>620.88311767578</ele>
        <time>2014-06-08T08:45:02Z</time>
      </trkpt>
      <trkpt lat="45.99879" lon="1.40508">
        <ele>620.69885253906</ele>
        <time>2014-06-08T08:45:07Z</time>
      </trkpt>
      <trkpt lat="45.99879" lon="1.40517">
        <ele>620.26898193359</ele>
        <time>2014-06-08T08:45:10Z</time>
      </trkpt>
      <trkpt lat="45.99886" lon="1.40536">
        <ele>619.73614501953</ele>
        <time>2014-06-08T08:45:16Z</time>
      </trkpt>
      <trkpt lat="45.99889" lon="1.40548">
        <ele>619.38879394531</ele>
        <time>2014-06-08T08:45:20Z</time>
      </trkpt>
      <trkpt lat="45.99893" lon="1.40563">
        <ele>619.14849853516</ele>
        <time>2014-06-08T08:45:25Z</time>
      </trkpt>
      <trkpt lat="45.99895" lon="1.40569">
        <ele>619.14129638672</ele>
        <time>2014-06-08T08:45:27Z</time>
      </trkpt>
      <trkpt lat="45.999" lon="1.40583">
        <ele>619.20172119141</ele>
        <time>2014-06-08T08:45:32Z</time>
      </trkpt>
      <trkpt lat="45.99906" lon="1.40594">
        <ele>619.56188964844</ele>
        <time>2014-06-08T08:45:36Z</time>
      </trkpt>
      <trkpt lat="45.99914" lon="1.40613">
        <ele>619.94812011719</ele>
        <time>2014-06-08T08:45:43Z</time>
      </trkpt>
      <trkpt lat="45.9992" lon="1.40628">
        <ele>619.71929931641</ele>
        <time>2014-06-08T08:45:48Z</time>
      </trkpt>
      <trkpt lat="45.99925" lon="1.40643">
        <ele>619.03894042969</ele>
        <time>2014-06-08T08:45:53Z</time>
      </trkpt>
      <trkpt lat="45.99928" lon="1.40661">
        <ele>618.56164550781</ele>
        <time>2014-06-08T08:45:59Z</time>
      </trkpt>
      <trkpt lat="45.99927" lon="1.40676">
        <ele>618.46923828125</ele>
        <time>2014-06-08T08:46:05Z</time>
      </trkpt>
      <trkpt lat="45.99929" lon="1.40687">
        <ele>618.32891845703</ele>
        <time>2014-06-08T08:46:09Z</time>
      </trkpt>
      <trkpt lat="45.99939" lon="1.40704">
        <ele>618.07086181641</ele>
        <time>2014-06-08T08:46:15Z</time>
      </trkpt>
      <trkpt lat="45.99932" lon="1.40712">
        <ele>618.22436523438</ele>
        <time>2014-06-08T08:46:20Z</time>
      </trkpt>
      <trkpt lat="45.99928" lon="1.40713">
        <ele>618.28686523438</ele>
        <time>2014-06-08T08:46:22Z</time>
      </trkpt>
      <trkpt lat="45.99925" lon="1.40713">
        <ele>618.32629394531</ele>
        <time>2014-06-08T08:46:24Z</time>
      </trkpt>
      <trkpt lat="45.99914" lon="1.40716">
        <ele>618.06524658203</ele>
        <time>2014-06-08T08:46:30Z</time>
      </trkpt>
      <trkpt lat="45.99913" lon="1.40717">
        <ele>617.84259033203</ele>
        <time>2014-06-08T08:46:31Z</time>
      </trkpt>
      <trkpt lat="45.99909" lon="1.4072">
        <ele>617.34704589844</ele>
        <time>2014-06-08T08:46:33Z</time>
      </trkpt>
      <trkpt lat="45.99897" lon="1.40725">
        <ele>615.63159179688</ele>
        <time>2014-06-08T08:46:40Z</time>
      </trkpt>
      <trkpt lat="45.99889" lon="1.4073">
        <ele>614.51007080078</ele>
        <time>2014-06-08T08:46:44Z</time>
      </trkpt>
      <trkpt lat="45.99876" lon="1.40736">
        <ele>612.67181396484</ele>
        <time>2014-06-08T08:46:51Z</time>
      </trkpt>
      <trkpt lat="45.99866" lon="1.4074">
        <ele>611.32293701172</ele>
        <time>2014-06-08T08:46:56Z</time>
      </trkpt>
      <trkpt lat="45.99862" lon="1.40743">
        <ele>610.85137939453</ele>
        <time>2014-06-08T08:46:58Z</time>
      </trkpt>
      <trkpt lat="45.9985" lon="1.40752">
        <ele>609.12292480469</ele>
        <time>2014-06-08T08:47:04Z</time>
      </trkpt>
      <trkpt lat="45.99843" lon="1.40754">
        <ele>608.18218994141</ele>
        <time>2014-06-08T08:47:07Z</time>
      </trkpt>
      <trkpt lat="45.99836" lon="1.40756">
        <ele>607.14440917969</ele>
        <time>2014-06-08T08:47:12Z</time>
      </trkpt>
      <trkpt lat="45.99832" lon="1.40757">
        <ele>606.32568359375</ele>
        <time>2014-06-08T08:47:15Z</time>
      </trkpt>
      <trkpt lat="45.99832" lon="1.40763">
        <ele>606.09686279297</ele>
        <time>2014-06-08T08:47:18Z</time>
      </trkpt>
      <trkpt lat="45.99826" lon="1.40777">
        <ele>604.08325195312</ele>
        <time>2014-06-08T08:47:23Z</time>
      </trkpt>
      <trkpt lat="45.99825" lon="1.40794">
        <ele>602.91235351562</ele>
        <time>2014-06-08T08:47:28Z</time>
      </trkpt>
      <trkpt lat="45.99826" lon="1.40802">
        <ele>602.92352294922</ele>
        <time>2014-06-08T08:47:31Z</time>
      </trkpt>
      <trkpt lat="45.99834" lon="1.40815">
        <ele>604.72412109375</ele>
        <time>2014-06-08T08:47:36Z</time>
      </trkpt>
      <trkpt lat="45.9985" lon="1.40837">
        <ele>606.76239013672</ele>
        <time>2014-06-08T08:47:43Z</time>
      </trkpt>
      <trkpt lat="45.99851" lon="1.40842">
        <ele>606.49987792969</ele>
        <time>2014-06-08T08:47:45Z</time>
      </trkpt>
      <trkpt lat="45.99851" lon="1.40862">
        <ele>604.30554199219</ele>
        <time>2014-06-08T08:47:51Z</time>
      </trkpt>
      <trkpt lat="45.99852" lon="1.40871">
        <ele>603.48309326172</ele>
        <time>2014-06-08T08:47:54Z</time>
      </trkpt>
      <trkpt lat="45.99854" lon="1.40881">
        <ele>602.88739013672</ele>
        <time>2014-06-08T08:47:57Z</time>
      </trkpt>
      <trkpt lat="45.99855" lon="1.40897">
        <ele>601.41241455078</ele>
        <time>2014-06-08T08:48:02Z</time>
      </trkpt>
      <trkpt lat="45.99853" lon="1.4091">
        <ele>599.62261962891</ele>
        <time>2014-06-08T08:48:06Z</time>
      </trkpt>
      <trkpt lat="45.99849" lon="1.40924">
        <ele>597.87384033203</ele>
        <time>2014-06-08T08:48:11Z</time>
      </trkpt>
      <trkpt lat="45.99837" lon="1.40932">
        <ele>594.78863525391</ele>
        <time>2014-06-08T08:48:15Z</time>
      </trkpt>
      <trkpt lat="45.99828" lon="1.40927">
        <ele>592.04742431641</ele>
        <time>2014-06-08T08:48:19Z</time>
      </trkpt>
      <trkpt lat="45.99818" lon="1.40921">
        <ele>589.03094482422</ele>
        <time>2014-06-08T08:48:23Z</time>
      </trkpt>
      <trkpt lat="45.99807" lon="1.40909">
        <ele>586.3134765625</ele>
        <time>2014-06-08T08:48:29Z</time>
      </trkpt>
      <trkpt lat="45.99795" lon="1.40896">
        <ele>584.01550292969</ele>
        <time>2014-06-08T08:48:35Z</time>
      </trkpt>
      <trkpt lat="45.99786" lon="1.40884">
        <ele>582.45965576172</ele>
        <time>2014-06-08T08:48:40Z</time>
      </trkpt>
      <trkpt lat="45.99782" lon="1.4088">
        <ele>581.72436523438</ele>
        <time>2014-06-08T08:48:42Z</time>
      </trkpt>
      <trkpt lat="45.99771" lon="1.40862">
        <ele>580.25006103516</ele>
        <time>2014-06-08T08:48:48Z</time>
      </trkpt>
      <trkpt lat="45.99763" lon="1.40854">
        <ele>578.69171142578</ele>
        <time>2014-06-08T08:48:52Z</time>
      </trkpt>
      <trkpt lat="45.99751" lon="1.40847">
        <ele>575.70135498047</ele>
        <time>2014-06-08T08:48:57Z</time>
      </trkpt>
      <trkpt lat="45.99741" lon="1.40848">
        <ele>572.01232910156</ele>
        <time>2014-06-08T08:49:02Z</time>
      </trkpt>
      <trkpt lat="45.99736" lon="1.40859">
        <ele>569.16394042969</ele>
        <time>2014-06-08T08:49:06Z</time>
      </trkpt>
      <trkpt lat="45.99734" lon="1.40877">
        <ele>566.51684570312</ele>
        <time>2014-06-08T08:49:12Z</time>
      </trkpt>
      <trkpt lat="45.99739" lon="1.40889">
        <ele>567.0634765625</ele>
        <time>2014-06-08T08:49:17Z</time>
      </trkpt>
      <trkpt lat="45.99748" lon="1.40901">
        <ele>568.39825439453</ele>
        <time>2014-06-08T08:49:21Z</time>
      </trkpt>
      <trkpt lat="45.99759" lon="1.40916">
        <ele>569.95843505859</ele>
        <time>2014-06-08T08:49:26Z</time>
      </trkpt>
      <trkpt lat="45.99759" lon="1.40922">
        <ele>570.17602539062</ele>
        <time>2014-06-08T08:49:28Z</time>
      </trkpt>
      <trkpt lat="45.99761" lon="1.40942">
        <ele>571.37390136719</ele>
        <time>2014-06-08T08:49:34Z</time>
      </trkpt>
      <trkpt lat="45.99758" lon="1.40952">
        <ele>570.74145507812</ele>
        <time>2014-06-08T08:49:38Z</time>
      </trkpt>
      <trkpt lat="45.99744" lon="1.40971">
        <ele>567.50665283203</ele>
        <time>2014-06-08T08:49:43Z</time>
      </trkpt>
      <trkpt lat="45.99737" lon="1.4098">
        <ele>565.85516357422</ele>
        <time>2014-06-08T08:49:46Z</time>
      </trkpt>
      <trkpt lat="45.99722" lon="1.40997">
        <ele>562.89007568359</ele>
        <time>2014-06-08T08:49:51Z</time>
      </trkpt>
      <trkpt lat="45.99709" lon="1.41008">
        <ele>560.67785644531</ele>
        <time>2014-06-08T08:49:57Z</time>
      </trkpt>
      <trkpt lat="45.99697" lon="1.41011">
        <ele>558.28063964844</ele>
        <time>2014-06-08T08:50:02Z</time>
      </trkpt>
      <trkpt lat="45.99686" lon="1.41009">
        <ele>555.12890625</ele>
        <time>2014-06-08T08:50:07Z</time>
      </trkpt>
      <trkpt lat="45.99684" lon="1.41008">
        <ele>554.38946533203</ele>
        <time>2014-06-08T08:50:08Z</time>
      </trkpt>
      <trkpt lat="45.99674" lon="1.41012">
        <ele>552.42077636719</ele>
        <time>2014-06-08T08:50:12Z</time>
      </trkpt>
      <trkpt lat="45.99659" lon="1.41012">
        <ele>548.67639160156</ele>
        <time>2014-06-08T08:50:19Z</time>
      </trkpt>
      <trkpt lat="45.99652" lon="1.41016">
        <ele>547.19989013672</ele>
        <time>2014-06-08T08:50:23Z</time>
      </trkpt>
      <trkpt lat="45.99638" lon="1.41028">
        <ele>544.82135009766</ele>
        <time>2014-06-08T08:50:30Z</time>
      </trkpt>
      <trkpt lat="45.9963" lon="1.41043">
        <ele>544.17840576172</ele>
        <time>2014-06-08T08:50:35Z</time>
      </trkpt>
      <trkpt lat="45.99627" lon="1.41053">
        <ele>544.26751708984</ele>
        <time>2014-06-08T08:50:38Z</time>
      </trkpt>
      <trkpt lat="45.9963" lon="1.41084">
        <ele>547.98376464844</ele>
        <time>2014-06-08T08:50:46Z</time>
      </trkpt>
      <trkpt lat="45.99625" lon="1.411">
        <ele>546.42095947266</ele>
        <time>2014-06-08T08:50:50Z</time>
      </trkpt>
      <trkpt lat="45.9962" lon="1.4112">
        <ele>544.47326660156</ele>
        <time>2014-06-08T08:50:55Z</time>
      </trkpt>
      <trkpt lat="45.99619" lon="1.41145">
        <ele>543.71258544922</ele>
        <time>2014-06-08T08:51:01Z</time>
      </trkpt>
      <trkpt lat="45.99625" lon="1.41164">
        <ele>545.66882324219</ele>
        <time>2014-06-08T08:51:05Z</time>
      </trkpt>
      <trkpt lat="45.99626" lon="1.41172">
        <ele>546.36865234375</ele>
        <time>2014-06-08T08:51:07Z</time>
      </trkpt>
      <trkpt lat="45.99617" lon="1.41187">
        <ele>544.83703613281</ele>
        <time>2014-06-08T08:51:11Z</time>
      </trkpt>
      <trkpt lat="45.99605" lon="1.41205">
        <ele>542.93072509766</ele>
        <time>2014-06-08T08:51:16Z</time>
      </trkpt>
      <trkpt lat="45.99593" lon="1.41211">
        <ele>539.87347412109</ele>
        <time>2014-06-08T08:51:20Z</time>
      </trkpt>
      <trkpt lat="45.99581" lon="1.41214">
        <ele>537.05401611328</ele>
        <time>2014-06-08T08:51:25Z</time>
      </trkpt>
      <trkpt lat="45.99577" lon="1.41218">
        <ele>537.12158203125</ele>
        <time>2014-06-08T08:51:27Z</time>
      </trkpt>
      <trkpt lat="45.99565" lon="1.41226">
        <ele>537.19952392578</ele>
        <time>2014-06-08T08:51:32Z</time>
      </trkpt>
      <trkpt lat="45.99555" lon="1.41231">
        <ele>537.18963623047</ele>
        <time>2014-06-08T08:51:37Z</time>
      </trkpt>
      <trkpt lat="45.99547" lon="1.41229">
        <ele>536.3720703125</ele>
        <time>2014-06-08T08:51:41Z</time>
      </trkpt>
      <trkpt lat="45.99533" lon="1.41224">
        <ele>534.09838867188</ele>
        <time>2014-06-08T08:51:46Z</time>
      </trkpt>
      <trkpt lat="45.99516" lon="1.41219">
        <ele>531.28393554688</ele>
        <time>2014-06-08T08:51:51Z</time>
      </trkpt>
      <trkpt lat="45.99506" lon="1.41217">
        <ele>529.91491699219</ele>
        <time>2014-06-08T08:51:54Z</time>
      </trkpt>
      <trkpt lat="45.99485" lon="1.41207">
        <ele>526.10809326172</ele>
        <time>2014-06-08T08:52:01Z</time>
      </trkpt>
      <trkpt lat="45.99471" lon="1.41199">
        <ele>523.95825195312</ele>
        <time>2014-06-08T08:52:06Z</time>
      </trkpt>
      <trkpt lat="45.99459" lon="1.41197">
        <ele>523.00860595703</ele>
        <time>2014-06-08T08:52:10Z</time>
      </trkpt>
      <trkpt lat="45.99444" lon="1.41189">
        <ele>521.02258300781</ele>
        <time>2014-06-08T08:52:15Z</time>
      </trkpt>
      <trkpt lat="45.99427" lon="1.41182">
        <ele>519.15942382812</ele>
        <time>2014-06-08T08:52:21Z</time>
      </trkpt>
      <trkpt lat="45.99411" lon="1.41179">
        <ele>517.60870361328</ele>
        <time>2014-06-08T08:52:26Z</time>
      </trkpt>
      <trkpt lat="45.99399" lon="1.41177">
        <ele>515.09387207031</ele>
        <time>2014-06-08T08:52:30Z</time>
      </trkpt>
      <trkpt lat="45.99384" lon="1.41179">
        <ele>512.99005126953</ele>
        <time>2014-06-08T08:52:35Z</time>
      </trkpt>
      <trkpt lat="45.99371" lon="1.41186">
        <ele>512.04406738281</ele>
        <time>2014-06-08T08:52:39Z</time>
      </trkpt>
      <trkpt lat="45.99362" lon="1.4119">
        <ele>511.27728271484</ele>
        <time>2014-06-08T08:52:43Z</time>
      </trkpt>
      <trkpt lat="45.99347" lon="1.41196">
        <ele>509.60357666016</ele>
        <time>2014-06-08T08:52:48Z</time>
      </trkpt>
      <trkpt lat="45.99327" lon="1.41205">
        <ele>507.63241577148</ele>
        <time>2014-06-08T08:52:54Z</time>
      </trkpt>
      <trkpt lat="45.99312" lon="1.41212">
        <ele>505.5732421875</ele>
        <time>2014-06-08T08:52:59Z</time>
      </trkpt>
      <trkpt lat="45.99297" lon="1.41221">
        <ele>503.75827026367</ele>
        <time>2014-06-08T08:53:04Z</time>
      </trkpt>
      <trkpt lat="45.99284" lon="1.4123">
        <ele>502.41421508789</ele>
        <time>2014-06-08T08:53:09Z</time>
      </trkpt>
      <trkpt lat="45.99274" lon="1.41241">
        <ele>501.58206176758</ele>
        <time>2014-06-08T08:53:14Z</time>
      </trkpt>
      <trkpt lat="45.99261" lon="1.41255">
        <ele>499.90322875977</ele>
        <time>2014-06-08T08:53:19Z</time>
      </trkpt>
      <trkpt lat="45.99247" lon="1.41271">
        <ele>496.68838500977</ele>
        <time>2014-06-08T08:53:25Z</time>
      </trkpt>
      <trkpt lat="45.99236" lon="1.41286">
        <ele>494.56463623047</ele>
        <time>2014-06-08T08:53:30Z</time>
      </trkpt>
      <trkpt lat="45.99226" lon="1.41304">
        <ele>492.43688964844</ele>
        <time>2014-06-08T08:53:35Z</time>
      </trkpt>
      <trkpt lat="45.99219" lon="1.41325">
        <ele>491.39175415039</ele>
        <time>2014-06-08T08:53:41Z</time>
      </trkpt>
      <trkpt lat="45.99218" lon="1.41343">
        <ele>491.75329589844</ele>
        <time>2014-06-08T08:53:45Z</time>
      </trkpt>
      <trkpt lat="45.99212" lon="1.41362">
        <ele>490.96997070312</ele>
        <time>2014-06-08T08:53:50Z</time>
      </trkpt>
      <trkpt lat="45.99201" lon="1.41376">
        <ele>488.92459106445</ele>
        <time>2014-06-08T08:53:55Z</time>
      </trkpt>
      <trkpt lat="45.99193" lon="1.4139">
        <ele>487.54489135742</ele>
        <time>2014-06-08T08:54:00Z</time>
      </trkpt>
      <trkpt lat="45.99184" lon="1.41407">
        <ele>486.01278686523</ele>
        <time>2014-06-08T08:54:05Z</time>
      </trkpt>
      <trkpt lat="45.99178" lon="1.41423">
        <ele>484.92074584961</ele>
        <time>2014-06-08T08:54:09Z</time>
      </trkpt>
      <trkpt lat="45.99168" lon="1.41445">
        <ele>482.7741394043</ele>
        <time>2014-06-08T08:54:15Z</time>
      </trkpt>
      <trkpt lat="45.99154" lon="1.41462">
        <ele>480.45169067383</ele>
        <time>2014-06-08T08:54:21Z</time>
      </trkpt>
      <trkpt lat="45.99135" lon="1.41469">
        <ele>477.18188476562</ele>
        <time>2014-06-08T08:54:26Z</time>
      </trkpt>
      <trkpt lat="45.99122" lon="1.41473">
        <ele>475.02404785156</ele>
        <time>2014-06-08T08:54:29Z</time>
      </trkpt>
      <trkpt lat="45.991" lon="1.41477">
        <ele>471.2509765625</ele>
        <time>2014-06-08T08:54:35Z</time>
      </trkpt>
      <trkpt lat="45.99086" lon="1.41488">
        <ele>468.54321289062</ele>
        <time>2014-06-08T08:54:40Z</time>
      </trkpt>
      <trkpt lat="45.99084" lon="1.41503">
        <ele>468.05239868164</ele>
        <time>2014-06-08T08:54:43Z</time>
      </trkpt>
      <trkpt lat="45.99079" lon="1.4152">
        <ele>466.50399780273</ele>
        <time>2014-06-08T08:54:47Z</time>
      </trkpt>
      <trkpt lat="45.99068" lon="1.41521">
        <ele>465.18447875977</ele>
        <time>2014-06-08T08:54:50Z</time>
      </trkpt>
      <trkpt lat="45.99058" lon="1.4152">
        <ele>464.20233154297</ele>
        <time>2014-06-08T08:54:53Z</time>
      </trkpt>
      <trkpt lat="45.99038" lon="1.41515">
        <ele>462.21096801758</ele>
        <time>2014-06-08T08:55:00Z</time>
      </trkpt>
      <trkpt lat="45.99023" lon="1.41508">
        <ele>460.98156738281</ele>
        <time>2014-06-08T08:55:06Z</time>
      </trkpt>
      <trkpt lat="45.99017" lon="1.41507">
        <ele>460.33026123047</ele>
        <time>2014-06-08T08:55:11Z</time>
      </trkpt>
      <trkpt lat="45.99012" lon="1.41506">
        <ele>459.90353393555</ele>
        <time>2014-06-08T08:55:17Z</time>
      </trkpt>
      <trkpt lat="45.99011" lon="1.41506">
        <ele>459.83197021484</ele>
        <time>2014-06-08T08:55:23Z</time>
      </trkpt>
      <trkpt lat="45.9901" lon="1.41503">
        <ele>459.890625</ele>
        <time>2014-06-08T08:55:28Z</time>
      </trkpt>
      <trkpt lat="45.9901" lon="1.41505">
        <ele>459.75411987305</ele>
        <time>2014-06-08T08:55:33Z</time>
      </trkpt>
      <trkpt lat="45.9901" lon="1.41504">
        <ele>459.77282714844</ele>
        <time>2014-06-08T08:55:39Z</time>
      </trkpt>
      <trkpt lat="45.99008" lon="1.41503">
        <ele>459.64114379883</ele>
        <time>2014-06-08T08:55:46Z</time>
      </trkpt>
      <trkpt lat="45.99006" lon="1.41501">
        <ele>459.64074707031</ele>
        <time>2014-06-08T08:55:50Z</time>
      </trkpt>
      <trkpt lat="45.99003" lon="1.41497">
        <ele>459.28079223633</ele>
        <time>2014-06-08T08:55:56Z</time>
      </trkpt>
      <trkpt lat="45.99003" lon="1.41496">
        <ele>459.22119140625</ele>
        <time>2014-06-08T08:56:06Z</time>
      </trkpt>
      <trkpt lat="45.99006" lon="1.415">
        <ele>459.63372802734</ele>
        <time>2014-06-08T08:56:12Z</time>
      </trkpt>
      <trkpt lat="45.99006" lon="1.41502">
        <ele>459.51232910156</ele>
        <time>2014-06-08T08:56:16Z</time>
      </trkpt>
      <trkpt lat="45.99006" lon="1.41502">
        <ele>459.44323730469</ele>
        <time>2014-06-08T08:56:23Z</time>
      </trkpt>
      <trkpt lat="45.99003" lon="1.41498">
        <ele>459.30072021484</ele>
        <time>2014-06-08T08:56:28Z</time>
      </trkpt>
      <trkpt lat="45.99002" lon="1.41495">
        <ele>459.1047668457</ele>
        <time>2014-06-08T08:56:30Z</time>
      </trkpt>
      <trkpt lat="45.98998" lon="1.41493">
        <ele>458.52310180664</ele>
        <time>2014-06-08T08:56:37Z</time>
      </trkpt>
      <trkpt lat="45.98996" lon="1.41487">
        <ele>458.11627197266</ele>
        <time>2014-06-08T08:56:42Z</time>
      </trkpt>
      <trkpt lat="45.98994" lon="1.4148">
        <ele>457.71142578125</ele>
        <time>2014-06-08T08:56:47Z</time>
      </trkpt>
      <trkpt lat="45.98994" lon="1.41473">
        <ele>457.55722045898</ele>
        <time>2014-06-08T08:56:51Z</time>
      </trkpt>
      <trkpt lat="45.98993" lon="1.41456">
        <ele>456.86343383789</ele>
        <time>2014-06-08T08:56:59Z</time>
      </trkpt>
      <trkpt lat="45.98995" lon="1.41436">
        <ele>456.77215576172</ele>
        <time>2014-06-08T08:57:04Z</time>
      </trkpt>
      <trkpt lat="45.99001" lon="1.41414">
        <ele>457.02941894531</ele>
        <time>2014-06-08T08:57:10Z</time>
      </trkpt>
      <trkpt lat="45.9901" lon="1.41393">
        <ele>457.25704956055</ele>
        <time>2014-06-08T08:57:16Z</time>
      </trkpt>
      <trkpt lat="45.99018" lon="1.41369">
        <ele>457.14321899414</ele>
        <time>2014-06-08T08:57:23Z</time>
      </trkpt>
      <trkpt lat="45.99024" lon="1.41353">
        <ele>456.96606445312</ele>
        <time>2014-06-08T08:57:28Z</time>
      </trkpt>
      <trkpt lat="45.9903" lon="1.41332">
        <ele>456.54638671875</ele>
        <time>2014-06-08T08:57:34Z</time>
      </trkpt>
      <trkpt lat="45.99029" lon="1.41324">
        <ele>456.18017578125</ele>
        <time>2014-06-08T08:57:36Z</time>
      </trkpt>
      <trkpt lat="45.99015" lon="1.41306">
        <ele>454.0520324707</ele>
        <time>2014-06-08T08:57:42Z</time>
      </trkpt>
      <trkpt lat="45.99007" lon="1.41299">
        <ele>452.98110961914</ele>
        <time>2014-06-08T08:57:45Z</time>
      </trkpt>
      <trkpt lat="45.9899" lon="1.41284">
        <ele>450.61880493164</ele>
        <time>2014-06-08T08:57:52Z</time>
      </trkpt>
      <trkpt lat="45.98978" lon="1.41277">
        <ele>449.10971069336</ele>
        <time>2014-06-08T08:57:57Z</time>
      </trkpt>
      <trkpt lat="45.98973" lon="1.4128">
        <ele>448.6223449707</ele>
        <time>2014-06-08T08:57:59Z</time>
      </trkpt>
      <trkpt lat="45.98962" lon="1.41284">
        <ele>447.30053710938</ele>
        <time>2014-06-08T08:58:03Z</time>
      </trkpt>
      <trkpt lat="45.98949" lon="1.41274">
        <ele>445.6760559082</ele>
        <time>2014-06-08T08:58:08Z</time>
      </trkpt>
      <trkpt lat="45.98952" lon="1.41257">
        <ele>445.89779663086</ele>
        <time>2014-06-08T08:58:13Z</time>
      </trkpt>
      <trkpt lat="45.98959" lon="1.41242">
        <ele>446.22760009766</ele>
        <time>2014-06-08T08:58:18Z</time>
      </trkpt>
      <trkpt lat="45.98969" lon="1.41226">
        <ele>446.56936645508</ele>
        <time>2014-06-08T08:58:24Z</time>
      </trkpt>
      <trkpt lat="45.98974" lon="1.41205">
        <ele>445.98852539062</ele>
        <time>2014-06-08T08:58:30Z</time>
      </trkpt>
      <trkpt lat="45.98975" lon="1.41182">
        <ele>444.92572021484</ele>
        <time>2014-06-08T08:58:36Z</time>
      </trkpt>
      <trkpt lat="45.98969" lon="1.4117">
        <ele>443.95205688477</ele>
        <time>2014-06-08T08:58:40Z</time>
      </trkpt>
      <trkpt lat="45.98963" lon="1.41163">
        <ele>443.24032592773</ele>
        <time>2014-06-08T08:58:43Z</time>
      </trkpt>
      <trkpt lat="45.98966" lon="1.41148">
        <ele>443.07550048828</ele>
        <time>2014-06-08T08:58:48Z</time>
      </trkpt>
      <trkpt lat="45.98976" lon="1.41132">
        <ele>443.50933837891</ele>
        <time>2014-06-08T08:58:54Z</time>
      </trkpt>
      <trkpt lat="45.98973" lon="1.41121">
        <ele>442.94873046875</ele>
        <time>2014-06-08T08:58:58Z</time>
      </trkpt>
      <trkpt lat="45.98967" lon="1.411">
        <ele>441.9069519043</ele>
        <time>2014-06-08T08:59:04Z</time>
      </trkpt>
      <trkpt lat="45.98967" lon="1.41097">
        <ele>441.78302001953</ele>
        <time>2014-06-08T08:59:05Z</time>
      </trkpt>
      <trkpt lat="45.98967" lon="1.41085">
        <ele>441.43524169922</ele>
        <time>2014-06-08T08:59:08Z</time>
      </trkpt>
      <trkpt lat="45.98965" lon="1.41062">
        <ele>438.79333496094</ele>
        <time>2014-06-08T08:59:13Z</time>
      </trkpt>
      <trkpt lat="45.98959" lon="1.41039">
        <ele>435.56918334961</ele>
        <time>2014-06-08T08:59:18Z</time>
      </trkpt>
      <trkpt lat="45.98958" lon="1.41038">
        <ele>435.24661254883</ele>
        <time>2014-06-08T08:59:19Z</time>
      </trkpt>
      <trkpt lat="45.98944" lon="1.41031">
        <ele>432.92630004883</ele>
        <time>2014-06-08T08:59:25Z</time>
      </trkpt>
      <trkpt lat="45.98938" lon="1.41017">
        <ele>430.57266235352</ele>
        <time>2014-06-08T08:59:30Z</time>
      </trkpt>
      <trkpt lat="45.98936" lon="1.4101">
        <ele>429.58587646484</ele>
        <time>2014-06-08T08:59:32Z</time>
      </trkpt>
      <trkpt lat="45.98935" lon="1.40984">
        <ele>428.84771728516</ele>
        <time>2014-06-08T08:59:39Z</time>
      </trkpt>
      <trkpt lat="45.9893" lon="1.40964">
        <ele>429.03146362305</ele>
        <time>2014-06-08T08:59:44Z</time>
      </trkpt>
      <trkpt lat="45.98922" lon="1.40945">
        <ele>428.64254760742</ele>
        <time>2014-06-08T08:59:49Z</time>
      </trkpt>
      <trkpt lat="45.98917" lon="1.4094">
        <ele>428.1572265625</ele>
        <time>2014-06-08T08:59:51Z</time>
      </trkpt>
      <trkpt lat="45.98906" lon="1.40933">
        <ele>426.90628051758</ele>
        <time>2014-06-08T08:59:56Z</time>
      </trkpt>
      <trkpt lat="45.98891" lon="1.40923">
        <ele>424.88208007812</ele>
        <time>2014-06-08T09:00:03Z</time>
      </trkpt>
      <trkpt lat="45.98889" lon="1.4092">
        <ele>424.67770385742</ele>
        <time>2014-06-08T09:00:04Z</time>
      </trkpt>
      <trkpt lat="45.98883" lon="1.4091">
        <ele>424.49856567383</ele>
        <time>2014-06-08T09:00:08Z</time>
      </trkpt>
      <trkpt lat="45.98884" lon="1.40892">
        <ele>426.51715087891</ele>
        <time>2014-06-08T09:00:13Z</time>
      </trkpt>
      <trkpt lat="45.98883" lon="1.40877">
        <ele>427.95901489258</ele>
        <time>2014-06-08T09:00:18Z</time>
      </trkpt>
      <trkpt lat="45.98883" lon="1.40875">
        <ele>428.13562011719</ele>
        <time>2014-06-08T09:00:19Z</time>
      </trkpt>
      <trkpt lat="45.98877" lon="1.40855">
        <ele>429.35522460938</ele>
        <time>2014-06-08T09:00:25Z</time>
      </trkpt>
      <trkpt lat="45.98871" lon="1.40839">
        <ele>430.41897583008</ele>
        <time>2014-06-08T09:00:30Z</time>
      </trkpt>
      <trkpt lat="45.98865" lon="1.40826">
        <ele>430.7141418457</ele>
        <time>2014-06-08T09:00:34Z</time>
      </trkpt>
      <trkpt lat="45.98855" lon="1.40815">
        <ele>430.28271484375</ele>
        <time>2014-06-08T09:00:39Z</time>
      </trkpt>
      <trkpt lat="45.98849" lon="1.40808">
        <ele>429.89331054688</ele>
        <time>2014-06-08T09:00:42Z</time>
      </trkpt>
      <trkpt lat="45.98845" lon="1.40799">
        <ele>430.02935791016</ele>
        <time>2014-06-08T09:00:45Z</time>
      </trkpt>
      <trkpt lat="45.98837" lon="1.40791">
        <ele>429.56112670898</ele>
        <time>2014-06-08T09:00:50Z</time>
      </trkpt>
      <trkpt lat="45.98835" lon="1.40791">
        <ele>429.22610473633</ele>
        <time>2014-06-08T09:00:51Z</time>
      </trkpt>
      <trkpt lat="45.98813" lon="1.40788">
        <ele>428.95407104492</ele>
        <time>2014-06-08T09:00:58Z</time>
      </trkpt>
      <trkpt lat="45.98804" lon="1.40786">
        <ele>429.03024291992</ele>
        <time>2014-06-08T09:01:03Z</time>
      </trkpt>
      <trkpt lat="45.9879" lon="1.40787">
        <ele>428.75936889648</ele>
        <time>2014-06-08T09:01:09Z</time>
      </trkpt>
      <trkpt lat="45.98785" lon="1.40786">
        <ele>428.78839111328</ele>
        <time>2014-06-08T09:01:11Z</time>
      </trkpt>
      <trkpt lat="45.9878" lon="1.40783">
        <ele>429.17883300781</ele>
        <time>2014-06-08T09:01:16Z</time>
      </trkpt>
      <trkpt lat="45.98779" lon="1.4078">
        <ele>429.46368408203</ele>
        <time>2014-06-08T09:01:18Z</time>
      </trkpt>
      <trkpt lat="45.98772" lon="1.40775">
        <ele>430.14184570312</ele>
        <time>2014-06-08T09:01:23Z</time>
      </trkpt>
      <trkpt lat="45.9877" lon="1.40774">
        <ele>430.19680786133</ele>
        <time>2014-06-08T09:01:24Z</time>
      </trkpt>
      <trkpt lat="45.98768" lon="1.40774">
        <ele>430.29400634766</ele>
        <time>2014-06-08T09:01:26Z</time>
      </trkpt>
      <trkpt lat="45.98763" lon="1.40771">
        <ele>430.7392578125</ele>
        <time>2014-06-08T09:01:30Z</time>
      </trkpt>
      <trkpt lat="45.98761" lon="1.40769">
        <ele>430.96310424805</ele>
        <time>2014-06-08T09:01:32Z</time>
      </trkpt>
      <trkpt lat="45.98758" lon="1.40767">
        <ele>431.24029541016</ele>
        <time>2014-06-08T09:01:34Z</time>
      </trkpt>
      <trkpt lat="45.98753" lon="1.40764">
        <ele>431.75039672852</ele>
        <time>2014-06-08T09:01:39Z</time>
      </trkpt>
      <trkpt lat="45.98745" lon="1.40759">
        <ele>432.43438720703</ele>
        <time>2014-06-08T09:01:47Z</time>
      </trkpt>
      <trkpt lat="45.98744" lon="1.40758">
        <ele>432.63256835938</ele>
        <time>2014-06-08T09:01:48Z</time>
      </trkpt>
      <trkpt lat="45.98741" lon="1.40744">
        <ele>434.20401000977</ele>
        <time>2014-06-08T09:01:55Z</time>
      </trkpt>
      <trkpt lat="45.98741" lon="1.40737">
        <ele>434.73745727539</ele>
        <time>2014-06-08T09:01:59Z</time>
      </trkpt>
      <trkpt lat="45.98737" lon="1.40722">
        <ele>435.94799804688</ele>
        <time>2014-06-08T09:02:06Z</time>
      </trkpt>
      <trkpt lat="45.98733" lon="1.40713">
        <ele>436.71081542969</ele>
        <time>2014-06-08T09:02:11Z</time>
      </trkpt>
      <trkpt lat="45.98724" lon="1.407">
        <ele>438.02651977539</ele>
        <time>2014-06-08T09:02:17Z</time>
      </trkpt>
      <trkpt lat="45.98722" lon="1.40697">
        <ele>438.3424987793</ele>
        <time>2014-06-08T09:02:18Z</time>
      </trkpt>
      <trkpt lat="45.98716" lon="1.40681">
        <ele>440.15887451172</ele>
        <time>2014-06-08T09:02:23Z</time>
      </trkpt>
      <trkpt lat="45.98713" lon="1.40673">
        <ele>441.1311340332</ele>
        <time>2014-06-08T09:02:27Z</time>
      </trkpt>
      <trkpt lat="45.98699" lon="1.40663">
        <ele>443.01315307617</ele>
        <time>2014-06-08T09:02:34Z</time>
      </trkpt>
      <trkpt lat="45.98687" lon="1.40654">
        <ele>445.0387878418</ele>
        <time>2014-06-08T09:02:40Z</time>
      </trkpt>
      <trkpt lat="45.98678" lon="1.40649">
        <ele>446.27920532227</ele>
        <time>2014-06-08T09:02:44Z</time>
      </trkpt>
      <trkpt lat="45.98674" lon="1.40647">
        <ele>446.78817749023</ele>
        <time>2014-06-08T09:02:46Z</time>
      </trkpt>
      <trkpt lat="45.98669" lon="1.40646">
        <ele>447.17684936523</ele>
        <time>2014-06-08T09:02:48Z</time>
      </trkpt>
      <trkpt lat="45.98665" lon="1.40643">
        <ele>447.30123901367</ele>
        <time>2014-06-08T09:02:50Z</time>
      </trkpt>
      <trkpt lat="45.98663" lon="1.40643">
        <ele>446.93463134766</ele>
        <time>2014-06-08T09:02:51Z</time>
      </trkpt>
      <trkpt lat="45.98657" lon="1.40642">
        <ele>446.25540161133</ele>
        <time>2014-06-08T09:02:53Z</time>
      </trkpt>
      <trkpt lat="45.98642" lon="1.40636">
        <ele>444.33612060547</ele>
        <time>2014-06-08T09:02:59Z</time>
      </trkpt>
      <trkpt lat="45.98629" lon="1.40636">
        <ele>442.087890625</ele>
        <time>2014-06-08T09:03:04Z</time>
      </trkpt>
      <trkpt lat="45.98613" lon="1.40635">
        <ele>439.53286743164</ele>
        <time>2014-06-08T09:03:09Z</time>
      </trkpt>
      <trkpt lat="45.986" lon="1.40627">
        <ele>438.19613647461</ele>
        <time>2014-06-08T09:03:15Z</time>
      </trkpt>
      <trkpt lat="45.98586" lon="1.40616">
        <ele>437.0934753418</ele>
        <time>2014-06-08T09:03:21Z</time>
      </trkpt>
      <trkpt lat="45.98574" lon="1.40606">
        <ele>436.64175415039</ele>
        <time>2014-06-08T09:03:26Z</time>
      </trkpt>
      <trkpt lat="45.98568" lon="1.40594">
        <ele>437.32550048828</ele>
        <time>2014-06-08T09:03:31Z</time>
      </trkpt>
      <trkpt lat="45.98561" lon="1.40583">
        <ele>437.46035766602</ele>
        <time>2014-06-08T09:03:36Z</time>
      </trkpt>
      <trkpt lat="45.98558" lon="1.40571">
        <ele>438.61856079102</ele>
        <time>2014-06-08T09:03:40Z</time>
      </trkpt>
      <trkpt lat="45.98557" lon="1.40562">
        <ele>439.67297363281</ele>
        <time>2014-06-08T09:03:44Z</time>
      </trkpt>
      <trkpt lat="45.98558" lon="1.40553">
        <ele>441.06301879883</ele>
        <time>2014-06-08T09:03:48Z</time>
      </trkpt>
      <trkpt lat="45.98557" lon="1.40543">
        <ele>442.19149780273</ele>
        <time>2014-06-08T09:03:54Z</time>
      </trkpt>
      <trkpt lat="45.98558" lon="1.4053">
        <ele>443.88348388672</ele>
        <time>2014-06-08T09:04:00Z</time>
      </trkpt>
      <trkpt lat="45.9856" lon="1.4052">
        <ele>445.60391235352</ele>
        <time>2014-06-08T09:04:07Z</time>
      </trkpt>
      <trkpt lat="45.9856" lon="1.40518">
        <ele>445.93533325195</ele>
        <time>2014-06-08T09:04:09Z</time>
      </trkpt>
      <trkpt lat="45.98558" lon="1.40505">
        <ele>447.27166748047</ele>
        <time>2014-06-08T09:04:16Z</time>
      </trkpt>
      <trkpt lat="45.98558" lon="1.40503">
        <ele>447.45724487305</ele>
        <time>2014-06-08T09:04:17Z</time>
      </trkpt>
      <trkpt lat="45.98558" lon="1.4049">
        <ele>448.0510559082</ele>
        <time>2014-06-08T09:04:26Z</time>
      </trkpt>
      <trkpt lat="45.98561" lon="1.4048">
        <ele>448.80102539062</ele>
        <time>2014-06-08T09:04:33Z</time>
      </trkpt>
      <trkpt lat="45.98561" lon="1.40468">
        <ele>449.04486083984</ele>
        <time>2014-06-08T09:04:39Z</time>
      </trkpt>
      <trkpt lat="45.98562" lon="1.40455">
        <ele>449.6357421875</ele>
        <time>2014-06-08T09:04:45Z</time>
      </trkpt>
      <trkpt lat="45.98563" lon="1.40452">
        <ele>449.94131469727</ele>
        <time>2014-06-08T09:04:47Z</time>
      </trkpt>
      <trkpt lat="45.98566" lon="1.4044">
        <ele>450.83993530273</ele>
        <time>2014-06-08T09:04:52Z</time>
      </trkpt>
      <trkpt lat="45.98569" lon="1.40435">
        <ele>451.51986694336</ele>
        <time>2014-06-08T09:04:57Z</time>
      </trkpt>
      <trkpt lat="45.98578" lon="1.40448">
        <ele>453.18557739258</ele>
        <time>2014-06-08T09:05:05Z</time>
      </trkpt>
      <trkpt lat="45.98585" lon="1.40456">
        <ele>454.35522460938</ele>
        <time>2014-06-08T09:05:12Z</time>
      </trkpt>
      <trkpt lat="45.9859" lon="1.40466">
        <ele>455.31237792969</ele>
        <time>2014-06-08T09:05:19Z</time>
      </trkpt>
      <trkpt lat="45.98592" lon="1.40468">
        <ele>455.5712890625</ele>
        <time>2014-06-08T09:05:21Z</time>
      </trkpt>
      <trkpt lat="45.98597" lon="1.40477">
        <ele>456.44430541992</ele>
        <time>2014-06-08T09:05:29Z</time>
      </trkpt>
      <trkpt lat="45.98603" lon="1.40483">
        <ele>457.38925170898</ele>
        <time>2014-06-08T09:05:34Z</time>
      </trkpt>
      <trkpt lat="45.98606" lon="1.40487">
        <ele>458.06704711914</ele>
        <time>2014-06-08T09:05:38Z</time>
      </trkpt>
      <trkpt lat="45.9861" lon="1.40497">
        <ele>458.51321411133</ele>
        <time>2014-06-08T09:05:44Z</time>
      </trkpt>
      <trkpt lat="45.98611" lon="1.40499">
        <ele>458.62023925781</ele>
        <time>2014-06-08T09:05:45Z</time>
      </trkpt>
      <trkpt lat="45.98619" lon="1.40506">
        <ele>459.36349487305</ele>
        <time>2014-06-08T09:05:51Z</time>
      </trkpt>
      <trkpt lat="45.98626" lon="1.4051">
        <ele>460.06088256836</ele>
        <time>2014-06-08T09:05:56Z</time>
      </trkpt>
      <trkpt lat="45.98632" lon="1.40515">
        <ele>460.55725097656</ele>
        <time>2014-06-08T09:06:01Z</time>
      </trkpt>
      <trkpt lat="45.98637" lon="1.40518">
        <ele>461.20001220703</ele>
        <time>2014-06-08T09:06:05Z</time>
      </trkpt>
      <trkpt lat="45.9864" lon="1.40521">
        <ele>461.30709838867</ele>
        <time>2014-06-08T09:06:10Z</time>
      </trkpt>
      <trkpt lat="45.98643" lon="1.40527">
        <ele>461.15475463867</ele>
        <time>2014-06-08T09:06:15Z</time>
      </trkpt>
      <trkpt lat="45.98648" lon="1.40532">
        <ele>461.39566040039</ele>
        <time>2014-06-08T09:06:19Z</time>
      </trkpt>
      <trkpt lat="45.98652" lon="1.40536">
        <ele>461.43395996094</ele>
        <time>2014-06-08T09:06:23Z</time>
      </trkpt>
      <trkpt lat="45.98662" lon="1.4054">
        <ele>462.84518432617</ele>
        <time>2014-06-08T09:06:30Z</time>
      </trkpt>
      <trkpt lat="45.98667" lon="1.40542">
        <ele>463.46459960938</ele>
        <time>2014-06-08T09:06:33Z</time>
      </trkpt>
      <trkpt lat="45.98672" lon="1.40544">
        <ele>463.34719848633</ele>
        <time>2014-06-08T09:06:39Z</time>
      </trkpt>
      <trkpt lat="45.98678" lon="1.40546">
        <ele>463.23873901367</ele>
        <time>2014-06-08T09:06:43Z</time>
      </trkpt>
      <trkpt lat="45.9869" lon="1.40544">
        <ele>464.166015625</ele>
        <time>2014-06-08T09:06:49Z</time>
      </trkpt>
      <trkpt lat="45.98697" lon="1.40541">
        <ele>465.13092041016</ele>
        <time>2014-06-08T09:06:53Z</time>
      </trkpt>
      <trkpt lat="45.98705" lon="1.40539">
        <ele>465.85473632812</ele>
        <time>2014-06-08T09:06:57Z</time>
      </trkpt>
      <trkpt lat="45.98714" lon="1.40541">
        <ele>465.92614746094</ele>
        <time>2014-06-08T09:07:02Z</time>
      </trkpt>
      <trkpt lat="45.98717" lon="1.40542">
        <ele>465.92370605469</ele>
        <time>2014-06-08T09:07:04Z</time>
      </trkpt>
      <trkpt lat="45.98724" lon="1.40542">
        <ele>466.2966003418</ele>
        <time>2014-06-08T09:07:09Z</time>
      </trkpt>
      <trkpt lat="45.98727" lon="1.40542">
        <ele>466.41744995117</ele>
        <time>2014-06-08T09:07:13Z</time>
      </trkpt>
      <trkpt lat="45.98743" lon="1.4054">
        <ele>467.74224853516</ele>
        <time>2014-06-08T09:07:19Z</time>
      </trkpt>
      <trkpt lat="45.98748" lon="1.40541">
        <ele>467.63180541992</ele>
        <time>2014-06-08T09:07:23Z</time>
      </trkpt>
      <trkpt lat="45.98757" lon="1.40542">
        <ele>467.34603881836</ele>
        <time>2014-06-08T09:07:31Z</time>
      </trkpt>
      <trkpt lat="45.98767" lon="1.40535">
        <ele>469.30224609375</ele>
        <time>2014-06-08T09:07:38Z</time>
      </trkpt>
      <trkpt lat="45.98771" lon="1.40532">
        <ele>469.94018554688</ele>
        <time>2014-06-08T09:07:40Z</time>
      </trkpt>
      <trkpt lat="45.98781" lon="1.4052">
        <ele>473.02749633789</ele>
        <time>2014-06-08T09:07:49Z</time>
      </trkpt>
      <trkpt lat="45.98784" lon="1.40516">
        <ele>474.05746459961</ele>
        <time>2014-06-08T09:07:52Z</time>
      </trkpt>
      <trkpt lat="45.9879" lon="1.40512">
        <ele>475.07684326172</ele>
        <time>2014-06-08T09:07:56Z</time>
      </trkpt>
      <trkpt lat="45.98789" lon="1.40502">
        <ele>477.64541625977</ele>
        <time>2014-06-08T09:08:04Z</time>
      </trkpt>
      <trkpt lat="45.98782" lon="1.40496">
        <ele>478.6960144043</ele>
        <time>2014-06-08T09:08:10Z</time>
      </trkpt>
      <trkpt lat="45.98777" lon="1.40486">
        <ele>479.92971801758</ele>
        <time>2014-06-08T09:08:16Z</time>
      </trkpt>
      <trkpt lat="45.98771" lon="1.40471">
        <ele>481.35678100586</ele>
        <time>2014-06-08T09:08:24Z</time>
      </trkpt>
      <trkpt lat="45.98769" lon="1.40464">
        <ele>482.00634765625</ele>
        <time>2014-06-08T09:08:28Z</time>
      </trkpt>
      <trkpt lat="45.98766" lon="1.40457">
        <ele>482.47750854492</ele>
        <time>2014-06-08T09:08:33Z</time>
      </trkpt>
      <trkpt lat="45.98753" lon="1.40453">
        <ele>482.00537109375</ele>
        <time>2014-06-08T09:08:43Z</time>
      </trkpt>
      <trkpt lat="45.9875" lon="1.40453">
        <ele>481.81756591797</ele>
        <time>2014-06-08T09:08:45Z</time>
      </trkpt>
      <trkpt lat="45.9874" lon="1.40454">
        <ele>480.59817504883</ele>
        <time>2014-06-08T09:08:52Z</time>
      </trkpt>
      <trkpt lat="45.98731" lon="1.40453">
        <ele>479.53350830078</ele>
        <time>2014-06-08T09:08:58Z</time>
      </trkpt>
      <trkpt lat="45.98723" lon="1.4045">
        <ele>478.72280883789</ele>
        <time>2014-06-08T09:09:04Z</time>
      </trkpt>
      <trkpt lat="45.98712" lon="1.40439">
        <ele>477.88439941406</ele>
        <time>2014-06-08T09:09:13Z</time>
      </trkpt>
      <trkpt lat="45.98709" lon="1.40432">
        <ele>477.83117675781</ele>
        <time>2014-06-08T09:09:17Z</time>
      </trkpt>
      <trkpt lat="45.98705" lon="1.40416">
        <ele>478.02911376953</ele>
        <time>2014-06-08T09:09:22Z</time>
      </trkpt>
      <trkpt lat="45.98701" lon="1.40393">
        <ele>478.52236938477</ele>
        <time>2014-06-08T09:09:28Z</time>
      </trkpt>
      <trkpt lat="45.98697" lon="1.40366">
        <ele>478.97204589844</ele>
        <time>2014-06-08T09:09:35Z</time>
      </trkpt>
      <trkpt lat="45.98694" lon="1.4034">
        <ele>479.30642700195</ele>
        <time>2014-06-08T09:09:42Z</time>
      </trkpt>
      <trkpt lat="45.98693" lon="1.40321">
        <ele>480.25015258789</ele>
        <time>2014-06-08T09:09:47Z</time>
      </trkpt>
      <trkpt lat="45.98697" lon="1.40313">
        <ele>481.76174926758</ele>
        <time>2014-06-08T09:09:51Z</time>
      </trkpt>
      <trkpt lat="45.987" lon="1.4031">
        <ele>482.4384765625</ele>
        <time>2014-06-08T09:09:54Z</time>
      </trkpt>
      <trkpt lat="45.98705" lon="1.40301">
        <ele>484.28582763672</ele>
        <time>2014-06-08T09:10:01Z</time>
      </trkpt>
      <trkpt lat="45.98711" lon="1.40291">
        <ele>486.49969482422</ele>
        <time>2014-06-08T09:10:08Z</time>
      </trkpt>
      <trkpt lat="45.98719" lon="1.40283">
        <ele>488.71697998047</ele>
        <time>2014-06-08T09:10:14Z</time>
      </trkpt>
      <trkpt lat="45.98726" lon="1.40278">
        <ele>490.83740234375</ele>
        <time>2014-06-08T09:10:21Z</time>
      </trkpt>
      <trkpt lat="45.98728" lon="1.40277">
        <ele>491.31350708008</ele>
        <time>2014-06-08T09:10:22Z</time>
      </trkpt>
      <trkpt lat="45.98732" lon="1.40272">
        <ele>492.66168212891</ele>
        <time>2014-06-08T09:10:26Z</time>
      </trkpt>
      <trkpt lat="45.98734" lon="1.40264">
        <ele>493.92922973633</ele>
        <time>2014-06-08T09:10:32Z</time>
      </trkpt>
      <trkpt lat="45.98735" lon="1.40261">
        <ele>494.48861694336</ele>
        <time>2014-06-08T09:10:34Z</time>
      </trkpt>
      <trkpt lat="45.98739" lon="1.40258">
        <ele>495.63824462891</ele>
        <time>2014-06-08T09:10:37Z</time>
      </trkpt>
      <trkpt lat="45.98744" lon="1.40249">
        <ele>497.62280273438</ele>
        <time>2014-06-08T09:10:44Z</time>
      </trkpt>
      <trkpt lat="45.98748" lon="1.40242">
        <ele>498.62173461914</ele>
        <time>2014-06-08T09:10:49Z</time>
      </trkpt>
      <trkpt lat="45.98752" lon="1.40238">
        <ele>499.65176391602</ele>
        <time>2014-06-08T09:10:53Z</time>
      </trkpt>
      <trkpt lat="45.98755" lon="1.40233">
        <ele>500.32153320312</ele>
        <time>2014-06-08T09:10:57Z</time>
      </trkpt>
      <trkpt lat="45.98758" lon="1.40227">
        <ele>501.0891418457</ele>
        <time>2014-06-08T09:11:02Z</time>
      </trkpt>
      <trkpt lat="45.98759" lon="1.40225">
        <ele>501.2805480957</ele>
        <time>2014-06-08T09:11:03Z</time>
      </trkpt>
      <trkpt lat="45.98763" lon="1.40219">
        <ele>502.22296142578</ele>
        <time>2014-06-08T09:11:08Z</time>
      </trkpt>
      <trkpt lat="45.98766" lon="1.40211">
        <ele>503.19384765625</ele>
        <time>2014-06-08T09:11:15Z</time>
      </trkpt>
      <trkpt lat="45.98771" lon="1.40203">
        <ele>504.32723999023</ele>
        <time>2014-06-08T09:11:20Z</time>
      </trkpt>
      <trkpt lat="45.98773" lon="1.40196">
        <ele>504.93994140625</ele>
        <time>2014-06-08T09:11:24Z</time>
      </trkpt>
      <trkpt lat="45.98774" lon="1.40194">
        <ele>505.13177490234</ele>
        <time>2014-06-08T09:11:25Z</time>
      </trkpt>
      <trkpt lat="45.98776" lon="1.40184">
        <ele>505.6926574707</ele>
        <time>2014-06-08T09:11:31Z</time>
      </trkpt>
      <trkpt lat="45.98777" lon="1.40181">
        <ele>505.9909362793</ele>
        <time>2014-06-08T09:11:33Z</time>
      </trkpt>
      <trkpt lat="45.98782" lon="1.40172">
        <ele>507.13662719727</ele>
        <time>2014-06-08T09:11:39Z</time>
      </trkpt>
      <trkpt lat="45.98783" lon="1.40171">
        <ele>507.41513061523</ele>
        <time>2014-06-08T09:11:40Z</time>
      </trkpt>
      <trkpt lat="45.98784" lon="1.40165">
        <ele>507.65051269531</ele>
        <time>2014-06-08T09:11:43Z</time>
      </trkpt>
      <trkpt lat="45.9879" lon="1.40155">
        <ele>508.38586425781</ele>
        <time>2014-06-08T09:11:50Z</time>
      </trkpt>
      <trkpt lat="45.98794" lon="1.40148">
        <ele>508.96353149414</ele>
        <time>2014-06-08T09:11:54Z</time>
      </trkpt>
      <trkpt lat="45.988" lon="1.40141">
        <ele>509.86892700195</ele>
        <time>2014-06-08T09:11:59Z</time>
      </trkpt>
      <trkpt lat="45.98802" lon="1.40137">
        <ele>510.13510131836</ele>
        <time>2014-06-08T09:12:01Z</time>
      </trkpt>
      <trkpt lat="45.98804" lon="1.40132">
        <ele>510.4899597168</ele>
        <time>2014-06-08T09:12:04Z</time>
      </trkpt>
      <trkpt lat="45.98807" lon="1.40129">
        <ele>510.83935546875</ele>
        <time>2014-06-08T09:12:07Z</time>
      </trkpt>
      <trkpt lat="45.98816" lon="1.40118">
        <ele>512.3310546875</ele>
        <time>2014-06-08T09:12:15Z</time>
      </trkpt>
      <trkpt lat="45.98822" lon="1.40109">
        <ele>513.58349609375</ele>
        <time>2014-06-08T09:12:21Z</time>
      </trkpt>
      <trkpt lat="45.98826" lon="1.40105">
        <ele>514.27740478516</ele>
        <time>2014-06-08T09:12:25Z</time>
      </trkpt>
      <trkpt lat="45.98833" lon="1.40095">
        <ele>515.38226318359</ele>
        <time>2014-06-08T09:12:31Z</time>
      </trkpt>
      <trkpt lat="45.98834" lon="1.40093">
        <ele>515.65405273438</ele>
        <time>2014-06-08T09:12:32Z</time>
      </trkpt>
      <trkpt lat="45.9884" lon="1.40086">
        <ele>516.46710205078</ele>
        <time>2014-06-08T09:12:37Z</time>
      </trkpt>
      <trkpt lat="45.98844" lon="1.4008">
        <ele>516.66418457031</ele>
        <time>2014-06-08T09:12:41Z</time>
      </trkpt>
      <trkpt lat="45.98846" lon="1.40078">
        <ele>516.85314941406</ele>
        <time>2014-06-08T09:12:43Z</time>
      </trkpt>
      <trkpt lat="45.98854" lon="1.40072">
        <ele>517.83795166016</ele>
        <time>2014-06-08T09:12:50Z</time>
      </trkpt>
      <trkpt lat="45.98855" lon="1.40071">
        <ele>517.94519042969</ele>
        <time>2014-06-08T09:12:51Z</time>
      </trkpt>
      <trkpt lat="45.98859" lon="1.40065">
        <ele>518.05004882812</ele>
        <time>2014-06-08T09:12:56Z</time>
      </trkpt>
      <trkpt lat="45.98868" lon="1.4006">
        <ele>519.26947021484</ele>
        <time>2014-06-08T09:13:02Z</time>
      </trkpt>
      <trkpt lat="45.98871" lon="1.40054">
        <ele>519.03894042969</ele>
        <time>2014-06-08T09:13:06Z</time>
      </trkpt>
      <trkpt lat="45.98875" lon="1.4005">
        <ele>519.64483642578</ele>
        <time>2014-06-08T09:13:10Z</time>
      </trkpt>
      <trkpt lat="45.98884" lon="1.40041">
        <ele>520.27276611328</ele>
        <time>2014-06-08T09:13:18Z</time>
      </trkpt>
      <trkpt lat="45.98886" lon="1.40039">
        <ele>520.61669921875</ele>
        <time>2014-06-08T09:13:20Z</time>
      </trkpt>
      <trkpt lat="45.98895" lon="1.4003">
        <ele>521.46575927734</ele>
        <time>2014-06-08T09:13:26Z</time>
      </trkpt>
      <trkpt lat="45.98898" lon="1.40026">
        <ele>521.7353515625</ele>
        <time>2014-06-08T09:13:29Z</time>
      </trkpt>
      <trkpt lat="45.98901" lon="1.40024">
        <ele>522.03747558594</ele>
        <time>2014-06-08T09:13:31Z</time>
      </trkpt>
      <trkpt lat="45.98905" lon="1.40021">
        <ele>522.60266113281</ele>
        <time>2014-06-08T09:13:35Z</time>
      </trkpt>
      <trkpt lat="45.98912" lon="1.40015">
        <ele>523.52581787109</ele>
        <time>2014-06-08T09:13:41Z</time>
      </trkpt>
      <trkpt lat="45.98919" lon="1.40011">
        <ele>524.74029541016</ele>
        <time>2014-06-08T09:13:46Z</time>
      </trkpt>
      <trkpt lat="45.98925" lon="1.40006">
        <ele>525.71588134766</ele>
        <time>2014-06-08T09:13:51Z</time>
      </trkpt>
      <trkpt lat="45.98929" lon="1.40002">
        <ele>526.36968994141</ele>
        <time>2014-06-08T09:13:55Z</time>
      </trkpt>
      <trkpt lat="45.98937" lon="1.39997">
        <ele>527.86584472656</ele>
        <time>2014-06-08T09:14:01Z</time>
      </trkpt>
      <trkpt lat="45.98942" lon="1.39992">
        <ele>528.35333251953</ele>
        <time>2014-06-08T09:14:06Z</time>
      </trkpt>
      <trkpt lat="45.9895" lon="1.39987">
        <ele>529.63928222656</ele>
        <time>2014-06-08T09:14:12Z</time>
      </trkpt>
      <trkpt lat="45.98952" lon="1.39986">
        <ele>530.10650634766</ele>
        <time>2014-06-08T09:14:14Z</time>
      </trkpt>
      <trkpt lat="45.98962" lon="1.39979">
        <ele>531.50836181641</ele>
        <time>2014-06-08T09:14:21Z</time>
      </trkpt>
      <trkpt lat="45.98972" lon="1.39971">
        <ele>532.90472412109</ele>
        <time>2014-06-08T09:14:27Z</time>
      </trkpt>
      <trkpt lat="45.98973" lon="1.39971">
        <ele>533.08386230469</ele>
        <time>2014-06-08T09:14:28Z</time>
      </trkpt>
      <trkpt lat="45.9898" lon="1.39965">
        <ele>534.08819580078</ele>
        <time>2014-06-08T09:14:32Z</time>
      </trkpt>
      <trkpt lat="45.98985" lon="1.39955">
        <ele>533.99133300781</ele>
        <time>2014-06-08T09:14:39Z</time>
      </trkpt>
      <trkpt lat="45.98992" lon="1.39944">
        <ele>534.19281005859</ele>
        <time>2014-06-08T09:14:46Z</time>
      </trkpt>
      <trkpt lat="45.98998" lon="1.39938">
        <ele>534.81756591797</ele>
        <time>2014-06-08T09:14:51Z</time>
      </trkpt>
      <trkpt lat="45.99002" lon="1.39933">
        <ele>535.21008300781</ele>
        <time>2014-06-08T09:14:56Z</time>
      </trkpt>
      <trkpt lat="45.99011" lon="1.39923">
        <ele>535.83392333984</ele>
        <time>2014-06-08T09:15:03Z</time>
      </trkpt>
      <trkpt lat="45.99012" lon="1.39921">
        <ele>535.69580078125</ele>
        <time>2014-06-08T09:15:04Z</time>
      </trkpt>
      <trkpt lat="45.99018" lon="1.3991">
        <ele>535.44750976562</ele>
        <time>2014-06-08T09:15:10Z</time>
      </trkpt>
      <trkpt lat="45.99023" lon="1.39901">
        <ele>535.11608886719</ele>
        <time>2014-06-08T09:15:15Z</time>
      </trkpt>
      <trkpt lat="45.99024" lon="1.39899">
        <ele>535.16009521484</ele>
        <time>2014-06-08T09:15:17Z</time>
      </trkpt>
      <trkpt lat="45.99028" lon="1.39901">
        <ele>536.6865234375</ele>
        <time>2014-06-08T09:15:21Z</time>
      </trkpt>
      <trkpt lat="45.99035" lon="1.39905">
        <ele>538.87359619141</ele>
        <time>2014-06-08T09:15:26Z</time>
      </trkpt>
      <trkpt lat="45.99042" lon="1.39911">
        <ele>542.01354980469</ele>
        <time>2014-06-08T09:15:32Z</time>
      </trkpt>
      <trkpt lat="45.99047" lon="1.39911">
        <ele>543.44299316406</ele>
        <time>2014-06-08T09:15:36Z</time>
      </trkpt>
      <trkpt lat="45.9905" lon="1.39911">
        <ele>544.10552978516</ele>
        <time>2014-06-08T09:15:38Z</time>
      </trkpt>
      <trkpt lat="45.99059" lon="1.39912">
        <ele>546.76794433594</ele>
        <time>2014-06-08T09:15:44Z</time>
      </trkpt>
      <trkpt lat="45.99068" lon="1.39913">
        <ele>549.21276855469</ele>
        <time>2014-06-08T09:15:50Z</time>
      </trkpt>
      <trkpt lat="45.99072" lon="1.39916">
        <ele>550.88146972656</ele>
        <time>2014-06-08T09:15:54Z</time>
      </trkpt>
      <trkpt lat="45.9908" lon="1.39915">
        <ele>552.64147949219</ele>
        <time>2014-06-08T09:15:59Z</time>
      </trkpt>
      <trkpt lat="45.99083" lon="1.39913">
        <ele>553.06787109375</ele>
        <time>2014-06-08T09:16:01Z</time>
      </trkpt>
      <trkpt lat="45.99086" lon="1.39909">
        <ele>553.05627441406</ele>
        <time>2014-06-08T09:16:04Z</time>
      </trkpt>
      <trkpt lat="45.99088" lon="1.39895">
        <ele>550.47882080078</ele>
        <time>2014-06-08T09:16:10Z</time>
      </trkpt>
      <trkpt lat="45.99089" lon="1.39891">
        <ele>549.96002197266</ele>
        <time>2014-06-08T09:16:12Z</time>
      </trkpt>
      <trkpt lat="45.99092" lon="1.39883">
        <ele>548.88372802734</ele>
        <time>2014-06-08T09:16:17Z</time>
      </trkpt>
      <trkpt lat="45.99094" lon="1.39872">
        <ele>547.26153564453</ele>
        <time>2014-06-08T09:16:22Z</time>
      </trkpt>
      <trkpt lat="45.99096" lon="1.39866">
        <ele>546.58819580078</ele>
        <time>2014-06-08T09:16:26Z</time>
      </trkpt>
      <trkpt lat="45.99101" lon="1.39858">
        <ele>546.20629882812</ele>
        <time>2014-06-08T09:16:31Z</time>
      </trkpt>
      <trkpt lat="45.99105" lon="1.39854">
        <ele>546.44976806641</ele>
        <time>2014-06-08T09:16:35Z</time>
      </trkpt>
      <trkpt lat="45.99109" lon="1.39852">
        <ele>546.97814941406</ele>
        <time>2014-06-08T09:16:37Z</time>
      </trkpt>
      <trkpt lat="45.99115" lon="1.39847">
        <ele>547.78668212891</ele>
        <time>2014-06-08T09:16:42Z</time>
      </trkpt>
      <trkpt lat="45.99122" lon="1.39843">
        <ele>549.0810546875</ele>
        <time>2014-06-08T09:16:46Z</time>
      </trkpt>
      <trkpt lat="45.99127" lon="1.3984">
        <ele>549.92370605469</ele>
        <time>2014-06-08T09:16:49Z</time>
      </trkpt>
      <trkpt lat="45.99131" lon="1.39836">
        <ele>550.28540039062</ele>
        <time>2014-06-08T09:16:53Z</time>
      </trkpt>
      <trkpt lat="45.99136" lon="1.39831">
        <ele>550.64263916016</ele>
        <time>2014-06-08T09:16:58Z</time>
      </trkpt>
      <trkpt lat="45.99141" lon="1.3982">
        <ele>550.18292236328</ele>
        <time>2014-06-08T09:17:04Z</time>
      </trkpt>
      <trkpt lat="45.99147" lon="1.39816">
        <ele>551.12622070312</ele>
        <time>2014-06-08T09:17:09Z</time>
      </trkpt>
      <trkpt lat="45.99153" lon="1.3981">
        <ele>551.8388671875</ele>
        <time>2014-06-08T09:17:13Z</time>
      </trkpt>
      <trkpt lat="45.99158" lon="1.39807">
        <ele>552.79022216797</ele>
        <time>2014-06-08T09:17:16Z</time>
      </trkpt>
      <trkpt lat="45.99164" lon="1.39801">
        <ele>553.43896484375</ele>
        <time>2014-06-08T09:17:21Z</time>
      </trkpt>
      <trkpt lat="45.99166" lon="1.398">
        <ele>553.70306396484</ele>
        <time>2014-06-08T09:17:22Z</time>
      </trkpt>
      <trkpt lat="45.99173" lon="1.39796">
        <ele>555.06616210938</ele>
        <time>2014-06-08T09:17:27Z</time>
      </trkpt>
      <trkpt lat="45.99181" lon="1.3979">
        <ele>555.80798339844</ele>
        <time>2014-06-08T09:17:32Z</time>
      </trkpt>
      <trkpt lat="45.99183" lon="1.39789">
        <ele>556.18096923828</ele>
        <time>2014-06-08T09:17:33Z</time>
      </trkpt>
      <trkpt lat="45.99191" lon="1.39784">
        <ele>557.45416259766</ele>
        <time>2014-06-08T09:17:39Z</time>
      </trkpt>
      <trkpt lat="45.99195" lon="1.39781">
        <ele>558.21411132812</ele>
        <time>2014-06-08T09:17:43Z</time>
      </trkpt>
      <trkpt lat="45.99201" lon="1.39774">
        <ele>558.62133789062</ele>
        <time>2014-06-08T09:17:49Z</time>
      </trkpt>
      <trkpt lat="45.99206" lon="1.39767">
        <ele>558.83203125</ele>
        <time>2014-06-08T09:17:53Z</time>
      </trkpt>
      <trkpt lat="45.99208" lon="1.39764">
        <ele>558.96575927734</ele>
        <time>2014-06-08T09:17:55Z</time>
      </trkpt>
      <trkpt lat="45.99215" lon="1.39754">
        <ele>559.05139160156</ele>
        <time>2014-06-08T09:18:00Z</time>
      </trkpt>
      <trkpt lat="45.99216" lon="1.39752">
        <ele>559.14874267578</ele>
        <time>2014-06-08T09:18:01Z</time>
      </trkpt>
      <trkpt lat="45.99228" lon="1.39744">
        <ele>560.88543701172</ele>
        <time>2014-06-08T09:18:06Z</time>
      </trkpt>
      <trkpt lat="45.99231" lon="1.39739">
        <ele>560.88244628906</ele>
        <time>2014-06-08T09:18:10Z</time>
      </trkpt>
      <trkpt lat="45.99235" lon="1.39736">
        <ele>561.21844482422</ele>
        <time>2014-06-08T09:18:15Z</time>
      </trkpt>
      <trkpt lat="45.99244" lon="1.3973">
        <ele>562.71752929688</ele>
        <time>2014-06-08T09:18:20Z</time>
      </trkpt>
      <trkpt lat="45.99252" lon="1.39728">
        <ele>564.73815917969</ele>
        <time>2014-06-08T09:18:26Z</time>
      </trkpt>
      <trkpt lat="45.99258" lon="1.39729">
        <ele>566.51171875</ele>
        <time>2014-06-08T09:18:30Z</time>
      </trkpt>
      <trkpt lat="45.99268" lon="1.39729">
        <ele>569.25677490234</ele>
        <time>2014-06-08T09:18:37Z</time>
      </trkpt>
      <trkpt lat="45.99272" lon="1.39731">
        <ele>570.44860839844</ele>
        <time>2014-06-08T09:18:41Z</time>
      </trkpt>
      <trkpt lat="45.99284" lon="1.39734">
        <ele>574.16833496094</ele>
        <time>2014-06-08T09:18:47Z</time>
      </trkpt>
      <trkpt lat="45.99286" lon="1.39734">
        <ele>574.78009033203</ele>
        <time>2014-06-08T09:18:48Z</time>
      </trkpt>
      <trkpt lat="45.9929" lon="1.3973">
        <ele>575.34869384766</ele>
        <time>2014-06-08T09:18:52Z</time>
      </trkpt>
      <trkpt lat="45.99295" lon="1.39719">
        <ele>574.869140625</ele>
        <time>2014-06-08T09:18:57Z</time>
      </trkpt>
      <trkpt lat="45.99301" lon="1.39712">
        <ele>575.64575195312</ele>
        <time>2014-06-08T09:19:03Z</time>
      </trkpt>
      <trkpt lat="45.99306" lon="1.39705">
        <ele>576.15472412109</ele>
        <time>2014-06-08T09:19:08Z</time>
      </trkpt>
      <trkpt lat="45.99308" lon="1.39703">
        <ele>576.35711669922</ele>
        <time>2014-06-08T09:19:09Z</time>
      </trkpt>
      <trkpt lat="45.99308" lon="1.3969">
        <ele>574.82458496094</ele>
        <time>2014-06-08T09:19:15Z</time>
      </trkpt>
      <trkpt lat="45.99313" lon="1.3968">
        <ele>574.99816894531</ele>
        <time>2014-06-08T09:19:21Z</time>
      </trkpt>
      <trkpt lat="45.99313" lon="1.39668">
        <ele>573.38897705078</ele>
        <time>2014-06-08T09:19:26Z</time>
      </trkpt>
      <trkpt lat="45.99313" lon="1.3965">
        <ele>572.29052734375</ele>
        <time>2014-06-08T09:19:33Z</time>
      </trkpt>
      <trkpt lat="45.99317" lon="1.39642">
        <ele>573.02160644531</ele>
        <time>2014-06-08T09:19:38Z</time>
      </trkpt>
      <trkpt lat="45.9932" lon="1.39634">
        <ele>573.69189453125</ele>
        <time>2014-06-08T09:19:42Z</time>
      </trkpt>
      <trkpt lat="45.99325" lon="1.39627">
        <ele>574.89953613281</ele>
        <time>2014-06-08T09:19:47Z</time>
      </trkpt>
      <trkpt lat="45.99327" lon="1.39617">
        <ele>574.92327880859</ele>
        <time>2014-06-08T09:19:52Z</time>
      </trkpt>
      <trkpt lat="45.99331" lon="1.39613">
        <ele>576.10852050781</ele>
        <time>2014-06-08T09:19:56Z</time>
      </trkpt>
      <trkpt lat="45.9934" lon="1.39603">
        <ele>578.119140625</ele>
        <time>2014-06-08T09:20:04Z</time>
      </trkpt>
      <trkpt lat="45.99342" lon="1.39589">
        <ele>577.66937255859</ele>
        <time>2014-06-08T09:20:10Z</time>
      </trkpt>
      <trkpt lat="45.99348" lon="1.39577">
        <ele>578.40966796875</ele>
        <time>2014-06-08T09:20:17Z</time>
      </trkpt>
      <trkpt lat="45.99351" lon="1.3957">
        <ele>578.54376220703</ele>
        <time>2014-06-08T09:20:20Z</time>
      </trkpt>
      <trkpt lat="45.99354" lon="1.39567">
        <ele>579.02313232422</ele>
        <time>2014-06-08T09:20:22Z</time>
      </trkpt>
      <trkpt lat="45.99357" lon="1.39556">
        <ele>578.49621582031</ele>
        <time>2014-06-08T09:20:28Z</time>
      </trkpt>
      <trkpt lat="45.99364" lon="1.3955">
        <ele>579.72937011719</ele>
        <time>2014-06-08T09:20:34Z</time>
      </trkpt>
      <trkpt lat="45.99364" lon="1.39548">
        <ele>579.55328369141</ele>
        <time>2014-06-08T09:20:35Z</time>
      </trkpt>
      <trkpt lat="45.99371" lon="1.39543">
        <ele>580.3544921875</ele>
        <time>2014-06-08T09:20:41Z</time>
      </trkpt>
      <trkpt lat="45.99374" lon="1.39541">
        <ele>580.8701171875</ele>
        <time>2014-06-08T09:20:43Z</time>
      </trkpt>
      <trkpt lat="45.99379" lon="1.39535">
        <ele>581.29901123047</ele>
        <time>2014-06-08T09:20:48Z</time>
      </trkpt>
      <trkpt lat="45.99387" lon="1.39529">
        <ele>582.33905029297</ele>
        <time>2014-06-08T09:20:55Z</time>
      </trkpt>
      <trkpt lat="45.99396" lon="1.39522">
        <ele>583.24169921875</ele>
        <time>2014-06-08T09:21:02Z</time>
      </trkpt>
      <trkpt lat="45.99404" lon="1.39515">
        <ele>583.884765625</ele>
        <time>2014-06-08T09:21:10Z</time>
      </trkpt>
      <trkpt lat="45.99405" lon="1.39514">
        <ele>584.01885986328</ele>
        <time>2014-06-08T09:21:11Z</time>
      </trkpt>
      <trkpt lat="45.99413" lon="1.39515">
        <ele>585.82171630859</ele>
        <time>2014-06-08T09:21:18Z</time>
      </trkpt>
      <trkpt lat="45.99416" lon="1.39514">
        <ele>586.36584472656</ele>
        <time>2014-06-08T09:21:20Z</time>
      </trkpt>
      <trkpt lat="45.9943" lon="1.39512">
        <ele>586.56945800781</ele>
        <time>2014-06-08T09:21:26Z</time>
      </trkpt>
      <trkpt lat="45.99437" lon="1.39511">
        <ele>586.61267089844</ele>
        <time>2014-06-08T09:21:29Z</time>
      </trkpt>
      <trkpt lat="45.99444" lon="1.39508">
        <ele>586.36651611328</ele>
        <time>2014-06-08T09:21:34Z</time>
      </trkpt>
      <trkpt lat="45.99456" lon="1.39507">
        <ele>586.66943359375</ele>
        <time>2014-06-08T09:21:40Z</time>
      </trkpt>
      <trkpt lat="45.99466" lon="1.39509">
        <ele>587.37872314453</ele>
        <time>2014-06-08T09:21:44Z</time>
      </trkpt>
      <trkpt lat="45.99483" lon="1.39509">
        <ele>587.91778564453</ele>
        <time>2014-06-08T09:21:49Z</time>
      </trkpt>
      <trkpt lat="45.99498" lon="1.39506">
        <ele>587.99090576172</ele>
        <time>2014-06-08T09:21:54Z</time>
      </trkpt>
      <trkpt lat="45.99512" lon="1.39508">
        <ele>587.73400878906</ele>
        <time>2014-06-08T09:21:59Z</time>
      </trkpt>
      <trkpt lat="45.99527" lon="1.39514">
        <ele>587.71405029297</ele>
        <time>2014-06-08T09:22:04Z</time>
      </trkpt>
      <trkpt lat="45.99532" lon="1.39516">
        <ele>587.74536132812</ele>
        <time>2014-06-08T09:22:06Z</time>
      </trkpt>
      <trkpt lat="45.99543" lon="1.39523">
        <ele>587.92077636719</ele>
        <time>2014-06-08T09:22:11Z</time>
      </trkpt>
      <trkpt lat="45.9956" lon="1.3953">
        <ele>587.84454345703</ele>
        <time>2014-06-08T09:22:17Z</time>
      </trkpt>
      <trkpt lat="45.99577" lon="1.39535">
        <ele>587.22027587891</ele>
        <time>2014-06-08T09:22:22Z</time>
      </trkpt>
      <trkpt lat="45.99588" lon="1.3954">
        <ele>586.81646728516</ele>
        <time>2014-06-08T09:22:26Z</time>
      </trkpt>
      <trkpt lat="45.99599" lon="1.39544">
        <ele>586.10736083984</ele>
        <time>2014-06-08T09:22:31Z</time>
      </trkpt>
      <trkpt lat="45.99613" lon="1.39548">
        <ele>585.05535888672</ele>
        <time>2014-06-08T09:22:36Z</time>
      </trkpt>
      <trkpt lat="45.99627" lon="1.39548">
        <ele>583.66662597656</ele>
        <time>2014-06-08T09:22:41Z</time>
      </trkpt>
      <trkpt lat="45.99649" lon="1.39543">
        <ele>580.56298828125</ele>
        <time>2014-06-08T09:22:46Z</time>
      </trkpt>
      <trkpt lat="45.99661" lon="1.3954">
        <ele>578.91888427734</ele>
        <time>2014-06-08T09:22:50Z</time>
      </trkpt>
      <trkpt lat="45.99672" lon="1.39535">
        <ele>577.58642578125</ele>
        <time>2014-06-08T09:22:54Z</time>
      </trkpt>
      <trkpt lat="45.99683" lon="1.3953">
        <ele>576.77947998047</ele>
        <time>2014-06-08T09:22:58Z</time>
      </trkpt>
      <trkpt lat="45.99694" lon="1.39521">
        <ele>575.55310058594</ele>
        <time>2014-06-08T09:23:03Z</time>
      </trkpt>
      <trkpt lat="45.99707" lon="1.3951">
        <ele>574.09777832031</ele>
        <time>2014-06-08T09:23:08Z</time>
      </trkpt>
      <trkpt lat="45.99719" lon="1.39504">
        <ele>573.38861083984</ele>
        <time>2014-06-08T09:23:12Z</time>
      </trkpt>
      <trkpt lat="45.99728" lon="1.39504">
        <ele>573.39410400391</ele>
        <time>2014-06-08T09:23:16Z</time>
      </trkpt>
      <trkpt lat="45.99739" lon="1.39501">
        <ele>573.05737304688</ele>
        <time>2014-06-08T09:23:21Z</time>
      </trkpt>
      <trkpt lat="45.99757" lon="1.39502">
        <ele>572.21673583984</ele>
        <time>2014-06-08T09:23:27Z</time>
      </trkpt>
      <trkpt lat="45.9977" lon="1.39504">
        <ele>570.57794189453</ele>
        <time>2014-06-08T09:23:31Z</time>
      </trkpt>
      <trkpt lat="45.99786" lon="1.39509">
        <ele>568.73083496094</ele>
        <time>2014-06-08T09:23:37Z</time>
      </trkpt>
      <trkpt lat="45.998" lon="1.39514">
        <ele>567.04168701172</ele>
        <time>2014-06-08T09:23:43Z</time>
      </trkpt>
      <trkpt lat="45.99811" lon="1.39515">
        <ele>565.62377929688</ele>
        <time>2014-06-08T09:23:48Z</time>
      </trkpt>
      <trkpt lat="45.99818" lon="1.39514">
        <ele>564.58465576172</ele>
        <time>2014-06-08T09:23:54Z</time>
      </trkpt>
      <trkpt lat="45.99822" lon="1.39513">
        <ele>563.87054443359</ele>
        <time>2014-06-08T09:24:00Z</time>
      </trkpt>
      <trkpt lat="45.99825" lon="1.39516">
        <ele>563.66339111328</ele>
        <time>2014-06-08T09:24:08Z</time>
      </trkpt>
      <trkpt lat="45.99825" lon="1.39514">
        <ele>563.52606201172</ele>
        <time>2014-06-08T09:24:19Z</time>
      </trkpt>
      <trkpt lat="45.99825" lon="1.39513">
        <ele>563.37384033203</ele>
        <time>2014-06-08T09:24:26Z</time>
      </trkpt>
      <trkpt lat="45.99826" lon="1.39513">
        <ele>563.34411621094</ele>
        <time>2014-06-08T09:24:32Z</time>
      </trkpt>
      <trkpt lat="45.99826" lon="1.39512">
        <ele>563.27203369141</ele>
        <time>2014-06-08T09:24:38Z</time>
      </trkpt>
      <trkpt lat="45.99823" lon="1.39513">
        <ele>563.67596435547</ele>
        <time>2014-06-08T09:24:44Z</time>
      </trkpt>
      <trkpt lat="45.99823" lon="1.39515">
        <ele>563.87854003906</ele>
        <time>2014-06-08T09:24:49Z</time>
      </trkpt>
      <trkpt lat="45.99827" lon="1.39512">
        <ele>563.13012695312</ele>
        <time>2014-06-08T09:24:58Z</time>
      </trkpt>
      <trkpt lat="45.99828" lon="1.39509">
        <ele>562.67578125</ele>
        <time>2014-06-08T09:25:06Z</time>
      </trkpt>
      <trkpt lat="45.99826" lon="1.39504">
        <ele>562.52587890625</ele>
        <time>2014-06-08T09:25:09Z</time>
      </trkpt>
      <trkpt lat="45.99808" lon="1.39488">
        <ele>563.46179199219</ele>
        <time>2014-06-08T09:25:16Z</time>
      </trkpt>
      <trkpt lat="45.99797" lon="1.39476">
        <ele>563.74090576172</ele>
        <time>2014-06-08T09:25:21Z</time>
      </trkpt>
      <trkpt lat="45.99784" lon="1.39461">
        <ele>563.65789794922</ele>
        <time>2014-06-08T09:25:27Z</time>
      </trkpt>
      <trkpt lat="45.99776" lon="1.39448">
        <ele>563.19274902344</ele>
        <time>2014-06-08T09:25:32Z</time>
      </trkpt>
      <trkpt lat="45.99763" lon="1.39437">
        <ele>563.36181640625</ele>
        <time>2014-06-08T09:25:38Z</time>
      </trkpt>
      <trkpt lat="45.99751" lon="1.39436">
        <ele>564.44842529297</ele>
        <time>2014-06-08T09:25:43Z</time>
      </trkpt>
      <trkpt lat="45.99739" lon="1.39439">
        <ele>565.28881835938</ele>
        <time>2014-06-08T09:25:49Z</time>
      </trkpt>
      <trkpt lat="45.99728" lon="1.39446">
        <ele>566.35070800781</ele>
        <time>2014-06-08T09:25:54Z</time>
      </trkpt>
      <trkpt lat="45.99718" lon="1.39459">
        <ele>568.18896484375</ele>
        <time>2014-06-08T09:26:00Z</time>
      </trkpt>
      <trkpt lat="45.9971" lon="1.39468">
        <ele>569.32415771484</ele>
        <time>2014-06-08T09:26:04Z</time>
      </trkpt>
      <trkpt lat="45.99706" lon="1.3947">
        <ele>569.6669921875</ele>
        <time>2014-06-08T09:26:07Z</time>
      </trkpt>
      <trkpt lat="45.99687" lon="1.39468">
        <ele>569.64569091797</ele>
        <time>2014-06-08T09:26:13Z</time>
      </trkpt>
      <trkpt lat="45.99672" lon="1.39461">
        <ele>569.13134765625</ele>
        <time>2014-06-08T09:26:19Z</time>
      </trkpt>
      <trkpt lat="45.99667" lon="1.39458">
        <ele>568.97155761719</ele>
        <time>2014-06-08T09:26:21Z</time>
      </trkpt>
      <trkpt lat="45.99654" lon="1.39451">
        <ele>569.2939453125</ele>
        <time>2014-06-08T09:26:27Z</time>
      </trkpt>
      <trkpt lat="45.99648" lon="1.39446">
        <ele>569.26861572266</ele>
        <time>2014-06-08T09:26:31Z</time>
      </trkpt>
      <trkpt lat="45.99635" lon="1.39438">
        <ele>569.31848144531</ele>
        <time>2014-06-08T09:26:37Z</time>
      </trkpt>
      <trkpt lat="45.99625" lon="1.39431">
        <ele>569.25927734375</ele>
        <time>2014-06-08T09:26:42Z</time>
      </trkpt>
      <trkpt lat="45.99612" lon="1.39428">
        <ele>569.66864013672</ele>
        <time>2014-06-08T09:26:47Z</time>
      </trkpt>
      <trkpt lat="45.99602" lon="1.39422">
        <ele>569.56036376953</ele>
        <time>2014-06-08T09:26:52Z</time>
      </trkpt>
      <trkpt lat="45.99591" lon="1.39413">
        <ele>569.15777587891</ele>
        <time>2014-06-08T09:26:57Z</time>
      </trkpt>
      <trkpt lat="45.9958" lon="1.39404">
        <ele>569.05834960938</ele>
        <time>2014-06-08T09:27:02Z</time>
      </trkpt>
      <trkpt lat="45.99572" lon="1.394">
        <ele>568.98968505859</ele>
        <time>2014-06-08T09:27:05Z</time>
      </trkpt>
      <trkpt lat="45.99556" lon="1.3939">
        <ele>568.28784179688</ele>
        <time>2014-06-08T09:27:11Z</time>
      </trkpt>
      <trkpt lat="45.99541" lon="1.39387">
        <ele>568.30303955078</ele>
        <time>2014-06-08T09:27:17Z</time>
      </trkpt>
      <trkpt lat="45.99528" lon="1.39386">
        <ele>568.3603515625</ele>
        <time>2014-06-08T09:27:23Z</time>
      </trkpt>
      <trkpt lat="45.99515" lon="1.39385">
        <ele>568.37084960938</ele>
        <time>2014-06-08T09:27:28Z</time>
      </trkpt>
      <trkpt lat="45.99511" lon="1.39385">
        <ele>568.45617675781</ele>
        <time>2014-06-08T09:27:29Z</time>
      </trkpt>
      <trkpt lat="45.99498" lon="1.39389">
        <ele>569.41766357422</ele>
        <time>2014-06-08T09:27:34Z</time>
      </trkpt>
      <trkpt lat="45.99481" lon="1.39392">
        <ele>570.02899169922</ele>
        <time>2014-06-08T09:27:40Z</time>
      </trkpt>
      <trkpt lat="45.99464" lon="1.3939">
        <ele>569.85528564453</ele>
        <time>2014-06-08T09:27:46Z</time>
      </trkpt>
      <trkpt lat="45.99452" lon="1.39382">
        <ele>569.20227050781</ele>
        <time>2014-06-08T09:27:50Z</time>
      </trkpt>
      <trkpt lat="45.99447" lon="1.3938">
        <ele>569.10284423828</ele>
        <time>2014-06-08T09:27:52Z</time>
      </trkpt>
      <trkpt lat="45.99437" lon="1.39375">
        <ele>568.86431884766</ele>
        <time>2014-06-08T09:27:56Z</time>
      </trkpt>
      <trkpt lat="45.99429" lon="1.39371">
        <ele>568.83465576172</ele>
        <time>2014-06-08T09:28:00Z</time>
      </trkpt>
      <trkpt lat="45.99409" lon="1.39365">
        <ele>568.53131103516</ele>
        <time>2014-06-08T09:28:07Z</time>
      </trkpt>
      <trkpt lat="45.99398" lon="1.39364">
        <ele>567.92810058594</ele>
        <time>2014-06-08T09:28:12Z</time>
      </trkpt>
      <trkpt lat="45.99396" lon="1.39364">
        <ele>567.82891845703</ele>
        <time>2014-06-08T09:28:13Z</time>
      </trkpt>
      <trkpt lat="45.99382" lon="1.39366">
        <ele>567.16528320312</ele>
        <time>2014-06-08T09:28:19Z</time>
      </trkpt>
      <trkpt lat="45.99366" lon="1.39367">
        <ele>566.30462646484</ele>
        <time>2014-06-08T09:28:26Z</time>
      </trkpt>
      <trkpt lat="45.99363" lon="1.39367">
        <ele>566.13122558594</ele>
        <time>2014-06-08T09:28:27Z</time>
      </trkpt>
      <trkpt lat="45.99349" lon="1.3937">
        <ele>565.25329589844</ele>
        <time>2014-06-08T09:28:32Z</time>
      </trkpt>
      <trkpt lat="45.99337" lon="1.39373">
        <ele>564.34759521484</ele>
        <time>2014-06-08T09:28:37Z</time>
      </trkpt>
      <trkpt lat="45.99326" lon="1.39378">
        <ele>562.02056884766</ele>
        <time>2014-06-08T09:28:41Z</time>
      </trkpt>
      <trkpt lat="45.99311" lon="1.39387">
        <ele>557.55346679688</ele>
        <time>2014-06-08T09:28:47Z</time>
      </trkpt>
      <trkpt lat="45.99301" lon="1.39391">
        <ele>554.58453369141</ele>
        <time>2014-06-08T09:28:51Z</time>
      </trkpt>
      <trkpt lat="45.99287" lon="1.39397">
        <ele>550.58898925781</ele>
        <time>2014-06-08T09:28:57Z</time>
      </trkpt>
      <trkpt lat="45.99285" lon="1.39398">
        <ele>549.81335449219</ele>
        <time>2014-06-08T09:28:58Z</time>
      </trkpt>
      <trkpt lat="45.9927" lon="1.39406">
        <ele>545.17755126953</ele>
        <time>2014-06-08T09:29:04Z</time>
      </trkpt>
      <trkpt lat="45.99253" lon="1.39408">
        <ele>540.73400878906</ele>
        <time>2014-06-08T09:29:10Z</time>
      </trkpt>
      <trkpt lat="45.99237" lon="1.39405">
        <ele>536.08453369141</ele>
        <time>2014-06-08T09:29:15Z</time>
      </trkpt>
      <trkpt lat="45.99224" lon="1.39397">
        <ele>533.05603027344</ele>
        <time>2014-06-08T09:29:20Z</time>
      </trkpt>
      <trkpt lat="45.99221" lon="1.39395">
        <ele>532.51416015625</ele>
        <time>2014-06-08T09:29:21Z</time>
      </trkpt>
      <trkpt lat="45.99208" lon="1.39382">
        <ele>530.28393554688</ele>
        <time>2014-06-08T09:29:27Z</time>
      </trkpt>
      <trkpt lat="45.99199" lon="1.39369">
        <ele>529.53588867188</ele>
        <time>2014-06-08T09:29:32Z</time>
      </trkpt>
      <trkpt lat="45.99192" lon="1.39358">
        <ele>529.05499267578</ele>
        <time>2014-06-08T09:29:37Z</time>
      </trkpt>
      <trkpt lat="45.99186" lon="1.3935">
        <ele>528.56994628906</ele>
        <time>2014-06-08T09:29:41Z</time>
      </trkpt>
      <trkpt lat="45.99181" lon="1.39348">
        <ele>527.5224609375</ele>
        <time>2014-06-08T09:29:44Z</time>
      </trkpt>
      <trkpt lat="45.99176" lon="1.39349">
        <ele>525.98077392578</ele>
        <time>2014-06-08T09:29:48Z</time>
      </trkpt>
      <trkpt lat="45.99162" lon="1.39349">
        <ele>522.58837890625</ele>
        <time>2014-06-08T09:29:53Z</time>
      </trkpt>
      <trkpt lat="45.9915" lon="1.39357">
        <ele>518.48193359375</ele>
        <time>2014-06-08T09:29:58Z</time>
      </trkpt>
      <trkpt lat="45.99149" lon="1.3936">
        <ele>517.62268066406</ele>
        <time>2014-06-08T09:29:59Z</time>
      </trkpt>
      <trkpt lat="45.99133" lon="1.39369">
        <ele>512.36352539062</ele>
        <time>2014-06-08T09:30:05Z</time>
      </trkpt>
      <trkpt lat="45.9913" lon="1.39369">
        <ele>511.5924987793</ele>
        <time>2014-06-08T09:30:06Z</time>
      </trkpt>
      <trkpt lat="45.99117" lon="1.3936">
        <ele>510.09796142578</ele>
        <time>2014-06-08T09:30:12Z</time>
      </trkpt>
      <trkpt lat="45.991" lon="1.3935">
        <ele>507.99353027344</ele>
        <time>2014-06-08T09:30:17Z</time>
      </trkpt>
      <trkpt lat="45.99087" lon="1.39342">
        <ele>506.2331237793</ele>
        <time>2014-06-08T09:30:22Z</time>
      </trkpt>
      <trkpt lat="45.99078" lon="1.39336">
        <ele>504.95120239258</ele>
        <time>2014-06-08T09:30:27Z</time>
      </trkpt>
      <trkpt lat="45.99065" lon="1.3933">
        <ele>502.31805419922</ele>
        <time>2014-06-08T09:30:33Z</time>
      </trkpt>
      <trkpt lat="45.99054" lon="1.39324">
        <ele>499.70129394531</ele>
        <time>2014-06-08T09:30:37Z</time>
      </trkpt>
      <trkpt lat="45.99044" lon="1.39318">
        <ele>497.09490966797</ele>
        <time>2014-06-08T09:30:42Z</time>
      </trkpt>
      <trkpt lat="45.99031" lon="1.39306">
        <ele>493.99468994141</ele>
        <time>2014-06-08T09:30:47Z</time>
      </trkpt>
      <trkpt lat="45.99021" lon="1.39298">
        <ele>491.63897705078</ele>
        <time>2014-06-08T09:30:52Z</time>
      </trkpt>
      <trkpt lat="45.99013" lon="1.39292">
        <ele>489.61474609375</ele>
        <time>2014-06-08T09:30:57Z</time>
      </trkpt>
      <trkpt lat="45.99001" lon="1.39293">
        <ele>486.31973266602</ele>
        <time>2014-06-08T09:31:02Z</time>
      </trkpt>
      <trkpt lat="45.98992" lon="1.39305">
        <ele>484.29504394531</ele>
        <time>2014-06-08T09:31:06Z</time>
      </trkpt>
      <trkpt lat="45.98986" lon="1.39315">
        <ele>483.08279418945</ele>
        <time>2014-06-08T09:31:09Z</time>
      </trkpt>
      <trkpt lat="45.98975" lon="1.39329">
        <ele>481.18395996094</ele>
        <time>2014-06-08T09:31:14Z</time>
      </trkpt>
      <trkpt lat="45.98963" lon="1.3935">
        <ele>477.90170288086</ele>
        <time>2014-06-08T09:31:20Z</time>
      </trkpt>
      <trkpt lat="45.98954" lon="1.39365">
        <ele>475.7868347168</ele>
        <time>2014-06-08T09:31:25Z</time>
      </trkpt>
      <trkpt lat="45.98943" lon="1.39383">
        <ele>473.64053344727</ele>
        <time>2014-06-08T09:31:31Z</time>
      </trkpt>
      <trkpt lat="45.98936" lon="1.39397">
        <ele>472.45263671875</ele>
        <time>2014-06-08T09:31:35Z</time>
      </trkpt>
      <trkpt lat="45.98927" lon="1.39419">
        <ele>471.09323120117</ele>
        <time>2014-06-08T09:31:40Z</time>
      </trkpt>
      <trkpt lat="45.98925" lon="1.39435">
        <ele>469.32104492188</ele>
        <time>2014-06-08T09:31:44Z</time>
      </trkpt>
      <trkpt lat="45.98925" lon="1.39451">
        <ele>467.60470581055</ele>
        <time>2014-06-08T09:31:49Z</time>
      </trkpt>
      <trkpt lat="45.98932" lon="1.3946">
        <ele>466.92813110352</ele>
        <time>2014-06-08T09:31:54Z</time>
      </trkpt>
      <trkpt lat="45.98944" lon="1.39465">
        <ele>466.96182250977</ele>
        <time>2014-06-08T09:31:59Z</time>
      </trkpt>
      <trkpt lat="45.98957" lon="1.39471">
        <ele>466.89797973633</ele>
        <time>2014-06-08T09:32:05Z</time>
      </trkpt>
      <trkpt lat="45.98968" lon="1.39475">
        <ele>466.94259643555</ele>
        <time>2014-06-08T09:32:10Z</time>
      </trkpt>
      <trkpt lat="45.98983" lon="1.39479">
        <ele>467.18566894531</ele>
        <time>2014-06-08T09:32:16Z</time>
      </trkpt>
      <trkpt lat="45.98989" lon="1.39486">
        <ele>466.81365966797</ele>
        <time>2014-06-08T09:32:19Z</time>
      </trkpt>
      <trkpt lat="45.98996" lon="1.39503">
        <ele>465.83847045898</ele>
        <time>2014-06-08T09:32:26Z</time>
      </trkpt>
      <trkpt lat="45.98996" lon="1.39521">
        <ele>465.88653564453</ele>
        <time>2014-06-08T09:32:31Z</time>
      </trkpt>
      <trkpt lat="45.98994" lon="1.39522">
        <ele>465.7158203125</ele>
        <time>2014-06-08T09:32:32Z</time>
      </trkpt>
      <trkpt lat="45.98982" lon="1.39525">
        <ele>464.54699707031</ele>
        <time>2014-06-08T09:32:38Z</time>
      </trkpt>
      <trkpt lat="45.98979" lon="1.39525">
        <ele>464.21017456055</ele>
        <time>2014-06-08T09:32:40Z</time>
      </trkpt>
      <trkpt lat="45.98973" lon="1.39526">
        <ele>463.64013671875</ele>
        <time>2014-06-08T09:32:47Z</time>
      </trkpt>
      <trkpt lat="45.98969" lon="1.39526">
        <ele>463.20895385742</ele>
        <time>2014-06-08T09:32:55Z</time>
      </trkpt>
      <trkpt lat="45.98964" lon="1.39528">
        <ele>462.60177612305</ele>
        <time>2014-06-08T09:33:00Z</time>
      </trkpt>
      <trkpt lat="45.98953" lon="1.3953">
        <ele>461.27728271484</ele>
        <time>2014-06-08T09:33:05Z</time>
      </trkpt>
      <trkpt lat="45.9894" lon="1.39531">
        <ele>459.70550537109</ele>
        <time>2014-06-08T09:33:09Z</time>
      </trkpt>
      <trkpt lat="45.98921" lon="1.39532">
        <ele>457.58938598633</ele>
        <time>2014-06-08T09:33:15Z</time>
      </trkpt>
      <trkpt lat="45.98899" lon="1.39524">
        <ele>455.43371582031</ele>
        <time>2014-06-08T09:33:22Z</time>
      </trkpt>
      <trkpt lat="45.98885" lon="1.3952">
        <ele>453.765625</ele>
        <time>2014-06-08T09:33:27Z</time>
      </trkpt>
      <trkpt lat="45.98871" lon="1.39514">
        <ele>452.17248535156</ele>
        <time>2014-06-08T09:33:32Z</time>
      </trkpt>
      <trkpt lat="45.9886" lon="1.39506">
        <ele>451.12368774414</ele>
        <time>2014-06-08T09:33:37Z</time>
      </trkpt>
      <trkpt lat="45.98845" lon="1.39495">
        <ele>449.35784912109</ele>
        <time>2014-06-08T09:33:42Z</time>
      </trkpt>
      <trkpt lat="45.98833" lon="1.39476">
        <ele>448.05737304688</ele>
        <time>2014-06-08T09:33:48Z</time>
      </trkpt>
      <trkpt lat="45.98818" lon="1.3946">
        <ele>446.13070678711</ele>
        <time>2014-06-08T09:33:54Z</time>
      </trkpt>
      <trkpt lat="45.98808" lon="1.39452">
        <ele>444.63955688477</ele>
        <time>2014-06-08T09:33:58Z</time>
      </trkpt>
      <trkpt lat="45.98803" lon="1.39447">
        <ele>443.89358520508</ele>
        <time>2014-06-08T09:34:00Z</time>
      </trkpt>
      <trkpt lat="45.98801" lon="1.39446">
        <ele>443.45416259766</ele>
        <time>2014-06-08T09:34:01Z</time>
      </trkpt>
      <trkpt lat="45.98797" lon="1.39447">
        <ele>442.70526123047</ele>
        <time>2014-06-08T09:34:03Z</time>
      </trkpt>
      <trkpt lat="45.98787" lon="1.39458">
        <ele>440.39974975586</ele>
        <time>2014-06-08T09:34:08Z</time>
      </trkpt>
      <trkpt lat="45.9878" lon="1.39457">
        <ele>439.22845458984</ele>
        <time>2014-06-08T09:34:11Z</time>
      </trkpt>
      <trkpt lat="45.98767" lon="1.39458">
        <ele>436.69241333008</ele>
        <time>2014-06-08T09:34:16Z</time>
      </trkpt>
      <trkpt lat="45.98751" lon="1.39456">
        <ele>433.87103271484</ele>
        <time>2014-06-08T09:34:21Z</time>
      </trkpt>
      <trkpt lat="45.98734" lon="1.39455">
        <ele>431.95953369141</ele>
        <time>2014-06-08T09:34:27Z</time>
      </trkpt>
      <trkpt lat="45.98717" lon="1.39455">
        <ele>430.27667236328</ele>
        <time>2014-06-08T09:34:33Z</time>
      </trkpt>
      <trkpt lat="45.98708" lon="1.39456">
        <ele>429.31359863281</ele>
        <time>2014-06-08T09:34:37Z</time>
      </trkpt>
      <trkpt lat="45.98692" lon="1.39454">
        <ele>427.65734863281</ele>
        <time>2014-06-08T09:34:43Z</time>
      </trkpt>
      <trkpt lat="45.98673" lon="1.39454">
        <ele>425.78460693359</ele>
        <time>2014-06-08T09:34:50Z</time>
      </trkpt>
      <trkpt lat="45.98661" lon="1.39453">
        <ele>424.49960327148</ele>
        <time>2014-06-08T09:34:55Z</time>
      </trkpt>
      <trkpt lat="45.9865" lon="1.39452">
        <ele>423.29132080078</ele>
        <time>2014-06-08T09:35:00Z</time>
      </trkpt>
      <trkpt lat="45.98636" lon="1.39452">
        <ele>421.75769042969</ele>
        <time>2014-06-08T09:35:06Z</time>
      </trkpt>
      <trkpt lat="45.98622" lon="1.39454">
        <ele>420.18249511719</ele>
        <time>2014-06-08T09:35:12Z</time>
      </trkpt>
      <trkpt lat="45.98608" lon="1.39457">
        <ele>418.65594482422</ele>
        <time>2014-06-08T09:35:18Z</time>
      </trkpt>
      <trkpt lat="45.98595" lon="1.39461">
        <ele>417.27471923828</ele>
        <time>2014-06-08T09:35:24Z</time>
      </trkpt>
      <trkpt lat="45.98583" lon="1.39466">
        <ele>416.16256713867</ele>
        <time>2014-06-08T09:35:29Z</time>
      </trkpt>
      <trkpt lat="45.98577" lon="1.39468">
        <ele>415.57736206055</ele>
        <time>2014-06-08T09:35:32Z</time>
      </trkpt>
      <trkpt lat="45.98566" lon="1.39467">
        <ele>414.25238037109</ele>
        <time>2014-06-08T09:35:39Z</time>
      </trkpt>
      <trkpt lat="45.98562" lon="1.39466">
        <ele>413.81411743164</ele>
        <time>2014-06-08T09:35:41Z</time>
      </trkpt>
      <trkpt lat="45.9854" lon="1.39457">
        <ele>411.33389282227</ele>
        <time>2014-06-08T09:35:50Z</time>
      </trkpt>
      <trkpt lat="45.98529" lon="1.39448">
        <ele>410.21060180664</ele>
        <time>2014-06-08T09:35:56Z</time>
      </trkpt>
      <trkpt lat="45.98523" lon="1.39444">
        <ele>409.67041015625</ele>
        <time>2014-06-08T09:35:59Z</time>
      </trkpt>
      <trkpt lat="45.98512" lon="1.39443">
        <ele>408.517578125</ele>
        <time>2014-06-08T09:36:05Z</time>
      </trkpt>
      <trkpt lat="45.98502" lon="1.39443">
        <ele>407.55764770508</ele>
        <time>2014-06-08T09:36:10Z</time>
      </trkpt>
      <trkpt lat="45.98492" lon="1.39443">
        <ele>406.98370361328</ele>
        <time>2014-06-08T09:36:14Z</time>
      </trkpt>
      <trkpt lat="45.98489" lon="1.39439">
        <ele>406.90057373047</ele>
        <time>2014-06-08T09:36:16Z</time>
      </trkpt>
      <trkpt lat="45.98483" lon="1.39425">
        <ele>406.97174072266</ele>
        <time>2014-06-08T09:36:21Z</time>
      </trkpt>
      <trkpt lat="45.98475" lon="1.39418">
        <ele>406.78698730469</ele>
        <time>2014-06-08T09:36:25Z</time>
      </trkpt>
      <trkpt lat="45.98462" lon="1.3941">
        <ele>406.53463745117</ele>
        <time>2014-06-08T09:36:30Z</time>
      </trkpt>
      <trkpt lat="45.98453" lon="1.3941">
        <ele>406.11083984375</ele>
        <time>2014-06-08T09:36:34Z</time>
      </trkpt>
      <trkpt lat="45.98437" lon="1.39406">
        <ele>405.46466064453</ele>
        <time>2014-06-08T09:36:39Z</time>
      </trkpt>
      <trkpt lat="45.98422" lon="1.39403">
        <ele>404.78936767578</ele>
        <time>2014-06-08T09:36:44Z</time>
      </trkpt>
      <trkpt lat="45.98411" lon="1.39402">
        <ele>404.79843139648</ele>
        <time>2014-06-08T09:36:49Z</time>
      </trkpt>
      <trkpt lat="45.98396" lon="1.39404">
        <ele>405.3782043457</ele>
        <time>2014-06-08T09:36:55Z</time>
      </trkpt>
      <trkpt lat="45.98382" lon="1.3941">
        <ele>405.66192626953</ele>
        <time>2014-06-08T09:37:01Z</time>
      </trkpt>
      <trkpt lat="45.98368" lon="1.39414">
        <ele>405.90563964844</ele>
        <time>2014-06-08T09:37:07Z</time>
      </trkpt>
      <trkpt lat="45.98354" lon="1.39416">
        <ele>406.27526855469</ele>
        <time>2014-06-08T09:37:13Z</time>
      </trkpt>
      <trkpt lat="45.98342" lon="1.39418">
        <ele>406.57287597656</ele>
        <time>2014-06-08T09:37:18Z</time>
      </trkpt>
      <trkpt lat="45.98325" lon="1.3942">
        <ele>406.75234985352</ele>
        <time>2014-06-08T09:37:25Z</time>
      </trkpt>
      <trkpt lat="45.98314" lon="1.39422">
        <ele>406.6862487793</ele>
        <time>2014-06-08T09:37:30Z</time>
      </trkpt>
      <trkpt lat="45.98302" lon="1.39426">
        <ele>406.40072631836</ele>
        <time>2014-06-08T09:37:36Z</time>
      </trkpt>
      <trkpt lat="45.98293" lon="1.39428">
        <ele>406.28970336914</ele>
        <time>2014-06-08T09:37:41Z</time>
      </trkpt>
      <trkpt lat="45.98285" lon="1.3943">
        <ele>406.11361694336</ele>
        <time>2014-06-08T09:37:45Z</time>
      </trkpt>
      <trkpt lat="45.98276" lon="1.39433">
        <ele>405.96786499023</ele>
        <time>2014-06-08T09:37:49Z</time>
      </trkpt>
      <trkpt lat="45.9826" lon="1.39438">
        <ele>405.55615234375</ele>
        <time>2014-06-08T09:37:55Z</time>
      </trkpt>
      <trkpt lat="45.98249" lon="1.39444">
        <ele>405.10369873047</ele>
        <time>2014-06-08T09:38:00Z</time>
      </trkpt>
      <trkpt lat="45.98236" lon="1.3945">
        <ele>405.16049194336</ele>
        <time>2014-06-08T09:38:05Z</time>
      </trkpt>
      <trkpt lat="45.98225" lon="1.39454">
        <ele>405.20733642578</ele>
        <time>2014-06-08T09:38:10Z</time>
      </trkpt>
      <trkpt lat="45.98218" lon="1.39459">
        <ele>404.98803710938</ele>
        <time>2014-06-08T09:38:14Z</time>
      </trkpt>
      <trkpt lat="45.98203" lon="1.3947">
        <ele>404.34390258789</ele>
        <time>2014-06-08T09:38:21Z</time>
      </trkpt>
      <trkpt lat="45.98193" lon="1.39475">
        <ele>404.17504882812</ele>
        <time>2014-06-08T09:38:26Z</time>
      </trkpt>
      <trkpt lat="45.98192" lon="1.39476">
        <ele>404.09527587891</ele>
        <time>2014-06-08T09:38:27Z</time>
      </trkpt>
      <trkpt lat="45.98178" lon="1.39475">
        <ele>404.80758666992</ele>
        <time>2014-06-08T09:38:33Z</time>
      </trkpt>
      <trkpt lat="45.98162" lon="1.39473">
        <ele>405.8434753418</ele>
        <time>2014-06-08T09:38:39Z</time>
      </trkpt>
      <trkpt lat="45.98146" lon="1.39473">
        <ele>406.99389648438</ele>
        <time>2014-06-08T09:38:45Z</time>
      </trkpt>
      <trkpt lat="45.98132" lon="1.39474">
        <ele>407.97668457031</ele>
        <time>2014-06-08T09:38:50Z</time>
      </trkpt>
      <trkpt lat="45.98119" lon="1.39475">
        <ele>408.76748657227</ele>
        <time>2014-06-08T09:38:55Z</time>
      </trkpt>
      <trkpt lat="45.98109" lon="1.39476">
        <ele>409.27346801758</ele>
        <time>2014-06-08T09:38:59Z</time>
      </trkpt>
      <trkpt lat="45.98098" lon="1.39477">
        <ele>409.81719970703</ele>
        <time>2014-06-08T09:39:05Z</time>
      </trkpt>
      <trkpt lat="45.98095" lon="1.39471">
        <ele>410.94906616211</ele>
        <time>2014-06-08T09:39:08Z</time>
      </trkpt>
      <trkpt lat="45.98098" lon="1.3946">
        <ele>412.52688598633</ele>
        <time>2014-06-08T09:39:15Z</time>
      </trkpt>
      <trkpt lat="45.981" lon="1.39458">
        <ele>412.69616699219</ele>
        <time>2014-06-08T09:39:17Z</time>
      </trkpt>
      <trkpt lat="45.98106" lon="1.39453">
        <ele>413.099609375</ele>
        <time>2014-06-08T09:39:22Z</time>
      </trkpt>
      <trkpt lat="45.9811" lon="1.39449">
        <ele>413.37673950195</ele>
        <time>2014-06-08T09:39:26Z</time>
      </trkpt>
      <trkpt lat="45.98112" lon="1.39447">
        <ele>413.53225708008</ele>
        <time>2014-06-08T09:39:29Z</time>
      </trkpt>
      <trkpt lat="45.98113" lon="1.39444">
        <ele>413.85507202148</ele>
        <time>2014-06-08T09:39:31Z</time>
      </trkpt>
      <trkpt lat="45.98119" lon="1.39442">
        <ele>413.67037963867</ele>
        <time>2014-06-08T09:39:36Z</time>
      </trkpt>
      <trkpt lat="45.98121" lon="1.3944">
        <ele>413.83767700195</ele>
        <time>2014-06-08T09:39:39Z</time>
      </trkpt>
      <trkpt lat="45.98124" lon="1.39432">
        <ele>414.76840209961</ele>
        <time>2014-06-08T09:39:45Z</time>
      </trkpt>
      <trkpt lat="45.98125" lon="1.39428">
        <ele>415.24365234375</ele>
        <time>2014-06-08T09:39:47Z</time>
      </trkpt>
      <trkpt lat="45.98128" lon="1.3942">
        <ele>416.14974975586</ele>
        <time>2014-06-08T09:39:53Z</time>
      </trkpt>
      <trkpt lat="45.98129" lon="1.39413">
        <ele>417.10665893555</ele>
        <time>2014-06-08T09:39:59Z</time>
      </trkpt>
      <trkpt lat="45.9813" lon="1.39412">
        <ele>417.22122192383</ele>
        <time>2014-06-08T09:40:00Z</time>
      </trkpt>
      <trkpt lat="45.98138" lon="1.39405">
        <ele>417.3173828125</ele>
        <time>2014-06-08T09:40:05Z</time>
      </trkpt>
      <trkpt lat="45.9814" lon="1.39404">
        <ele>417.27743530273</ele>
        <time>2014-06-08T09:40:06Z</time>
      </trkpt>
      <trkpt lat="45.98145" lon="1.39395">
        <ele>418.04861450195</ele>
        <time>2014-06-08T09:40:12Z</time>
      </trkpt>
      <trkpt lat="45.98148" lon="1.39392">
        <ele>418.19650268555</ele>
        <time>2014-06-08T09:40:14Z</time>
      </trkpt>
      <trkpt lat="45.98153" lon="1.3938">
        <ele>419.33511352539</ele>
        <time>2014-06-08T09:40:20Z</time>
      </trkpt>
      <trkpt lat="45.98154" lon="1.39372">
        <ele>420.34585571289</ele>
        <time>2014-06-08T09:40:25Z</time>
      </trkpt>
      <trkpt lat="45.98148" lon="1.39356">
        <ele>423.19241333008</ele>
        <time>2014-06-08T09:40:31Z</time>
      </trkpt>
      <trkpt lat="45.98144" lon="1.39346">
        <ele>425.01159667969</ele>
        <time>2014-06-08T09:40:35Z</time>
      </trkpt>
      <trkpt lat="45.98146" lon="1.39331">
        <ele>426.68963623047</ele>
        <time>2014-06-08T09:40:43Z</time>
      </trkpt>
      <trkpt lat="45.98146" lon="1.39329">
        <ele>426.76779174805</ele>
        <time>2014-06-08T09:40:44Z</time>
      </trkpt>
      <trkpt lat="45.98149" lon="1.3932">
        <ele>427.04037475586</ele>
        <time>2014-06-08T09:40:50Z</time>
      </trkpt>
      <trkpt lat="45.98149" lon="1.39317">
        <ele>427.24990844727</ele>
        <time>2014-06-08T09:40:52Z</time>
      </trkpt>
      <trkpt lat="45.98148" lon="1.39314">
        <ele>427.48318481445</ele>
        <time>2014-06-08T09:40:54Z</time>
      </trkpt>
      <trkpt lat="45.98151" lon="1.39302">
        <ele>428.06546020508</ele>
        <time>2014-06-08T09:41:01Z</time>
      </trkpt>
      <trkpt lat="45.9815" lon="1.39293">
        <ele>428.68273925781</ele>
        <time>2014-06-08T09:41:05Z</time>
      </trkpt>
      <trkpt lat="45.98147" lon="1.39288">
        <ele>429.35305786133</ele>
        <time>2014-06-08T09:41:08Z</time>
      </trkpt>
      <trkpt lat="45.98147" lon="1.39283">
        <ele>429.69882202148</ele>
        <time>2014-06-08T09:41:11Z</time>
      </trkpt>
      <trkpt lat="45.98148" lon="1.39272">
        <ele>430.35952758789</ele>
        <time>2014-06-08T09:41:18Z</time>
      </trkpt>
      <trkpt lat="45.98144" lon="1.39262">
        <ele>431.37954711914</ele>
        <time>2014-06-08T09:41:25Z</time>
      </trkpt>
      <trkpt lat="45.98141" lon="1.39258">
        <ele>431.986328125</ele>
        <time>2014-06-08T09:41:28Z</time>
      </trkpt>
      <trkpt lat="45.98138" lon="1.39251">
        <ele>432.6667175293</ele>
        <time>2014-06-08T09:41:33Z</time>
      </trkpt>
      <trkpt lat="45.98137" lon="1.39245">
        <ele>433.14114379883</ele>
        <time>2014-06-08T09:41:36Z</time>
      </trkpt>
      <trkpt lat="45.98137" lon="1.39233">
        <ele>433.8122253418</ele>
        <time>2014-06-08T09:41:43Z</time>
      </trkpt>
      <trkpt lat="45.98135" lon="1.39224">
        <ele>434.4035949707</ele>
        <time>2014-06-08T09:41:47Z</time>
      </trkpt>
      <trkpt lat="45.98129" lon="1.39211">
        <ele>435.4059753418</ele>
        <time>2014-06-08T09:41:54Z</time>
      </trkpt>
      <trkpt lat="45.98125" lon="1.39201">
        <ele>436.09170532227</ele>
        <time>2014-06-08T09:42:00Z</time>
      </trkpt>
      <trkpt lat="45.98119" lon="1.39192">
        <ele>436.67047119141</ele>
        <time>2014-06-08T09:42:06Z</time>
      </trkpt>
      <trkpt lat="45.98114" lon="1.39184">
        <ele>437.07302856445</ele>
        <time>2014-06-08T09:42:13Z</time>
      </trkpt>
      <trkpt lat="45.9811" lon="1.39178">
        <ele>437.3606262207</ele>
        <time>2014-06-08T09:42:19Z</time>
      </trkpt>
      <trkpt lat="45.98104" lon="1.39173">
        <ele>437.62814331055</ele>
        <time>2014-06-08T09:42:24Z</time>
      </trkpt>
      <trkpt lat="45.98098" lon="1.39168">
        <ele>437.80432128906</ele>
        <time>2014-06-08T09:42:30Z</time>
      </trkpt>
      <trkpt lat="45.98092" lon="1.39166">
        <ele>437.92050170898</ele>
        <time>2014-06-08T09:42:36Z</time>
      </trkpt>
      <trkpt lat="45.98091" lon="1.39166">
        <ele>437.98416137695</ele>
        <time>2014-06-08T09:42:37Z</time>
      </trkpt>
      <trkpt lat="45.98084" lon="1.39164">
        <ele>438.30264282227</ele>
        <time>2014-06-08T09:42:44Z</time>
      </trkpt>
      <trkpt lat="45.98075" lon="1.39165">
        <ele>437.58322143555</ele>
        <time>2014-06-08T09:42:51Z</time>
      </trkpt>
      <trkpt lat="45.98066" lon="1.39164">
        <ele>436.9641418457</ele>
        <time>2014-06-08T09:42:58Z</time>
      </trkpt>
      <trkpt lat="45.98056" lon="1.39162">
        <ele>436.41989135742</ele>
        <time>2014-06-08T09:43:05Z</time>
      </trkpt>
      <trkpt lat="45.98055" lon="1.39162">
        <ele>436.31149291992</ele>
        <time>2014-06-08T09:43:06Z</time>
      </trkpt>
      <trkpt lat="45.98045" lon="1.39157">
        <ele>436.4621887207</ele>
        <time>2014-06-08T09:43:12Z</time>
      </trkpt>
      <trkpt lat="45.98031" lon="1.39144">
        <ele>437.73803710938</ele>
        <time>2014-06-08T09:43:18Z</time>
      </trkpt>
      <trkpt lat="45.98018" lon="1.39137">
        <ele>438.32894897461</ele>
        <time>2014-06-08T09:43:23Z</time>
      </trkpt>
      <trkpt lat="45.98004" lon="1.39136">
        <ele>437.80804443359</ele>
        <time>2014-06-08T09:43:29Z</time>
      </trkpt>
      <trkpt lat="45.97992" lon="1.39134">
        <ele>437.27056884766</ele>
        <time>2014-06-08T09:43:34Z</time>
      </trkpt>
      <trkpt lat="45.9798" lon="1.39128">
        <ele>437.30346679688</ele>
        <time>2014-06-08T09:43:39Z</time>
      </trkpt>
      <trkpt lat="45.97973" lon="1.39123">
        <ele>437.48657226562</ele>
        <time>2014-06-08T09:43:42Z</time>
      </trkpt>
      <trkpt lat="45.97961" lon="1.39116">
        <ele>437.77056884766</ele>
        <time>2014-06-08T09:43:47Z</time>
      </trkpt>
      <trkpt lat="45.9795" lon="1.39112">
        <ele>437.29891967773</ele>
        <time>2014-06-08T09:43:52Z</time>
      </trkpt>
      <trkpt lat="45.97935" lon="1.39108">
        <ele>436.28323364258</ele>
        <time>2014-06-08T09:43:58Z</time>
      </trkpt>
      <trkpt lat="45.97918" lon="1.39108">
        <ele>434.38421630859</ele>
        <time>2014-06-08T09:44:05Z</time>
      </trkpt>
      <trkpt lat="45.97906" lon="1.3911">
        <ele>433.93185424805</ele>
        <time>2014-06-08T09:44:10Z</time>
      </trkpt>
      <trkpt lat="45.97893" lon="1.39113">
        <ele>433.46820068359</ele>
        <time>2014-06-08T09:44:16Z</time>
      </trkpt>
      <trkpt lat="45.97874" lon="1.39117">
        <ele>433.12789916992</ele>
        <time>2014-06-08T09:44:25Z</time>
      </trkpt>
      <trkpt lat="45.97861" lon="1.39121">
        <ele>432.73211669922</ele>
        <time>2014-06-08T09:44:31Z</time>
      </trkpt>
      <trkpt lat="45.97845" lon="1.39131">
        <ele>432.21774291992</ele>
        <time>2014-06-08T09:44:39Z</time>
      </trkpt>
      <trkpt lat="45.97833" lon="1.39135">
        <ele>432.22399902344</ele>
        <time>2014-06-08T09:44:45Z</time>
      </trkpt>
      <trkpt lat="45.97827" lon="1.39136">
        <ele>431.7839050293</ele>
        <time>2014-06-08T09:44:48Z</time>
      </trkpt>
      <trkpt lat="45.97822" lon="1.39128">
        <ele>432.02282714844</ele>
        <time>2014-06-08T09:44:54Z</time>
      </trkpt>
      <trkpt lat="45.97823" lon="1.39113">
        <ele>433.0068359375</ele>
        <time>2014-06-08T09:45:01Z</time>
      </trkpt>
      <trkpt lat="45.97827" lon="1.39107">
        <ele>433.77987670898</ele>
        <time>2014-06-08T09:45:06Z</time>
      </trkpt>
      <trkpt lat="45.97833" lon="1.39094">
        <ele>435.19000244141</ele>
        <time>2014-06-08T09:45:14Z</time>
      </trkpt>
      <trkpt lat="45.97837" lon="1.39087">
        <ele>435.85089111328</ele>
        <time>2014-06-08T09:45:19Z</time>
      </trkpt>
      <trkpt lat="45.9784" lon="1.3908">
        <ele>436.3522644043</ele>
        <time>2014-06-08T09:45:23Z</time>
      </trkpt>
      <trkpt lat="45.97847" lon="1.39066">
        <ele>437.2991027832</ele>
        <time>2014-06-08T09:45:32Z</time>
      </trkpt>
      <trkpt lat="45.97852" lon="1.39057">
        <ele>438.12182617188</ele>
        <time>2014-06-08T09:45:38Z</time>
      </trkpt>
      <trkpt lat="45.97854" lon="1.39054">
        <ele>438.51928710938</ele>
        <time>2014-06-08T09:45:41Z</time>
      </trkpt>
      <trkpt lat="45.97856" lon="1.3905">
        <ele>438.93051147461</ele>
        <time>2014-06-08T09:45:44Z</time>
      </trkpt>
      <trkpt lat="45.97859" lon="1.39047">
        <ele>439.44259643555</ele>
        <time>2014-06-08T09:45:50Z</time>
      </trkpt>
      <trkpt lat="45.97859" lon="1.39046">
        <ele>439.48190307617</ele>
        <time>2014-06-08T09:45:57Z</time>
      </trkpt>
      <trkpt lat="45.9786" lon="1.39046">
        <ele>439.62686157227</ele>
        <time>2014-06-08T09:46:08Z</time>
      </trkpt>
      <trkpt lat="45.97861" lon="1.39045">
        <ele>439.73046875</ele>
        <time>2014-06-08T09:46:15Z</time>
      </trkpt>
      <trkpt lat="45.97863" lon="1.39043">
        <ele>440.10006713867</ele>
        <time>2014-06-08T09:46:17Z</time>
      </trkpt>
      <trkpt lat="45.97867" lon="1.39038">
        <ele>440.87860107422</ele>
        <time>2014-06-08T09:46:21Z</time>
      </trkpt>
      <trkpt lat="45.97868" lon="1.39036">
        <ele>441.25433349609</ele>
        <time>2014-06-08T09:46:23Z</time>
      </trkpt>
      <trkpt lat="45.97865" lon="1.39028">
        <ele>441.40823364258</ele>
        <time>2014-06-08T09:46:27Z</time>
      </trkpt>
      <trkpt lat="45.97865" lon="1.39027">
        <ele>441.54907226562</ele>
        <time>2014-06-08T09:46:33Z</time>
      </trkpt>
      <trkpt lat="45.97863" lon="1.39025">
        <ele>441.45147705078</ele>
        <time>2014-06-08T09:46:37Z</time>
      </trkpt>
      <trkpt lat="45.9786" lon="1.39019">
        <ele>441.49435424805</ele>
        <time>2014-06-08T09:46:42Z</time>
      </trkpt>
      <trkpt lat="45.97857" lon="1.39011">
        <ele>441.5505065918</ele>
        <time>2014-06-08T09:46:47Z</time>
      </trkpt>
      <trkpt lat="45.9785" lon="1.38998">
        <ele>440.95120239258</ele>
        <time>2014-06-08T09:46:57Z</time>
      </trkpt>
      <trkpt lat="45.97847" lon="1.38991">
        <ele>440.14416503906</ele>
        <time>2014-06-08T09:47:01Z</time>
      </trkpt>
      <trkpt lat="45.97843" lon="1.38982">
        <ele>439.14974975586</ele>
        <time>2014-06-08T09:47:05Z</time>
      </trkpt>
      <trkpt lat="45.97839" lon="1.38973">
        <ele>438.19549560547</ele>
        <time>2014-06-08T09:47:10Z</time>
      </trkpt>
      <trkpt lat="45.97839" lon="1.38963">
        <ele>437.72344970703</ele>
        <time>2014-06-08T09:47:15Z</time>
      </trkpt>
      <trkpt lat="45.97839" lon="1.38959">
        <ele>437.60986328125</ele>
        <time>2014-06-08T09:47:17Z</time>
      </trkpt>
      <trkpt lat="45.97845" lon="1.3895">
        <ele>438.63830566406</ele>
        <time>2014-06-08T09:47:24Z</time>
      </trkpt>
      <trkpt lat="45.97847" lon="1.38947">
        <ele>438.88229370117</ele>
        <time>2014-06-08T09:47:26Z</time>
      </trkpt>
      <trkpt lat="45.97847" lon="1.38935">
        <ele>438.70150756836</ele>
        <time>2014-06-08T09:47:30Z</time>
      </trkpt>
      <trkpt lat="45.97848" lon="1.38928">
        <ele>438.67626953125</ele>
        <time>2014-06-08T09:47:32Z</time>
      </trkpt>
      <trkpt lat="45.97854" lon="1.38914">
        <ele>439.61782836914</ele>
        <time>2014-06-08T09:47:37Z</time>
      </trkpt>
      <trkpt lat="45.97855" lon="1.38896">
        <ele>439.54638671875</ele>
        <time>2014-06-08T09:47:41Z</time>
      </trkpt>
      <trkpt lat="45.97856" lon="1.3889">
        <ele>439.49172973633</ele>
        <time>2014-06-08T09:47:42Z</time>
      </trkpt>
      <trkpt lat="45.97855" lon="1.38865">
        <ele>438.74114990234</ele>
        <time>2014-06-08T09:47:47Z</time>
      </trkpt>
      <trkpt lat="45.97868" lon="1.38844">
        <ele>439.75344848633</ele>
        <time>2014-06-08T09:47:54Z</time>
      </trkpt>
      <trkpt lat="45.97877" lon="1.38828">
        <ele>440.44479370117</ele>
        <time>2014-06-08T09:47:59Z</time>
      </trkpt>
      <trkpt lat="45.97889" lon="1.38818">
        <ele>441.51919555664</ele>
        <time>2014-06-08T09:48:04Z</time>
      </trkpt>
      <trkpt lat="45.97901" lon="1.38807">
        <ele>441.86172485352</ele>
        <time>2014-06-08T09:48:09Z</time>
      </trkpt>
      <trkpt lat="45.97913" lon="1.38794">
        <ele>441.26016235352</ele>
        <time>2014-06-08T09:48:15Z</time>
      </trkpt>
      <trkpt lat="45.97926" lon="1.38779">
        <ele>441.61401367188</ele>
        <time>2014-06-08T09:48:21Z</time>
      </trkpt>
      <trkpt lat="45.97932" lon="1.38771">
        <ele>442.06146240234</ele>
        <time>2014-06-08T09:48:26Z</time>
      </trkpt>
      <trkpt lat="45.97934" lon="1.38767">
        <ele>442.17733764648</ele>
        <time>2014-06-08T09:48:29Z</time>
      </trkpt>
      <trkpt lat="45.97937" lon="1.38754">
        <ele>441.80255126953</ele>
        <time>2014-06-08T09:48:35Z</time>
      </trkpt>
      <trkpt lat="45.97945" lon="1.38736">
        <ele>443.35906982422</ele>
        <time>2014-06-08T09:48:41Z</time>
      </trkpt>
      <trkpt lat="45.97957" lon="1.38719">
        <ele>445.40594482422</ele>
        <time>2014-06-08T09:48:47Z</time>
      </trkpt>
      <trkpt lat="45.97961" lon="1.38706">
        <ele>445.99365234375</ele>
        <time>2014-06-08T09:48:52Z</time>
      </trkpt>
      <trkpt lat="45.97956" lon="1.38684">
        <ele>446.11492919922</ele>
        <time>2014-06-08T09:48:57Z</time>
      </trkpt>
      <trkpt lat="45.97957" lon="1.38666">
        <ele>446.57772827148</ele>
        <time>2014-06-08T09:49:02Z</time>
      </trkpt>
      <trkpt lat="45.97959" lon="1.38657">
        <ele>447.47622680664</ele>
        <time>2014-06-08T09:49:05Z</time>
      </trkpt>
      <trkpt lat="45.97952" lon="1.38645">
        <ele>449.21789550781</ele>
        <time>2014-06-08T09:49:09Z</time>
      </trkpt>
      <trkpt lat="45.97945" lon="1.38635">
        <ele>450.98678588867</ele>
        <time>2014-06-08T09:49:12Z</time>
      </trkpt>
      <trkpt lat="45.97939" lon="1.38633">
        <ele>451.93090820312</ele>
        <time>2014-06-08T09:49:17Z</time>
      </trkpt>
      <trkpt lat="45.97937" lon="1.3864">
        <ele>450.873046875</ele>
        <time>2014-06-08T09:49:23Z</time>
      </trkpt>
      <trkpt lat="45.97932" lon="1.38634">
        <ele>452.21774291992</ele>
        <time>2014-06-08T09:49:29Z</time>
      </trkpt>
      <trkpt lat="45.97931" lon="1.38633">
        <ele>452.53170776367</ele>
        <time>2014-06-08T09:49:30Z</time>
      </trkpt>
      <trkpt lat="45.97922" lon="1.38631">
        <ele>453.76141357422</ele>
        <time>2014-06-08T09:49:37Z</time>
      </trkpt>
      <trkpt lat="45.9792" lon="1.38634">
        <ele>453.27117919922</ele>
        <time>2014-06-08T09:49:41Z</time>
      </trkpt>
      <trkpt lat="45.97917" lon="1.38636">
        <ele>453.19833374023</ele>
        <time>2014-06-08T09:49:46Z</time>
      </trkpt>
      <trkpt lat="45.97914" lon="1.38638">
        <ele>453.71041870117</ele>
        <time>2014-06-08T09:49:50Z</time>
      </trkpt>
      <trkpt lat="45.97909" lon="1.3864">
        <ele>454.67825317383</ele>
        <time>2014-06-08T09:49:55Z</time>
      </trkpt>
      <trkpt lat="45.97906" lon="1.38644">
        <ele>454.78967285156</ele>
        <time>2014-06-08T09:49:59Z</time>
      </trkpt>
      <trkpt lat="45.97898" lon="1.38653">
        <ele>455.13043212891</ele>
        <time>2014-06-08T09:50:05Z</time>
      </trkpt>
      <trkpt lat="45.9789" lon="1.38662">
        <ele>455.61029052734</ele>
        <time>2014-06-08T09:50:10Z</time>
      </trkpt>
      <trkpt lat="45.97882" lon="1.38676">
        <ele>455.59457397461</ele>
        <time>2014-06-08T09:50:15Z</time>
      </trkpt>
      <trkpt lat="45.97873" lon="1.38688">
        <ele>455.85919189453</ele>
        <time>2014-06-08T09:50:20Z</time>
      </trkpt>
      <trkpt lat="45.97863" lon="1.38696">
        <ele>456.7646484375</ele>
        <time>2014-06-08T09:50:25Z</time>
      </trkpt>
      <trkpt lat="45.97853" lon="1.38705">
        <ele>457.34671020508</ele>
        <time>2014-06-08T09:50:30Z</time>
      </trkpt>
      <trkpt lat="45.97849" lon="1.38708">
        <ele>457.56478881836</ele>
        <time>2014-06-08T09:50:32Z</time>
      </trkpt>
      <trkpt lat="45.97839" lon="1.38721">
        <ele>456.83721923828</ele>
        <time>2014-06-08T09:50:38Z</time>
      </trkpt>
      <trkpt lat="45.97832" lon="1.38728">
        <ele>456.61953735352</ele>
        <time>2014-06-08T09:50:43Z</time>
      </trkpt>
      <trkpt lat="45.97827" lon="1.38734">
        <ele>456.33972167969</ele>
        <time>2014-06-08T09:50:48Z</time>
      </trkpt>
      <trkpt lat="45.97821" lon="1.3874">
        <ele>456.58349609375</ele>
        <time>2014-06-08T09:50:53Z</time>
      </trkpt>
      <trkpt lat="45.97814" lon="1.38746">
        <ele>456.85757446289</ele>
        <time>2014-06-08T09:50:58Z</time>
      </trkpt>
      <trkpt lat="45.97812" lon="1.38751">
        <ele>456.25454711914</ele>
        <time>2014-06-08T09:51:02Z</time>
      </trkpt>
      <trkpt lat="45.97804" lon="1.38755">
        <ele>457.51239013672</ele>
        <time>2014-06-08T09:51:06Z</time>
      </trkpt>
      <trkpt lat="45.97802" lon="1.38759">
        <ele>457.28225708008</ele>
        <time>2014-06-08T09:51:09Z</time>
      </trkpt>
      <trkpt lat="45.97801" lon="1.3876">
        <ele>457.25994873047</ele>
        <time>2014-06-08T09:51:10Z</time>
      </trkpt>
      <trkpt lat="45.97798" lon="1.38764">
        <ele>457.24490356445</ele>
        <time>2014-06-08T09:51:13Z</time>
      </trkpt>
      <trkpt lat="45.97788" lon="1.38774">
        <ele>457.92919921875</ele>
        <time>2014-06-08T09:51:20Z</time>
      </trkpt>
      <trkpt lat="45.97785" lon="1.38777">
        <ele>458.1760559082</ele>
        <time>2014-06-08T09:51:22Z</time>
      </trkpt>
      <trkpt lat="45.97776" lon="1.38785">
        <ele>458.84368896484</ele>
        <time>2014-06-08T09:51:27Z</time>
      </trkpt>
      <trkpt lat="45.97763" lon="1.38797">
        <ele>459.83236694336</ele>
        <time>2014-06-08T09:51:33Z</time>
      </trkpt>
      <trkpt lat="45.97754" lon="1.38807">
        <ele>460.0856628418</ele>
        <time>2014-06-08T09:51:38Z</time>
      </trkpt>
      <trkpt lat="45.97746" lon="1.38821">
        <ele>459.87228393555</ele>
        <time>2014-06-08T09:51:43Z</time>
      </trkpt>
      <trkpt lat="45.97742" lon="1.38827">
        <ele>459.97250366211</ele>
        <time>2014-06-08T09:51:46Z</time>
      </trkpt>
      <trkpt lat="45.97737" lon="1.38833">
        <ele>460.50112915039</ele>
        <time>2014-06-08T09:51:50Z</time>
      </trkpt>
      <trkpt lat="45.97736" lon="1.38839">
        <ele>460.14041137695</ele>
        <time>2014-06-08T09:51:53Z</time>
      </trkpt>
      <trkpt lat="45.97726" lon="1.3885">
        <ele>461.66302490234</ele>
        <time>2014-06-08T09:52:01Z</time>
      </trkpt>
      <trkpt lat="45.97722" lon="1.38855">
        <ele>462.13067626953</ele>
        <time>2014-06-08T09:52:05Z</time>
      </trkpt>
      <trkpt lat="45.97717" lon="1.38865">
        <ele>462.52981567383</ele>
        <time>2014-06-08T09:52:12Z</time>
      </trkpt>
      <trkpt lat="45.97713" lon="1.38871">
        <ele>462.97418212891</ele>
        <time>2014-06-08T09:52:17Z</time>
      </trkpt>
      <trkpt lat="45.97709" lon="1.38875">
        <ele>463.64346313477</ele>
        <time>2014-06-08T09:52:21Z</time>
      </trkpt>
      <trkpt lat="45.97704" lon="1.38883">
        <ele>464.13296508789</ele>
        <time>2014-06-08T09:52:27Z</time>
      </trkpt>
      <trkpt lat="45.97699" lon="1.38886">
        <ele>465.34237670898</ele>
        <time>2014-06-08T09:52:32Z</time>
      </trkpt>
      <trkpt lat="45.97694" lon="1.3889">
        <ele>466.04568481445</ele>
        <time>2014-06-08T09:52:37Z</time>
      </trkpt>
      <trkpt lat="45.97688" lon="1.38894">
        <ele>467.80084228516</ele>
        <time>2014-06-08T09:52:42Z</time>
      </trkpt>
      <trkpt lat="45.9768" lon="1.38896">
        <ele>469.9758605957</ele>
        <time>2014-06-08T09:52:47Z</time>
      </trkpt>
      <trkpt lat="45.97673" lon="1.38901">
        <ele>471.41543579102</ele>
        <time>2014-06-08T09:52:53Z</time>
      </trkpt>
      <trkpt lat="45.97664" lon="1.38905">
        <ele>473.82690429688</ele>
        <time>2014-06-08T09:53:00Z</time>
      </trkpt>
      <trkpt lat="45.97658" lon="1.38909">
        <ele>475.24127197266</ele>
        <time>2014-06-08T09:53:05Z</time>
      </trkpt>
      <trkpt lat="45.97652" lon="1.38916">
        <ele>476.05139160156</ele>
        <time>2014-06-08T09:53:11Z</time>
      </trkpt>
      <trkpt lat="45.97647" lon="1.38928">
        <ele>475.22341918945</ele>
        <time>2014-06-08T09:53:19Z</time>
      </trkpt>
      <trkpt lat="45.97644" lon="1.38932">
        <ele>475.23876953125</ele>
        <time>2014-06-08T09:53:23Z</time>
      </trkpt>
      <trkpt lat="45.97639" lon="1.3894">
        <ele>475.05676269531</ele>
        <time>2014-06-08T09:53:29Z</time>
      </trkpt>
      <trkpt lat="45.97635" lon="1.38949">
        <ele>474.83599853516</ele>
        <time>2014-06-08T09:53:34Z</time>
      </trkpt>
      <trkpt lat="45.9763" lon="1.38959">
        <ele>474.40728759766</ele>
        <time>2014-06-08T09:53:40Z</time>
      </trkpt>
      <trkpt lat="45.97627" lon="1.38964">
        <ele>474.12173461914</ele>
        <time>2014-06-08T09:53:43Z</time>
      </trkpt>
      <trkpt lat="45.97624" lon="1.38971">
        <ele>473.79644775391</ele>
        <time>2014-06-08T09:53:47Z</time>
      </trkpt>
      <trkpt lat="45.97619" lon="1.38977">
        <ele>474.3623046875</ele>
        <time>2014-06-08T09:53:52Z</time>
      </trkpt>
      <trkpt lat="45.97611" lon="1.38989">
        <ele>475.00756835938</ele>
        <time>2014-06-08T09:53:57Z</time>
      </trkpt>
      <trkpt lat="45.97602" lon="1.39003">
        <ele>475.77008056641</ele>
        <time>2014-06-08T09:54:03Z</time>
      </trkpt>
      <trkpt lat="45.97593" lon="1.39016">
        <ele>476.88619995117</ele>
        <time>2014-06-08T09:54:08Z</time>
      </trkpt>
      <trkpt lat="45.9758" lon="1.39028">
        <ele>478.96270751953</ele>
        <time>2014-06-08T09:54:15Z</time>
      </trkpt>
      <trkpt lat="45.97571" lon="1.39037">
        <ele>479.24337768555</ele>
        <time>2014-06-08T09:54:21Z</time>
      </trkpt>
      <trkpt lat="45.97561" lon="1.39046">
        <ele>479.5422668457</ele>
        <time>2014-06-08T09:54:26Z</time>
      </trkpt>
      <trkpt lat="45.97552" lon="1.39055">
        <ele>479.51977539062</ele>
        <time>2014-06-08T09:54:31Z</time>
      </trkpt>
      <trkpt lat="45.9754" lon="1.3906">
        <ele>480.8303527832</ele>
        <time>2014-06-08T09:54:37Z</time>
      </trkpt>
      <trkpt lat="45.97527" lon="1.39068">
        <ele>481.64370727539</ele>
        <time>2014-06-08T09:54:43Z</time>
      </trkpt>
      <trkpt lat="45.97516" lon="1.39075">
        <ele>482.03823852539</ele>
        <time>2014-06-08T09:54:48Z</time>
      </trkpt>
      <trkpt lat="45.97508" lon="1.39084">
        <ele>481.34048461914</ele>
        <time>2014-06-08T09:54:53Z</time>
      </trkpt>
      <trkpt lat="45.97496" lon="1.39092">
        <ele>481.44924926758</ele>
        <time>2014-06-08T09:54:58Z</time>
      </trkpt>
      <trkpt lat="45.9748" lon="1.39103">
        <ele>479.48275756836</ele>
        <time>2014-06-08T09:55:06Z</time>
      </trkpt>
      <trkpt lat="45.9747" lon="1.39109">
        <ele>478.67010498047</ele>
        <time>2014-06-08T09:55:13Z</time>
      </trkpt>
      <trkpt lat="45.97461" lon="1.39117">
        <ele>477.85592651367</ele>
        <time>2014-06-08T09:55:17Z</time>
      </trkpt>
      <trkpt lat="45.97447" lon="1.39126">
        <ele>477.21432495117</ele>
        <time>2014-06-08T09:55:23Z</time>
      </trkpt>
      <trkpt lat="45.97445" lon="1.39126">
        <ele>477.27853393555</ele>
        <time>2014-06-08T09:55:24Z</time>
      </trkpt>
      <trkpt lat="45.97439" lon="1.39113">
        <ele>478.44689941406</ele>
        <time>2014-06-08T09:55:28Z</time>
      </trkpt>
      <trkpt lat="45.97438" lon="1.39107">
        <ele>478.86602783203</ele>
        <time>2014-06-08T09:55:30Z</time>
      </trkpt>
      <trkpt lat="45.97438" lon="1.39104">
        <ele>479.12811279297</ele>
        <time>2014-06-08T09:55:32Z</time>
      </trkpt>
      <trkpt lat="45.97433" lon="1.39092">
        <ele>479.96694946289</ele>
        <time>2014-06-08T09:55:38Z</time>
      </trkpt>
      <trkpt lat="45.97432" lon="1.39086">
        <ele>480.38684082031</ele>
        <time>2014-06-08T09:55:42Z</time>
      </trkpt>
      <trkpt lat="45.97433" lon="1.39082">
        <ele>480.89007568359</ele>
        <time>2014-06-08T09:55:49Z</time>
      </trkpt>
      <trkpt lat="45.97431" lon="1.39075">
        <ele>482.35809326172</ele>
        <time>2014-06-08T09:55:56Z</time>
      </trkpt>
      <trkpt lat="45.97426" lon="1.39066">
        <ele>484.31121826172</ele>
        <time>2014-06-08T09:56:02Z</time>
      </trkpt>
      <trkpt lat="45.97417" lon="1.39055">
        <ele>486.60897827148</ele>
        <time>2014-06-08T09:56:11Z</time>
      </trkpt>
      <trkpt lat="45.97409" lon="1.39045">
        <ele>488.49298095703</ele>
        <time>2014-06-08T09:56:18Z</time>
      </trkpt>
      <trkpt lat="45.97408" lon="1.39043">
        <ele>488.88189697266</ele>
        <time>2014-06-08T09:56:19Z</time>
      </trkpt>
      <trkpt lat="45.97403" lon="1.39036">
        <ele>490.25250244141</ele>
        <time>2014-06-08T09:56:24Z</time>
      </trkpt>
      <trkpt lat="45.97398" lon="1.39031">
        <ele>491.01406860352</ele>
        <time>2014-06-08T09:56:28Z</time>
      </trkpt>
      <trkpt lat="45.97388" lon="1.39021">
        <ele>492.7978515625</ele>
        <time>2014-06-08T09:56:36Z</time>
      </trkpt>
      <trkpt lat="45.97383" lon="1.39015">
        <ele>493.81094360352</ele>
        <time>2014-06-08T09:56:41Z</time>
      </trkpt>
      <trkpt lat="45.97376" lon="1.39008">
        <ele>494.86968994141</ele>
        <time>2014-06-08T09:56:47Z</time>
      </trkpt>
      <trkpt lat="45.97372" lon="1.39001">
        <ele>496.07727050781</ele>
        <time>2014-06-08T09:56:52Z</time>
      </trkpt>
      <trkpt lat="45.9737" lon="1.38995">
        <ele>496.99227905273</ele>
        <time>2014-06-08T09:56:56Z</time>
      </trkpt>
      <trkpt lat="45.97367" lon="1.38986">
        <ele>498.23474121094</ele>
        <time>2014-06-08T09:57:01Z</time>
      </trkpt>
      <trkpt lat="45.97367" lon="1.38978">
        <ele>499.30575561523</ele>
        <time>2014-06-08T09:57:05Z</time>
      </trkpt>
      <trkpt lat="45.97366" lon="1.38966">
        <ele>501.12710571289</ele>
        <time>2014-06-08T09:57:12Z</time>
      </trkpt>
      <trkpt lat="45.97364" lon="1.38962">
        <ele>501.58074951172</ele>
        <time>2014-06-08T09:57:14Z</time>
      </trkpt>
      <trkpt lat="45.97364" lon="1.38951">
        <ele>503.15573120117</ele>
        <time>2014-06-08T09:57:20Z</time>
      </trkpt>
      <trkpt lat="45.97364" lon="1.38948">
        <ele>503.68725585938</ele>
        <time>2014-06-08T09:57:22Z</time>
      </trkpt>
      <trkpt lat="45.97363" lon="1.38937">
        <ele>505.12078857422</ele>
        <time>2014-06-08T09:57:28Z</time>
      </trkpt>
      <trkpt lat="45.97364" lon="1.38929">
        <ele>506.5227355957</ele>
        <time>2014-06-08T09:57:34Z</time>
      </trkpt>
      <trkpt lat="45.97363" lon="1.38924">
        <ele>507.13482666016</ele>
        <time>2014-06-08T09:57:36Z</time>
      </trkpt>
      <trkpt lat="45.97361" lon="1.38916">
        <ele>508.00250244141</ele>
        <time>2014-06-08T09:57:40Z</time>
      </trkpt>
      <trkpt lat="45.9736" lon="1.38911">
        <ele>507.9880065918</ele>
        <time>2014-06-08T09:57:42Z</time>
      </trkpt>
      <trkpt lat="45.97358" lon="1.38898">
        <ele>507.96896362305</ele>
        <time>2014-06-08T09:57:48Z</time>
      </trkpt>
      <trkpt lat="45.97358" lon="1.38894">
        <ele>508.02267456055</ele>
        <time>2014-06-08T09:57:50Z</time>
      </trkpt>
      <trkpt lat="45.97357" lon="1.38883">
        <ele>508.04241943359</ele>
        <time>2014-06-08T09:57:56Z</time>
      </trkpt>
      <trkpt lat="45.97356" lon="1.38873">
        <ele>508.07342529297</ele>
        <time>2014-06-08T09:58:01Z</time>
      </trkpt>
      <trkpt lat="45.97358" lon="1.38869">
        <ele>508.27905273438</ele>
        <time>2014-06-08T09:58:03Z</time>
      </trkpt>
      <trkpt lat="45.97358" lon="1.38856">
        <ele>508.51788330078</ele>
        <time>2014-06-08T09:58:09Z</time>
      </trkpt>
      <trkpt lat="45.9736" lon="1.3885">
        <ele>508.87741088867</ele>
        <time>2014-06-08T09:58:12Z</time>
      </trkpt>
      <trkpt lat="45.9736" lon="1.3884">
        <ele>509.04019165039</ele>
        <time>2014-06-08T09:58:16Z</time>
      </trkpt>
      <trkpt lat="45.97362" lon="1.38816">
        <ele>509.42987060547</ele>
        <time>2014-06-08T09:58:23Z</time>
      </trkpt>
      <trkpt lat="45.97366" lon="1.38799">
        <ele>509.99942016602</ele>
        <time>2014-06-08T09:58:28Z</time>
      </trkpt>
      <trkpt lat="45.97367" lon="1.3879">
        <ele>510.23226928711</ele>
        <time>2014-06-08T09:58:32Z</time>
      </trkpt>
      <trkpt lat="45.97372" lon="1.38777">
        <ele>510.99255371094</ele>
        <time>2014-06-08T09:58:38Z</time>
      </trkpt>
      <trkpt lat="45.97374" lon="1.38766">
        <ele>511.3180847168</ele>
        <time>2014-06-08T09:58:43Z</time>
      </trkpt>
      <trkpt lat="45.97374" lon="1.38764">
        <ele>511.25039672852</ele>
        <time>2014-06-08T09:58:44Z</time>
      </trkpt>
      <trkpt lat="45.97375" lon="1.38746">
        <ele>511.60592651367</ele>
        <time>2014-06-08T09:58:51Z</time>
      </trkpt>
      <trkpt lat="45.97378" lon="1.38731">
        <ele>512.79272460938</ele>
        <time>2014-06-08T09:58:58Z</time>
      </trkpt>
      <trkpt lat="45.9738" lon="1.3872">
        <ele>513.78497314453</ele>
        <time>2014-06-08T09:59:04Z</time>
      </trkpt>
      <trkpt lat="45.97381" lon="1.38709">
        <ele>514.3037109375</ele>
        <time>2014-06-08T09:59:09Z</time>
      </trkpt>
      <trkpt lat="45.97381" lon="1.38695">
        <ele>514.90374755859</ele>
        <time>2014-06-08T09:59:15Z</time>
      </trkpt>
      <trkpt lat="45.97388" lon="1.38677">
        <ele>516.98248291016</ele>
        <time>2014-06-08T09:59:23Z</time>
      </trkpt>
      <trkpt lat="45.97392" lon="1.38669">
        <ele>518.07794189453</ele>
        <time>2014-06-08T09:59:29Z</time>
      </trkpt>
      <trkpt lat="45.97395" lon="1.38662">
        <ele>519.36279296875</ele>
        <time>2014-06-08T09:59:33Z</time>
      </trkpt>
      <trkpt lat="45.97399" lon="1.38652">
        <ele>520.8828125</ele>
        <time>2014-06-08T09:59:39Z</time>
      </trkpt>
      <trkpt lat="45.97399" lon="1.38646">
        <ele>521.3447265625</ele>
        <time>2014-06-08T09:59:42Z</time>
      </trkpt>
      <trkpt lat="45.97398" lon="1.38633">
        <ele>522.35687255859</ele>
        <time>2014-06-08T09:59:48Z</time>
      </trkpt>
      <trkpt lat="45.97396" lon="1.38629">
        <ele>522.47485351562</ele>
        <time>2014-06-08T09:59:50Z</time>
      </trkpt>
      <trkpt lat="45.97395" lon="1.38624">
        <ele>522.60357666016</ele>
        <time>2014-06-08T09:59:53Z</time>
      </trkpt>
      <trkpt lat="45.97393" lon="1.38611">
        <ele>523.59722900391</ele>
        <time>2014-06-08T09:59:58Z</time>
      </trkpt>
      <trkpt lat="45.9739" lon="1.38601">
        <ele>524.2060546875</ele>
        <time>2014-06-08T10:00:02Z</time>
      </trkpt>
      <trkpt lat="45.97387" lon="1.38584">
        <ele>525.37969970703</ele>
        <time>2014-06-08T10:00:10Z</time>
      </trkpt>
      <trkpt lat="45.97386" lon="1.38573">
        <ele>526.48663330078</ele>
        <time>2014-06-08T10:00:16Z</time>
      </trkpt>
      <trkpt lat="45.97386" lon="1.38568">
        <ele>527.06030273438</ele>
        <time>2014-06-08T10:00:19Z</time>
      </trkpt>
      <trkpt lat="45.97385" lon="1.38557">
        <ele>528.28582763672</ele>
        <time>2014-06-08T10:00:26Z</time>
      </trkpt>
      <trkpt lat="45.97385" lon="1.38553">
        <ele>528.6650390625</ele>
        <time>2014-06-08T10:00:28Z</time>
      </trkpt>
      <trkpt lat="45.97385" lon="1.38546">
        <ele>529.53088378906</ele>
        <time>2014-06-08T10:00:32Z</time>
      </trkpt>
      <trkpt lat="45.97386" lon="1.38536">
        <ele>530.71801757812</ele>
        <time>2014-06-08T10:00:38Z</time>
      </trkpt>
      <trkpt lat="45.97386" lon="1.38532">
        <ele>531.2392578125</ele>
        <time>2014-06-08T10:00:41Z</time>
      </trkpt>
      <trkpt lat="45.97384" lon="1.38527">
        <ele>531.67474365234</ele>
        <time>2014-06-08T10:00:44Z</time>
      </trkpt>
      <trkpt lat="45.97383" lon="1.38522">
        <ele>532.17041015625</ele>
        <time>2014-06-08T10:00:47Z</time>
      </trkpt>
      <trkpt lat="45.97383" lon="1.38513">
        <ele>533.23675537109</ele>
        <time>2014-06-08T10:00:51Z</time>
      </trkpt>
      <trkpt lat="45.97384" lon="1.38499">
        <ele>534.92028808594</ele>
        <time>2014-06-08T10:00:58Z</time>
      </trkpt>
      <trkpt lat="45.97385" lon="1.38492">
        <ele>535.54614257812</ele>
        <time>2014-06-08T10:01:01Z</time>
      </trkpt>
      <trkpt lat="45.97385" lon="1.38489">
        <ele>535.80578613281</ele>
        <time>2014-06-08T10:01:03Z</time>
      </trkpt>
      <trkpt lat="45.97386" lon="1.3848">
        <ele>536.65979003906</ele>
        <time>2014-06-08T10:01:08Z</time>
      </trkpt>
      <trkpt lat="45.97387" lon="1.38469">
        <ele>537.64440917969</ele>
        <time>2014-06-08T10:01:14Z</time>
      </trkpt>
      <trkpt lat="45.97389" lon="1.38457">
        <ele>538.78985595703</ele>
        <time>2014-06-08T10:01:20Z</time>
      </trkpt>
      <trkpt lat="45.9739" lon="1.38452">
        <ele>539.26062011719</ele>
        <time>2014-06-08T10:01:23Z</time>
      </trkpt>
      <trkpt lat="45.97393" lon="1.38445">
        <ele>539.98468017578</ele>
        <time>2014-06-08T10:01:27Z</time>
      </trkpt>
      <trkpt lat="45.97392" lon="1.38428">
        <ele>541.40637207031</ele>
        <time>2014-06-08T10:01:34Z</time>
      </trkpt>
      <trkpt lat="45.97392" lon="1.38426">
        <ele>541.58343505859</ele>
        <time>2014-06-08T10:01:35Z</time>
      </trkpt>
      <trkpt lat="45.97386" lon="1.38417">
        <ele>542.19598388672</ele>
        <time>2014-06-08T10:01:41Z</time>
      </trkpt>
      <trkpt lat="45.97375" lon="1.38413">
        <ele>542.07958984375</ele>
        <time>2014-06-08T10:01:46Z</time>
      </trkpt>
      <trkpt lat="45.97368" lon="1.38411">
        <ele>541.93218994141</ele>
        <time>2014-06-08T10:01:51Z</time>
      </trkpt>
      <trkpt lat="45.97358" lon="1.38419">
        <ele>541.39440917969</ele>
        <time>2014-06-08T10:01:58Z</time>
      </trkpt>
      <trkpt lat="45.97357" lon="1.3842">
        <ele>541.29150390625</ele>
        <time>2014-06-08T10:01:59Z</time>
      </trkpt>
      <trkpt lat="45.97349" lon="1.38426">
        <ele>540.48498535156</ele>
        <time>2014-06-08T10:02:07Z</time>
      </trkpt>
      <trkpt lat="45.9734" lon="1.3843">
        <ele>539.93701171875</ele>
        <time>2014-06-08T10:02:14Z</time>
      </trkpt>
      <trkpt lat="45.97334" lon="1.38433">
        <ele>539.42077636719</ele>
        <time>2014-06-08T10:02:19Z</time>
      </trkpt>
      <trkpt lat="45.97328" lon="1.38423">
        <ele>540.65618896484</ele>
        <time>2014-06-08T10:02:25Z</time>
      </trkpt>
      <trkpt lat="45.97333" lon="1.3841">
        <ele>541.19287109375</ele>
        <time>2014-06-08T10:02:31Z</time>
      </trkpt>
      <trkpt lat="45.97335" lon="1.38407">
        <ele>541.25616455078</ele>
        <time>2014-06-08T10:02:33Z</time>
      </trkpt>
      <trkpt lat="45.97338" lon="1.384">
        <ele>541.50225830078</ele>
        <time>2014-06-08T10:02:38Z</time>
      </trkpt>
      <trkpt lat="45.97343" lon="1.38389">
        <ele>541.86981201172</ele>
        <time>2014-06-08T10:02:45Z</time>
      </trkpt>
      <trkpt lat="45.97342" lon="1.38376">
        <ele>542.11456298828</ele>
        <time>2014-06-08T10:02:52Z</time>
      </trkpt>
      <trkpt lat="45.97341" lon="1.38367">
        <ele>542.31842041016</ele>
        <time>2014-06-08T10:02:58Z</time>
      </trkpt>
      <trkpt lat="45.9734" lon="1.38365">
        <ele>542.35675048828</ele>
        <time>2014-06-08T10:03:00Z</time>
      </trkpt>
      <trkpt lat="45.97338" lon="1.38355">
        <ele>542.54846191406</ele>
        <time>2014-06-08T10:03:05Z</time>
      </trkpt>
      <trkpt lat="45.97335" lon="1.38345">
        <ele>542.74786376953</ele>
        <time>2014-06-08T10:03:10Z</time>
      </trkpt>
      <trkpt lat="45.97333" lon="1.3834">
        <ele>542.87689208984</ele>
        <time>2014-06-08T10:03:15Z</time>
      </trkpt>
      <trkpt lat="45.97331" lon="1.38335">
        <ele>543.11407470703</ele>
        <time>2014-06-08T10:03:18Z</time>
      </trkpt>
      <trkpt lat="45.97324" lon="1.38326">
        <ele>543.50109863281</ele>
        <time>2014-06-08T10:03:25Z</time>
      </trkpt>
      <trkpt lat="45.97324" lon="1.38325">
        <ele>543.53839111328</ele>
        <time>2014-06-08T10:03:26Z</time>
      </trkpt>
      <trkpt lat="45.97318" lon="1.38321">
        <ele>543.81683349609</ele>
        <time>2014-06-08T10:03:30Z</time>
      </trkpt>
      <trkpt lat="45.97312" lon="1.38317">
        <ele>544.07086181641</ele>
        <time>2014-06-08T10:03:34Z</time>
      </trkpt>
      <trkpt lat="45.97306" lon="1.38309">
        <ele>544.26483154297</ele>
        <time>2014-06-08T10:03:40Z</time>
      </trkpt>
      <trkpt lat="45.97304" lon="1.38306">
        <ele>544.29956054688</ele>
        <time>2014-06-08T10:03:42Z</time>
      </trkpt>
      <trkpt lat="45.97298" lon="1.383">
        <ele>544.42333984375</ele>
        <time>2014-06-08T10:03:47Z</time>
      </trkpt>
      <trkpt lat="45.9729" lon="1.38288">
        <ele>544.44854736328</ele>
        <time>2014-06-08T10:03:55Z</time>
      </trkpt>
      <trkpt lat="45.97287" lon="1.38283">
        <ele>544.43322753906</ele>
        <time>2014-06-08T10:03:58Z</time>
      </trkpt>
      <trkpt lat="45.97282" lon="1.38277">
        <ele>544.39166259766</ele>
        <time>2014-06-08T10:04:03Z</time>
      </trkpt>
      <trkpt lat="45.97279" lon="1.38272">
        <ele>544.33868408203</ele>
        <time>2014-06-08T10:04:07Z</time>
      </trkpt>
      <trkpt lat="45.97275" lon="1.38268">
        <ele>544.29345703125</ele>
        <time>2014-06-08T10:04:11Z</time>
      </trkpt>
      <trkpt lat="45.97274" lon="1.38266">
        <ele>544.26916503906</ele>
        <time>2014-06-08T10:04:12Z</time>
      </trkpt>
      <trkpt lat="45.9727" lon="1.38259">
        <ele>544.10162353516</ele>
        <time>2014-06-08T10:04:17Z</time>
      </trkpt>
      <trkpt lat="45.97266" lon="1.38254">
        <ele>543.953125</ele>
        <time>2014-06-08T10:04:21Z</time>
      </trkpt>
      <trkpt lat="45.97258" lon="1.38246">
        <ele>543.75964355469</ele>
        <time>2014-06-08T10:04:25Z</time>
      </trkpt>
      <trkpt lat="45.97237" lon="1.38228">
        <ele>542.85430908203</ele>
        <time>2014-06-08T10:04:33Z</time>
      </trkpt>
      <trkpt lat="45.97227" lon="1.38217">
        <ele>542.18182373047</ele>
        <time>2014-06-08T10:04:38Z</time>
      </trkpt>
      <trkpt lat="45.97219" lon="1.3821">
        <ele>541.71563720703</ele>
        <time>2014-06-08T10:04:41Z</time>
      </trkpt>
      <trkpt lat="45.97205" lon="1.38188">
        <ele>540.19696044922</ele>
        <time>2014-06-08T10:04:48Z</time>
      </trkpt>
      <trkpt lat="45.97199" lon="1.38182">
        <ele>539.75158691406</ele>
        <time>2014-06-08T10:04:50Z</time>
      </trkpt>
      <trkpt lat="45.97183" lon="1.38179">
        <ele>539.24456787109</ele>
        <time>2014-06-08T10:04:56Z</time>
      </trkpt>
      <trkpt lat="45.97181" lon="1.38179">
        <ele>539.20147705078</ele>
        <time>2014-06-08T10:04:57Z</time>
      </trkpt>
      <trkpt lat="45.97166" lon="1.38185">
        <ele>539.18591308594</ele>
        <time>2014-06-08T10:05:03Z</time>
      </trkpt>
      <trkpt lat="45.97159" lon="1.38192">
        <ele>539.07409667969</ele>
        <time>2014-06-08T10:05:07Z</time>
      </trkpt>
      <trkpt lat="45.97153" lon="1.38199">
        <ele>538.95123291016</ele>
        <time>2014-06-08T10:05:10Z</time>
      </trkpt>
      <trkpt lat="45.97148" lon="1.38193">
        <ele>538.01867675781</ele>
        <time>2014-06-08T10:05:14Z</time>
      </trkpt>
      <trkpt lat="45.97151" lon="1.38161">
        <ele>535.78985595703</ele>
        <time>2014-06-08T10:05:21Z</time>
      </trkpt>
      <trkpt lat="45.97152" lon="1.38144">
        <ele>534.56237792969</ele>
        <time>2014-06-08T10:05:25Z</time>
      </trkpt>
      <trkpt lat="45.97152" lon="1.3814">
        <ele>534.24133300781</ele>
        <time>2014-06-08T10:05:26Z</time>
      </trkpt>
      <trkpt lat="45.97153" lon="1.3812">
        <ele>532.70178222656</ele>
        <time>2014-06-08T10:05:32Z</time>
      </trkpt>
      <trkpt lat="45.97155" lon="1.38113">
        <ele>532.24829101562</ele>
        <time>2014-06-08T10:05:34Z</time>
      </trkpt>
      <trkpt lat="45.97159" lon="1.38096">
        <ele>531.31915283203</ele>
        <time>2014-06-08T10:05:39Z</time>
      </trkpt>
      <trkpt lat="45.9716" lon="1.38095">
        <ele>531.29974365234</ele>
        <time>2014-06-08T10:05:41Z</time>
      </trkpt>
      <trkpt lat="45.97148" lon="1.38099">
        <ele>530.50579833984</ele>
        <time>2014-06-08T10:05:47Z</time>
      </trkpt>
      <trkpt lat="45.97132" lon="1.38103">
        <ele>529.26000976562</ele>
        <time>2014-06-08T10:05:52Z</time>
      </trkpt>
      <trkpt lat="45.97113" lon="1.3811">
        <ele>527.93688964844</ele>
        <time>2014-06-08T10:05:58Z</time>
      </trkpt>
      <trkpt lat="45.97095" lon="1.38109">
        <ele>526.01257324219</ele>
        <time>2014-06-08T10:06:04Z</time>
      </trkpt>
      <trkpt lat="45.97081" lon="1.38102">
        <ele>524.18609619141</ele>
        <time>2014-06-08T10:06:09Z</time>
      </trkpt>
      <trkpt lat="45.97078" lon="1.38101">
        <ele>523.92608642578</ele>
        <time>2014-06-08T10:06:10Z</time>
      </trkpt>
      <trkpt lat="45.97065" lon="1.38107">
        <ele>523.45416259766</ele>
        <time>2014-06-08T10:06:15Z</time>
      </trkpt>
      <trkpt lat="45.9706" lon="1.38111">
        <ele>523.41754150391</ele>
        <time>2014-06-08T10:06:17Z</time>
      </trkpt>
      <trkpt lat="45.97049" lon="1.38111">
        <ele>522.68884277344</ele>
        <time>2014-06-08T10:06:21Z</time>
      </trkpt>
      <trkpt lat="45.97042" lon="1.38109">
        <ele>522.03973388672</ele>
        <time>2014-06-08T10:06:24Z</time>
      </trkpt>
      <trkpt lat="45.9704" lon="1.38106">
        <ele>521.74597167969</ele>
        <time>2014-06-08T10:06:25Z</time>
      </trkpt>
      <trkpt lat="45.97028" lon="1.38096">
        <ele>520.34448242188</ele>
        <time>2014-06-08T10:06:30Z</time>
      </trkpt>
      <trkpt lat="45.97017" lon="1.38096">
        <ele>519.68084716797</ele>
        <time>2014-06-08T10:06:34Z</time>
      </trkpt>
      <trkpt lat="45.97002" lon="1.38101">
        <ele>518.97863769531</ele>
        <time>2014-06-08T10:06:39Z</time>
      </trkpt>
      <trkpt lat="45.96987" lon="1.38109">
        <ele>518.91284179688</ele>
        <time>2014-06-08T10:06:44Z</time>
      </trkpt>
      <trkpt lat="45.96967" lon="1.38099">
        <ele>518.40289306641</ele>
        <time>2014-06-08T10:06:51Z</time>
      </trkpt>
      <trkpt lat="45.96955" lon="1.38097">
        <ele>518.30804443359</ele>
        <time>2014-06-08T10:06:55Z</time>
      </trkpt>
      <trkpt lat="45.96946" lon="1.38107">
        <ele>517.93774414062</ele>
        <time>2014-06-08T10:06:59Z</time>
      </trkpt>
      <trkpt lat="45.96935" lon="1.38129">
        <ele>516.72967529297</ele>
        <time>2014-06-08T10:07:05Z</time>
      </trkpt>
      <trkpt lat="45.96926" lon="1.3814">
        <ele>515.56524658203</ele>
        <time>2014-06-08T10:07:09Z</time>
      </trkpt>
      <trkpt lat="45.96917" lon="1.38141">
        <ele>514.83807373047</ele>
        <time>2014-06-08T10:07:13Z</time>
      </trkpt>
      <trkpt lat="45.96902" lon="1.38148">
        <ele>513.90832519531</ele>
        <time>2014-06-08T10:07:18Z</time>
      </trkpt>
      <trkpt lat="45.96888" lon="1.38153">
        <ele>513.06817626953</ele>
        <time>2014-06-08T10:07:23Z</time>
      </trkpt>
      <trkpt lat="45.9687" lon="1.3815">
        <ele>512.88348388672</ele>
        <time>2014-06-08T10:07:28Z</time>
      </trkpt>
      <trkpt lat="45.96848" lon="1.38141">
        <ele>513.14959716797</ele>
        <time>2014-06-08T10:07:35Z</time>
      </trkpt>
      <trkpt lat="45.96833" lon="1.38138">
        <ele>513.06011962891</ele>
        <time>2014-06-08T10:07:41Z</time>
      </trkpt>
      <trkpt lat="45.96819" lon="1.38135">
        <ele>512.10400390625</ele>
        <time>2014-06-08T10:07:46Z</time>
      </trkpt>
      <trkpt lat="45.96807" lon="1.38129">
        <ele>511.68334960938</ele>
        <time>2014-06-08T10:07:50Z</time>
      </trkpt>
      <trkpt lat="45.96793" lon="1.38118">
        <ele>511.80154418945</ele>
        <time>2014-06-08T10:07:55Z</time>
      </trkpt>
      <trkpt lat="45.96782" lon="1.38109">
        <ele>511.90380859375</ele>
        <time>2014-06-08T10:08:00Z</time>
      </trkpt>
      <trkpt lat="45.96766" lon="1.38105">
        <ele>511.22598266602</ele>
        <time>2014-06-08T10:08:06Z</time>
      </trkpt>
      <trkpt lat="45.96747" lon="1.38103">
        <ele>509.92169189453</ele>
        <time>2014-06-08T10:08:13Z</time>
      </trkpt>
      <trkpt lat="45.96733" lon="1.38094">
        <ele>510.18817138672</ele>
        <time>2014-06-08T10:08:19Z</time>
      </trkpt>
      <trkpt lat="45.96718" lon="1.38085">
        <ele>510.37496948242</ele>
        <time>2014-06-08T10:08:26Z</time>
      </trkpt>
      <trkpt lat="45.96709" lon="1.38083">
        <ele>510.07723999023</ele>
        <time>2014-06-08T10:08:31Z</time>
      </trkpt>
      <trkpt lat="45.96703" lon="1.38079">
        <ele>510.41799926758</ele>
        <time>2014-06-08T10:08:37Z</time>
      </trkpt>
      <trkpt lat="45.96697" lon="1.38075">
        <ele>510.86404418945</ele>
        <time>2014-06-08T10:08:43Z</time>
      </trkpt>
      <trkpt lat="45.96694" lon="1.38074">
        <ele>510.85134887695</ele>
        <time>2014-06-08T10:08:45Z</time>
      </trkpt>
      <trkpt lat="45.96692" lon="1.38074">
        <ele>510.70635986328</ele>
        <time>2014-06-08T10:08:47Z</time>
      </trkpt>
      <trkpt lat="45.96688" lon="1.38074">
        <ele>510.48901367188</ele>
        <time>2014-06-08T10:08:50Z</time>
      </trkpt>
      <trkpt lat="45.96678" lon="1.38077">
        <ele>509.17584228516</ele>
        <time>2014-06-08T10:08:55Z</time>
      </trkpt>
      <trkpt lat="45.96667" lon="1.38075">
        <ele>508.91088867188</ele>
        <time>2014-06-08T10:08:59Z</time>
      </trkpt>
      <trkpt lat="45.96653" lon="1.38074">
        <ele>508.96322631836</ele>
        <time>2014-06-08T10:09:04Z</time>
      </trkpt>
      <trkpt lat="45.96638" lon="1.38078">
        <ele>507.70785522461</ele>
        <time>2014-06-08T10:09:10Z</time>
      </trkpt>
      <trkpt lat="45.96629" lon="1.38087">
        <ele>505.89031982422</ele>
        <time>2014-06-08T10:09:14Z</time>
      </trkpt>
      <trkpt lat="45.96618" lon="1.38099">
        <ele>503.88778686523</ele>
        <time>2014-06-08T10:09:19Z</time>
      </trkpt>
      <trkpt lat="45.96607" lon="1.38108">
        <ele>502.20513916016</ele>
        <time>2014-06-08T10:09:24Z</time>
      </trkpt>
      <trkpt lat="45.966" lon="1.38111">
        <ele>501.65786743164</ele>
        <time>2014-06-08T10:09:29Z</time>
      </trkpt>
      <trkpt lat="45.96588" lon="1.3811">
        <ele>501.64096069336</ele>
        <time>2014-06-08T10:09:34Z</time>
      </trkpt>
      <trkpt lat="45.96577" lon="1.3811">
        <ele>501.06646728516</ele>
        <time>2014-06-08T10:09:39Z</time>
      </trkpt>
      <trkpt lat="45.96563" lon="1.38108">
        <ele>500.15960693359</ele>
        <time>2014-06-08T10:09:45Z</time>
      </trkpt>
      <trkpt lat="45.96547" lon="1.38108">
        <ele>498.86657714844</ele>
        <time>2014-06-08T10:09:50Z</time>
      </trkpt>
      <trkpt lat="45.96533" lon="1.38104">
        <ele>498.29598999023</ele>
        <time>2014-06-08T10:09:54Z</time>
      </trkpt>
      <trkpt lat="45.96522" lon="1.38102">
        <ele>497.64019775391</ele>
        <time>2014-06-08T10:09:58Z</time>
      </trkpt>
      <trkpt lat="45.9652" lon="1.38101">
        <ele>497.5344543457</ele>
        <time>2014-06-08T10:09:59Z</time>
      </trkpt>
      <trkpt lat="45.96508" lon="1.38108">
        <ele>495.65301513672</ele>
        <time>2014-06-08T10:10:04Z</time>
      </trkpt>
      <trkpt lat="45.965" lon="1.38113">
        <ele>494.43142700195</ele>
        <time>2014-06-08T10:10:07Z</time>
      </trkpt>
      <trkpt lat="45.96487" lon="1.38121">
        <ele>491.98120117188</ele>
        <time>2014-06-08T10:10:12Z</time>
      </trkpt>
      <trkpt lat="45.96476" lon="1.38124">
        <ele>490.4548034668</ele>
        <time>2014-06-08T10:10:16Z</time>
      </trkpt>
      <trkpt lat="45.96461" lon="1.38133">
        <ele>488.30642700195</ele>
        <time>2014-06-08T10:10:22Z</time>
      </trkpt>
      <trkpt lat="45.9645" lon="1.38147">
        <ele>486.58929443359</ele>
        <time>2014-06-08T10:10:27Z</time>
      </trkpt>
      <trkpt lat="45.96439" lon="1.38163">
        <ele>485.17398071289</ele>
        <time>2014-06-08T10:10:32Z</time>
      </trkpt>
      <trkpt lat="45.96431" lon="1.38179">
        <ele>483.22305297852</ele>
        <time>2014-06-08T10:10:37Z</time>
      </trkpt>
      <trkpt lat="45.96423" lon="1.38195">
        <ele>481.05529785156</ele>
        <time>2014-06-08T10:10:42Z</time>
      </trkpt>
      <trkpt lat="45.96415" lon="1.38211">
        <ele>479.04251098633</ele>
        <time>2014-06-08T10:10:47Z</time>
      </trkpt>
      <trkpt lat="45.9641" lon="1.38226">
        <ele>476.99063110352</ele>
        <time>2014-06-08T10:10:51Z</time>
      </trkpt>
      <trkpt lat="45.96408" lon="1.3823">
        <ele>476.42092895508</ele>
        <time>2014-06-08T10:10:52Z</time>
      </trkpt>
      <trkpt lat="45.96396" lon="1.38244">
        <ele>473.84774780273</ele>
        <time>2014-06-08T10:10:57Z</time>
      </trkpt>
      <trkpt lat="45.96386" lon="1.38248">
        <ele>472.5500793457</ele>
        <time>2014-06-08T10:11:02Z</time>
      </trkpt>
      <trkpt lat="45.96379" lon="1.38248">
        <ele>472.02462768555</ele>
        <time>2014-06-08T10:11:04Z</time>
      </trkpt>
      <trkpt lat="45.96359" lon="1.38238">
        <ele>471.14181518555</ele>
        <time>2014-06-08T10:11:10Z</time>
      </trkpt>
      <trkpt lat="45.96346" lon="1.38234">
        <ele>470.29354858398</ele>
        <time>2014-06-08T10:11:15Z</time>
      </trkpt>
      <trkpt lat="45.96343" lon="1.38236">
        <ele>469.87869262695</ele>
        <time>2014-06-08T10:11:18Z</time>
      </trkpt>
      <trkpt lat="45.96342" lon="1.38237">
        <ele>469.69442749023</ele>
        <time>2014-06-08T10:11:19Z</time>
      </trkpt>
      <trkpt lat="45.96323" lon="1.38237">
        <ele>467.18389892578</ele>
        <time>2014-06-08T10:11:24Z</time>
      </trkpt>
      <trkpt lat="45.96311" lon="1.38229">
        <ele>465.55126953125</ele>
        <time>2014-06-08T10:11:28Z</time>
      </trkpt>
      <trkpt lat="45.96299" lon="1.38216">
        <ele>464.16088867188</ele>
        <time>2014-06-08T10:11:32Z</time>
      </trkpt>
      <trkpt lat="45.96297" lon="1.38212">
        <ele>464.021484375</ele>
        <time>2014-06-08T10:11:33Z</time>
      </trkpt>
      <trkpt lat="45.9628" lon="1.38192">
        <ele>461.91912841797</ele>
        <time>2014-06-08T10:11:40Z</time>
      </trkpt>
      <trkpt lat="45.96264" lon="1.38185">
        <ele>459.15756225586</ele>
        <time>2014-06-08T10:11:46Z</time>
      </trkpt>
      <trkpt lat="45.96255" lon="1.38201">
        <ele>456.80502319336</ele>
        <time>2014-06-08T10:11:52Z</time>
      </trkpt>
      <trkpt lat="45.96254" lon="1.38214">
        <ele>455.95492553711</ele>
        <time>2014-06-08T10:11:56Z</time>
      </trkpt>
      <trkpt lat="45.96254" lon="1.38225">
        <ele>455.62167358398</ele>
        <time>2014-06-08T10:11:59Z</time>
      </trkpt>
      <trkpt lat="45.96252" lon="1.38233">
        <ele>455.04251098633</ele>
        <time>2014-06-08T10:12:01Z</time>
      </trkpt>
      <trkpt lat="45.96247" lon="1.38248">
        <ele>453.40542602539</ele>
        <time>2014-06-08T10:12:07Z</time>
      </trkpt>
      <trkpt lat="45.96247" lon="1.38265">
        <ele>451.24725341797</ele>
        <time>2014-06-08T10:12:12Z</time>
      </trkpt>
      <trkpt lat="45.96247" lon="1.38272">
        <ele>450.23596191406</ele>
        <time>2014-06-08T10:12:14Z</time>
      </trkpt>
      <trkpt lat="45.96247" lon="1.38291">
        <ele>447.55642700195</ele>
        <time>2014-06-08T10:12:20Z</time>
      </trkpt>
      <trkpt lat="45.96247" lon="1.38305">
        <ele>445.66925048828</ele>
        <time>2014-06-08T10:12:25Z</time>
      </trkpt>
      <trkpt lat="45.96249" lon="1.3832">
        <ele>443.84802246094</ele>
        <time>2014-06-08T10:12:30Z</time>
      </trkpt>
      <trkpt lat="45.96248" lon="1.38335">
        <ele>441.66061401367</ele>
        <time>2014-06-08T10:12:35Z</time>
      </trkpt>
      <trkpt lat="45.96246" lon="1.38342">
        <ele>441.01403808594</ele>
        <time>2014-06-08T10:12:37Z</time>
      </trkpt>
      <trkpt lat="45.96246" lon="1.38362">
        <ele>439.7991027832</ele>
        <time>2014-06-08T10:12:43Z</time>
      </trkpt>
      <trkpt lat="45.96246" lon="1.38366">
        <ele>439.58853149414</ele>
        <time>2014-06-08T10:12:44Z</time>
      </trkpt>
      <trkpt lat="45.96251" lon="1.38389">
        <ele>438.75973510742</ele>
        <time>2014-06-08T10:12:51Z</time>
      </trkpt>
      <trkpt lat="45.96247" lon="1.38413">
        <ele>436.91403198242</ele>
        <time>2014-06-08T10:12:57Z</time>
      </trkpt>
      <trkpt lat="45.96243" lon="1.38431">
        <ele>436.00512695312</ele>
        <time>2014-06-08T10:13:02Z</time>
      </trkpt>
      <trkpt lat="45.96239" lon="1.3845">
        <ele>435.33239746094</ele>
        <time>2014-06-08T10:13:08Z</time>
      </trkpt>
      <trkpt lat="45.96233" lon="1.38466">
        <ele>434.70272827148</ele>
        <time>2014-06-08T10:13:13Z</time>
      </trkpt>
      <trkpt lat="45.9623" lon="1.38483">
        <ele>434.39346313477</ele>
        <time>2014-06-08T10:13:18Z</time>
      </trkpt>
      <trkpt lat="45.96229" lon="1.38486">
        <ele>434.33444213867</ele>
        <time>2014-06-08T10:13:19Z</time>
      </trkpt>
      <trkpt lat="45.96222" lon="1.38496">
        <ele>434.00326538086</ele>
        <time>2014-06-08T10:13:25Z</time>
      </trkpt>
      <trkpt lat="45.96218" lon="1.38501">
        <ele>433.84414672852</ele>
        <time>2014-06-08T10:13:30Z</time>
      </trkpt>
      <trkpt lat="45.96217" lon="1.38503">
        <ele>433.83056640625</ele>
        <time>2014-06-08T10:13:31Z</time>
      </trkpt>
      <trkpt lat="45.96204" lon="1.38514">
        <ele>433.55139160156</ele>
        <time>2014-06-08T10:13:37Z</time>
      </trkpt>
      <trkpt lat="45.96192" lon="1.38523">
        <ele>433.40560913086</ele>
        <time>2014-06-08T10:13:42Z</time>
      </trkpt>
      <trkpt lat="45.96175" lon="1.38535">
        <ele>433.39657592773</ele>
        <time>2014-06-08T10:13:49Z</time>
      </trkpt>
      <trkpt lat="45.96161" lon="1.38542">
        <ele>433.18789672852</ele>
        <time>2014-06-08T10:13:56Z</time>
      </trkpt>
      <trkpt lat="45.96149" lon="1.38548">
        <ele>432.7568359375</ele>
        <time>2014-06-08T10:14:01Z</time>
      </trkpt>
      <trkpt lat="45.96135" lon="1.38556">
        <ele>432.34030151367</ele>
        <time>2014-06-08T10:14:07Z</time>
      </trkpt>
      <trkpt lat="45.96122" lon="1.38564">
        <ele>432.00213623047</ele>
        <time>2014-06-08T10:14:13Z</time>
      </trkpt>
      <trkpt lat="45.96107" lon="1.38569">
        <ele>431.51721191406</ele>
        <time>2014-06-08T10:14:18Z</time>
      </trkpt>
      <trkpt lat="45.96093" lon="1.38574">
        <ele>431.04458618164</ele>
        <time>2014-06-08T10:14:23Z</time>
      </trkpt>
      <trkpt lat="45.96086" lon="1.38579">
        <ele>430.89019775391</ele>
        <time>2014-06-08T10:14:29Z</time>
      </trkpt>
      <trkpt lat="45.96075" lon="1.38582">
        <ele>430.94873046875</ele>
        <time>2014-06-08T10:14:37Z</time>
      </trkpt>
      <trkpt lat="45.96066" lon="1.38587">
        <ele>430.84204101562</ele>
        <time>2014-06-08T10:14:44Z</time>
      </trkpt>
      <trkpt lat="45.96054" lon="1.38591">
        <ele>430.68859863281</ele>
        <time>2014-06-08T10:14:49Z</time>
      </trkpt>
      <trkpt lat="45.9604" lon="1.38595">
        <ele>430.59826660156</ele>
        <time>2014-06-08T10:14:55Z</time>
      </trkpt>
      <trkpt lat="45.96028" lon="1.386">
        <ele>430.53778076172</ele>
        <time>2014-06-08T10:15:00Z</time>
      </trkpt>
      <trkpt lat="45.96016" lon="1.38606">
        <ele>430.51171875</ele>
        <time>2014-06-08T10:15:05Z</time>
      </trkpt>
      <trkpt lat="45.95998" lon="1.38614">
        <ele>430.55139160156</ele>
        <time>2014-06-08T10:15:13Z</time>
      </trkpt>
      <trkpt lat="45.95981" lon="1.38625">
        <ele>430.14877319336</ele>
        <time>2014-06-08T10:15:20Z</time>
      </trkpt>
      <trkpt lat="45.95971" lon="1.38635">
        <ele>430.23690795898</ele>
        <time>2014-06-08T10:15:25Z</time>
      </trkpt>
      <trkpt lat="45.95961" lon="1.38647">
        <ele>430.64752197266</ele>
        <time>2014-06-08T10:15:30Z</time>
      </trkpt>
      <trkpt lat="45.95947" lon="1.38661">
        <ele>431.60665893555</ele>
        <time>2014-06-08T10:15:37Z</time>
      </trkpt>
      <trkpt lat="45.95941" lon="1.38667">
        <ele>432.1318359375</ele>
        <time>2014-06-08T10:15:41Z</time>
      </trkpt>
      <trkpt lat="45.95936" lon="1.38673">
        <ele>432.33889770508</ele>
        <time>2014-06-08T10:15:46Z</time>
      </trkpt>
      <trkpt lat="45.95932" lon="1.38677">
        <ele>432.53497314453</ele>
        <time>2014-06-08T10:15:50Z</time>
      </trkpt>
      <trkpt lat="45.95924" lon="1.38685">
        <ele>433.04861450195</ele>
        <time>2014-06-08T10:15:55Z</time>
      </trkpt>
      <trkpt lat="45.95914" lon="1.38697">
        <ele>433.50570678711</ele>
        <time>2014-06-08T10:16:00Z</time>
      </trkpt>
      <trkpt lat="45.95902" lon="1.38711">
        <ele>432.93963623047</ele>
        <time>2014-06-08T10:16:06Z</time>
      </trkpt>
      <trkpt lat="45.95892" lon="1.38724">
        <ele>432.63262939453</ele>
        <time>2014-06-08T10:16:11Z</time>
      </trkpt>
      <trkpt lat="45.95882" lon="1.38738">
        <ele>432.42547607422</ele>
        <time>2014-06-08T10:16:16Z</time>
      </trkpt>
      <trkpt lat="45.95868" lon="1.38751">
        <ele>432.01727294922</ele>
        <time>2014-06-08T10:16:22Z</time>
      </trkpt>
      <trkpt lat="45.95858" lon="1.38764">
        <ele>430.80410766602</ele>
        <time>2014-06-08T10:16:27Z</time>
      </trkpt>
      <trkpt lat="45.95846" lon="1.38778">
        <ele>429.75387573242</ele>
        <time>2014-06-08T10:16:33Z</time>
      </trkpt>
      <trkpt lat="45.95834" lon="1.38791">
        <ele>429.01062011719</ele>
        <time>2014-06-08T10:16:39Z</time>
      </trkpt>
      <trkpt lat="45.95824" lon="1.38803">
        <ele>428.27633666992</ele>
        <time>2014-06-08T10:16:44Z</time>
      </trkpt>
      <trkpt lat="45.95813" lon="1.38819">
        <ele>427.603515625</ele>
        <time>2014-06-08T10:16:50Z</time>
      </trkpt>
      <trkpt lat="45.95805" lon="1.38835">
        <ele>427.19921875</ele>
        <time>2014-06-08T10:16:55Z</time>
      </trkpt>
      <trkpt lat="45.95794" lon="1.38847">
        <ele>426.10897827148</ele>
        <time>2014-06-08T10:17:00Z</time>
      </trkpt>
      <trkpt lat="45.95787" lon="1.3886">
        <ele>425.27481079102</ele>
        <time>2014-06-08T10:17:04Z</time>
      </trkpt>
      <trkpt lat="45.95777" lon="1.38875">
        <ele>424.52420043945</ele>
        <time>2014-06-08T10:17:09Z</time>
      </trkpt>
      <trkpt lat="45.95767" lon="1.38886">
        <ele>424.25625610352</ele>
        <time>2014-06-08T10:17:14Z</time>
      </trkpt>
      <trkpt lat="45.95756" lon="1.38898">
        <ele>424.20077514648</ele>
        <time>2014-06-08T10:17:20Z</time>
      </trkpt>
      <trkpt lat="45.9574" lon="1.3891">
        <ele>424.193359375</ele>
        <time>2014-06-08T10:17:26Z</time>
      </trkpt>
      <trkpt lat="45.95731" lon="1.38918">
        <ele>424.15380859375</ele>
        <time>2014-06-08T10:17:30Z</time>
      </trkpt>
      <trkpt lat="45.95716" lon="1.38928">
        <ele>424.01168823242</ele>
        <time>2014-06-08T10:17:36Z</time>
      </trkpt>
      <trkpt lat="45.95708" lon="1.38935">
        <ele>424.08352661133</ele>
        <time>2014-06-08T10:17:40Z</time>
      </trkpt>
      <trkpt lat="45.95695" lon="1.38942">
        <ele>424.53485107422</ele>
        <time>2014-06-08T10:17:45Z</time>
      </trkpt>
      <trkpt lat="45.95684" lon="1.3895">
        <ele>425.15966796875</ele>
        <time>2014-06-08T10:17:50Z</time>
      </trkpt>
      <trkpt lat="45.9569" lon="1.38958">
        <ele>424.83633422852</ele>
        <time>2014-06-08T10:17:54Z</time>
      </trkpt>
      <trkpt lat="45.95697" lon="1.38973">
        <ele>424.16683959961</ele>
        <time>2014-06-08T10:17:59Z</time>
      </trkpt>
      <trkpt lat="45.95702" lon="1.38983">
        <ele>423.58911132812</ele>
        <time>2014-06-08T10:18:03Z</time>
      </trkpt>
      <trkpt lat="45.95708" lon="1.38993">
        <ele>422.70455932617</ele>
        <time>2014-06-08T10:18:07Z</time>
      </trkpt>
      <trkpt lat="45.95711" lon="1.39004">
        <ele>421.94857788086</ele>
        <time>2014-06-08T10:18:11Z</time>
      </trkpt>
      <trkpt lat="45.95713" lon="1.39018">
        <ele>421.02395629883</ele>
        <time>2014-06-08T10:18:15Z</time>
      </trkpt>
      <trkpt lat="45.95718" lon="1.39035">
        <ele>419.57006835938</ele>
        <time>2014-06-08T10:18:20Z</time>
      </trkpt>
      <trkpt lat="45.95718" lon="1.39038">
        <ele>419.40698242188</ele>
        <time>2014-06-08T10:18:21Z</time>
      </trkpt>
      <trkpt lat="45.95719" lon="1.3906">
        <ele>418.08389282227</ele>
        <time>2014-06-08T10:18:26Z</time>
      </trkpt>
      <trkpt lat="45.95717" lon="1.39081">
        <ele>417.46118164062</ele>
        <time>2014-06-08T10:18:31Z</time>
      </trkpt>
      <trkpt lat="45.95718" lon="1.39093">
        <ele>416.68545532227</ele>
        <time>2014-06-08T10:18:35Z</time>
      </trkpt>
      <trkpt lat="45.95718" lon="1.391">
        <ele>416.20239257812</ele>
        <time>2014-06-08T10:18:37Z</time>
      </trkpt>
      <trkpt lat="45.95724" lon="1.39102">
        <ele>415.0983581543</ele>
        <time>2014-06-08T10:18:42Z</time>
      </trkpt>
      <trkpt lat="45.95731" lon="1.39092">
        <ele>414.12850952148</ele>
        <time>2014-06-08T10:18:47Z</time>
      </trkpt>
      <trkpt lat="45.95734" lon="1.39087">
        <ele>413.81301879883</ele>
        <time>2014-06-08T10:18:49Z</time>
      </trkpt>
      <trkpt lat="45.95748" lon="1.39073">
        <ele>412.10845947266</ele>
        <time>2014-06-08T10:18:56Z</time>
      </trkpt>
      <trkpt lat="45.9576" lon="1.39063">
        <ele>411.12161254883</ele>
        <time>2014-06-08T10:19:02Z</time>
      </trkpt>
      <trkpt lat="45.95773" lon="1.3907">
        <ele>408.61697387695</ele>
        <time>2014-06-08T10:19:07Z</time>
      </trkpt>
      <trkpt lat="45.95784" lon="1.39082">
        <ele>405.87976074219</ele>
        <time>2014-06-08T10:19:12Z</time>
      </trkpt>
      <trkpt lat="45.95786" lon="1.39085">
        <ele>405.26031494141</ele>
        <time>2014-06-08T10:19:13Z</time>
      </trkpt>
      <trkpt lat="45.95788" lon="1.39091">
        <ele>404.67208862305</ele>
        <time>2014-06-08T10:19:15Z</time>
      </trkpt>
      <trkpt lat="45.95782" lon="1.39103">
        <ele>405.11666870117</ele>
        <time>2014-06-08T10:19:19Z</time>
      </trkpt>
      <trkpt lat="45.95778" lon="1.39112">
        <ele>405.22882080078</ele>
        <time>2014-06-08T10:19:21Z</time>
      </trkpt>
      <trkpt lat="45.95774" lon="1.39136">
        <ele>404.67437744141</ele>
        <time>2014-06-08T10:19:27Z</time>
      </trkpt>
      <trkpt lat="45.9577" lon="1.39149">
        <ele>404.75161743164</ele>
        <time>2014-06-08T10:19:32Z</time>
      </trkpt>
      <trkpt lat="45.95763" lon="1.39168">
        <ele>404.85729980469</ele>
        <time>2014-06-08T10:19:38Z</time>
      </trkpt>
      <trkpt lat="45.95757" lon="1.39185">
        <ele>404.24099731445</ele>
        <time>2014-06-08T10:19:43Z</time>
      </trkpt>
      <trkpt lat="45.95747" lon="1.39205">
        <ele>403.34671020508</ele>
        <time>2014-06-08T10:19:49Z</time>
      </trkpt>
      <trkpt lat="45.95737" lon="1.39218">
        <ele>403.25189208984</ele>
        <time>2014-06-08T10:19:54Z</time>
      </trkpt>
      <trkpt lat="45.95729" lon="1.39231">
        <ele>402.806640625</ele>
        <time>2014-06-08T10:19:59Z</time>
      </trkpt>
      <trkpt lat="45.95715" lon="1.39243">
        <ele>403.07257080078</ele>
        <time>2014-06-08T10:20:05Z</time>
      </trkpt>
      <trkpt lat="45.95703" lon="1.39255">
        <ele>402.89791870117</ele>
        <time>2014-06-08T10:20:11Z</time>
      </trkpt>
      <trkpt lat="45.95692" lon="1.3927">
        <ele>401.23840332031</ele>
        <time>2014-06-08T10:20:17Z</time>
      </trkpt>
      <trkpt lat="45.9568" lon="1.39286">
        <ele>399.08953857422</ele>
        <time>2014-06-08T10:20:23Z</time>
      </trkpt>
      <trkpt lat="45.95671" lon="1.39299">
        <ele>396.73043823242</ele>
        <time>2014-06-08T10:20:28Z</time>
      </trkpt>
      <trkpt lat="45.95666" lon="1.39309">
        <ele>394.59823608398</ele>
        <time>2014-06-08T10:20:32Z</time>
      </trkpt>
      <trkpt lat="45.95657" lon="1.3933">
        <ele>390.75762939453</ele>
        <time>2014-06-08T10:20:38Z</time>
      </trkpt>
      <trkpt lat="45.95644" lon="1.3934">
        <ele>390.76467895508</ele>
        <time>2014-06-08T10:20:43Z</time>
      </trkpt>
      <trkpt lat="45.95632" lon="1.39347">
        <ele>391.28759765625</ele>
        <time>2014-06-08T10:20:48Z</time>
      </trkpt>
      <trkpt lat="45.9562" lon="1.39351">
        <ele>391.84582519531</ele>
        <time>2014-06-08T10:20:52Z</time>
      </trkpt>
      <trkpt lat="45.95612" lon="1.39357">
        <ele>391.88330078125</ele>
        <time>2014-06-08T10:20:56Z</time>
      </trkpt>
      <trkpt lat="45.95601" lon="1.39362">
        <ele>392.12478637695</ele>
        <time>2014-06-08T10:21:00Z</time>
      </trkpt>
      <trkpt lat="45.95587" lon="1.39359">
        <ele>393.33779907227</ele>
        <time>2014-06-08T10:21:05Z</time>
      </trkpt>
      <trkpt lat="45.95576" lon="1.39355">
        <ele>394.64016723633</ele>
        <time>2014-06-08T10:21:10Z</time>
      </trkpt>
      <trkpt lat="45.95567" lon="1.39352">
        <ele>395.67785644531</ele>
        <time>2014-06-08T10:21:14Z</time>
      </trkpt>
      <trkpt lat="45.95559" lon="1.39349">
        <ele>396.78164672852</ele>
        <time>2014-06-08T10:21:21Z</time>
      </trkpt>
      <trkpt lat="45.95553" lon="1.39347">
        <ele>397.32821655273</ele>
        <time>2014-06-08T10:21:25Z</time>
      </trkpt>
      <trkpt lat="45.95544" lon="1.3934">
        <ele>399.0251159668</ele>
        <time>2014-06-08T10:21:32Z</time>
      </trkpt>
      <trkpt lat="45.95538" lon="1.39334">
        <ele>400.14434814453</ele>
        <time>2014-06-08T10:21:37Z</time>
      </trkpt>
      <trkpt lat="45.95531" lon="1.3933">
        <ele>401.20782470703</ele>
        <time>2014-06-08T10:21:42Z</time>
      </trkpt>
      <trkpt lat="45.95523" lon="1.39323">
        <ele>402.6767578125</ele>
        <time>2014-06-08T10:21:50Z</time>
      </trkpt>
      <trkpt lat="45.95523" lon="1.39322">
        <ele>402.79476928711</ele>
        <time>2014-06-08T10:21:51Z</time>
      </trkpt>
      <trkpt lat="45.95516" lon="1.39318">
        <ele>403.814453125</ele>
        <time>2014-06-08T10:21:59Z</time>
      </trkpt>
      <trkpt lat="45.95515" lon="1.39317">
        <ele>403.94946289062</ele>
        <time>2014-06-08T10:22:00Z</time>
      </trkpt>
      <trkpt lat="45.95508" lon="1.39313">
        <ele>404.89974975586</ele>
        <time>2014-06-08T10:22:06Z</time>
      </trkpt>
      <trkpt lat="45.95503" lon="1.39311">
        <ele>405.44744873047</ele>
        <time>2014-06-08T10:22:11Z</time>
      </trkpt>
      <trkpt lat="45.95498" lon="1.39307">
        <ele>406.51879882812</ele>
        <time>2014-06-08T10:22:17Z</time>
      </trkpt>
      <trkpt lat="45.95492" lon="1.39306">
        <ele>407.34423828125</ele>
        <time>2014-06-08T10:22:23Z</time>
      </trkpt>
      <trkpt lat="45.95486" lon="1.39309">
        <ele>407.83093261719</ele>
        <time>2014-06-08T10:22:30Z</time>
      </trkpt>
      <trkpt lat="45.95482" lon="1.3931">
        <ele>408.12973022461</ele>
        <time>2014-06-08T10:22:33Z</time>
      </trkpt>
      <trkpt lat="45.95475" lon="1.3931">
        <ele>408.99298095703</ele>
        <time>2014-06-08T10:22:40Z</time>
      </trkpt>
      <trkpt lat="45.95473" lon="1.3931">
        <ele>409.39410400391</ele>
        <time>2014-06-08T10:22:45Z</time>
      </trkpt>
      <trkpt lat="45.9547" lon="1.3931">
        <ele>409.73858642578</ele>
        <time>2014-06-08T10:22:49Z</time>
      </trkpt>
      <trkpt lat="45.95465" lon="1.39309">
        <ele>410.40713500977</ele>
        <time>2014-06-08T10:22:54Z</time>
      </trkpt>
      <trkpt lat="45.95461" lon="1.39308">
        <ele>411.09469604492</ele>
        <time>2014-06-08T10:22:59Z</time>
      </trkpt>
      <trkpt lat="45.95456" lon="1.39306">
        <ele>411.88708496094</ele>
        <time>2014-06-08T10:23:06Z</time>
      </trkpt>
      <trkpt lat="45.95452" lon="1.39308">
        <ele>412.24737548828</ele>
        <time>2014-06-08T10:23:12Z</time>
      </trkpt>
      <trkpt lat="45.9545" lon="1.39314">
        <ele>411.98519897461</ele>
        <time>2014-06-08T10:23:18Z</time>
      </trkpt>
      <trkpt lat="45.95446" lon="1.39316">
        <ele>412.22994995117</ele>
        <time>2014-06-08T10:23:23Z</time>
      </trkpt>
      <trkpt lat="45.9544" lon="1.39318">
        <ele>412.88595581055</ele>
        <time>2014-06-08T10:23:29Z</time>
      </trkpt>
      <trkpt lat="45.95434" lon="1.39321">
        <ele>413.45556640625</ele>
        <time>2014-06-08T10:23:36Z</time>
      </trkpt>
      <trkpt lat="45.95428" lon="1.3932">
        <ele>414.38397216797</ele>
        <time>2014-06-08T10:23:42Z</time>
      </trkpt>
      <trkpt lat="45.95424" lon="1.39317">
        <ele>415.28332519531</ele>
        <time>2014-06-08T10:23:46Z</time>
      </trkpt>
      <trkpt lat="45.9542" lon="1.39314">
        <ele>416.0166015625</ele>
        <time>2014-06-08T10:23:52Z</time>
      </trkpt>
      <trkpt lat="45.95415" lon="1.39312">
        <ele>416.57675170898</ele>
        <time>2014-06-08T10:23:58Z</time>
      </trkpt>
      <trkpt lat="45.95409" lon="1.39307">
        <ele>416.95687866211</ele>
        <time>2014-06-08T10:24:04Z</time>
      </trkpt>
      <trkpt lat="45.95404" lon="1.39297">
        <ele>417.59112548828</ele>
        <time>2014-06-08T10:24:10Z</time>
      </trkpt>
      <trkpt lat="45.95403" lon="1.39286">
        <ele>418.26983642578</ele>
        <time>2014-06-08T10:24:15Z</time>
      </trkpt>
      <trkpt lat="45.95404" lon="1.39283">
        <ele>418.44927978516</ele>
        <time>2014-06-08T10:24:16Z</time>
      </trkpt>
      <trkpt lat="45.95408" lon="1.39269">
        <ele>419.40701293945</ele>
        <time>2014-06-08T10:24:21Z</time>
      </trkpt>
      <trkpt lat="45.95411" lon="1.39251">
        <ele>420.72991943359</ele>
        <time>2014-06-08T10:24:27Z</time>
      </trkpt>
      <trkpt lat="45.95414" lon="1.39235">
        <ele>420.71307373047</ele>
        <time>2014-06-08T10:24:32Z</time>
      </trkpt>
      <trkpt lat="45.95414" lon="1.39218">
        <ele>420.51208496094</ele>
        <time>2014-06-08T10:24:37Z</time>
      </trkpt>
      <trkpt lat="45.95412" lon="1.39196">
        <ele>420.13439941406</ele>
        <time>2014-06-08T10:24:43Z</time>
      </trkpt>
      <trkpt lat="45.95412" lon="1.39193">
        <ele>420.0705871582</ele>
        <time>2014-06-08T10:24:44Z</time>
      </trkpt>
      <trkpt lat="45.95401" lon="1.39182">
        <ele>419.3369140625</ele>
        <time>2014-06-08T10:24:49Z</time>
      </trkpt>
      <trkpt lat="45.95393" lon="1.39173">
        <ele>418.69332885742</ele>
        <time>2014-06-08T10:24:52Z</time>
      </trkpt>
      <trkpt lat="45.95377" lon="1.3915">
        <ele>416.61337280273</ele>
        <time>2014-06-08T10:24:59Z</time>
      </trkpt>
      <trkpt lat="45.95369" lon="1.39136">
        <ele>415.2041015625</ele>
        <time>2014-06-08T10:25:03Z</time>
      </trkpt>
      <trkpt lat="45.95357" lon="1.39117">
        <ele>413.20648193359</ele>
        <time>2014-06-08T10:25:08Z</time>
      </trkpt>
      <trkpt lat="45.95346" lon="1.39104">
        <ele>411.54327392578</ele>
        <time>2014-06-08T10:25:12Z</time>
      </trkpt>
      <trkpt lat="45.9533" lon="1.39084">
        <ele>408.89312744141</ele>
        <time>2014-06-08T10:25:18Z</time>
      </trkpt>
      <trkpt lat="45.95312" lon="1.39063">
        <ele>406.82223510742</ele>
        <time>2014-06-08T10:25:25Z</time>
      </trkpt>
      <trkpt lat="45.95299" lon="1.39064">
        <ele>406.31607055664</ele>
        <time>2014-06-08T10:25:29Z</time>
      </trkpt>
      <trkpt lat="45.95283" lon="1.39072">
        <ele>406.0090637207</ele>
        <time>2014-06-08T10:25:34Z</time>
      </trkpt>
      <trkpt lat="45.95264" lon="1.39073">
        <ele>405.17327880859</ele>
        <time>2014-06-08T10:25:40Z</time>
      </trkpt>
      <trkpt lat="45.9525" lon="1.39083">
        <ele>404.95816040039</ele>
        <time>2014-06-08T10:25:45Z</time>
      </trkpt>
      <trkpt lat="45.95246" lon="1.39087">
        <ele>404.68835449219</ele>
        <time>2014-06-08T10:25:47Z</time>
      </trkpt>
      <trkpt lat="45.9524" lon="1.39077">
        <ele>403.67022705078</ele>
        <time>2014-06-08T10:25:51Z</time>
      </trkpt>
      <trkpt lat="45.95238" lon="1.39063">
        <ele>402.77783203125</ele>
        <time>2014-06-08T10:25:54Z</time>
      </trkpt>
      <trkpt lat="45.95239" lon="1.39028">
        <ele>401.23684692383</ele>
        <time>2014-06-08T10:26:00Z</time>
      </trkpt>
      <trkpt lat="45.95239" lon="1.39016">
        <ele>400.73452758789</ele>
        <time>2014-06-08T10:26:02Z</time>
      </trkpt>
      <trkpt lat="45.95238" lon="1.38978">
        <ele>399.47421264648</ele>
        <time>2014-06-08T10:26:08Z</time>
      </trkpt>
      <trkpt lat="45.9523" lon="1.38953">
        <ele>398.33435058594</ele>
        <time>2014-06-08T10:26:12Z</time>
      </trkpt>
      <trkpt lat="45.9522" lon="1.38939">
        <ele>397.43112182617</ele>
        <time>2014-06-08T10:26:16Z</time>
      </trkpt>
      <trkpt lat="45.95218" lon="1.38936">
        <ele>397.2688293457</ele>
        <time>2014-06-08T10:26:17Z</time>
      </trkpt>
      <trkpt lat="45.95209" lon="1.38928">
        <ele>396.59658813477</ele>
        <time>2014-06-08T10:26:22Z</time>
      </trkpt>
      <trkpt lat="45.95207" lon="1.38925">
        <ele>396.47860717773</ele>
        <time>2014-06-08T10:26:24Z</time>
      </trkpt>
      <trkpt lat="45.95203" lon="1.38923">
        <ele>396.2282409668</ele>
        <time>2014-06-08T10:26:28Z</time>
      </trkpt>
      <trkpt lat="45.95199" lon="1.38919">
        <ele>395.9338684082</ele>
        <time>2014-06-08T10:26:34Z</time>
      </trkpt>
    </trkseg>
  </trk>
</gpx>